<?xml version="1.0" encoding="UTF-8" standalone="no" ?>
<gpx xmlns="http://www.topografix.com/GPX/1/1" xmlns:xsi="http://www.w3.org/2001/XMLSchema-instance" xsi:schemaLocation="http://www.topografix.com/GPX/1/1 http://www.topografix.com/GPX/1/1/gpx.xsd" version="1.1" creator="VisuGPX - https://www.visugpx.com">
  <metadata>
    <name>Pornichet 05/07/2020</name>
    <desc><![CDATA[Sortie VTT du dimanche 05 juillet 2020]]></desc>
  </metadata>
  <trk>
    <name><![CDATA[Pornichet Cyclisme]]></name>
    <trkseg>
      <trkpt lat="47.26411" lon="-2.31568">
        <ele>9.8</ele>
        <time>2020-07-05T06:53:20.000Z</time>
      </trkpt>
      <trkpt lat="47.26412" lon="-2.31589">
        <ele>9.8</ele>
        <time>2020-07-05T06:53:24.000Z</time>
      </trkpt>
      <trkpt lat="47.26412" lon="-2.31593">
        <ele>1.6000000238419</ele>
        <time>2020-07-05T06:53:25.000Z</time>
      </trkpt>
      <trkpt lat="47.26411" lon="-2.31598">
        <ele>3.2000000476837</ele>
        <time>2020-07-05T06:53:26.000Z</time>
      </trkpt>
      <trkpt lat="47.26411" lon="-2.31603">
        <ele>4.5999999046326</ele>
        <time>2020-07-05T06:53:27.000Z</time>
      </trkpt>
      <trkpt lat="47.26411" lon="-2.31607">
        <ele>6.1999998092651</ele>
        <time>2020-07-05T06:53:28.000Z</time>
      </trkpt>
      <trkpt lat="47.26411" lon="-2.31634">
        <ele>6.1999998092651</ele>
        <time>2020-07-05T06:53:34.000Z</time>
      </trkpt>
      <trkpt lat="47.2641" lon="-2.31663">
        <ele>6.1999998092651</ele>
        <time>2020-07-05T06:53:41.000Z</time>
      </trkpt>
      <trkpt lat="47.26402" lon="-2.3167">
        <ele>6.1999998092651</ele>
        <time>2020-07-05T06:53:44.000Z</time>
      </trkpt>
      <trkpt lat="47.26398" lon="-2.31671">
        <ele>6.1999998092651</ele>
        <time>2020-07-05T06:53:45.000Z</time>
      </trkpt>
      <trkpt lat="47.26382" lon="-2.31681">
        <ele>6.1999998092651</ele>
        <time>2020-07-05T06:53:49.000Z</time>
      </trkpt>
      <trkpt lat="47.26376" lon="-2.31683">
        <ele>4.5999999046326</ele>
        <time>2020-07-05T06:53:50.000Z</time>
      </trkpt>
      <trkpt lat="47.26371" lon="-2.31686">
        <ele>3</ele>
        <time>2020-07-05T06:53:51.000Z</time>
      </trkpt>
      <trkpt lat="47.26366" lon="-2.31689">
        <ele>1.3999999761581</ele>
        <time>2020-07-05T06:53:52.000Z</time>
      </trkpt>
      <trkpt lat="47.26361" lon="-2.31692">
        <ele>-0.20000000298023</ele>
        <time>2020-07-05T06:53:53.000Z</time>
      </trkpt>
      <trkpt lat="47.26357" lon="-2.31695">
        <ele>-2</ele>
        <time>2020-07-05T06:53:54.000Z</time>
      </trkpt>
      <trkpt lat="47.26343" lon="-2.31703">
        <ele>-2</ele>
        <time>2020-07-05T06:53:57.000Z</time>
      </trkpt>
      <trkpt lat="47.26326" lon="-2.3171">
        <ele>-2</ele>
        <time>2020-07-05T06:54:00.000Z</time>
      </trkpt>
      <trkpt lat="47.26309" lon="-2.31719">
        <ele>-2.4000000953674</ele>
        <time>2020-07-05T06:54:04.000Z</time>
      </trkpt>
      <trkpt lat="47.26306" lon="-2.31722">
        <ele>-2.7999999523163</ele>
        <time>2020-07-05T06:54:05.000Z</time>
      </trkpt>
      <trkpt lat="47.26304" lon="-2.31726">
        <ele>-3.2000000476837</ele>
        <time>2020-07-05T06:54:06.000Z</time>
      </trkpt>
      <trkpt lat="47.26303" lon="-2.31731">
        <ele>-3.5999999046326</ele>
        <time>2020-07-05T06:54:07.000Z</time>
      </trkpt>
      <trkpt lat="47.26303" lon="-2.31735">
        <ele>-4</ele>
        <time>2020-07-05T06:54:08.000Z</time>
      </trkpt>
      <trkpt lat="47.26305" lon="-2.31766">
        <ele>-4</ele>
        <time>2020-07-05T06:54:14.000Z</time>
      </trkpt>
      <trkpt lat="47.26305" lon="-2.31802">
        <ele>-4</ele>
        <time>2020-07-05T06:54:20.000Z</time>
      </trkpt>
      <trkpt lat="47.26303" lon="-2.31838">
        <ele>-4</ele>
        <time>2020-07-05T06:54:26.000Z</time>
      </trkpt>
      <trkpt lat="47.26303" lon="-2.31862">
        <ele>-4.4000000953674</ele>
        <time>2020-07-05T06:54:30.000Z</time>
      </trkpt>
      <trkpt lat="47.26304" lon="-2.31867">
        <ele>-4.8000001907349</ele>
        <time>2020-07-05T06:54:31.000Z</time>
      </trkpt>
      <trkpt lat="47.26303" lon="-2.31872">
        <ele>-5.1999998092651</ele>
        <time>2020-07-05T06:54:32.000Z</time>
      </trkpt>
      <trkpt lat="47.26301" lon="-2.31875">
        <ele>-5.5999999046326</ele>
        <time>2020-07-05T06:54:33.000Z</time>
      </trkpt>
      <trkpt lat="47.26299" lon="-2.31879">
        <ele>-6</ele>
        <time>2020-07-05T06:54:34.000Z</time>
      </trkpt>
      <trkpt lat="47.26292" lon="-2.31886">
        <ele>-6</ele>
        <time>2020-07-05T06:54:37.000Z</time>
      </trkpt>
      <trkpt lat="47.26279" lon="-2.31904">
        <ele>-6</ele>
        <time>2020-07-05T06:54:42.000Z</time>
      </trkpt>
      <trkpt lat="47.26263" lon="-2.3193">
        <ele>-6</ele>
        <time>2020-07-05T06:54:49.000Z</time>
      </trkpt>
      <trkpt lat="47.26255" lon="-2.31948">
        <ele>-6</ele>
        <time>2020-07-05T06:54:53.000Z</time>
      </trkpt>
      <trkpt lat="47.26247" lon="-2.31959">
        <ele>-6</ele>
        <time>2020-07-05T06:54:57.000Z</time>
      </trkpt>
      <trkpt lat="47.26244" lon="-2.31961">
        <ele>-6</ele>
        <time>2020-07-05T06:54:58.000Z</time>
      </trkpt>
      <trkpt lat="47.26227" lon="-2.31976">
        <ele>-6</ele>
        <time>2020-07-05T06:55:04.000Z</time>
      </trkpt>
      <trkpt lat="47.2621" lon="-2.31993">
        <ele>-6</ele>
        <time>2020-07-05T06:55:10.000Z</time>
      </trkpt>
      <trkpt lat="47.2621" lon="-2.31997">
        <ele>-6</ele>
        <time>2020-07-05T06:55:11.000Z</time>
      </trkpt>
      <trkpt lat="47.26207" lon="-2.32005">
        <ele>-6</ele>
        <time>2020-07-05T06:55:14.000Z</time>
      </trkpt>
      <trkpt lat="47.26205" lon="-2.32006">
        <ele>-6.4000000953674</ele>
        <time>2020-07-05T06:55:15.000Z</time>
      </trkpt>
      <trkpt lat="47.26204" lon="-2.32006">
        <ele>-6.8000001907349</ele>
        <time>2020-07-05T06:55:16.000Z</time>
      </trkpt>
      <trkpt lat="47.26202" lon="-2.32006">
        <ele>-7.1999998092651</ele>
        <time>2020-07-05T06:55:17.000Z</time>
      </trkpt>
      <trkpt lat="47.26201" lon="-2.32007">
        <ele>-7.5999999046326</ele>
        <time>2020-07-05T06:55:18.000Z</time>
      </trkpt>
      <trkpt lat="47.26199" lon="-2.32007">
        <ele>-8</ele>
        <time>2020-07-05T06:55:19.000Z</time>
      </trkpt>
      <trkpt lat="47.26183" lon="-2.32016">
        <ele>-8</ele>
        <time>2020-07-05T06:55:24.000Z</time>
      </trkpt>
      <trkpt lat="47.26166" lon="-2.32033">
        <ele>-8</ele>
        <time>2020-07-05T06:55:28.000Z</time>
      </trkpt>
      <trkpt lat="47.26153" lon="-2.3206">
        <ele>-8</ele>
        <time>2020-07-05T06:55:33.000Z</time>
      </trkpt>
      <trkpt lat="47.26137" lon="-2.32105">
        <ele>-8</ele>
        <time>2020-07-05T06:55:41.000Z</time>
      </trkpt>
      <trkpt lat="47.26121" lon="-2.3215">
        <ele>-8</ele>
        <time>2020-07-05T06:55:49.000Z</time>
      </trkpt>
      <trkpt lat="47.26107" lon="-2.32183">
        <ele>-8</ele>
        <time>2020-07-05T06:55:55.000Z</time>
      </trkpt>
      <trkpt lat="47.26099" lon="-2.32198">
        <ele>-8</ele>
        <time>2020-07-05T06:55:58.000Z</time>
      </trkpt>
      <trkpt lat="47.2609" lon="-2.32212">
        <ele>-8</ele>
        <time>2020-07-05T06:56:01.000Z</time>
      </trkpt>
      <trkpt lat="47.26081" lon="-2.32226">
        <ele>-8</ele>
        <time>2020-07-05T06:56:04.000Z</time>
      </trkpt>
      <trkpt lat="47.26072" lon="-2.32238">
        <ele>-8</ele>
        <time>2020-07-05T06:56:07.000Z</time>
      </trkpt>
      <trkpt lat="47.26044" lon="-2.32271">
        <ele>-8</ele>
        <time>2020-07-05T06:56:15.000Z</time>
      </trkpt>
      <trkpt lat="47.26022" lon="-2.32297">
        <ele>-8</ele>
        <time>2020-07-05T06:56:21.000Z</time>
      </trkpt>
      <trkpt lat="47.26012" lon="-2.32308">
        <ele>-8</ele>
        <time>2020-07-05T06:56:24.000Z</time>
      </trkpt>
      <trkpt lat="47.25988" lon="-2.32341">
        <ele>-8</ele>
        <time>2020-07-05T06:56:31.000Z</time>
      </trkpt>
      <trkpt lat="47.25961" lon="-2.32376">
        <ele>-8</ele>
        <time>2020-07-05T06:56:39.000Z</time>
      </trkpt>
      <trkpt lat="47.2593" lon="-2.32419">
        <ele>-8</ele>
        <time>2020-07-05T06:56:49.000Z</time>
      </trkpt>
      <trkpt lat="47.25906" lon="-2.32448">
        <ele>-8</ele>
        <time>2020-07-05T06:56:57.000Z</time>
      </trkpt>
      <trkpt lat="47.25886" lon="-2.32466">
        <ele>-8</ele>
        <time>2020-07-05T06:57:03.000Z</time>
      </trkpt>
      <trkpt lat="47.25882" lon="-2.32467">
        <ele>-8</ele>
        <time>2020-07-05T06:57:04.000Z</time>
      </trkpt>
      <trkpt lat="47.25865" lon="-2.32469">
        <ele>-8</ele>
        <time>2020-07-05T06:57:08.000Z</time>
      </trkpt>
      <trkpt lat="47.25838" lon="-2.32465">
        <ele>-8</ele>
        <time>2020-07-05T06:57:14.000Z</time>
      </trkpt>
      <trkpt lat="47.25829" lon="-2.32461">
        <ele>-8.3999996185303</ele>
        <time>2020-07-05T06:57:16.000Z</time>
      </trkpt>
      <trkpt lat="47.25824" lon="-2.3246">
        <ele>-8.8000001907349</ele>
        <time>2020-07-05T06:57:17.000Z</time>
      </trkpt>
      <trkpt lat="47.2582" lon="-2.32458">
        <ele>-9.1999998092651</ele>
        <time>2020-07-05T06:57:18.000Z</time>
      </trkpt>
      <trkpt lat="47.25816" lon="-2.32455">
        <ele>-9.6000003814697</ele>
        <time>2020-07-05T06:57:19.000Z</time>
      </trkpt>
      <trkpt lat="47.25812" lon="-2.32453">
        <ele>-10</ele>
        <time>2020-07-05T06:57:20.000Z</time>
      </trkpt>
      <trkpt lat="47.25803" lon="-2.32451">
        <ele>-10</ele>
        <time>2020-07-05T06:57:22.000Z</time>
      </trkpt>
      <trkpt lat="47.25792" lon="-2.32452">
        <ele>-10</ele>
        <time>2020-07-05T06:57:25.000Z</time>
      </trkpt>
      <trkpt lat="47.2578" lon="-2.32445">
        <ele>-10</ele>
        <time>2020-07-05T06:57:29.000Z</time>
      </trkpt>
      <trkpt lat="47.25773" lon="-2.3243">
        <ele>-10</ele>
        <time>2020-07-05T06:57:32.000Z</time>
      </trkpt>
      <trkpt lat="47.2577" lon="-2.32426">
        <ele>-10</ele>
        <time>2020-07-05T06:57:33.000Z</time>
      </trkpt>
      <trkpt lat="47.25766" lon="-2.32422">
        <ele>-10</ele>
        <time>2020-07-05T06:57:34.000Z</time>
      </trkpt>
      <trkpt lat="47.25752" lon="-2.3242">
        <ele>-10</ele>
        <time>2020-07-05T06:57:37.000Z</time>
      </trkpt>
      <trkpt lat="47.25747" lon="-2.3242">
        <ele>-10</ele>
        <time>2020-07-05T06:57:38.000Z</time>
      </trkpt>
      <trkpt lat="47.25709" lon="-2.32419">
        <ele>-10</ele>
        <time>2020-07-05T06:57:45.000Z</time>
      </trkpt>
      <trkpt lat="47.25679" lon="-2.32418">
        <ele>-10</ele>
        <time>2020-07-05T06:57:51.000Z</time>
      </trkpt>
      <trkpt lat="47.25666" lon="-2.32419">
        <ele>-10</ele>
        <time>2020-07-05T06:57:54.000Z</time>
      </trkpt>
      <trkpt lat="47.25664" lon="-2.32423">
        <ele>-10</ele>
        <time>2020-07-05T06:57:55.000Z</time>
      </trkpt>
      <trkpt lat="47.25662" lon="-2.32441">
        <ele>-10</ele>
        <time>2020-07-05T06:57:58.000Z</time>
      </trkpt>
      <trkpt lat="47.25667" lon="-2.32458">
        <ele>-10</ele>
        <time>2020-07-05T06:58:01.000Z</time>
      </trkpt>
      <trkpt lat="47.25668" lon="-2.32463">
        <ele>-10</ele>
        <time>2020-07-05T06:58:02.000Z</time>
      </trkpt>
      <trkpt lat="47.25679" lon="-2.32502">
        <ele>-9.6000003814697</ele>
        <time>2020-07-05T06:58:09.000Z</time>
      </trkpt>
      <trkpt lat="47.25681" lon="-2.32507">
        <ele>-9.1999998092651</ele>
        <time>2020-07-05T06:58:10.000Z</time>
      </trkpt>
      <trkpt lat="47.25683" lon="-2.32512">
        <ele>-8.8000001907349</ele>
        <time>2020-07-05T06:58:11.000Z</time>
      </trkpt>
      <trkpt lat="47.25684" lon="-2.32518">
        <ele>-8.3999996185303</ele>
        <time>2020-07-05T06:58:12.000Z</time>
      </trkpt>
      <trkpt lat="47.25686" lon="-2.32523">
        <ele>-8</ele>
        <time>2020-07-05T06:58:13.000Z</time>
      </trkpt>
      <trkpt lat="47.25694" lon="-2.32549">
        <ele>-8</ele>
        <time>2020-07-05T06:58:18.000Z</time>
      </trkpt>
      <trkpt lat="47.25695" lon="-2.32554">
        <ele>-8</ele>
        <time>2020-07-05T06:58:19.000Z</time>
      </trkpt>
      <trkpt lat="47.25708" lon="-2.32596">
        <ele>-7.5999999046326</ele>
        <time>2020-07-05T06:58:27.000Z</time>
      </trkpt>
      <trkpt lat="47.25709" lon="-2.32602">
        <ele>-7</ele>
        <time>2020-07-05T06:58:28.000Z</time>
      </trkpt>
      <trkpt lat="47.25709" lon="-2.32608">
        <ele>-6.5999999046326</ele>
        <time>2020-07-05T06:58:29.000Z</time>
      </trkpt>
      <trkpt lat="47.25708" lon="-2.32613">
        <ele>-6.1999998092651</ele>
        <time>2020-07-05T06:58:30.000Z</time>
      </trkpt>
      <trkpt lat="47.25706" lon="-2.32618">
        <ele>-5.8000001907349</ele>
        <time>2020-07-05T06:58:31.000Z</time>
      </trkpt>
      <trkpt lat="47.25703" lon="-2.32621">
        <ele>-5.8000001907349</ele>
        <time>2020-07-05T06:58:32.000Z</time>
      </trkpt>
      <trkpt lat="47.25692" lon="-2.32627">
        <ele>-5.8000001907349</ele>
        <time>2020-07-05T06:58:35.000Z</time>
      </trkpt>
      <trkpt lat="47.25688" lon="-2.32629">
        <ele>-5.8000001907349</ele>
        <time>2020-07-05T06:58:36.000Z</time>
      </trkpt>
      <trkpt lat="47.25663" lon="-2.32642">
        <ele>-5.8000001907349</ele>
        <time>2020-07-05T06:58:43.000Z</time>
      </trkpt>
      <trkpt lat="47.25648" lon="-2.32648">
        <ele>-5.4000000953674</ele>
        <time>2020-07-05T06:58:47.000Z</time>
      </trkpt>
      <trkpt lat="47.25644" lon="-2.3265">
        <ele>-5</ele>
        <time>2020-07-05T06:58:48.000Z</time>
      </trkpt>
      <trkpt lat="47.2564" lon="-2.32651">
        <ele>-4.1999998092651</ele>
        <time>2020-07-05T06:58:49.000Z</time>
      </trkpt>
      <trkpt lat="47.25636" lon="-2.32652">
        <ele>-3.7999999523163</ele>
        <time>2020-07-05T06:58:50.000Z</time>
      </trkpt>
      <trkpt lat="47.25632" lon="-2.32653">
        <ele>-3.7999999523163</ele>
        <time>2020-07-05T06:58:51.000Z</time>
      </trkpt>
      <trkpt lat="47.25606" lon="-2.32664">
        <ele>-3.7999999523163</ele>
        <time>2020-07-05T06:58:58.000Z</time>
      </trkpt>
      <trkpt lat="47.25588" lon="-2.32673">
        <ele>-3.7999999523163</ele>
        <time>2020-07-05T06:59:03.000Z</time>
      </trkpt>
      <trkpt lat="47.25579" lon="-2.32677">
        <ele>-3.7999999523163</ele>
        <time>2020-07-05T06:59:05.000Z</time>
      </trkpt>
      <trkpt lat="47.25555" lon="-2.32688">
        <ele>-3.7999999523163</ele>
        <time>2020-07-05T06:59:12.000Z</time>
      </trkpt>
      <trkpt lat="47.25528" lon="-2.327">
        <ele>-3.7999999523163</ele>
        <time>2020-07-05T06:59:19.000Z</time>
      </trkpt>
      <trkpt lat="47.25502" lon="-2.32702">
        <ele>-3.7999999523163</ele>
        <time>2020-07-05T06:59:25.000Z</time>
      </trkpt>
      <trkpt lat="47.25484" lon="-2.32708">
        <ele>-3.7999999523163</ele>
        <time>2020-07-05T06:59:29.000Z</time>
      </trkpt>
      <trkpt lat="47.25476" lon="-2.32713">
        <ele>-3.7999999523163</ele>
        <time>2020-07-05T06:59:31.000Z</time>
      </trkpt>
      <trkpt lat="47.25466" lon="-2.32726">
        <ele>-3.7999999523163</ele>
        <time>2020-07-05T06:59:34.000Z</time>
      </trkpt>
      <trkpt lat="47.25456" lon="-2.32739">
        <ele>-3.7999999523163</ele>
        <time>2020-07-05T06:59:37.000Z</time>
      </trkpt>
      <trkpt lat="47.2544" lon="-2.32765">
        <ele>-3.7999999523163</ele>
        <time>2020-07-05T06:59:43.000Z</time>
      </trkpt>
      <trkpt lat="47.2543" lon="-2.32789">
        <ele>-3.7999999523163</ele>
        <time>2020-07-05T06:59:48.000Z</time>
      </trkpt>
      <trkpt lat="47.25427" lon="-2.32793">
        <ele>-3.7999999523163</ele>
        <time>2020-07-05T06:59:49.000Z</time>
      </trkpt>
      <trkpt lat="47.25417" lon="-2.32807">
        <ele>-3.7999999523163</ele>
        <time>2020-07-05T06:59:52.000Z</time>
      </trkpt>
      <trkpt lat="47.25389" lon="-2.32844">
        <ele>-3.7999999523163</ele>
        <time>2020-07-05T06:59:59.000Z</time>
      </trkpt>
      <trkpt lat="47.25382" lon="-2.32853">
        <ele>-4.1999998092651</ele>
        <time>2020-07-05T07:00:01.000Z</time>
      </trkpt>
      <trkpt lat="47.25378" lon="-2.32857">
        <ele>-4.5999999046326</ele>
        <time>2020-07-05T07:00:02.000Z</time>
      </trkpt>
      <trkpt lat="47.25375" lon="-2.32861">
        <ele>-5.4000000953674</ele>
        <time>2020-07-05T07:00:03.000Z</time>
      </trkpt>
      <trkpt lat="47.25371" lon="-2.32865">
        <ele>-5.8000001907349</ele>
        <time>2020-07-05T07:00:04.000Z</time>
      </trkpt>
      <trkpt lat="47.25363" lon="-2.32872">
        <ele>-5.8000001907349</ele>
        <time>2020-07-05T07:00:06.000Z</time>
      </trkpt>
      <trkpt lat="47.25337" lon="-2.32898">
        <ele>-5.8000001907349</ele>
        <time>2020-07-05T07:00:13.000Z</time>
      </trkpt>
      <trkpt lat="47.25325" lon="-2.3291">
        <ele>-5.8000001907349</ele>
        <time>2020-07-05T07:00:16.000Z</time>
      </trkpt>
      <trkpt lat="47.25314" lon="-2.3292">
        <ele>-5.8000001907349</ele>
        <time>2020-07-05T07:00:19.000Z</time>
      </trkpt>
      <trkpt lat="47.25311" lon="-2.32925">
        <ele>-5.8000001907349</ele>
        <time>2020-07-05T07:00:20.000Z</time>
      </trkpt>
      <trkpt lat="47.25307" lon="-2.32942">
        <ele>-5.8000001907349</ele>
        <time>2020-07-05T07:00:23.000Z</time>
      </trkpt>
      <trkpt lat="47.25311" lon="-2.32959">
        <ele>-5.8000001907349</ele>
        <time>2020-07-05T07:00:26.000Z</time>
      </trkpt>
      <trkpt lat="47.25313" lon="-2.32965">
        <ele>-5.8000001907349</ele>
        <time>2020-07-05T07:00:27.000Z</time>
      </trkpt>
      <trkpt lat="47.25324" lon="-2.32995">
        <ele>-5.8000001907349</ele>
        <time>2020-07-05T07:00:32.000Z</time>
      </trkpt>
      <trkpt lat="47.2534" lon="-2.33039">
        <ele>-5.8000001907349</ele>
        <time>2020-07-05T07:00:40.000Z</time>
      </trkpt>
      <trkpt lat="47.25346" lon="-2.33054">
        <ele>-6.1999998092651</ele>
        <time>2020-07-05T07:00:43.000Z</time>
      </trkpt>
      <trkpt lat="47.25348" lon="-2.33059">
        <ele>-6.8000001907349</ele>
        <time>2020-07-05T07:00:44.000Z</time>
      </trkpt>
      <trkpt lat="47.2535" lon="-2.33064">
        <ele>-7.1999998092651</ele>
        <time>2020-07-05T07:00:45.000Z</time>
      </trkpt>
      <trkpt lat="47.25353" lon="-2.33069">
        <ele>-7.5999999046326</ele>
        <time>2020-07-05T07:00:46.000Z</time>
      </trkpt>
      <trkpt lat="47.25355" lon="-2.33073">
        <ele>-8</ele>
        <time>2020-07-05T07:00:47.000Z</time>
      </trkpt>
      <trkpt lat="47.25365" lon="-2.33093">
        <ele>-8</ele>
        <time>2020-07-05T07:00:53.000Z</time>
      </trkpt>
      <trkpt lat="47.25366" lon="-2.33099">
        <ele>-8</ele>
        <time>2020-07-05T07:00:59.000Z</time>
      </trkpt>
      <trkpt lat="47.25365" lon="-2.33098">
        <ele>-10</ele>
        <time>2020-07-05T07:05:14.000Z</time>
      </trkpt>
      <trkpt lat="47.25359" lon="-2.33079">
        <ele>-10</ele>
        <time>2020-07-05T07:05:20.000Z</time>
      </trkpt>
      <trkpt lat="47.25352" lon="-2.33056">
        <ele>-10</ele>
        <time>2020-07-05T07:05:26.000Z</time>
      </trkpt>
      <trkpt lat="47.25344" lon="-2.33032">
        <ele>-10</ele>
        <time>2020-07-05T07:05:32.000Z</time>
      </trkpt>
      <trkpt lat="47.25333" lon="-2.33002">
        <ele>-10</ele>
        <time>2020-07-05T07:05:39.000Z</time>
      </trkpt>
      <trkpt lat="47.25322" lon="-2.32976">
        <ele>-10</ele>
        <time>2020-07-05T07:05:45.000Z</time>
      </trkpt>
      <trkpt lat="47.2531" lon="-2.32946">
        <ele>-10</ele>
        <time>2020-07-05T07:05:52.000Z</time>
      </trkpt>
      <trkpt lat="47.25309" lon="-2.32926">
        <ele>-10</ele>
        <time>2020-07-05T07:05:56.000Z</time>
      </trkpt>
      <trkpt lat="47.25312" lon="-2.32922">
        <ele>-10</ele>
        <time>2020-07-05T07:05:57.000Z</time>
      </trkpt>
      <trkpt lat="47.2532" lon="-2.32912">
        <ele>-10</ele>
        <time>2020-07-05T07:06:00.000Z</time>
      </trkpt>
      <trkpt lat="47.25325" lon="-2.32905">
        <ele>-10</ele>
        <time>2020-07-05T07:06:02.000Z</time>
      </trkpt>
      <trkpt lat="47.25337" lon="-2.32887">
        <ele>-10</ele>
        <time>2020-07-05T07:06:07.000Z</time>
      </trkpt>
      <trkpt lat="47.25336" lon="-2.32877">
        <ele>-10</ele>
        <time>2020-07-05T07:06:09.000Z</time>
      </trkpt>
      <trkpt lat="47.25332" lon="-2.32869">
        <ele>-10</ele>
        <time>2020-07-05T07:06:11.000Z</time>
      </trkpt>
      <trkpt lat="47.25321" lon="-2.32841">
        <ele>-10</ele>
        <time>2020-07-05T07:06:18.000Z</time>
      </trkpt>
      <trkpt lat="47.25313" lon="-2.32823">
        <ele>-10</ele>
        <time>2020-07-05T07:06:23.000Z</time>
      </trkpt>
      <trkpt lat="47.25297" lon="-2.32789">
        <ele>-10</ele>
        <time>2020-07-05T07:06:30.000Z</time>
      </trkpt>
      <trkpt lat="47.25275" lon="-2.32746">
        <ele>-10</ele>
        <time>2020-07-05T07:06:39.000Z</time>
      </trkpt>
      <trkpt lat="47.25269" lon="-2.32738">
        <ele>-9.6000003814697</ele>
        <time>2020-07-05T07:06:41.000Z</time>
      </trkpt>
      <trkpt lat="47.25266" lon="-2.32735">
        <ele>-9.1999998092651</ele>
        <time>2020-07-05T07:06:42.000Z</time>
      </trkpt>
      <trkpt lat="47.25264" lon="-2.32731">
        <ele>-8.8000001907349</ele>
        <time>2020-07-05T07:06:43.000Z</time>
      </trkpt>
      <trkpt lat="47.25261" lon="-2.32728">
        <ele>-8.1999998092651</ele>
        <time>2020-07-05T07:06:44.000Z</time>
      </trkpt>
      <trkpt lat="47.25258" lon="-2.32724">
        <ele>-7.8000001907349</ele>
        <time>2020-07-05T07:06:45.000Z</time>
      </trkpt>
      <trkpt lat="47.25255" lon="-2.32721">
        <ele>-7.8000001907349</ele>
        <time>2020-07-05T07:06:46.000Z</time>
      </trkpt>
      <trkpt lat="47.25235" lon="-2.32699">
        <ele>-7.8000001907349</ele>
        <time>2020-07-05T07:06:53.000Z</time>
      </trkpt>
      <trkpt lat="47.25226" lon="-2.32694">
        <ele>-7.8000001907349</ele>
        <time>2020-07-05T07:06:58.000Z</time>
      </trkpt>
      <trkpt lat="47.25221" lon="-2.327">
        <ele>-7.8000001907349</ele>
        <time>2020-07-05T07:07:03.000Z</time>
      </trkpt>
      <trkpt lat="47.25216" lon="-2.32705">
        <ele>-7.8000001907349</ele>
        <time>2020-07-05T07:07:08.000Z</time>
      </trkpt>
      <trkpt lat="47.25215" lon="-2.32708">
        <ele>-7.8000001907349</ele>
        <time>2020-07-05T07:07:09.000Z</time>
      </trkpt>
      <trkpt lat="47.25211" lon="-2.32727">
        <ele>-7.8000001907349</ele>
        <time>2020-07-05T07:07:12.000Z</time>
      </trkpt>
      <trkpt lat="47.25208" lon="-2.32734">
        <ele>-7.8000001907349</ele>
        <time>2020-07-05T07:07:14.000Z</time>
      </trkpt>
      <trkpt lat="47.25206" lon="-2.32736">
        <ele>-7.8000001907349</ele>
        <time>2020-07-05T07:07:15.000Z</time>
      </trkpt>
      <trkpt lat="47.25199" lon="-2.32726">
        <ele>-7.8000001907349</ele>
        <time>2020-07-05T07:07:18.000Z</time>
      </trkpt>
      <trkpt lat="47.25185" lon="-2.3271">
        <ele>-7.8000001907349</ele>
        <time>2020-07-05T07:07:24.000Z</time>
      </trkpt>
      <trkpt lat="47.25178" lon="-2.32708">
        <ele>-7.8000001907349</ele>
        <time>2020-07-05T07:07:27.000Z</time>
      </trkpt>
      <trkpt lat="47.25173" lon="-2.3271">
        <ele>-7.8000001907349</ele>
        <time>2020-07-05T07:07:29.000Z</time>
      </trkpt>
      <trkpt lat="47.25168" lon="-2.32716">
        <ele>-7.8000001907349</ele>
        <time>2020-07-05T07:07:31.000Z</time>
      </trkpt>
      <trkpt lat="47.25165" lon="-2.32722">
        <ele>-7.8000001907349</ele>
        <time>2020-07-05T07:07:33.000Z</time>
      </trkpt>
      <trkpt lat="47.25164" lon="-2.32722">
        <ele>-7.8000001907349</ele>
        <time>2020-07-05T07:07:34.000Z</time>
      </trkpt>
      <trkpt lat="47.2516" lon="-2.32727">
        <ele>-7.8000001907349</ele>
        <time>2020-07-05T07:07:37.000Z</time>
      </trkpt>
      <trkpt lat="47.25144" lon="-2.32741">
        <ele>-7.8000001907349</ele>
        <time>2020-07-05T07:07:43.000Z</time>
      </trkpt>
      <trkpt lat="47.25139" lon="-2.32743">
        <ele>-7.8000001907349</ele>
        <time>2020-07-05T07:07:44.000Z</time>
      </trkpt>
      <trkpt lat="47.25127" lon="-2.32747">
        <ele>-8.1999998092651</ele>
        <time>2020-07-05T07:07:47.000Z</time>
      </trkpt>
      <trkpt lat="47.25124" lon="-2.32749">
        <ele>-8.6000003814697</ele>
        <time>2020-07-05T07:07:48.000Z</time>
      </trkpt>
      <trkpt lat="47.2512" lon="-2.32748">
        <ele>-9</ele>
        <time>2020-07-05T07:07:49.000Z</time>
      </trkpt>
      <trkpt lat="47.25117" lon="-2.32745">
        <ele>-9.6000003814697</ele>
        <time>2020-07-05T07:07:50.000Z</time>
      </trkpt>
      <trkpt lat="47.25114" lon="-2.32741">
        <ele>-10</ele>
        <time>2020-07-05T07:07:51.000Z</time>
      </trkpt>
      <trkpt lat="47.25106" lon="-2.32726">
        <ele>-10</ele>
        <time>2020-07-05T07:07:54.000Z</time>
      </trkpt>
      <trkpt lat="47.25104" lon="-2.3272">
        <ele>-10</ele>
        <time>2020-07-05T07:07:55.000Z</time>
      </trkpt>
      <trkpt lat="47.25094" lon="-2.32698">
        <ele>-10</ele>
        <time>2020-07-05T07:08:00.000Z</time>
      </trkpt>
      <trkpt lat="47.25087" lon="-2.32685">
        <ele>-10</ele>
        <time>2020-07-05T07:08:03.000Z</time>
      </trkpt>
      <trkpt lat="47.25082" lon="-2.32675">
        <ele>-10</ele>
        <time>2020-07-05T07:08:05.000Z</time>
      </trkpt>
      <trkpt lat="47.25059" lon="-2.3263">
        <ele>-10</ele>
        <time>2020-07-05T07:08:13.000Z</time>
      </trkpt>
      <trkpt lat="47.25051" lon="-2.32614">
        <ele>-9.1999998092651</ele>
        <time>2020-07-05T07:08:16.000Z</time>
      </trkpt>
      <trkpt lat="47.25049" lon="-2.32608">
        <ele>-8.8000001907349</ele>
        <time>2020-07-05T07:08:17.000Z</time>
      </trkpt>
      <trkpt lat="47.25046" lon="-2.32603">
        <ele>-8.3999996185303</ele>
        <time>2020-07-05T07:08:18.000Z</time>
      </trkpt>
      <trkpt lat="47.25044" lon="-2.32597">
        <ele>-8</ele>
        <time>2020-07-05T07:08:19.000Z</time>
      </trkpt>
      <trkpt lat="47.25036" lon="-2.3258">
        <ele>-8</ele>
        <time>2020-07-05T07:08:22.000Z</time>
      </trkpt>
      <trkpt lat="47.25027" lon="-2.32557">
        <ele>-8</ele>
        <time>2020-07-05T07:08:26.000Z</time>
      </trkpt>
      <trkpt lat="47.25026" lon="-2.32545">
        <ele>-8</ele>
        <time>2020-07-05T07:08:28.000Z</time>
      </trkpt>
      <trkpt lat="47.25027" lon="-2.32534">
        <ele>-7.4000000953674</ele>
        <time>2020-07-05T07:08:30.000Z</time>
      </trkpt>
      <trkpt lat="47.25028" lon="-2.32529">
        <ele>-7</ele>
        <time>2020-07-05T07:08:31.000Z</time>
      </trkpt>
      <trkpt lat="47.2503" lon="-2.32524">
        <ele>-6.5999999046326</ele>
        <time>2020-07-05T07:08:32.000Z</time>
      </trkpt>
      <trkpt lat="47.25033" lon="-2.3252">
        <ele>-6.1999998092651</ele>
        <time>2020-07-05T07:08:33.000Z</time>
      </trkpt>
      <trkpt lat="47.25036" lon="-2.32517">
        <ele>-5.5999999046326</ele>
        <time>2020-07-05T07:08:34.000Z</time>
      </trkpt>
      <trkpt lat="47.25042" lon="-2.3251">
        <ele>-5.5999999046326</ele>
        <time>2020-07-05T07:08:36.000Z</time>
      </trkpt>
      <trkpt lat="47.25065" lon="-2.32498">
        <ele>-5.5999999046326</ele>
        <time>2020-07-05T07:08:42.000Z</time>
      </trkpt>
      <trkpt lat="47.25069" lon="-2.32496">
        <ele>-5.1999998092651</ele>
        <time>2020-07-05T07:08:43.000Z</time>
      </trkpt>
      <trkpt lat="47.25073" lon="-2.32494">
        <ele>-4.8000001907349</ele>
        <time>2020-07-05T07:08:44.000Z</time>
      </trkpt>
      <trkpt lat="47.25077" lon="-2.32492">
        <ele>-4.4000000953674</ele>
        <time>2020-07-05T07:08:45.000Z</time>
      </trkpt>
      <trkpt lat="47.25081" lon="-2.3249">
        <ele>-4</ele>
        <time>2020-07-05T07:08:46.000Z</time>
      </trkpt>
      <trkpt lat="47.25085" lon="-2.32488">
        <ele>-3.5999999046326</ele>
        <time>2020-07-05T07:08:47.000Z</time>
      </trkpt>
      <trkpt lat="47.25089" lon="-2.32485">
        <ele>-3.5999999046326</ele>
        <time>2020-07-05T07:08:48.000Z</time>
      </trkpt>
      <trkpt lat="47.25093" lon="-2.32482">
        <ele>-3.5999999046326</ele>
        <time>2020-07-05T07:08:49.000Z</time>
      </trkpt>
      <trkpt lat="47.25106" lon="-2.32457">
        <ele>-3.5999999046326</ele>
        <time>2020-07-05T07:08:54.000Z</time>
      </trkpt>
      <trkpt lat="47.25107" lon="-2.3245">
        <ele>-3.5999999046326</ele>
        <time>2020-07-05T07:08:55.000Z</time>
      </trkpt>
      <trkpt lat="47.25107" lon="-2.32437">
        <ele>-3.5999999046326</ele>
        <time>2020-07-05T07:08:57.000Z</time>
      </trkpt>
      <trkpt lat="47.25107" lon="-2.32431">
        <ele>-3.5999999046326</ele>
        <time>2020-07-05T07:08:58.000Z</time>
      </trkpt>
      <trkpt lat="47.25104" lon="-2.324">
        <ele>-3.2000000476837</ele>
        <time>2020-07-05T07:09:03.000Z</time>
      </trkpt>
      <trkpt lat="47.25104" lon="-2.32394">
        <ele>-2.7999999523163</ele>
        <time>2020-07-05T07:09:04.000Z</time>
      </trkpt>
      <trkpt lat="47.25104" lon="-2.32388">
        <ele>-2</ele>
        <time>2020-07-05T07:09:05.000Z</time>
      </trkpt>
      <trkpt lat="47.25104" lon="-2.32382">
        <ele>-1.6000000238419</ele>
        <time>2020-07-05T07:09:06.000Z</time>
      </trkpt>
      <trkpt lat="47.25106" lon="-2.32358">
        <ele>-1.6000000238419</ele>
        <time>2020-07-05T07:09:10.000Z</time>
      </trkpt>
      <trkpt lat="47.25108" lon="-2.32352">
        <ele>-1.6000000238419</ele>
        <time>2020-07-05T07:09:11.000Z</time>
      </trkpt>
      <trkpt lat="47.25112" lon="-2.32341">
        <ele>-1.6000000238419</ele>
        <time>2020-07-05T07:09:13.000Z</time>
      </trkpt>
      <trkpt lat="47.25119" lon="-2.3232">
        <ele>-1.6000000238419</ele>
        <time>2020-07-05T07:09:17.000Z</time>
      </trkpt>
      <trkpt lat="47.25121" lon="-2.32315">
        <ele>-1.2000000476837</ele>
        <time>2020-07-05T07:09:18.000Z</time>
      </trkpt>
      <trkpt lat="47.25124" lon="-2.32311">
        <ele>-0.80000001192093</ele>
        <time>2020-07-05T07:09:19.000Z</time>
      </trkpt>
      <trkpt lat="47.25126" lon="-2.32307">
        <ele>-0.40000000596046</ele>
        <time>2020-07-05T07:09:20.000Z</time>
      </trkpt>
      <trkpt lat="47.25129" lon="-2.32303">
        <ele>22.1</ele>
        <time>2020-07-05T07:09:21.000Z</time>
      </trkpt>
      <trkpt lat="47.25132" lon="-2.32299">
        <ele>0.40000000596046</ele>
        <time>2020-07-05T07:09:22.000Z</time>
      </trkpt>
      <trkpt lat="47.25133" lon="-2.32293">
        <ele>0.40000000596046</ele>
        <time>2020-07-05T07:09:23.000Z</time>
      </trkpt>
      <trkpt lat="47.25133" lon="-2.32281">
        <ele>0.40000000596046</ele>
        <time>2020-07-05T07:09:25.000Z</time>
      </trkpt>
      <trkpt lat="47.25132" lon="-2.32268">
        <ele>0.80000001192093</ele>
        <time>2020-07-05T07:09:27.000Z</time>
      </trkpt>
      <trkpt lat="47.25132" lon="-2.32261">
        <ele>1.2000000476837</ele>
        <time>2020-07-05T07:09:28.000Z</time>
      </trkpt>
      <trkpt lat="47.25131" lon="-2.32255">
        <ele>1.6000000238419</ele>
        <time>2020-07-05T07:09:29.000Z</time>
      </trkpt>
      <trkpt lat="47.25131" lon="-2.32248">
        <ele>2.4000000953674</ele>
        <time>2020-07-05T07:09:30.000Z</time>
      </trkpt>
      <trkpt lat="47.2513" lon="-2.32234">
        <ele>2.4000000953674</ele>
        <time>2020-07-05T07:09:32.000Z</time>
      </trkpt>
      <trkpt lat="47.25126" lon="-2.32194">
        <ele>2.4000000953674</ele>
        <time>2020-07-05T07:09:38.000Z</time>
      </trkpt>
      <trkpt lat="47.25123" lon="-2.32153">
        <ele>2.4000000953674</ele>
        <time>2020-07-05T07:09:44.000Z</time>
      </trkpt>
      <trkpt lat="47.25119" lon="-2.321">
        <ele>2.4000000953674</ele>
        <time>2020-07-05T07:09:51.000Z</time>
      </trkpt>
      <trkpt lat="47.25116" lon="-2.32054">
        <ele>2.4000000953674</ele>
        <time>2020-07-05T07:09:57.000Z</time>
      </trkpt>
      <trkpt lat="47.25111" lon="-2.31999">
        <ele>2.4000000953674</ele>
        <time>2020-07-05T07:10:04.000Z</time>
      </trkpt>
      <trkpt lat="47.2511" lon="-2.31993">
        <ele>2.4000000953674</ele>
        <time>2020-07-05T07:10:05.000Z</time>
      </trkpt>
      <trkpt lat="47.25106" lon="-2.31965">
        <ele>2.4000000953674</ele>
        <time>2020-07-05T07:10:09.000Z</time>
      </trkpt>
      <trkpt lat="47.25105" lon="-2.31943">
        <ele>2.4000000953674</ele>
        <time>2020-07-05T07:10:12.000Z</time>
      </trkpt>
      <trkpt lat="47.25103" lon="-2.31921">
        <ele>2.4000000953674</ele>
        <time>2020-07-05T07:10:15.000Z</time>
      </trkpt>
      <trkpt lat="47.25096" lon="-2.3187">
        <ele>2.4000000953674</ele>
        <time>2020-07-05T07:10:22.000Z</time>
      </trkpt>
      <trkpt lat="47.25085" lon="-2.31805">
        <ele>2.4000000953674</ele>
        <time>2020-07-05T07:10:31.000Z</time>
      </trkpt>
      <trkpt lat="47.2507" lon="-2.3175">
        <ele>2.4000000953674</ele>
        <time>2020-07-05T07:10:39.000Z</time>
      </trkpt>
      <trkpt lat="47.25066" lon="-2.31735">
        <ele>3</ele>
        <time>2020-07-05T07:10:41.000Z</time>
      </trkpt>
      <trkpt lat="47.25065" lon="-2.31728">
        <ele>3.4000000953674</ele>
        <time>2020-07-05T07:10:42.000Z</time>
      </trkpt>
      <trkpt lat="47.25063" lon="-2.31721">
        <ele>3.7999999523163</ele>
        <time>2020-07-05T07:10:43.000Z</time>
      </trkpt>
      <trkpt lat="47.25062" lon="-2.31714">
        <ele>4.5999999046326</ele>
        <time>2020-07-05T07:10:44.000Z</time>
      </trkpt>
      <trkpt lat="47.25058" lon="-2.317">
        <ele>4.5999999046326</ele>
        <time>2020-07-05T07:10:46.000Z</time>
      </trkpt>
      <trkpt lat="47.25057" lon="-2.31694">
        <ele>4.5999999046326</ele>
        <time>2020-07-05T07:10:47.000Z</time>
      </trkpt>
      <trkpt lat="47.25046" lon="-2.31655">
        <ele>4.5999999046326</ele>
        <time>2020-07-05T07:10:53.000Z</time>
      </trkpt>
      <trkpt lat="47.25037" lon="-2.31638">
        <ele>4.5999999046326</ele>
        <time>2020-07-05T07:10:57.000Z</time>
      </trkpt>
      <trkpt lat="47.25035" lon="-2.31633">
        <ele>4.5999999046326</ele>
        <time>2020-07-05T07:10:58.000Z</time>
      </trkpt>
      <trkpt lat="47.25019" lon="-2.31616">
        <ele>4.5999999046326</ele>
        <time>2020-07-05T07:11:02.000Z</time>
      </trkpt>
      <trkpt lat="47.24984" lon="-2.31578">
        <ele>4.5999999046326</ele>
        <time>2020-07-05T07:11:11.000Z</time>
      </trkpt>
      <trkpt lat="47.24976" lon="-2.31568">
        <ele>5</ele>
        <time>2020-07-05T07:11:13.000Z</time>
      </trkpt>
      <trkpt lat="47.24972" lon="-2.31562">
        <ele>5.4000000953674</ele>
        <time>2020-07-05T07:11:14.000Z</time>
      </trkpt>
      <trkpt lat="47.24969" lon="-2.31555">
        <ele>5.8000001907349</ele>
        <time>2020-07-05T07:11:15.000Z</time>
      </trkpt>
      <trkpt lat="47.24967" lon="-2.31547">
        <ele>6.1999998092651</ele>
        <time>2020-07-05T07:11:16.000Z</time>
      </trkpt>
      <trkpt lat="47.24965" lon="-2.31539">
        <ele>6.5999999046326</ele>
        <time>2020-07-05T07:11:17.000Z</time>
      </trkpt>
      <trkpt lat="47.24961" lon="-2.31523">
        <ele>6.5999999046326</ele>
        <time>2020-07-05T07:11:19.000Z</time>
      </trkpt>
      <trkpt lat="47.2496" lon="-2.31509">
        <ele>6.5999999046326</ele>
        <time>2020-07-05T07:11:21.000Z</time>
      </trkpt>
      <trkpt lat="47.24958" lon="-2.31503">
        <ele>6.5999999046326</ele>
        <time>2020-07-05T07:11:22.000Z</time>
      </trkpt>
      <trkpt lat="47.24951" lon="-2.31501">
        <ele>6.5999999046326</ele>
        <time>2020-07-05T07:11:24.000Z</time>
      </trkpt>
      <trkpt lat="47.24943" lon="-2.31504">
        <ele>6.5999999046326</ele>
        <time>2020-07-05T07:11:26.000Z</time>
      </trkpt>
      <trkpt lat="47.24925" lon="-2.31514">
        <ele>6.5999999046326</ele>
        <time>2020-07-05T07:11:30.000Z</time>
      </trkpt>
      <trkpt lat="47.24895" lon="-2.31538">
        <ele>6.5999999046326</ele>
        <time>2020-07-05T07:11:38.000Z</time>
      </trkpt>
      <trkpt lat="47.24892" lon="-2.31537">
        <ele>6.5999999046326</ele>
        <time>2020-07-05T07:11:39.000Z</time>
      </trkpt>
      <trkpt lat="47.24888" lon="-2.31529">
        <ele>6.5999999046326</ele>
        <time>2020-07-05T07:11:41.000Z</time>
      </trkpt>
      <trkpt lat="47.24884" lon="-2.31519">
        <ele>6.5999999046326</ele>
        <time>2020-07-05T07:11:43.000Z</time>
      </trkpt>
      <trkpt lat="47.24876" lon="-2.31495">
        <ele>6.5999999046326</ele>
        <time>2020-07-05T07:11:47.000Z</time>
      </trkpt>
      <trkpt lat="47.2487" lon="-2.31477">
        <ele>6.5999999046326</ele>
        <time>2020-07-05T07:11:50.000Z</time>
      </trkpt>
      <trkpt lat="47.24863" lon="-2.31473">
        <ele>6.5999999046326</ele>
        <time>2020-07-05T07:11:52.000Z</time>
      </trkpt>
      <trkpt lat="47.24854" lon="-2.31479">
        <ele>6.5999999046326</ele>
        <time>2020-07-05T07:11:54.000Z</time>
      </trkpt>
      <trkpt lat="47.24846" lon="-2.31486">
        <ele>6.5999999046326</ele>
        <time>2020-07-05T07:11:56.000Z</time>
      </trkpt>
      <trkpt lat="47.24818" lon="-2.31515">
        <ele>6.5999999046326</ele>
        <time>2020-07-05T07:12:03.000Z</time>
      </trkpt>
      <trkpt lat="47.24785" lon="-2.31546">
        <ele>6.5999999046326</ele>
        <time>2020-07-05T07:12:11.000Z</time>
      </trkpt>
      <trkpt lat="47.24755" lon="-2.31575">
        <ele>6.5999999046326</ele>
        <time>2020-07-05T07:12:18.000Z</time>
      </trkpt>
      <trkpt lat="47.24722" lon="-2.31608">
        <ele>6.5999999046326</ele>
        <time>2020-07-05T07:12:25.000Z</time>
      </trkpt>
      <trkpt lat="47.24689" lon="-2.31642">
        <ele>6.1999998092651</ele>
        <time>2020-07-05T07:12:32.000Z</time>
      </trkpt>
      <trkpt lat="47.24684" lon="-2.31647">
        <ele>5.8000001907349</ele>
        <time>2020-07-05T07:12:33.000Z</time>
      </trkpt>
      <trkpt lat="47.24679" lon="-2.31652">
        <ele>5.4000000953674</ele>
        <time>2020-07-05T07:12:34.000Z</time>
      </trkpt>
      <trkpt lat="47.24675" lon="-2.31656">
        <ele>5</ele>
        <time>2020-07-05T07:12:35.000Z</time>
      </trkpt>
      <trkpt lat="47.24671" lon="-2.3166">
        <ele>4.5999999046326</ele>
        <time>2020-07-05T07:12:36.000Z</time>
      </trkpt>
      <trkpt lat="47.2466" lon="-2.31668">
        <ele>4.1999998092651</ele>
        <time>2020-07-05T07:12:39.000Z</time>
      </trkpt>
      <trkpt lat="47.24657" lon="-2.31665">
        <ele>3.7999999523163</ele>
        <time>2020-07-05T07:12:40.000Z</time>
      </trkpt>
      <trkpt lat="47.24654" lon="-2.3166">
        <ele>3.4000000953674</ele>
        <time>2020-07-05T07:12:41.000Z</time>
      </trkpt>
      <trkpt lat="47.24651" lon="-2.31654">
        <ele>3</ele>
        <time>2020-07-05T07:12:42.000Z</time>
      </trkpt>
      <trkpt lat="47.24647" lon="-2.31648">
        <ele>2.5999999046326</ele>
        <time>2020-07-05T07:12:43.000Z</time>
      </trkpt>
      <trkpt lat="47.24629" lon="-2.31616">
        <ele>2.5999999046326</ele>
        <time>2020-07-05T07:12:48.000Z</time>
      </trkpt>
      <trkpt lat="47.24598" lon="-2.31567">
        <ele>2.5999999046326</ele>
        <time>2020-07-05T07:12:55.000Z</time>
      </trkpt>
      <trkpt lat="47.2459" lon="-2.3153">
        <ele>2.5999999046326</ele>
        <time>2020-07-05T07:12:59.000Z</time>
      </trkpt>
      <trkpt lat="47.24585" lon="-2.31477">
        <ele>2.5999999046326</ele>
        <time>2020-07-05T07:13:05.000Z</time>
      </trkpt>
      <trkpt lat="47.24582" lon="-2.31452">
        <ele>2.5999999046326</ele>
        <time>2020-07-05T07:13:08.000Z</time>
      </trkpt>
      <trkpt lat="47.24578" lon="-2.31427">
        <ele>2.5999999046326</ele>
        <time>2020-07-05T07:13:11.000Z</time>
      </trkpt>
      <trkpt lat="47.24573" lon="-2.31392">
        <ele>2.5999999046326</ele>
        <time>2020-07-05T07:13:16.000Z</time>
      </trkpt>
      <trkpt lat="47.24562" lon="-2.3139">
        <ele>2.5999999046326</ele>
        <time>2020-07-05T07:13:19.000Z</time>
      </trkpt>
      <trkpt lat="47.24558" lon="-2.31391">
        <ele>2.5999999046326</ele>
        <time>2020-07-05T07:13:20.000Z</time>
      </trkpt>
      <trkpt lat="47.24548" lon="-2.31392">
        <ele>2.5999999046326</ele>
        <time>2020-07-05T07:13:22.000Z</time>
      </trkpt>
      <trkpt lat="47.24538" lon="-2.31391">
        <ele>2.5999999046326</ele>
        <time>2020-07-05T07:13:24.000Z</time>
      </trkpt>
      <trkpt lat="47.24511" lon="-2.31378">
        <ele>2.5999999046326</ele>
        <time>2020-07-05T07:13:29.000Z</time>
      </trkpt>
      <trkpt lat="47.24506" lon="-2.31373">
        <ele>2.2000000476837</ele>
        <time>2020-07-05T07:13:30.000Z</time>
      </trkpt>
      <trkpt lat="47.24502" lon="-2.31368">
        <ele>1.7999999523163</ele>
        <time>2020-07-05T07:13:31.000Z</time>
      </trkpt>
      <trkpt lat="47.24498" lon="-2.31363">
        <ele>1.3999999761581</ele>
        <time>2020-07-05T07:13:32.000Z</time>
      </trkpt>
      <trkpt lat="47.24494" lon="-2.31357">
        <ele>1</ele>
        <time>2020-07-05T07:13:33.000Z</time>
      </trkpt>
      <trkpt lat="47.24492" lon="-2.3135">
        <ele>0.60000002384186</ele>
        <time>2020-07-05T07:13:34.000Z</time>
      </trkpt>
      <trkpt lat="47.2449" lon="-2.3134">
        <ele>0.20000000298023</ele>
        <time>2020-07-05T07:13:35.000Z</time>
      </trkpt>
      <trkpt lat="47.24487" lon="-2.31332">
        <ele>-0.20000000298023</ele>
        <time>2020-07-05T07:13:36.000Z</time>
      </trkpt>
      <trkpt lat="47.24484" lon="-2.31323">
        <ele>-1</ele>
        <time>2020-07-05T07:13:37.000Z</time>
      </trkpt>
      <trkpt lat="47.2448" lon="-2.31313">
        <ele>-1.3999999761581</ele>
        <time>2020-07-05T07:13:38.000Z</time>
      </trkpt>
      <trkpt lat="47.24477" lon="-2.313">
        <ele>-1.3999999761581</ele>
        <time>2020-07-05T07:13:39.000Z</time>
      </trkpt>
      <trkpt lat="47.24455" lon="-2.31245">
        <ele>-2</ele>
        <time>2020-07-05T07:13:45.000Z</time>
      </trkpt>
      <trkpt lat="47.24453" lon="-2.31239">
        <ele>-2.4000000953674</ele>
        <time>2020-07-05T07:13:46.000Z</time>
      </trkpt>
      <trkpt lat="47.2445" lon="-2.31234">
        <ele>-2.7999999523163</ele>
        <time>2020-07-05T07:13:47.000Z</time>
      </trkpt>
      <trkpt lat="47.24447" lon="-2.31231">
        <ele>-3.4000000953674</ele>
        <time>2020-07-05T07:13:48.000Z</time>
      </trkpt>
      <trkpt lat="47.24443" lon="-2.31229">
        <ele>-3.7999999523163</ele>
        <time>2020-07-05T07:13:49.000Z</time>
      </trkpt>
      <trkpt lat="47.24439" lon="-2.31229">
        <ele>-4.4000000953674</ele>
        <time>2020-07-05T07:13:50.000Z</time>
      </trkpt>
      <trkpt lat="47.24435" lon="-2.3123">
        <ele>-5</ele>
        <time>2020-07-05T07:13:51.000Z</time>
      </trkpt>
      <trkpt lat="47.24431" lon="-2.3123">
        <ele>-5.5999999046326</ele>
        <time>2020-07-05T07:13:52.000Z</time>
      </trkpt>
      <trkpt lat="47.24427" lon="-2.3123">
        <ele>-6</ele>
        <time>2020-07-05T07:13:53.000Z</time>
      </trkpt>
      <trkpt lat="47.24425" lon="-2.31227">
        <ele>-6.5999999046326</ele>
        <time>2020-07-05T07:13:54.000Z</time>
      </trkpt>
      <trkpt lat="47.24423" lon="-2.31222">
        <ele>-7.1999998092651</ele>
        <time>2020-07-05T07:13:55.000Z</time>
      </trkpt>
      <trkpt lat="47.24421" lon="-2.31216">
        <ele>-7.5999999046326</ele>
        <time>2020-07-05T07:13:56.000Z</time>
      </trkpt>
      <trkpt lat="47.24418" lon="-2.31212">
        <ele>-8.1999998092651</ele>
        <time>2020-07-05T07:13:57.000Z</time>
      </trkpt>
      <trkpt lat="47.24416" lon="-2.31208">
        <ele>-8.1999998092651</ele>
        <time>2020-07-05T07:13:58.000Z</time>
      </trkpt>
      <trkpt lat="47.24411" lon="-2.31196">
        <ele>-8.1999998092651</ele>
        <time>2020-07-05T07:14:01.000Z</time>
      </trkpt>
      <trkpt lat="47.24408" lon="-2.3119">
        <ele>-7.8000001907349</ele>
        <time>2020-07-05T07:14:03.000Z</time>
      </trkpt>
      <trkpt lat="47.24406" lon="-2.31187">
        <ele>-7.1999998092651</ele>
        <time>2020-07-05T07:14:04.000Z</time>
      </trkpt>
      <trkpt lat="47.24403" lon="-2.31184">
        <ele>-6.8000001907349</ele>
        <time>2020-07-05T07:14:05.000Z</time>
      </trkpt>
      <trkpt lat="47.24399" lon="-2.31181">
        <ele>-6.4000000953674</ele>
        <time>2020-07-05T07:14:06.000Z</time>
      </trkpt>
      <trkpt lat="47.24396" lon="-2.31178">
        <ele>-5.8000001907349</ele>
        <time>2020-07-05T07:14:07.000Z</time>
      </trkpt>
      <trkpt lat="47.24386" lon="-2.31164">
        <ele>-5.8000001907349</ele>
        <time>2020-07-05T07:14:10.000Z</time>
      </trkpt>
      <trkpt lat="47.24382" lon="-2.31159">
        <ele>-5.4000000953674</ele>
        <time>2020-07-05T07:14:11.000Z</time>
      </trkpt>
      <trkpt lat="47.24379" lon="-2.31154">
        <ele>-5</ele>
        <time>2020-07-05T07:14:12.000Z</time>
      </trkpt>
      <trkpt lat="47.24376" lon="-2.31149">
        <ele>-4.5999999046326</ele>
        <time>2020-07-05T07:14:13.000Z</time>
      </trkpt>
      <trkpt lat="47.24373" lon="-2.31144">
        <ele>-4</ele>
        <time>2020-07-05T07:14:14.000Z</time>
      </trkpt>
      <trkpt lat="47.2437" lon="-2.31139">
        <ele>-3.5999999046326</ele>
        <time>2020-07-05T07:14:15.000Z</time>
      </trkpt>
      <trkpt lat="47.24361" lon="-2.31125">
        <ele>-3.5999999046326</ele>
        <time>2020-07-05T07:14:18.000Z</time>
      </trkpt>
      <trkpt lat="47.24357" lon="-2.31111">
        <ele>-3.5999999046326</ele>
        <time>2020-07-05T07:14:20.000Z</time>
      </trkpt>
      <trkpt lat="47.24352" lon="-2.31099">
        <ele>-3.5999999046326</ele>
        <time>2020-07-05T07:14:22.000Z</time>
      </trkpt>
      <trkpt lat="47.24344" lon="-2.31075">
        <ele>-3.5999999046326</ele>
        <time>2020-07-05T07:14:26.000Z</time>
      </trkpt>
      <trkpt lat="47.2434" lon="-2.31064">
        <ele>-3.5999999046326</ele>
        <time>2020-07-05T07:14:28.000Z</time>
      </trkpt>
      <trkpt lat="47.24331" lon="-2.31049">
        <ele>-3.5999999046326</ele>
        <time>2020-07-05T07:14:31.000Z</time>
      </trkpt>
      <trkpt lat="47.24328" lon="-2.31045">
        <ele>-3.5999999046326</ele>
        <time>2020-07-05T07:14:32.000Z</time>
      </trkpt>
      <trkpt lat="47.24318" lon="-2.31038">
        <ele>-3.5999999046326</ele>
        <time>2020-07-05T07:14:35.000Z</time>
      </trkpt>
      <trkpt lat="47.24293" lon="-2.31039">
        <ele>-3.5999999046326</ele>
        <time>2020-07-05T07:14:40.000Z</time>
      </trkpt>
      <trkpt lat="47.2429" lon="-2.31036">
        <ele>-4.1999998092651</ele>
        <time>2020-07-05T07:14:41.000Z</time>
      </trkpt>
      <trkpt lat="47.24287" lon="-2.31032">
        <ele>-4.5999999046326</ele>
        <time>2020-07-05T07:14:42.000Z</time>
      </trkpt>
      <trkpt lat="47.24285" lon="-2.31025">
        <ele>-5.1999998092651</ele>
        <time>2020-07-05T07:14:43.000Z</time>
      </trkpt>
      <trkpt lat="47.24285" lon="-2.31018">
        <ele>-5.8000001907349</ele>
        <time>2020-07-05T07:14:44.000Z</time>
      </trkpt>
      <trkpt lat="47.24286" lon="-2.31011">
        <ele>-6.1999998092651</ele>
        <time>2020-07-05T07:14:45.000Z</time>
      </trkpt>
      <trkpt lat="47.24287" lon="-2.31005">
        <ele>-6.1999998092651</ele>
        <time>2020-07-05T07:14:46.000Z</time>
      </trkpt>
      <trkpt lat="47.2429" lon="-2.30966">
        <ele>-6.1999998092651</ele>
        <time>2020-07-05T07:14:52.000Z</time>
      </trkpt>
      <trkpt lat="47.24291" lon="-2.30954">
        <ele>-5.8000001907349</ele>
        <time>2020-07-05T07:14:54.000Z</time>
      </trkpt>
      <trkpt lat="47.24292" lon="-2.30949">
        <ele>-5.4000000953674</ele>
        <time>2020-07-05T07:14:55.000Z</time>
      </trkpt>
      <trkpt lat="47.24292" lon="-2.30943">
        <ele>-5</ele>
        <time>2020-07-05T07:14:56.000Z</time>
      </trkpt>
      <trkpt lat="47.24293" lon="-2.30938">
        <ele>-4.5999999046326</ele>
        <time>2020-07-05T07:14:57.000Z</time>
      </trkpt>
      <trkpt lat="47.24293" lon="-2.30933">
        <ele>-4.1999998092651</ele>
        <time>2020-07-05T07:14:58.000Z</time>
      </trkpt>
      <trkpt lat="47.24293" lon="-2.30915">
        <ele>-3.7999999523163</ele>
        <time>2020-07-05T07:15:01.000Z</time>
      </trkpt>
      <trkpt lat="47.24292" lon="-2.30909">
        <ele>-3.2000000476837</ele>
        <time>2020-07-05T07:15:02.000Z</time>
      </trkpt>
      <trkpt lat="47.24292" lon="-2.30903">
        <ele>-2.7999999523163</ele>
        <time>2020-07-05T07:15:03.000Z</time>
      </trkpt>
      <trkpt lat="47.24291" lon="-2.30896">
        <ele>-2.2000000476837</ele>
        <time>2020-07-05T07:15:04.000Z</time>
      </trkpt>
      <trkpt lat="47.24289" lon="-2.3089">
        <ele>-1.7999999523163</ele>
        <time>2020-07-05T07:15:05.000Z</time>
      </trkpt>
      <trkpt lat="47.24287" lon="-2.30863">
        <ele>-1.7999999523163</ele>
        <time>2020-07-05T07:15:09.000Z</time>
      </trkpt>
      <trkpt lat="47.24287" lon="-2.30857">
        <ele>-1.7999999523163</ele>
        <time>2020-07-05T07:15:10.000Z</time>
      </trkpt>
      <trkpt lat="47.2429" lon="-2.30839">
        <ele>-1.3999999761581</ele>
        <time>2020-07-05T07:15:13.000Z</time>
      </trkpt>
      <trkpt lat="47.24292" lon="-2.30833">
        <ele>-1</ele>
        <time>2020-07-05T07:15:14.000Z</time>
      </trkpt>
      <trkpt lat="47.24294" lon="-2.30828">
        <ele>-0.60000002384186</ele>
        <time>2020-07-05T07:15:15.000Z</time>
      </trkpt>
      <trkpt lat="47.24297" lon="-2.30823">
        <ele>0.20000000298023</ele>
        <time>2020-07-05T07:15:16.000Z</time>
      </trkpt>
      <trkpt lat="47.24315" lon="-2.30806">
        <ele>0.20000000298023</ele>
        <time>2020-07-05T07:15:21.000Z</time>
      </trkpt>
      <trkpt lat="47.24319" lon="-2.30804">
        <ele>0.20000000298023</ele>
        <time>2020-07-05T07:15:22.000Z</time>
      </trkpt>
      <trkpt lat="47.24346" lon="-2.30794">
        <ele>0.20000000298023</ele>
        <time>2020-07-05T07:15:28.000Z</time>
      </trkpt>
      <trkpt lat="47.24354" lon="-2.30791">
        <ele>0.60000002384186</ele>
        <time>2020-07-05T07:15:30.000Z</time>
      </trkpt>
      <trkpt lat="47.24358" lon="-2.30789">
        <ele>1</ele>
        <time>2020-07-05T07:15:31.000Z</time>
      </trkpt>
      <trkpt lat="47.24361" lon="-2.30787">
        <ele>1.6000000238419</ele>
        <time>2020-07-05T07:15:32.000Z</time>
      </trkpt>
      <trkpt lat="47.24365" lon="-2.30784">
        <ele>2</ele>
        <time>2020-07-05T07:15:33.000Z</time>
      </trkpt>
      <trkpt lat="47.24368" lon="-2.30782">
        <ele>2.4000000953674</ele>
        <time>2020-07-05T07:15:34.000Z</time>
      </trkpt>
      <trkpt lat="47.24377" lon="-2.30772">
        <ele>2.4000000953674</ele>
        <time>2020-07-05T07:15:37.000Z</time>
      </trkpt>
      <trkpt lat="47.24379" lon="-2.30768">
        <ele>2.4000000953674</ele>
        <time>2020-07-05T07:15:38.000Z</time>
      </trkpt>
      <trkpt lat="47.24382" lon="-2.30764">
        <ele>2.7999999523163</ele>
        <time>2020-07-05T07:15:39.000Z</time>
      </trkpt>
      <trkpt lat="47.24384" lon="-2.3076">
        <ele>3.2000000476837</ele>
        <time>2020-07-05T07:15:40.000Z</time>
      </trkpt>
      <trkpt lat="47.24387" lon="-2.30757">
        <ele>4.1999998092651</ele>
        <time>2020-07-05T07:15:41.000Z</time>
      </trkpt>
      <trkpt lat="47.2439" lon="-2.30755">
        <ele>4.5999999046326</ele>
        <time>2020-07-05T07:15:42.000Z</time>
      </trkpt>
      <trkpt lat="47.24395" lon="-2.3075">
        <ele>4.5999999046326</ele>
        <time>2020-07-05T07:15:44.000Z</time>
      </trkpt>
      <trkpt lat="47.24401" lon="-2.30731">
        <ele>4.5999999046326</ele>
        <time>2020-07-05T07:15:48.000Z</time>
      </trkpt>
      <trkpt lat="47.24403" lon="-2.30701">
        <ele>4.5999999046326</ele>
        <time>2020-07-05T07:15:53.000Z</time>
      </trkpt>
      <trkpt lat="47.24415" lon="-2.30655">
        <ele>4.5999999046326</ele>
        <time>2020-07-05T07:16:00.000Z</time>
      </trkpt>
      <trkpt lat="47.24417" lon="-2.30648">
        <ele>4.5999999046326</ele>
        <time>2020-07-05T07:16:01.000Z</time>
      </trkpt>
      <trkpt lat="47.24423" lon="-2.30625">
        <ele>4.5999999046326</ele>
        <time>2020-07-05T07:16:05.000Z</time>
      </trkpt>
      <trkpt lat="47.2444" lon="-2.30607">
        <ele>4.5999999046326</ele>
        <time>2020-07-05T07:16:10.000Z</time>
      </trkpt>
      <trkpt lat="47.24453" lon="-2.30588">
        <ele>4.5999999046326</ele>
        <time>2020-07-05T07:16:14.000Z</time>
      </trkpt>
      <trkpt lat="47.24456" lon="-2.30582">
        <ele>4.5999999046326</ele>
        <time>2020-07-05T07:16:15.000Z</time>
      </trkpt>
      <trkpt lat="47.24466" lon="-2.30553">
        <ele>4.5999999046326</ele>
        <time>2020-07-05T07:16:19.000Z</time>
      </trkpt>
      <trkpt lat="47.24467" lon="-2.30547">
        <ele>4.1999998092651</ele>
        <time>2020-07-05T07:16:21.000Z</time>
      </trkpt>
      <trkpt lat="47.24466" lon="-2.30548">
        <ele>3.7999999523163</ele>
        <time>2020-07-05T07:16:22.000Z</time>
      </trkpt>
      <trkpt lat="47.24463" lon="-2.30551">
        <ele>3.2000000476837</ele>
        <time>2020-07-05T07:16:23.000Z</time>
      </trkpt>
      <trkpt lat="47.24459" lon="-2.30556">
        <ele>2.7999999523163</ele>
        <time>2020-07-05T07:16:24.000Z</time>
      </trkpt>
      <trkpt lat="47.24455" lon="-2.3056">
        <ele>2.4000000953674</ele>
        <time>2020-07-05T07:16:25.000Z</time>
      </trkpt>
      <trkpt lat="47.24433" lon="-2.30579">
        <ele>2.4000000953674</ele>
        <time>2020-07-05T07:16:30.000Z</time>
      </trkpt>
      <trkpt lat="47.24428" lon="-2.30582">
        <ele>2</ele>
        <time>2020-07-05T07:16:31.000Z</time>
      </trkpt>
      <trkpt lat="47.24423" lon="-2.30585">
        <ele>1.3999999761581</ele>
        <time>2020-07-05T07:16:32.000Z</time>
      </trkpt>
      <trkpt lat="47.24418" lon="-2.30587">
        <ele>1</ele>
        <time>2020-07-05T07:16:33.000Z</time>
      </trkpt>
      <trkpt lat="47.24414" lon="-2.30586">
        <ele>0.60000002384186</ele>
        <time>2020-07-05T07:16:34.000Z</time>
      </trkpt>
      <trkpt lat="47.24409" lon="-2.30584">
        <ele>0.20000000298023</ele>
        <time>2020-07-05T07:16:35.000Z</time>
      </trkpt>
      <trkpt lat="47.24393" lon="-2.30574">
        <ele>0.20000000298023</ele>
        <time>2020-07-05T07:16:38.000Z</time>
      </trkpt>
      <trkpt lat="47.24387" lon="-2.30568">
        <ele>0.20000000298023</ele>
        <time>2020-07-05T07:16:39.000Z</time>
      </trkpt>
      <trkpt lat="47.24377" lon="-2.30557">
        <ele>-0.40000000596046</ele>
        <time>2020-07-05T07:16:41.000Z</time>
      </trkpt>
      <trkpt lat="47.24373" lon="-2.30552">
        <ele>-0.80000001192093</ele>
        <time>2020-07-05T07:16:42.000Z</time>
      </trkpt>
      <trkpt lat="47.24369" lon="-2.30546">
        <ele>-1.3999999761581</ele>
        <time>2020-07-05T07:16:43.000Z</time>
      </trkpt>
      <trkpt lat="47.24366" lon="-2.3054">
        <ele>-1.7999999523163</ele>
        <time>2020-07-05T07:16:44.000Z</time>
      </trkpt>
      <trkpt lat="47.24364" lon="-2.30536">
        <ele>-2.4000000953674</ele>
        <time>2020-07-05T07:16:45.000Z</time>
      </trkpt>
      <trkpt lat="47.24362" lon="-2.30527">
        <ele>-2.4000000953674</ele>
        <time>2020-07-05T07:16:47.000Z</time>
      </trkpt>
      <trkpt lat="47.24363" lon="-2.30512">
        <ele>-2</ele>
        <time>2020-07-05T07:16:51.000Z</time>
      </trkpt>
      <trkpt lat="47.24364" lon="-2.30508">
        <ele>-1.6000000238419</ele>
        <time>2020-07-05T07:16:52.000Z</time>
      </trkpt>
      <trkpt lat="47.24365" lon="-2.30504">
        <ele>-1.2000000476837</ele>
        <time>2020-07-05T07:16:53.000Z</time>
      </trkpt>
      <trkpt lat="47.24367" lon="-2.305">
        <ele>-0.80000001192093</ele>
        <time>2020-07-05T07:16:54.000Z</time>
      </trkpt>
      <trkpt lat="47.24369" lon="-2.30496">
        <ele>-0.40000000596046</ele>
        <time>2020-07-05T07:16:55.000Z</time>
      </trkpt>
      <trkpt lat="47.24373" lon="-2.30487">
        <ele>0.20000000298023</ele>
        <time>2020-07-05T07:16:57.000Z</time>
      </trkpt>
      <trkpt lat="47.24374" lon="-2.30483">
        <ele>0.60000002384186</ele>
        <time>2020-07-05T07:16:58.000Z</time>
      </trkpt>
      <trkpt lat="47.24376" lon="-2.30478">
        <ele>1</ele>
        <time>2020-07-05T07:16:59.000Z</time>
      </trkpt>
      <trkpt lat="47.24377" lon="-2.30473">
        <ele>1.3999999761581</ele>
        <time>2020-07-05T07:17:00.000Z</time>
      </trkpt>
      <trkpt lat="47.24378" lon="-2.30468">
        <ele>1.7999999523163</ele>
        <time>2020-07-05T07:17:01.000Z</time>
      </trkpt>
      <trkpt lat="47.24379" lon="-2.30455">
        <ele>1.7999999523163</ele>
        <time>2020-07-05T07:17:04.000Z</time>
      </trkpt>
      <trkpt lat="47.24378" lon="-2.30452">
        <ele>1.7999999523163</ele>
        <time>2020-07-05T07:17:06.000Z</time>
      </trkpt>
      <trkpt lat="47.24374" lon="-2.30452">
        <ele>2.2000000476837</ele>
        <time>2020-07-05T07:17:08.000Z</time>
      </trkpt>
      <trkpt lat="47.24372" lon="-2.30453">
        <ele>2.5999999046326</ele>
        <time>2020-07-05T07:17:09.000Z</time>
      </trkpt>
      <trkpt lat="47.24369" lon="-2.30453">
        <ele>3</ele>
        <time>2020-07-05T07:17:10.000Z</time>
      </trkpt>
      <trkpt lat="47.24365" lon="-2.30453">
        <ele>3.4000000953674</ele>
        <time>2020-07-05T07:17:11.000Z</time>
      </trkpt>
      <trkpt lat="47.24362" lon="-2.30453">
        <ele>3.7999999523163</ele>
        <time>2020-07-05T07:17:12.000Z</time>
      </trkpt>
      <trkpt lat="47.24358" lon="-2.30452">
        <ele>3.7999999523163</ele>
        <time>2020-07-05T07:17:13.000Z</time>
      </trkpt>
      <trkpt lat="47.24339" lon="-2.30443">
        <ele>3.7999999523163</ele>
        <time>2020-07-05T07:17:19.000Z</time>
      </trkpt>
      <trkpt lat="47.2432" lon="-2.30433">
        <ele>4.1999998092651</ele>
        <time>2020-07-05T07:17:26.000Z</time>
      </trkpt>
      <trkpt lat="47.24317" lon="-2.30432">
        <ele>4.5999999046326</ele>
        <time>2020-07-05T07:17:27.000Z</time>
      </trkpt>
      <trkpt lat="47.24315" lon="-2.3043">
        <ele>5</ele>
        <time>2020-07-05T07:17:28.000Z</time>
      </trkpt>
      <trkpt lat="47.24312" lon="-2.30429">
        <ele>5.4000000953674</ele>
        <time>2020-07-05T07:17:29.000Z</time>
      </trkpt>
      <trkpt lat="47.24309" lon="-2.30428">
        <ele>5.8000001907349</ele>
        <time>2020-07-05T07:17:30.000Z</time>
      </trkpt>
      <trkpt lat="47.24295" lon="-2.30416">
        <ele>5.8000001907349</ele>
        <time>2020-07-05T07:17:35.000Z</time>
      </trkpt>
      <trkpt lat="47.24276" lon="-2.30386">
        <ele>5.8000001907349</ele>
        <time>2020-07-05T07:17:41.000Z</time>
      </trkpt>
      <trkpt lat="47.24249" lon="-2.30338">
        <ele>5.8000001907349</ele>
        <time>2020-07-05T07:17:49.000Z</time>
      </trkpt>
      <trkpt lat="47.24237" lon="-2.30326">
        <ele>5.8000001907349</ele>
        <time>2020-07-05T07:17:53.000Z</time>
      </trkpt>
      <trkpt lat="47.24233" lon="-2.30328">
        <ele>5.8000001907349</ele>
        <time>2020-07-05T07:17:54.000Z</time>
      </trkpt>
      <trkpt lat="47.24213" lon="-2.30336">
        <ele>5.4000000953674</ele>
        <time>2020-07-05T07:17:59.000Z</time>
      </trkpt>
      <trkpt lat="47.2421" lon="-2.30332">
        <ele>5</ele>
        <time>2020-07-05T07:18:00.000Z</time>
      </trkpt>
      <trkpt lat="47.24208" lon="-2.30327">
        <ele>4.5999999046326</ele>
        <time>2020-07-05T07:18:01.000Z</time>
      </trkpt>
      <trkpt lat="47.24207" lon="-2.30322">
        <ele>4</ele>
        <time>2020-07-05T07:18:02.000Z</time>
      </trkpt>
      <trkpt lat="47.24205" lon="-2.30314">
        <ele>3.5999999046326</ele>
        <time>2020-07-05T07:18:03.000Z</time>
      </trkpt>
      <trkpt lat="47.24203" lon="-2.30305">
        <ele>3</ele>
        <time>2020-07-05T07:18:04.000Z</time>
      </trkpt>
      <trkpt lat="47.24201" lon="-2.30297">
        <ele>2.5999999046326</ele>
        <time>2020-07-05T07:18:05.000Z</time>
      </trkpt>
      <trkpt lat="47.242" lon="-2.30289">
        <ele>2</ele>
        <time>2020-07-05T07:18:06.000Z</time>
      </trkpt>
      <trkpt lat="47.24199" lon="-2.30281">
        <ele>1.6000000238419</ele>
        <time>2020-07-05T07:18:07.000Z</time>
      </trkpt>
      <trkpt lat="47.24192" lon="-2.30245">
        <ele>1.6000000238419</ele>
        <time>2020-07-05T07:18:12.000Z</time>
      </trkpt>
      <trkpt lat="47.24188" lon="-2.30242">
        <ele>1.6000000238419</ele>
        <time>2020-07-05T07:18:14.000Z</time>
      </trkpt>
      <trkpt lat="47.24185" lon="-2.30243">
        <ele>1.6000000238419</ele>
        <time>2020-07-05T07:18:15.000Z</time>
      </trkpt>
      <trkpt lat="47.24169" lon="-2.30243">
        <ele>1.6000000238419</ele>
        <time>2020-07-05T07:18:19.000Z</time>
      </trkpt>
      <trkpt lat="47.24162" lon="-2.30238">
        <ele>1.6000000238419</ele>
        <time>2020-07-05T07:18:21.000Z</time>
      </trkpt>
      <trkpt lat="47.24153" lon="-2.30229">
        <ele>1.6000000238419</ele>
        <time>2020-07-05T07:18:24.000Z</time>
      </trkpt>
      <trkpt lat="47.24142" lon="-2.30201">
        <ele>1.6000000238419</ele>
        <time>2020-07-05T07:18:30.000Z</time>
      </trkpt>
      <trkpt lat="47.24134" lon="-2.30181">
        <ele>1.6000000238419</ele>
        <time>2020-07-05T07:18:36.000Z</time>
      </trkpt>
      <trkpt lat="47.24133" lon="-2.30174">
        <ele>1.6000000238419</ele>
        <time>2020-07-05T07:18:40.000Z</time>
      </trkpt>
      <trkpt lat="47.24133" lon="-2.30171">
        <ele>2</ele>
        <time>2020-07-05T07:18:41.000Z</time>
      </trkpt>
      <trkpt lat="47.24132" lon="-2.30168">
        <ele>2.4000000953674</ele>
        <time>2020-07-05T07:18:42.000Z</time>
      </trkpt>
      <trkpt lat="47.24131" lon="-2.30167">
        <ele>2.7999999523163</ele>
        <time>2020-07-05T07:18:43.000Z</time>
      </trkpt>
      <trkpt lat="47.2413" lon="-2.30166">
        <ele>3.2000000476837</ele>
        <time>2020-07-05T07:18:44.000Z</time>
      </trkpt>
      <trkpt lat="47.24129" lon="-2.30165">
        <ele>3.7999999523163</ele>
        <time>2020-07-05T07:18:45.000Z</time>
      </trkpt>
      <trkpt lat="47.24128" lon="-2.30164">
        <ele>4.1999998092651</ele>
        <time>2020-07-05T07:18:46.000Z</time>
      </trkpt>
      <trkpt lat="47.24127" lon="-2.30165">
        <ele>4.8000001907349</ele>
        <time>2020-07-05T07:18:47.000Z</time>
      </trkpt>
      <trkpt lat="47.24126" lon="-2.30166">
        <ele>5.1999998092651</ele>
        <time>2020-07-05T07:18:48.000Z</time>
      </trkpt>
      <trkpt lat="47.24125" lon="-2.30167">
        <ele>5.8000001907349</ele>
        <time>2020-07-05T07:18:49.000Z</time>
      </trkpt>
      <trkpt lat="47.24121" lon="-2.30169">
        <ele>5.8000001907349</ele>
        <time>2020-07-05T07:18:52.000Z</time>
      </trkpt>
      <trkpt lat="47.24109" lon="-2.30167">
        <ele>5.8000001907349</ele>
        <time>2020-07-05T07:18:58.000Z</time>
      </trkpt>
      <trkpt lat="47.24108" lon="-2.30167">
        <ele>6.1999998092651</ele>
        <time>2020-07-05T07:18:59.000Z</time>
      </trkpt>
      <trkpt lat="47.24106" lon="-2.30166">
        <ele>6.5999999046326</ele>
        <time>2020-07-05T07:19:00.000Z</time>
      </trkpt>
      <trkpt lat="47.24104" lon="-2.30166">
        <ele>7</ele>
        <time>2020-07-05T07:19:01.000Z</time>
      </trkpt>
      <trkpt lat="47.24102" lon="-2.30166">
        <ele>7.5999999046326</ele>
        <time>2020-07-05T07:19:02.000Z</time>
      </trkpt>
      <trkpt lat="47.241" lon="-2.30166">
        <ele>8</ele>
        <time>2020-07-05T07:19:03.000Z</time>
      </trkpt>
      <trkpt lat="47.24092" lon="-2.30168">
        <ele>8</ele>
        <time>2020-07-05T07:19:06.000Z</time>
      </trkpt>
      <trkpt lat="47.24083" lon="-2.30178">
        <ele>8</ele>
        <time>2020-07-05T07:19:11.000Z</time>
      </trkpt>
      <trkpt lat="47.24077" lon="-2.30179">
        <ele>8</ele>
        <time>2020-07-05T07:19:12.000Z</time>
      </trkpt>
      <trkpt lat="47.2405" lon="-2.30192">
        <ele>8</ele>
        <time>2020-07-05T07:19:19.000Z</time>
      </trkpt>
      <trkpt lat="47.24047" lon="-2.30192">
        <ele>8</ele>
        <time>2020-07-05T07:19:20.000Z</time>
      </trkpt>
      <trkpt lat="47.2404" lon="-2.30188">
        <ele>8</ele>
        <time>2020-07-05T07:19:23.000Z</time>
      </trkpt>
      <trkpt lat="47.24025" lon="-2.30175">
        <ele>8</ele>
        <time>2020-07-05T07:19:29.000Z</time>
      </trkpt>
      <trkpt lat="47.24005" lon="-2.30165">
        <ele>8</ele>
        <time>2020-07-05T07:19:37.000Z</time>
      </trkpt>
      <trkpt lat="47.23983" lon="-2.3015">
        <ele>8</ele>
        <time>2020-07-05T07:19:43.000Z</time>
      </trkpt>
      <trkpt lat="47.23958" lon="-2.30141">
        <ele>8</ele>
        <time>2020-07-05T07:19:48.000Z</time>
      </trkpt>
      <trkpt lat="47.23931" lon="-2.30126">
        <ele>7.5999999046326</ele>
        <time>2020-07-05T07:19:53.000Z</time>
      </trkpt>
      <trkpt lat="47.23925" lon="-2.30121">
        <ele>7</ele>
        <time>2020-07-05T07:19:54.000Z</time>
      </trkpt>
      <trkpt lat="47.23921" lon="-2.30118">
        <ele>6.5999999046326</ele>
        <time>2020-07-05T07:19:55.000Z</time>
      </trkpt>
      <trkpt lat="47.23919" lon="-2.30113">
        <ele>6.1999998092651</ele>
        <time>2020-07-05T07:19:56.000Z</time>
      </trkpt>
      <trkpt lat="47.23917" lon="-2.30108">
        <ele>5.8000001907349</ele>
        <time>2020-07-05T07:19:57.000Z</time>
      </trkpt>
      <trkpt lat="47.23906" lon="-2.30096">
        <ele>5.8000001907349</ele>
        <time>2020-07-05T07:20:00.000Z</time>
      </trkpt>
      <trkpt lat="47.23893" lon="-2.30088">
        <ele>5.8000001907349</ele>
        <time>2020-07-05T07:20:03.000Z</time>
      </trkpt>
      <trkpt lat="47.23881" lon="-2.30079">
        <ele>5.8000001907349</ele>
        <time>2020-07-05T07:20:06.000Z</time>
      </trkpt>
      <trkpt lat="47.23865" lon="-2.30065">
        <ele>5.8000001907349</ele>
        <time>2020-07-05T07:20:09.000Z</time>
      </trkpt>
      <trkpt lat="47.23858" lon="-2.30057">
        <ele>5.8000001907349</ele>
        <time>2020-07-05T07:20:10.000Z</time>
      </trkpt>
      <trkpt lat="47.23854" lon="-2.30049">
        <ele>5.8000001907349</ele>
        <time>2020-07-05T07:20:11.000Z</time>
      </trkpt>
      <trkpt lat="47.23848" lon="-2.30027">
        <ele>5.8000001907349</ele>
        <time>2020-07-05T07:20:14.000Z</time>
      </trkpt>
      <trkpt lat="47.23847" lon="-2.30019">
        <ele>5.8000001907349</ele>
        <time>2020-07-05T07:20:15.000Z</time>
      </trkpt>
      <trkpt lat="47.23844" lon="-2.30006">
        <ele>6.1999998092651</ele>
        <time>2020-07-05T07:20:17.000Z</time>
      </trkpt>
      <trkpt lat="47.23843" lon="-2.3">
        <ele>6.5999999046326</ele>
        <time>2020-07-05T07:20:18.000Z</time>
      </trkpt>
      <trkpt lat="47.23842" lon="-2.29993">
        <ele>7</ele>
        <time>2020-07-05T07:20:19.000Z</time>
      </trkpt>
      <trkpt lat="47.23841" lon="-2.29987">
        <ele>7.4000000953674</ele>
        <time>2020-07-05T07:20:20.000Z</time>
      </trkpt>
      <trkpt lat="47.23839" lon="-2.2998">
        <ele>7.8000001907349</ele>
        <time>2020-07-05T07:20:21.000Z</time>
      </trkpt>
      <trkpt lat="47.23838" lon="-2.29974">
        <ele>7.8000001907349</ele>
        <time>2020-07-05T07:20:22.000Z</time>
      </trkpt>
      <trkpt lat="47.23834" lon="-2.29954">
        <ele>7.8000001907349</ele>
        <time>2020-07-05T07:20:25.000Z</time>
      </trkpt>
      <trkpt lat="47.2383" lon="-2.29937">
        <ele>7.8000001907349</ele>
        <time>2020-07-05T07:20:28.000Z</time>
      </trkpt>
      <trkpt lat="47.23827" lon="-2.29924">
        <ele>8.1999998092651</ele>
        <time>2020-07-05T07:20:30.000Z</time>
      </trkpt>
      <trkpt lat="47.23826" lon="-2.29918">
        <ele>8.8000001907349</ele>
        <time>2020-07-05T07:20:31.000Z</time>
      </trkpt>
      <trkpt lat="47.23825" lon="-2.29911">
        <ele>9.1999998092651</ele>
        <time>2020-07-05T07:20:32.000Z</time>
      </trkpt>
      <trkpt lat="47.23824" lon="-2.29905">
        <ele>9.6000003814697</ele>
        <time>2020-07-05T07:20:33.000Z</time>
      </trkpt>
      <trkpt lat="47.23823" lon="-2.29898">
        <ele>10</ele>
        <time>2020-07-05T07:20:34.000Z</time>
      </trkpt>
      <trkpt lat="47.23822" lon="-2.29892">
        <ele>10</ele>
        <time>2020-07-05T07:20:35.000Z</time>
      </trkpt>
      <trkpt lat="47.23812" lon="-2.29835">
        <ele>10</ele>
        <time>2020-07-05T07:20:43.000Z</time>
      </trkpt>
      <trkpt lat="47.23812" lon="-2.2982">
        <ele>10</ele>
        <time>2020-07-05T07:20:45.000Z</time>
      </trkpt>
      <trkpt lat="47.23812" lon="-2.29796">
        <ele>10</ele>
        <time>2020-07-05T07:20:48.000Z</time>
      </trkpt>
      <trkpt lat="47.23814" lon="-2.29733">
        <ele>10</ele>
        <time>2020-07-05T07:20:56.000Z</time>
      </trkpt>
      <trkpt lat="47.23813" lon="-2.29718">
        <ele>10</ele>
        <time>2020-07-05T07:20:58.000Z</time>
      </trkpt>
      <trkpt lat="47.23815" lon="-2.29695">
        <ele>10</ele>
        <time>2020-07-05T07:21:01.000Z</time>
      </trkpt>
      <trkpt lat="47.23816" lon="-2.2968">
        <ele>10</ele>
        <time>2020-07-05T07:21:03.000Z</time>
      </trkpt>
      <trkpt lat="47.23817" lon="-2.29642">
        <ele>10</ele>
        <time>2020-07-05T07:21:08.000Z</time>
      </trkpt>
      <trkpt lat="47.2382" lon="-2.29596">
        <ele>10</ele>
        <time>2020-07-05T07:21:14.000Z</time>
      </trkpt>
      <trkpt lat="47.23821" lon="-2.29544">
        <ele>10</ele>
        <time>2020-07-05T07:21:20.000Z</time>
      </trkpt>
      <trkpt lat="47.23823" lon="-2.29482">
        <ele>10</ele>
        <time>2020-07-05T07:21:27.000Z</time>
      </trkpt>
      <trkpt lat="47.23824" lon="-2.29437">
        <ele>10</ele>
        <time>2020-07-05T07:21:33.000Z</time>
      </trkpt>
      <trkpt lat="47.23828" lon="-2.29425">
        <ele>10</ele>
        <time>2020-07-05T07:21:35.000Z</time>
      </trkpt>
      <trkpt lat="47.23833" lon="-2.29414">
        <ele>10</ele>
        <time>2020-07-05T07:21:37.000Z</time>
      </trkpt>
      <trkpt lat="47.23839" lon="-2.29401">
        <ele>10</ele>
        <time>2020-07-05T07:21:39.000Z</time>
      </trkpt>
      <trkpt lat="47.23851" lon="-2.29375">
        <ele>10</ele>
        <time>2020-07-05T07:21:43.000Z</time>
      </trkpt>
      <trkpt lat="47.2387" lon="-2.29339">
        <ele>10</ele>
        <time>2020-07-05T07:21:49.000Z</time>
      </trkpt>
      <trkpt lat="47.23885" lon="-2.29333">
        <ele>10</ele>
        <time>2020-07-05T07:21:52.000Z</time>
      </trkpt>
      <trkpt lat="47.23896" lon="-2.29333">
        <ele>10</ele>
        <time>2020-07-05T07:21:54.000Z</time>
      </trkpt>
      <trkpt lat="47.23907" lon="-2.29334">
        <ele>10</ele>
        <time>2020-07-05T07:21:56.000Z</time>
      </trkpt>
      <trkpt lat="47.23911" lon="-2.29337">
        <ele>10</ele>
        <time>2020-07-05T07:21:57.000Z</time>
      </trkpt>
      <trkpt lat="47.23925" lon="-2.2936">
        <ele>10</ele>
        <time>2020-07-05T07:22:01.000Z</time>
      </trkpt>
      <trkpt lat="47.23938" lon="-2.29388">
        <ele>10.39999961853</ele>
        <time>2020-07-05T07:22:06.000Z</time>
      </trkpt>
      <trkpt lat="47.23941" lon="-2.29394">
        <ele>10.800000190735</ele>
        <time>2020-07-05T07:22:07.000Z</time>
      </trkpt>
      <trkpt lat="47.23944" lon="-2.294">
        <ele>11.39999961853</ele>
        <time>2020-07-05T07:22:08.000Z</time>
      </trkpt>
      <trkpt lat="47.23946" lon="-2.29405">
        <ele>11.800000190735</ele>
        <time>2020-07-05T07:22:09.000Z</time>
      </trkpt>
      <trkpt lat="47.23949" lon="-2.2941">
        <ele>12.199999809265</ele>
        <time>2020-07-05T07:22:10.000Z</time>
      </trkpt>
      <trkpt lat="47.23963" lon="-2.29436">
        <ele>12.199999809265</ele>
        <time>2020-07-05T07:22:15.000Z</time>
      </trkpt>
      <trkpt lat="47.23985" lon="-2.29479">
        <ele>12.199999809265</ele>
        <time>2020-07-05T07:22:23.000Z</time>
      </trkpt>
      <trkpt lat="47.23996" lon="-2.295">
        <ele>12.199999809265</ele>
        <time>2020-07-05T07:22:27.000Z</time>
      </trkpt>
      <trkpt lat="47.23998" lon="-2.29514">
        <ele>12.199999809265</ele>
        <time>2020-07-05T07:22:29.000Z</time>
      </trkpt>
      <trkpt lat="47.23999" lon="-2.29528">
        <ele>12.199999809265</ele>
        <time>2020-07-05T07:22:31.000Z</time>
      </trkpt>
      <trkpt lat="47.24" lon="-2.29564">
        <ele>12.199999809265</ele>
        <time>2020-07-05T07:22:36.000Z</time>
      </trkpt>
      <trkpt lat="47.24005" lon="-2.29619">
        <ele>12.199999809265</ele>
        <time>2020-07-05T07:22:44.000Z</time>
      </trkpt>
      <trkpt lat="47.2401" lon="-2.29671">
        <ele>12.199999809265</ele>
        <time>2020-07-05T07:22:51.000Z</time>
      </trkpt>
      <trkpt lat="47.24013" lon="-2.2973">
        <ele>12.199999809265</ele>
        <time>2020-07-05T07:22:59.000Z</time>
      </trkpt>
      <trkpt lat="47.24015" lon="-2.29771">
        <ele>12.199999809265</ele>
        <time>2020-07-05T07:23:05.000Z</time>
      </trkpt>
      <trkpt lat="47.24018" lon="-2.29795">
        <ele>12.199999809265</ele>
        <time>2020-07-05T07:23:10.000Z</time>
      </trkpt>
      <trkpt lat="47.24031" lon="-2.29809">
        <ele>12.199999809265</ele>
        <time>2020-07-05T07:23:16.000Z</time>
      </trkpt>
      <trkpt lat="47.24036" lon="-2.29816">
        <ele>12.199999809265</ele>
        <time>2020-07-05T07:23:22.000Z</time>
      </trkpt>
      <trkpt lat="47.24037" lon="-2.29818">
        <ele>12.199999809265</ele>
        <time>2020-07-05T07:23:23.000Z</time>
      </trkpt>
      <trkpt lat="47.24041" lon="-2.29822">
        <ele>12.199999809265</ele>
        <time>2020-07-05T07:23:27.000Z</time>
      </trkpt>
      <trkpt lat="47.24041" lon="-2.2982">
        <ele>12.199999809265</ele>
        <time>2020-07-05T07:23:28.000Z</time>
      </trkpt>
      <trkpt lat="47.24041" lon="-2.29812">
        <ele>12.199999809265</ele>
        <time>2020-07-05T07:23:32.000Z</time>
      </trkpt>
      <trkpt lat="47.24039" lon="-2.29807">
        <ele>12.199999809265</ele>
        <time>2020-07-05T07:23:35.000Z</time>
      </trkpt>
      <trkpt lat="47.24042" lon="-2.29805">
        <ele>12.199999809265</ele>
        <time>2020-07-05T07:23:37.000Z</time>
      </trkpt>
      <trkpt lat="47.24052" lon="-2.2981">
        <ele>12.199999809265</ele>
        <time>2020-07-05T07:23:41.000Z</time>
      </trkpt>
      <trkpt lat="47.24054" lon="-2.29814">
        <ele>12.199999809265</ele>
        <time>2020-07-05T07:23:42.000Z</time>
      </trkpt>
      <trkpt lat="47.24068" lon="-2.29828">
        <ele>12.199999809265</ele>
        <time>2020-07-05T07:23:47.000Z</time>
      </trkpt>
      <trkpt lat="47.24086" lon="-2.29835">
        <ele>12.199999809265</ele>
        <time>2020-07-05T07:23:52.000Z</time>
      </trkpt>
      <trkpt lat="47.24091" lon="-2.29841">
        <ele>12.199999809265</ele>
        <time>2020-07-05T07:23:54.000Z</time>
      </trkpt>
      <trkpt lat="47.24094" lon="-2.2985">
        <ele>12.199999809265</ele>
        <time>2020-07-05T07:23:56.000Z</time>
      </trkpt>
      <trkpt lat="47.24092" lon="-2.29879">
        <ele>12.199999809265</ele>
        <time>2020-07-05T07:24:01.000Z</time>
      </trkpt>
      <trkpt lat="47.24088" lon="-2.29907">
        <ele>12.199999809265</ele>
        <time>2020-07-05T07:24:05.000Z</time>
      </trkpt>
      <trkpt lat="47.24079" lon="-2.29933">
        <ele>11.800000190735</ele>
        <time>2020-07-05T07:24:09.000Z</time>
      </trkpt>
      <trkpt lat="47.24079" lon="-2.29936">
        <ele>11.39999961853</ele>
        <time>2020-07-05T07:24:10.000Z</time>
      </trkpt>
      <trkpt lat="47.2408" lon="-2.2994">
        <ele>10.800000190735</ele>
        <time>2020-07-05T07:24:11.000Z</time>
      </trkpt>
      <trkpt lat="47.24081" lon="-2.29942">
        <ele>10.39999961853</ele>
        <time>2020-07-05T07:24:12.000Z</time>
      </trkpt>
      <trkpt lat="47.24082" lon="-2.29945">
        <ele>10</ele>
        <time>2020-07-05T07:24:13.000Z</time>
      </trkpt>
      <trkpt lat="47.24085" lon="-2.29965">
        <ele>10</ele>
        <time>2020-07-05T07:24:18.000Z</time>
      </trkpt>
      <trkpt lat="47.24088" lon="-2.29974">
        <ele>10</ele>
        <time>2020-07-05T07:24:21.000Z</time>
      </trkpt>
      <trkpt lat="47.24092" lon="-2.29975">
        <ele>10</ele>
        <time>2020-07-05T07:24:23.000Z</time>
      </trkpt>
      <trkpt lat="47.24102" lon="-2.29966">
        <ele>10</ele>
        <time>2020-07-05T07:24:29.000Z</time>
      </trkpt>
      <trkpt lat="47.24106" lon="-2.29948">
        <ele>10</ele>
        <time>2020-07-05T07:24:35.000Z</time>
      </trkpt>
      <trkpt lat="47.24103" lon="-2.29925">
        <ele>10</ele>
        <time>2020-07-05T07:24:42.000Z</time>
      </trkpt>
      <trkpt lat="47.2411" lon="-2.29909">
        <ele>10</ele>
        <time>2020-07-05T07:24:48.000Z</time>
      </trkpt>
      <trkpt lat="47.24111" lon="-2.29906">
        <ele>10</ele>
        <time>2020-07-05T07:24:49.000Z</time>
      </trkpt>
      <trkpt lat="47.24115" lon="-2.2989">
        <ele>10</ele>
        <time>2020-07-05T07:24:54.000Z</time>
      </trkpt>
      <trkpt lat="47.24117" lon="-2.29871">
        <ele>10</ele>
        <time>2020-07-05T07:25:01.000Z</time>
      </trkpt>
      <trkpt lat="47.2412" lon="-2.29853">
        <ele>10</ele>
        <time>2020-07-05T07:25:07.000Z</time>
      </trkpt>
      <trkpt lat="47.24122" lon="-2.29852">
        <ele>10</ele>
        <time>2020-07-05T07:25:08.000Z</time>
      </trkpt>
      <trkpt lat="47.24139" lon="-2.29844">
        <ele>10</ele>
        <time>2020-07-05T07:25:13.000Z</time>
      </trkpt>
      <trkpt lat="47.24158" lon="-2.29843">
        <ele>10</ele>
        <time>2020-07-05T07:25:18.000Z</time>
      </trkpt>
      <trkpt lat="47.24173" lon="-2.29851">
        <ele>10</ele>
        <time>2020-07-05T07:25:23.000Z</time>
      </trkpt>
      <trkpt lat="47.24178" lon="-2.29867">
        <ele>10</ele>
        <time>2020-07-05T07:25:28.000Z</time>
      </trkpt>
      <trkpt lat="47.24184" lon="-2.29888">
        <ele>10</ele>
        <time>2020-07-05T07:25:34.000Z</time>
      </trkpt>
      <trkpt lat="47.24186" lon="-2.29917">
        <ele>10</ele>
        <time>2020-07-05T07:25:42.000Z</time>
      </trkpt>
      <trkpt lat="47.24182" lon="-2.29951">
        <ele>10</ele>
        <time>2020-07-05T07:25:47.000Z</time>
      </trkpt>
      <trkpt lat="47.24179" lon="-2.29972">
        <ele>10</ele>
        <time>2020-07-05T07:25:52.000Z</time>
      </trkpt>
      <trkpt lat="47.2418" lon="-2.29994">
        <ele>10</ele>
        <time>2020-07-05T07:25:58.000Z</time>
      </trkpt>
      <trkpt lat="47.24188" lon="-2.30012">
        <ele>9.6000003814697</ele>
        <time>2020-07-05T07:26:02.000Z</time>
      </trkpt>
      <trkpt lat="47.2419" lon="-2.30017">
        <ele>9</ele>
        <time>2020-07-05T07:26:03.000Z</time>
      </trkpt>
      <trkpt lat="47.24191" lon="-2.30022">
        <ele>8.6000003814697</ele>
        <time>2020-07-05T07:26:04.000Z</time>
      </trkpt>
      <trkpt lat="47.24192" lon="-2.30027">
        <ele>8</ele>
        <time>2020-07-05T07:26:05.000Z</time>
      </trkpt>
      <trkpt lat="47.2419" lon="-2.30031">
        <ele>7.5999999046326</ele>
        <time>2020-07-05T07:26:06.000Z</time>
      </trkpt>
      <trkpt lat="47.24188" lon="-2.30034">
        <ele>7.5999999046326</ele>
        <time>2020-07-05T07:26:08.000Z</time>
      </trkpt>
      <trkpt lat="47.24183" lon="-2.30036">
        <ele>7.5999999046326</ele>
        <time>2020-07-05T07:26:10.000Z</time>
      </trkpt>
      <trkpt lat="47.24177" lon="-2.30035">
        <ele>7.5999999046326</ele>
        <time>2020-07-05T07:26:12.000Z</time>
      </trkpt>
      <trkpt lat="47.24159" lon="-2.30038">
        <ele>7.5999999046326</ele>
        <time>2020-07-05T07:26:18.000Z</time>
      </trkpt>
      <trkpt lat="47.24151" lon="-2.30046">
        <ele>7.5999999046326</ele>
        <time>2020-07-05T07:26:21.000Z</time>
      </trkpt>
      <trkpt lat="47.24146" lon="-2.30056">
        <ele>7.5999999046326</ele>
        <time>2020-07-05T07:26:23.000Z</time>
      </trkpt>
      <trkpt lat="47.24145" lon="-2.30085">
        <ele>7.5999999046326</ele>
        <time>2020-07-05T07:26:28.000Z</time>
      </trkpt>
      <trkpt lat="47.24146" lon="-2.30091">
        <ele>7.1999998092651</ele>
        <time>2020-07-05T07:26:29.000Z</time>
      </trkpt>
      <trkpt lat="47.24146" lon="-2.30099">
        <ele>6.5999999046326</ele>
        <time>2020-07-05T07:26:30.000Z</time>
      </trkpt>
      <trkpt lat="47.24146" lon="-2.30107">
        <ele>6.1999998092651</ele>
        <time>2020-07-05T07:26:31.000Z</time>
      </trkpt>
      <trkpt lat="47.24145" lon="-2.30115">
        <ele>5.8000001907349</ele>
        <time>2020-07-05T07:26:32.000Z</time>
      </trkpt>
      <trkpt lat="47.24144" lon="-2.30122">
        <ele>5.4000000953674</ele>
        <time>2020-07-05T07:26:33.000Z</time>
      </trkpt>
      <trkpt lat="47.24138" lon="-2.30139">
        <ele>5.4000000953674</ele>
        <time>2020-07-05T07:26:37.000Z</time>
      </trkpt>
      <trkpt lat="47.24136" lon="-2.30142">
        <ele>5.4000000953674</ele>
        <time>2020-07-05T07:26:38.000Z</time>
      </trkpt>
      <trkpt lat="47.24128" lon="-2.30158">
        <ele>5.4000000953674</ele>
        <time>2020-07-05T07:26:44.000Z</time>
      </trkpt>
      <trkpt lat="47.24128" lon="-2.3016">
        <ele>5.4000000953674</ele>
        <time>2020-07-05T07:26:45.000Z</time>
      </trkpt>
      <trkpt lat="47.24131" lon="-2.30158">
        <ele>5.4000000953674</ele>
        <time>2020-07-05T07:26:47.000Z</time>
      </trkpt>
      <trkpt lat="47.24133" lon="-2.30154">
        <ele>4.4000000953674</ele>
        <time>2020-07-05T07:26:48.000Z</time>
      </trkpt>
      <trkpt lat="47.24134" lon="-2.30151">
        <ele>3.7999999523163</ele>
        <time>2020-07-05T07:26:49.000Z</time>
      </trkpt>
      <trkpt lat="47.24135" lon="-2.30146">
        <ele>3.4000000953674</ele>
        <time>2020-07-05T07:26:50.000Z</time>
      </trkpt>
      <trkpt lat="47.24137" lon="-2.30141">
        <ele>2.7999999523163</ele>
        <time>2020-07-05T07:26:51.000Z</time>
      </trkpt>
      <trkpt lat="47.24143" lon="-2.30118">
        <ele>2.7999999523163</ele>
        <time>2020-07-05T07:26:55.000Z</time>
      </trkpt>
      <trkpt lat="47.24147" lon="-2.30097">
        <ele>3.2000000476837</ele>
        <time>2020-07-05T07:26:59.000Z</time>
      </trkpt>
      <trkpt lat="47.24148" lon="-2.30092">
        <ele>3.7999999523163</ele>
        <time>2020-07-05T07:27:00.000Z</time>
      </trkpt>
      <trkpt lat="47.24149" lon="-2.30088">
        <ele>4.1999998092651</ele>
        <time>2020-07-05T07:27:01.000Z</time>
      </trkpt>
      <trkpt lat="47.2415" lon="-2.30084">
        <ele>4.5999999046326</ele>
        <time>2020-07-05T07:27:02.000Z</time>
      </trkpt>
      <trkpt lat="47.2415" lon="-2.3008">
        <ele>5</ele>
        <time>2020-07-05T07:27:03.000Z</time>
      </trkpt>
      <trkpt lat="47.24154" lon="-2.30068">
        <ele>5</ele>
        <time>2020-07-05T07:27:07.000Z</time>
      </trkpt>
      <trkpt lat="47.24158" lon="-2.30059">
        <ele>5</ele>
        <time>2020-07-05T07:27:11.000Z</time>
      </trkpt>
      <trkpt lat="47.24178" lon="-2.30037">
        <ele>7</ele>
        <time>2020-07-05T07:27:32.000Z</time>
      </trkpt>
      <trkpt lat="47.24184" lon="-2.30018">
        <ele>7</ele>
        <time>2020-07-05T07:27:39.000Z</time>
      </trkpt>
      <trkpt lat="47.24181" lon="-2.30014">
        <ele>7</ele>
        <time>2020-07-05T07:27:41.000Z</time>
      </trkpt>
      <trkpt lat="47.24174" lon="-2.29997">
        <ele>7</ele>
        <time>2020-07-05T07:27:46.000Z</time>
      </trkpt>
      <trkpt lat="47.24173" lon="-2.29978">
        <ele>7.4000000953674</ele>
        <time>2020-07-05T07:27:51.000Z</time>
      </trkpt>
      <trkpt lat="47.24173" lon="-2.29975">
        <ele>7.8000001907349</ele>
        <time>2020-07-05T07:27:52.000Z</time>
      </trkpt>
      <trkpt lat="47.24176" lon="-2.29972">
        <ele>8.3999996185303</ele>
        <time>2020-07-05T07:27:53.000Z</time>
      </trkpt>
      <trkpt lat="47.2418" lon="-2.29973">
        <ele>8.8000001907349</ele>
        <time>2020-07-05T07:27:54.000Z</time>
      </trkpt>
      <trkpt lat="47.24184" lon="-2.29972">
        <ele>9.1999998092651</ele>
        <time>2020-07-05T07:27:55.000Z</time>
      </trkpt>
      <trkpt lat="47.24187" lon="-2.2997">
        <ele>9.1999998092651</ele>
        <time>2020-07-05T07:27:56.000Z</time>
      </trkpt>
      <trkpt lat="47.24207" lon="-2.2996">
        <ele>9.1999998092651</ele>
        <time>2020-07-05T07:28:01.000Z</time>
      </trkpt>
      <trkpt lat="47.24224" lon="-2.29955">
        <ele>9.1999998092651</ele>
        <time>2020-07-05T07:28:04.000Z</time>
      </trkpt>
      <trkpt lat="47.2423" lon="-2.29952">
        <ele>8.8000001907349</ele>
        <time>2020-07-05T07:28:05.000Z</time>
      </trkpt>
      <trkpt lat="47.24236" lon="-2.29948">
        <ele>8.3999996185303</ele>
        <time>2020-07-05T07:28:06.000Z</time>
      </trkpt>
      <trkpt lat="47.24243" lon="-2.29942">
        <ele>7.8000001907349</ele>
        <time>2020-07-05T07:28:07.000Z</time>
      </trkpt>
      <trkpt lat="47.24248" lon="-2.29936">
        <ele>7.4000000953674</ele>
        <time>2020-07-05T07:28:08.000Z</time>
      </trkpt>
      <trkpt lat="47.24252" lon="-2.29931">
        <ele>7</ele>
        <time>2020-07-05T07:28:09.000Z</time>
      </trkpt>
      <trkpt lat="47.24258" lon="-2.29926">
        <ele>7</ele>
        <time>2020-07-05T07:28:10.000Z</time>
      </trkpt>
      <trkpt lat="47.24293" lon="-2.29898">
        <ele>7</ele>
        <time>2020-07-05T07:28:17.000Z</time>
      </trkpt>
      <trkpt lat="47.2431" lon="-2.29883">
        <ele>7</ele>
        <time>2020-07-05T07:28:20.000Z</time>
      </trkpt>
      <trkpt lat="47.24316" lon="-2.29869">
        <ele>7</ele>
        <time>2020-07-05T07:28:22.000Z</time>
      </trkpt>
      <trkpt lat="47.24318" lon="-2.29853">
        <ele>7</ele>
        <time>2020-07-05T07:28:24.000Z</time>
      </trkpt>
      <trkpt lat="47.24319" lon="-2.29837">
        <ele>7</ele>
        <time>2020-07-05T07:28:26.000Z</time>
      </trkpt>
      <trkpt lat="47.2432" lon="-2.29829">
        <ele>7</ele>
        <time>2020-07-05T07:28:27.000Z</time>
      </trkpt>
      <trkpt lat="47.24327" lon="-2.29816">
        <ele>7</ele>
        <time>2020-07-05T07:28:29.000Z</time>
      </trkpt>
      <trkpt lat="47.24332" lon="-2.29813">
        <ele>7.4000000953674</ele>
        <time>2020-07-05T07:28:30.000Z</time>
      </trkpt>
      <trkpt lat="47.24338" lon="-2.29811">
        <ele>7.8000001907349</ele>
        <time>2020-07-05T07:28:31.000Z</time>
      </trkpt>
      <trkpt lat="47.24343" lon="-2.29809">
        <ele>8.1999998092651</ele>
        <time>2020-07-05T07:28:32.000Z</time>
      </trkpt>
      <trkpt lat="47.24348" lon="-2.29808">
        <ele>8.8000001907349</ele>
        <time>2020-07-05T07:28:33.000Z</time>
      </trkpt>
      <trkpt lat="47.24354" lon="-2.29805">
        <ele>9.1999998092651</ele>
        <time>2020-07-05T07:28:34.000Z</time>
      </trkpt>
      <trkpt lat="47.24366" lon="-2.29792">
        <ele>9.1999998092651</ele>
        <time>2020-07-05T07:28:37.000Z</time>
      </trkpt>
      <trkpt lat="47.24378" lon="-2.29766">
        <ele>9.1999998092651</ele>
        <time>2020-07-05T07:28:41.000Z</time>
      </trkpt>
      <trkpt lat="47.24381" lon="-2.29759">
        <ele>9.1999998092651</ele>
        <time>2020-07-05T07:28:42.000Z</time>
      </trkpt>
      <trkpt lat="47.24394" lon="-2.2972">
        <ele>9.1999998092651</ele>
        <time>2020-07-05T07:28:48.000Z</time>
      </trkpt>
      <trkpt lat="47.24407" lon="-2.29697">
        <ele>9.1999998092651</ele>
        <time>2020-07-05T07:28:53.000Z</time>
      </trkpt>
      <trkpt lat="47.24427" lon="-2.29691">
        <ele>9.1999998092651</ele>
        <time>2020-07-05T07:28:58.000Z</time>
      </trkpt>
      <trkpt lat="47.24439" lon="-2.297">
        <ele>9.1999998092651</ele>
        <time>2020-07-05T07:29:01.000Z</time>
      </trkpt>
      <trkpt lat="47.2445" lon="-2.29727">
        <ele>9.1999998092651</ele>
        <time>2020-07-05T07:29:06.000Z</time>
      </trkpt>
      <trkpt lat="47.24454" lon="-2.29738">
        <ele>9.1999998092651</ele>
        <time>2020-07-05T07:29:08.000Z</time>
      </trkpt>
      <trkpt lat="47.24463" lon="-2.29766">
        <ele>9.1999998092651</ele>
        <time>2020-07-05T07:29:13.000Z</time>
      </trkpt>
      <trkpt lat="47.24466" lon="-2.29785">
        <ele>9.1999998092651</ele>
        <time>2020-07-05T07:29:16.000Z</time>
      </trkpt>
      <trkpt lat="47.2447" lon="-2.29798">
        <ele>9.1999998092651</ele>
        <time>2020-07-05T07:29:18.000Z</time>
      </trkpt>
      <trkpt lat="47.24472" lon="-2.29804">
        <ele>9.1999998092651</ele>
        <time>2020-07-05T07:29:19.000Z</time>
      </trkpt>
      <trkpt lat="47.24485" lon="-2.29828">
        <ele>9.1999998092651</ele>
        <time>2020-07-05T07:29:23.000Z</time>
      </trkpt>
      <trkpt lat="47.24497" lon="-2.29845">
        <ele>9.1999998092651</ele>
        <time>2020-07-05T07:29:26.000Z</time>
      </trkpt>
      <trkpt lat="47.24506" lon="-2.29852">
        <ele>9.1999998092651</ele>
        <time>2020-07-05T07:29:28.000Z</time>
      </trkpt>
      <trkpt lat="47.24516" lon="-2.29857">
        <ele>9.1999998092651</ele>
        <time>2020-07-05T07:29:30.000Z</time>
      </trkpt>
      <trkpt lat="47.24525" lon="-2.29862">
        <ele>9.1999998092651</ele>
        <time>2020-07-05T07:29:32.000Z</time>
      </trkpt>
      <trkpt lat="47.24534" lon="-2.29866">
        <ele>9.6000003814697</ele>
        <time>2020-07-05T07:29:34.000Z</time>
      </trkpt>
      <trkpt lat="47.24538" lon="-2.29867">
        <ele>10</ele>
        <time>2020-07-05T07:29:35.000Z</time>
      </trkpt>
      <trkpt lat="47.24542" lon="-2.29869">
        <ele>10.39999961853</ele>
        <time>2020-07-05T07:29:36.000Z</time>
      </trkpt>
      <trkpt lat="47.24546" lon="-2.2987">
        <ele>10.800000190735</ele>
        <time>2020-07-05T07:29:37.000Z</time>
      </trkpt>
      <trkpt lat="47.2455" lon="-2.29872">
        <ele>11.199999809265</ele>
        <time>2020-07-05T07:29:38.000Z</time>
      </trkpt>
      <trkpt lat="47.24555" lon="-2.29874">
        <ele>11.199999809265</ele>
        <time>2020-07-05T07:29:39.000Z</time>
      </trkpt>
      <trkpt lat="47.24558" lon="-2.29877">
        <ele>11.199999809265</ele>
        <time>2020-07-05T07:29:40.000Z</time>
      </trkpt>
      <trkpt lat="47.24569" lon="-2.29892">
        <ele>11.199999809265</ele>
        <time>2020-07-05T07:29:43.000Z</time>
      </trkpt>
      <trkpt lat="47.24576" lon="-2.29903">
        <ele>11.199999809265</ele>
        <time>2020-07-05T07:29:45.000Z</time>
      </trkpt>
      <trkpt lat="47.24579" lon="-2.29909">
        <ele>11.199999809265</ele>
        <time>2020-07-05T07:29:46.000Z</time>
      </trkpt>
      <trkpt lat="47.24597" lon="-2.2994">
        <ele>11.199999809265</ele>
        <time>2020-07-05T07:29:51.000Z</time>
      </trkpt>
      <trkpt lat="47.24613" lon="-2.29942">
        <ele>11.199999809265</ele>
        <time>2020-07-05T07:29:54.000Z</time>
      </trkpt>
      <trkpt lat="47.24619" lon="-2.29941">
        <ele>11.199999809265</ele>
        <time>2020-07-05T07:29:55.000Z</time>
      </trkpt>
      <trkpt lat="47.24655" lon="-2.29927">
        <ele>11.199999809265</ele>
        <time>2020-07-05T07:30:01.000Z</time>
      </trkpt>
      <trkpt lat="47.24708" lon="-2.29908">
        <ele>11.199999809265</ele>
        <time>2020-07-05T07:30:10.000Z</time>
      </trkpt>
      <trkpt lat="47.24741" lon="-2.29896">
        <ele>11.199999809265</ele>
        <time>2020-07-05T07:30:16.000Z</time>
      </trkpt>
      <trkpt lat="47.24757" lon="-2.29887">
        <ele>11.60000038147</ele>
        <time>2020-07-05T07:30:19.000Z</time>
      </trkpt>
      <trkpt lat="47.24762" lon="-2.29883">
        <ele>12</ele>
        <time>2020-07-05T07:30:20.000Z</time>
      </trkpt>
      <trkpt lat="47.24767" lon="-2.29879">
        <ele>12.39999961853</ele>
        <time>2020-07-05T07:30:21.000Z</time>
      </trkpt>
      <trkpt lat="47.24772" lon="-2.29875">
        <ele>13</ele>
        <time>2020-07-05T07:30:22.000Z</time>
      </trkpt>
      <trkpt lat="47.24777" lon="-2.29871">
        <ele>13.39999961853</ele>
        <time>2020-07-05T07:30:23.000Z</time>
      </trkpt>
      <trkpt lat="47.24801" lon="-2.29855">
        <ele>13.39999961853</ele>
        <time>2020-07-05T07:30:28.000Z</time>
      </trkpt>
      <trkpt lat="47.2484" lon="-2.29844">
        <ele>13.39999961853</ele>
        <time>2020-07-05T07:30:35.000Z</time>
      </trkpt>
      <trkpt lat="47.24845" lon="-2.29842">
        <ele>13.39999961853</ele>
        <time>2020-07-05T07:30:36.000Z</time>
      </trkpt>
      <trkpt lat="47.24858" lon="-2.29833">
        <ele>13.39999961853</ele>
        <time>2020-07-05T07:30:39.000Z</time>
      </trkpt>
      <trkpt lat="47.24862" lon="-2.29832">
        <ele>13.39999961853</ele>
        <time>2020-07-05T07:30:40.000Z</time>
      </trkpt>
      <trkpt lat="47.24869" lon="-2.29838">
        <ele>13.39999961853</ele>
        <time>2020-07-05T07:30:42.000Z</time>
      </trkpt>
      <trkpt lat="47.24871" lon="-2.29858">
        <ele>13.39999961853</ele>
        <time>2020-07-05T07:30:45.000Z</time>
      </trkpt>
      <trkpt lat="47.24873" lon="-2.29865">
        <ele>13.39999961853</ele>
        <time>2020-07-05T07:30:46.000Z</time>
      </trkpt>
      <trkpt lat="47.24879" lon="-2.29895">
        <ele>13.39999961853</ele>
        <time>2020-07-05T07:30:50.000Z</time>
      </trkpt>
      <trkpt lat="47.24887" lon="-2.29946">
        <ele>13.39999961853</ele>
        <time>2020-07-05T07:30:56.000Z</time>
      </trkpt>
      <trkpt lat="47.24902" lon="-2.30005">
        <ele>13.39999961853</ele>
        <time>2020-07-05T07:31:03.000Z</time>
      </trkpt>
      <trkpt lat="47.24905" lon="-2.30022">
        <ele>13.39999961853</ele>
        <time>2020-07-05T07:31:05.000Z</time>
      </trkpt>
      <trkpt lat="47.24906" lon="-2.30045">
        <ele>13.39999961853</ele>
        <time>2020-07-05T07:31:08.000Z</time>
      </trkpt>
      <trkpt lat="47.24911" lon="-2.30058">
        <ele>13.39999961853</ele>
        <time>2020-07-05T07:31:11.000Z</time>
      </trkpt>
      <trkpt lat="47.24919" lon="-2.30057">
        <ele>13.39999961853</ele>
        <time>2020-07-05T07:31:13.000Z</time>
      </trkpt>
      <trkpt lat="47.24924" lon="-2.30057">
        <ele>13.39999961853</ele>
        <time>2020-07-05T07:31:14.000Z</time>
      </trkpt>
      <trkpt lat="47.24953" lon="-2.30056">
        <ele>13.39999961853</ele>
        <time>2020-07-05T07:31:20.000Z</time>
      </trkpt>
      <trkpt lat="47.24984" lon="-2.30056">
        <ele>13.39999961853</ele>
        <time>2020-07-05T07:31:26.000Z</time>
      </trkpt>
      <trkpt lat="47.25005" lon="-2.30053">
        <ele>13.39999961853</ele>
        <time>2020-07-05T07:31:30.000Z</time>
      </trkpt>
      <trkpt lat="47.2501" lon="-2.30053">
        <ele>13.39999961853</ele>
        <time>2020-07-05T07:31:31.000Z</time>
      </trkpt>
      <trkpt lat="47.25044" lon="-2.30055">
        <ele>13.39999961853</ele>
        <time>2020-07-05T07:31:38.000Z</time>
      </trkpt>
      <trkpt lat="47.2507" lon="-2.30058">
        <ele>13.39999961853</ele>
        <time>2020-07-05T07:31:44.000Z</time>
      </trkpt>
      <trkpt lat="47.25074" lon="-2.30063">
        <ele>13.39999961853</ele>
        <time>2020-07-05T07:31:46.000Z</time>
      </trkpt>
      <trkpt lat="47.25074" lon="-2.30074">
        <ele>13</ele>
        <time>2020-07-05T07:31:48.000Z</time>
      </trkpt>
      <trkpt lat="47.25074" lon="-2.30081">
        <ele>12.39999961853</ele>
        <time>2020-07-05T07:31:49.000Z</time>
      </trkpt>
      <trkpt lat="47.25073" lon="-2.30088">
        <ele>12</ele>
        <time>2020-07-05T07:31:50.000Z</time>
      </trkpt>
      <trkpt lat="47.25072" lon="-2.30096">
        <ele>11.60000038147</ele>
        <time>2020-07-05T07:31:51.000Z</time>
      </trkpt>
      <trkpt lat="47.25072" lon="-2.30104">
        <ele>11.199999809265</ele>
        <time>2020-07-05T07:31:52.000Z</time>
      </trkpt>
      <trkpt lat="47.2507" lon="-2.30133">
        <ele>11.199999809265</ele>
        <time>2020-07-05T07:31:56.000Z</time>
      </trkpt>
      <trkpt lat="47.25077" lon="-2.3014">
        <ele>11.199999809265</ele>
        <time>2020-07-05T07:31:58.000Z</time>
      </trkpt>
      <trkpt lat="47.25087" lon="-2.30138">
        <ele>11.199999809265</ele>
        <time>2020-07-05T07:32:00.000Z</time>
      </trkpt>
      <trkpt lat="47.25092" lon="-2.30137">
        <ele>11.199999809265</ele>
        <time>2020-07-05T07:32:01.000Z</time>
      </trkpt>
      <trkpt lat="47.25125" lon="-2.30131">
        <ele>11.199999809265</ele>
        <time>2020-07-05T07:32:07.000Z</time>
      </trkpt>
      <trkpt lat="47.25157" lon="-2.30123">
        <ele>11.199999809265</ele>
        <time>2020-07-05T07:32:12.000Z</time>
      </trkpt>
      <trkpt lat="47.25178" lon="-2.30119">
        <ele>11.199999809265</ele>
        <time>2020-07-05T07:32:15.000Z</time>
      </trkpt>
      <trkpt lat="47.25189" lon="-2.30127">
        <ele>11.199999809265</ele>
        <time>2020-07-05T07:32:17.000Z</time>
      </trkpt>
      <trkpt lat="47.25199" lon="-2.30143">
        <ele>11.199999809265</ele>
        <time>2020-07-05T07:32:19.000Z</time>
      </trkpt>
      <trkpt lat="47.25204" lon="-2.3015">
        <ele>11.199999809265</ele>
        <time>2020-07-05T07:32:20.000Z</time>
      </trkpt>
      <trkpt lat="47.25209" lon="-2.30157">
        <ele>10.800000190735</ele>
        <time>2020-07-05T07:32:21.000Z</time>
      </trkpt>
      <trkpt lat="47.25215" lon="-2.30164">
        <ele>10.39999961853</ele>
        <time>2020-07-05T07:32:22.000Z</time>
      </trkpt>
      <trkpt lat="47.25219" lon="-2.30169">
        <ele>10</ele>
        <time>2020-07-05T07:32:23.000Z</time>
      </trkpt>
      <trkpt lat="47.25224" lon="-2.30174">
        <ele>9.6000003814697</ele>
        <time>2020-07-05T07:32:24.000Z</time>
      </trkpt>
      <trkpt lat="47.25231" lon="-2.30177">
        <ele>9.1999998092651</ele>
        <time>2020-07-05T07:32:25.000Z</time>
      </trkpt>
      <trkpt lat="47.25244" lon="-2.30182">
        <ele>8.8000001907349</ele>
        <time>2020-07-05T07:32:27.000Z</time>
      </trkpt>
      <trkpt lat="47.25251" lon="-2.30185">
        <ele>8.1999998092651</ele>
        <time>2020-07-05T07:32:28.000Z</time>
      </trkpt>
      <trkpt lat="47.25258" lon="-2.30188">
        <ele>7.8000001907349</ele>
        <time>2020-07-05T07:32:29.000Z</time>
      </trkpt>
      <trkpt lat="47.25264" lon="-2.30191">
        <ele>7.4000000953674</ele>
        <time>2020-07-05T07:32:30.000Z</time>
      </trkpt>
      <trkpt lat="47.25271" lon="-2.30194">
        <ele>7</ele>
        <time>2020-07-05T07:32:31.000Z</time>
      </trkpt>
      <trkpt lat="47.25278" lon="-2.30197">
        <ele>7</ele>
        <time>2020-07-05T07:32:32.000Z</time>
      </trkpt>
      <trkpt lat="47.25306" lon="-2.30211">
        <ele>6.4000000953674</ele>
        <time>2020-07-05T07:32:37.000Z</time>
      </trkpt>
      <trkpt lat="47.25308" lon="-2.3021">
        <ele>6</ele>
        <time>2020-07-05T07:32:38.000Z</time>
      </trkpt>
      <trkpt lat="47.2531" lon="-2.30208">
        <ele>5.5999999046326</ele>
        <time>2020-07-05T07:32:39.000Z</time>
      </trkpt>
      <trkpt lat="47.25312" lon="-2.30205">
        <ele>5.1999998092651</ele>
        <time>2020-07-05T07:32:40.000Z</time>
      </trkpt>
      <trkpt lat="47.25315" lon="-2.30206">
        <ele>4.8000001907349</ele>
        <time>2020-07-05T07:32:41.000Z</time>
      </trkpt>
      <trkpt lat="47.25324" lon="-2.30209">
        <ele>4.8000001907349</ele>
        <time>2020-07-05T07:32:43.000Z</time>
      </trkpt>
      <trkpt lat="47.25351" lon="-2.3021">
        <ele>4.8000001907349</ele>
        <time>2020-07-05T07:32:48.000Z</time>
      </trkpt>
      <trkpt lat="47.25375" lon="-2.30212">
        <ele>4.8000001907349</ele>
        <time>2020-07-05T07:32:52.000Z</time>
      </trkpt>
      <trkpt lat="47.2538" lon="-2.30213">
        <ele>4.8000001907349</ele>
        <time>2020-07-05T07:32:53.000Z</time>
      </trkpt>
      <trkpt lat="47.25406" lon="-2.30224">
        <ele>4.4000000953674</ele>
        <time>2020-07-05T07:32:58.000Z</time>
      </trkpt>
      <trkpt lat="47.2541" lon="-2.30226">
        <ele>3.5999999046326</ele>
        <time>2020-07-05T07:32:59.000Z</time>
      </trkpt>
      <trkpt lat="47.25415" lon="-2.30226">
        <ele>3</ele>
        <time>2020-07-05T07:33:00.000Z</time>
      </trkpt>
      <trkpt lat="47.25421" lon="-2.30228">
        <ele>2.5999999046326</ele>
        <time>2020-07-05T07:33:01.000Z</time>
      </trkpt>
      <trkpt lat="47.25426" lon="-2.3023">
        <ele>2.5999999046326</ele>
        <time>2020-07-05T07:33:02.000Z</time>
      </trkpt>
      <trkpt lat="47.25431" lon="-2.30232">
        <ele>2.5999999046326</ele>
        <time>2020-07-05T07:33:03.000Z</time>
      </trkpt>
      <trkpt lat="47.25461" lon="-2.30243">
        <ele>2.5999999046326</ele>
        <time>2020-07-05T07:33:08.000Z</time>
      </trkpt>
      <trkpt lat="47.25465" lon="-2.30244">
        <ele>2.5999999046326</ele>
        <time>2020-07-05T07:33:09.000Z</time>
      </trkpt>
      <trkpt lat="47.2547" lon="-2.30245">
        <ele>2.2000000476837</ele>
        <time>2020-07-05T07:33:10.000Z</time>
      </trkpt>
      <trkpt lat="47.25474" lon="-2.30242">
        <ele>1.7999999523163</ele>
        <time>2020-07-05T07:33:11.000Z</time>
      </trkpt>
      <trkpt lat="47.25476" lon="-2.30238">
        <ele>1.3999999761581</ele>
        <time>2020-07-05T07:33:12.000Z</time>
      </trkpt>
      <trkpt lat="47.25479" lon="-2.30233">
        <ele>1</ele>
        <time>2020-07-05T07:33:13.000Z</time>
      </trkpt>
      <trkpt lat="47.25481" lon="-2.30227">
        <ele>0.60000002384186</ele>
        <time>2020-07-05T07:33:14.000Z</time>
      </trkpt>
      <trkpt lat="47.25489" lon="-2.30212">
        <ele>0.60000002384186</ele>
        <time>2020-07-05T07:33:17.000Z</time>
      </trkpt>
      <trkpt lat="47.25502" lon="-2.30199">
        <ele>0.60000002384186</ele>
        <time>2020-07-05T07:33:21.000Z</time>
      </trkpt>
      <trkpt lat="47.25511" lon="-2.30201">
        <ele>0.60000002384186</ele>
        <time>2020-07-05T07:33:23.000Z</time>
      </trkpt>
      <trkpt lat="47.2552" lon="-2.30201">
        <ele>0.60000002384186</ele>
        <time>2020-07-05T07:33:25.000Z</time>
      </trkpt>
      <trkpt lat="47.25535" lon="-2.30193">
        <ele>0.60000002384186</ele>
        <time>2020-07-05T07:33:28.000Z</time>
      </trkpt>
      <trkpt lat="47.25539" lon="-2.3019">
        <ele>0.60000002384186</ele>
        <time>2020-07-05T07:33:29.000Z</time>
      </trkpt>
      <trkpt lat="47.25548" lon="-2.30186">
        <ele>0.60000002384186</ele>
        <time>2020-07-05T07:33:31.000Z</time>
      </trkpt>
      <trkpt lat="47.25559" lon="-2.30189">
        <ele>0.60000002384186</ele>
        <time>2020-07-05T07:33:33.000Z</time>
      </trkpt>
      <trkpt lat="47.25573" lon="-2.30194">
        <ele>0.60000002384186</ele>
        <time>2020-07-05T07:33:35.000Z</time>
      </trkpt>
      <trkpt lat="47.25587" lon="-2.30204">
        <ele>0.60000002384186</ele>
        <time>2020-07-05T07:33:37.000Z</time>
      </trkpt>
      <trkpt lat="47.25612" lon="-2.30232">
        <ele>0.60000002384186</ele>
        <time>2020-07-05T07:33:41.000Z</time>
      </trkpt>
      <trkpt lat="47.25621" lon="-2.30248">
        <ele>0.60000002384186</ele>
        <time>2020-07-05T07:33:43.000Z</time>
      </trkpt>
      <trkpt lat="47.25627" lon="-2.30266">
        <ele>0.20000000298023</ele>
        <time>2020-07-05T07:33:45.000Z</time>
      </trkpt>
      <trkpt lat="47.25628" lon="-2.30275">
        <ele>-0.20000000298023</ele>
        <time>2020-07-05T07:33:46.000Z</time>
      </trkpt>
      <trkpt lat="47.2563" lon="-2.30284">
        <ele>-0.60000002384186</ele>
        <time>2020-07-05T07:33:47.000Z</time>
      </trkpt>
      <trkpt lat="47.25631" lon="-2.30293">
        <ele>-1.6000000238419</ele>
        <time>2020-07-05T07:33:48.000Z</time>
      </trkpt>
      <trkpt lat="47.25633" lon="-2.3031">
        <ele>-1.6000000238419</ele>
        <time>2020-07-05T07:33:50.000Z</time>
      </trkpt>
      <trkpt lat="47.25637" lon="-2.30343">
        <ele>-1.6000000238419</ele>
        <time>2020-07-05T07:33:55.000Z</time>
      </trkpt>
      <trkpt lat="47.25642" lon="-2.30341">
        <ele>-1.6000000238419</ele>
        <time>2020-07-05T07:33:57.000Z</time>
      </trkpt>
      <trkpt lat="47.25652" lon="-2.30321">
        <ele>-1.6000000238419</ele>
        <time>2020-07-05T07:34:01.000Z</time>
      </trkpt>
      <trkpt lat="47.25659" lon="-2.30304">
        <ele>-1.6000000238419</ele>
        <time>2020-07-05T07:34:04.000Z</time>
      </trkpt>
      <trkpt lat="47.25659" lon="-2.30293">
        <ele>-1.6000000238419</ele>
        <time>2020-07-05T07:34:06.000Z</time>
      </trkpt>
      <trkpt lat="47.25661" lon="-2.30281">
        <ele>-1.6000000238419</ele>
        <time>2020-07-05T07:34:08.000Z</time>
      </trkpt>
      <trkpt lat="47.25665" lon="-2.30273">
        <ele>-1.6000000238419</ele>
        <time>2020-07-05T07:34:10.000Z</time>
      </trkpt>
      <trkpt lat="47.25671" lon="-2.30267">
        <ele>-1.6000000238419</ele>
        <time>2020-07-05T07:34:12.000Z</time>
      </trkpt>
      <trkpt lat="47.25678" lon="-2.30257">
        <ele>-1.6000000238419</ele>
        <time>2020-07-05T07:34:15.000Z</time>
      </trkpt>
      <trkpt lat="47.2568" lon="-2.30251">
        <ele>-1.6000000238419</ele>
        <time>2020-07-05T07:34:16.000Z</time>
      </trkpt>
      <trkpt lat="47.2569" lon="-2.30227">
        <ele>-1.6000000238419</ele>
        <time>2020-07-05T07:34:20.000Z</time>
      </trkpt>
      <trkpt lat="47.25712" lon="-2.30212">
        <ele>-1.6000000238419</ele>
        <time>2020-07-05T07:34:24.000Z</time>
      </trkpt>
      <trkpt lat="47.25719" lon="-2.30211">
        <ele>-2</ele>
        <time>2020-07-05T07:34:25.000Z</time>
      </trkpt>
      <trkpt lat="47.25726" lon="-2.30211">
        <ele>-2.4000000953674</ele>
        <time>2020-07-05T07:34:26.000Z</time>
      </trkpt>
      <trkpt lat="47.25733" lon="-2.30214">
        <ele>-2.7999999523163</ele>
        <time>2020-07-05T07:34:27.000Z</time>
      </trkpt>
      <trkpt lat="47.2574" lon="-2.30217">
        <ele>-3.2000000476837</ele>
        <time>2020-07-05T07:34:28.000Z</time>
      </trkpt>
      <trkpt lat="47.25746" lon="-2.3022">
        <ele>-3.5999999046326</ele>
        <time>2020-07-05T07:34:29.000Z</time>
      </trkpt>
      <trkpt lat="47.25782" lon="-2.30238">
        <ele>-3.5999999046326</ele>
        <time>2020-07-05T07:34:34.000Z</time>
      </trkpt>
      <trkpt lat="47.25835" lon="-2.30264">
        <ele>-3.5999999046326</ele>
        <time>2020-07-05T07:34:41.000Z</time>
      </trkpt>
      <trkpt lat="47.25864" lon="-2.30276">
        <ele>-3.5999999046326</ele>
        <time>2020-07-05T07:34:46.000Z</time>
      </trkpt>
      <trkpt lat="47.2587" lon="-2.30276">
        <ele>-3.5999999046326</ele>
        <time>2020-07-05T07:34:47.000Z</time>
      </trkpt>
      <trkpt lat="47.2588" lon="-2.30269">
        <ele>-3.5999999046326</ele>
        <time>2020-07-05T07:34:49.000Z</time>
      </trkpt>
      <trkpt lat="47.25891" lon="-2.30246">
        <ele>-3.5999999046326</ele>
        <time>2020-07-05T07:34:52.000Z</time>
      </trkpt>
      <trkpt lat="47.25894" lon="-2.30211">
        <ele>-3.5999999046326</ele>
        <time>2020-07-05T07:34:56.000Z</time>
      </trkpt>
      <trkpt lat="47.25894" lon="-2.30203">
        <ele>-3.5999999046326</ele>
        <time>2020-07-05T07:34:57.000Z</time>
      </trkpt>
      <trkpt lat="47.25894" lon="-2.30185">
        <ele>-3.5999999046326</ele>
        <time>2020-07-05T07:34:59.000Z</time>
      </trkpt>
      <trkpt lat="47.25901" lon="-2.30174">
        <ele>-3.5999999046326</ele>
        <time>2020-07-05T07:35:01.000Z</time>
      </trkpt>
      <trkpt lat="47.25919" lon="-2.30172">
        <ele>-3.5999999046326</ele>
        <time>2020-07-05T07:35:04.000Z</time>
      </trkpt>
      <trkpt lat="47.25938" lon="-2.30167">
        <ele>-4</ele>
        <time>2020-07-05T07:35:07.000Z</time>
      </trkpt>
      <trkpt lat="47.25945" lon="-2.30164">
        <ele>-4.5999999046326</ele>
        <time>2020-07-05T07:35:08.000Z</time>
      </trkpt>
      <trkpt lat="47.25951" lon="-2.3016">
        <ele>-5</ele>
        <time>2020-07-05T07:35:09.000Z</time>
      </trkpt>
      <trkpt lat="47.25957" lon="-2.30156">
        <ele>-5.4000000953674</ele>
        <time>2020-07-05T07:35:10.000Z</time>
      </trkpt>
      <trkpt lat="47.25962" lon="-2.30149">
        <ele>-5.8000001907349</ele>
        <time>2020-07-05T07:35:11.000Z</time>
      </trkpt>
      <trkpt lat="47.25966" lon="-2.30142">
        <ele>-5.8000001907349</ele>
        <time>2020-07-05T07:35:12.000Z</time>
      </trkpt>
      <trkpt lat="47.25971" lon="-2.30135">
        <ele>-5.8000001907349</ele>
        <time>2020-07-05T07:35:13.000Z</time>
      </trkpt>
      <trkpt lat="47.25975" lon="-2.30133">
        <ele>-5.8000001907349</ele>
        <time>2020-07-05T07:35:14.000Z</time>
      </trkpt>
      <trkpt lat="47.25978" lon="-2.30131">
        <ele>-5.8000001907349</ele>
        <time>2020-07-05T07:35:15.000Z</time>
      </trkpt>
      <trkpt lat="47.25993" lon="-2.30128">
        <ele>-5.8000001907349</ele>
        <time>2020-07-05T07:35:19.000Z</time>
      </trkpt>
      <trkpt lat="47.25997" lon="-2.30127">
        <ele>-5.8000001907349</ele>
        <time>2020-07-05T07:35:20.000Z</time>
      </trkpt>
      <trkpt lat="47.26012" lon="-2.30124">
        <ele>-5.8000001907349</ele>
        <time>2020-07-05T07:35:25.000Z</time>
      </trkpt>
      <trkpt lat="47.26026" lon="-2.3013">
        <ele>-5.8000001907349</ele>
        <time>2020-07-05T07:35:29.000Z</time>
      </trkpt>
      <trkpt lat="47.26031" lon="-2.30131">
        <ele>-5.8000001907349</ele>
        <time>2020-07-05T07:35:30.000Z</time>
      </trkpt>
      <trkpt lat="47.26045" lon="-2.30129">
        <ele>-5.8000001907349</ele>
        <time>2020-07-05T07:35:33.000Z</time>
      </trkpt>
      <trkpt lat="47.2605" lon="-2.30129">
        <ele>-5.4000000953674</ele>
        <time>2020-07-05T07:35:34.000Z</time>
      </trkpt>
      <trkpt lat="47.26054" lon="-2.30129">
        <ele>-5</ele>
        <time>2020-07-05T07:35:35.000Z</time>
      </trkpt>
      <trkpt lat="47.26059" lon="-2.30132">
        <ele>-4.5999999046326</ele>
        <time>2020-07-05T07:35:36.000Z</time>
      </trkpt>
      <trkpt lat="47.26063" lon="-2.30135">
        <ele>-4.1999998092651</ele>
        <time>2020-07-05T07:35:37.000Z</time>
      </trkpt>
      <trkpt lat="47.26068" lon="-2.30138">
        <ele>-3.7999999523163</ele>
        <time>2020-07-05T07:35:38.000Z</time>
      </trkpt>
      <trkpt lat="47.26071" lon="-2.30141">
        <ele>-3.7999999523163</ele>
        <time>2020-07-05T07:35:39.000Z</time>
      </trkpt>
      <trkpt lat="47.26081" lon="-2.30144">
        <ele>-3.7999999523163</ele>
        <time>2020-07-05T07:35:42.000Z</time>
      </trkpt>
      <trkpt lat="47.26099" lon="-2.3015">
        <ele>-3.2000000476837</ele>
        <time>2020-07-05T07:35:48.000Z</time>
      </trkpt>
      <trkpt lat="47.26101" lon="-2.30152">
        <ele>-2.7999999523163</ele>
        <time>2020-07-05T07:35:49.000Z</time>
      </trkpt>
      <trkpt lat="47.26103" lon="-2.30154">
        <ele>-2.4000000953674</ele>
        <time>2020-07-05T07:35:50.000Z</time>
      </trkpt>
      <trkpt lat="47.26106" lon="-2.30154">
        <ele>-2</ele>
        <time>2020-07-05T07:35:51.000Z</time>
      </trkpt>
      <trkpt lat="47.26109" lon="-2.30154">
        <ele>-1.6000000238419</ele>
        <time>2020-07-05T07:35:52.000Z</time>
      </trkpt>
      <trkpt lat="47.26112" lon="-2.30155">
        <ele>-1.6000000238419</ele>
        <time>2020-07-05T07:35:53.000Z</time>
      </trkpt>
      <trkpt lat="47.26123" lon="-2.30154">
        <ele>-1.6000000238419</ele>
        <time>2020-07-05T07:35:56.000Z</time>
      </trkpt>
      <trkpt lat="47.26132" lon="-2.30154">
        <ele>-1.6000000238419</ele>
        <time>2020-07-05T07:35:59.000Z</time>
      </trkpt>
      <trkpt lat="47.26142" lon="-2.30153">
        <ele>-1.2000000476837</ele>
        <time>2020-07-05T07:36:02.000Z</time>
      </trkpt>
      <trkpt lat="47.26144" lon="-2.30152">
        <ele>-0.80000001192093</ele>
        <time>2020-07-05T07:36:03.000Z</time>
      </trkpt>
      <trkpt lat="47.26147" lon="-2.30151">
        <ele>-0.20000000298023</ele>
        <time>2020-07-05T07:36:04.000Z</time>
      </trkpt>
      <trkpt lat="47.26149" lon="-2.30151">
        <ele>0.20000000298023</ele>
        <time>2020-07-05T07:36:05.000Z</time>
      </trkpt>
      <trkpt lat="47.26152" lon="-2.3015">
        <ele>0.60000002384186</ele>
        <time>2020-07-05T07:36:06.000Z</time>
      </trkpt>
      <trkpt lat="47.2617" lon="-2.30147">
        <ele>0.60000002384186</ele>
        <time>2020-07-05T07:36:14.000Z</time>
      </trkpt>
      <trkpt lat="47.26172" lon="-2.30154">
        <ele>1.3999999761581</ele>
        <time>2020-07-05T07:36:16.000Z</time>
      </trkpt>
      <trkpt lat="47.26175" lon="-2.30157">
        <ele>1.7999999523163</ele>
        <time>2020-07-05T07:36:17.000Z</time>
      </trkpt>
      <trkpt lat="47.26179" lon="-2.30155">
        <ele>2.2000000476837</ele>
        <time>2020-07-05T07:36:18.000Z</time>
      </trkpt>
      <trkpt lat="47.26182" lon="-2.30154">
        <ele>2.5999999046326</ele>
        <time>2020-07-05T07:36:19.000Z</time>
      </trkpt>
      <trkpt lat="47.26199" lon="-2.30146">
        <ele>2.5999999046326</ele>
        <time>2020-07-05T07:36:24.000Z</time>
      </trkpt>
      <trkpt lat="47.26224" lon="-2.30138">
        <ele>2.5999999046326</ele>
        <time>2020-07-05T07:36:31.000Z</time>
      </trkpt>
      <trkpt lat="47.26237" lon="-2.30133">
        <ele>3</ele>
        <time>2020-07-05T07:36:35.000Z</time>
      </trkpt>
      <trkpt lat="47.2624" lon="-2.30132">
        <ele>3.5999999046326</ele>
        <time>2020-07-05T07:36:36.000Z</time>
      </trkpt>
      <trkpt lat="47.26243" lon="-2.30131">
        <ele>4</ele>
        <time>2020-07-05T07:36:37.000Z</time>
      </trkpt>
      <trkpt lat="47.26246" lon="-2.30132">
        <ele>4.4000000953674</ele>
        <time>2020-07-05T07:36:38.000Z</time>
      </trkpt>
      <trkpt lat="47.26249" lon="-2.30135">
        <ele>4.8000001907349</ele>
        <time>2020-07-05T07:36:39.000Z</time>
      </trkpt>
      <trkpt lat="47.26257" lon="-2.30156">
        <ele>4.8000001907349</ele>
        <time>2020-07-05T07:36:43.000Z</time>
      </trkpt>
      <trkpt lat="47.26272" lon="-2.30201">
        <ele>4.8000001907349</ele>
        <time>2020-07-05T07:36:49.000Z</time>
      </trkpt>
      <trkpt lat="47.26273" lon="-2.30209">
        <ele>4.8000001907349</ele>
        <time>2020-07-05T07:36:50.000Z</time>
      </trkpt>
      <trkpt lat="47.2628" lon="-2.30245">
        <ele>4.8000001907349</ele>
        <time>2020-07-05T07:36:54.000Z</time>
      </trkpt>
      <trkpt lat="47.26296" lon="-2.30317">
        <ele>4.8000001907349</ele>
        <time>2020-07-05T07:37:02.000Z</time>
      </trkpt>
      <trkpt lat="47.26307" lon="-2.30347">
        <ele>4.8000001907349</ele>
        <time>2020-07-05T07:37:06.000Z</time>
      </trkpt>
      <trkpt lat="47.26307" lon="-2.30355">
        <ele>4.8000001907349</ele>
        <time>2020-07-05T07:37:07.000Z</time>
      </trkpt>
      <trkpt lat="47.26317" lon="-2.30413">
        <ele>4.8000001907349</ele>
        <time>2020-07-05T07:37:14.000Z</time>
      </trkpt>
      <trkpt lat="47.26326" lon="-2.3046">
        <ele>4.8000001907349</ele>
        <time>2020-07-05T07:37:20.000Z</time>
      </trkpt>
      <trkpt lat="47.26335" lon="-2.30513">
        <ele>4.8000001907349</ele>
        <time>2020-07-05T07:37:26.000Z</time>
      </trkpt>
      <trkpt lat="47.26345" lon="-2.30547">
        <ele>4.4000000953674</ele>
        <time>2020-07-05T07:37:31.000Z</time>
      </trkpt>
      <trkpt lat="47.26346" lon="-2.30552">
        <ele>4</ele>
        <time>2020-07-05T07:37:32.000Z</time>
      </trkpt>
      <trkpt lat="47.26347" lon="-2.30557">
        <ele>3.5999999046326</ele>
        <time>2020-07-05T07:37:33.000Z</time>
      </trkpt>
      <trkpt lat="47.26348" lon="-2.30563">
        <ele>3.2000000476837</ele>
        <time>2020-07-05T07:37:34.000Z</time>
      </trkpt>
      <trkpt lat="47.26348" lon="-2.30569">
        <ele>2.7999999523163</ele>
        <time>2020-07-05T07:37:35.000Z</time>
      </trkpt>
      <trkpt lat="47.26349" lon="-2.30575">
        <ele>2.7999999523163</ele>
        <time>2020-07-05T07:37:36.000Z</time>
      </trkpt>
      <trkpt lat="47.26349" lon="-2.30587">
        <ele>2.7999999523163</ele>
        <time>2020-07-05T07:37:38.000Z</time>
      </trkpt>
      <trkpt lat="47.26353" lon="-2.30601">
        <ele>2.7999999523163</ele>
        <time>2020-07-05T07:37:40.000Z</time>
      </trkpt>
      <trkpt lat="47.26362" lon="-2.30621">
        <ele>2.7999999523163</ele>
        <time>2020-07-05T07:37:43.000Z</time>
      </trkpt>
      <trkpt lat="47.26368" lon="-2.30634">
        <ele>2.7999999523163</ele>
        <time>2020-07-05T07:37:45.000Z</time>
      </trkpt>
      <trkpt lat="47.26382" lon="-2.30658">
        <ele>2.7999999523163</ele>
        <time>2020-07-05T07:37:49.000Z</time>
      </trkpt>
      <trkpt lat="47.26391" lon="-2.30665">
        <ele>2.7999999523163</ele>
        <time>2020-07-05T07:37:51.000Z</time>
      </trkpt>
      <trkpt lat="47.26418" lon="-2.30683">
        <ele>2.7999999523163</ele>
        <time>2020-07-05T07:37:57.000Z</time>
      </trkpt>
      <trkpt lat="47.26426" lon="-2.30694">
        <ele>2.4000000953674</ele>
        <time>2020-07-05T07:38:01.000Z</time>
      </trkpt>
      <trkpt lat="47.26428" lon="-2.30697">
        <ele>2</ele>
        <time>2020-07-05T07:38:02.000Z</time>
      </trkpt>
      <trkpt lat="47.2643" lon="-2.30701">
        <ele>1.6000000238419</ele>
        <time>2020-07-05T07:38:03.000Z</time>
      </trkpt>
      <trkpt lat="47.26431" lon="-2.30704">
        <ele>1.2000000476837</ele>
        <time>2020-07-05T07:38:04.000Z</time>
      </trkpt>
      <trkpt lat="47.26434" lon="-2.30708">
        <ele>0.80000001192093</ele>
        <time>2020-07-05T07:38:05.000Z</time>
      </trkpt>
      <trkpt lat="47.26437" lon="-2.30717">
        <ele>0.80000001192093</ele>
        <time>2020-07-05T07:38:07.000Z</time>
      </trkpt>
      <trkpt lat="47.26446" lon="-2.30738">
        <ele>0.80000001192093</ele>
        <time>2020-07-05T07:38:11.000Z</time>
      </trkpt>
      <trkpt lat="47.26451" lon="-2.30758">
        <ele>0.80000001192093</ele>
        <time>2020-07-05T07:38:14.000Z</time>
      </trkpt>
      <trkpt lat="47.26467" lon="-2.30797">
        <ele>0.40000000596046</ele>
        <time>2020-07-05T07:38:20.000Z</time>
      </trkpt>
      <trkpt lat="47.2647" lon="-2.30803">
        <ele>-0.20000000298023</ele>
        <time>2020-07-05T07:38:21.000Z</time>
      </trkpt>
      <trkpt lat="47.26472" lon="-2.30809">
        <ele>-0.60000002384186</ele>
        <time>2020-07-05T07:38:22.000Z</time>
      </trkpt>
      <trkpt lat="47.26475" lon="-2.30816">
        <ele>-1</ele>
        <time>2020-07-05T07:38:23.000Z</time>
      </trkpt>
      <trkpt lat="47.26477" lon="-2.30822">
        <ele>-1.3999999761581</ele>
        <time>2020-07-05T07:38:24.000Z</time>
      </trkpt>
      <trkpt lat="47.26481" lon="-2.30832">
        <ele>-1.3999999761581</ele>
        <time>2020-07-05T07:38:26.000Z</time>
      </trkpt>
      <trkpt lat="47.26483" lon="-2.30837">
        <ele>-1.7999999523163</ele>
        <time>2020-07-05T07:38:27.000Z</time>
      </trkpt>
      <trkpt lat="47.26485" lon="-2.30843">
        <ele>-2.2000000476837</ele>
        <time>2020-07-05T07:38:28.000Z</time>
      </trkpt>
      <trkpt lat="47.26488" lon="-2.30849">
        <ele>-2.5999999046326</ele>
        <time>2020-07-05T07:38:29.000Z</time>
      </trkpt>
      <trkpt lat="47.2649" lon="-2.30855">
        <ele>-3.2000000476837</ele>
        <time>2020-07-05T07:38:30.000Z</time>
      </trkpt>
      <trkpt lat="47.26493" lon="-2.30861">
        <ele>-3.5999999046326</ele>
        <time>2020-07-05T07:38:31.000Z</time>
      </trkpt>
      <trkpt lat="47.26494" lon="-2.30867">
        <ele>-3.5999999046326</ele>
        <time>2020-07-05T07:38:32.000Z</time>
      </trkpt>
      <trkpt lat="47.26497" lon="-2.30871">
        <ele>-4.1999998092651</ele>
        <time>2020-07-05T07:38:33.000Z</time>
      </trkpt>
      <trkpt lat="47.26499" lon="-2.30876">
        <ele>-4.5999999046326</ele>
        <time>2020-07-05T07:38:34.000Z</time>
      </trkpt>
      <trkpt lat="47.26501" lon="-2.30879">
        <ele>-5.1999998092651</ele>
        <time>2020-07-05T07:38:35.000Z</time>
      </trkpt>
      <trkpt lat="47.26503" lon="-2.3088">
        <ele>-5.8000001907349</ele>
        <time>2020-07-05T07:38:36.000Z</time>
      </trkpt>
      <trkpt lat="47.26505" lon="-2.30881">
        <ele>-6.4000000953674</ele>
        <time>2020-07-05T07:38:37.000Z</time>
      </trkpt>
      <trkpt lat="47.26516" lon="-2.30874">
        <ele>-6.4000000953674</ele>
        <time>2020-07-05T07:38:42.000Z</time>
      </trkpt>
      <trkpt lat="47.26522" lon="-2.30865">
        <ele>-6.4000000953674</ele>
        <time>2020-07-05T07:38:46.000Z</time>
      </trkpt>
      <trkpt lat="47.26524" lon="-2.30862">
        <ele>-6.4000000953674</ele>
        <time>2020-07-05T07:38:48.000Z</time>
      </trkpt>
      <trkpt lat="47.26532" lon="-2.30854">
        <ele>-6.4000000953674</ele>
        <time>2020-07-05T07:38:53.000Z</time>
      </trkpt>
      <trkpt lat="47.26538" lon="-2.30842">
        <ele>-6.4000000953674</ele>
        <time>2020-07-05T07:38:57.000Z</time>
      </trkpt>
      <trkpt lat="47.26542" lon="-2.30829">
        <ele>-6.4000000953674</ele>
        <time>2020-07-05T07:39:00.000Z</time>
      </trkpt>
      <trkpt lat="47.26547" lon="-2.30809">
        <ele>-6.4000000953674</ele>
        <time>2020-07-05T07:39:06.000Z</time>
      </trkpt>
      <trkpt lat="47.26547" lon="-2.30805">
        <ele>-5.8000001907349</ele>
        <time>2020-07-05T07:39:07.000Z</time>
      </trkpt>
      <trkpt lat="47.26548" lon="-2.30802">
        <ele>-5.4000000953674</ele>
        <time>2020-07-05T07:39:08.000Z</time>
      </trkpt>
      <trkpt lat="47.26549" lon="-2.308">
        <ele>-4.5999999046326</ele>
        <time>2020-07-05T07:39:09.000Z</time>
      </trkpt>
      <trkpt lat="47.2655" lon="-2.30797">
        <ele>-4.1999998092651</ele>
        <time>2020-07-05T07:39:10.000Z</time>
      </trkpt>
      <trkpt lat="47.2656" lon="-2.30794">
        <ele>-4.1999998092651</ele>
        <time>2020-07-05T07:39:11.000Z</time>
      </trkpt>
      <trkpt lat="47.26563" lon="-2.30788">
        <ele>-4.1999998092651</ele>
        <time>2020-07-05T07:39:13.000Z</time>
      </trkpt>
      <trkpt lat="47.26582" lon="-2.30763">
        <ele>-4.1999998092651</ele>
        <time>2020-07-05T07:39:20.000Z</time>
      </trkpt>
      <trkpt lat="47.26598" lon="-2.30742">
        <ele>-4.1999998092651</ele>
        <time>2020-07-05T07:39:25.000Z</time>
      </trkpt>
      <trkpt lat="47.266" lon="-2.30738">
        <ele>-3.7999999523163</ele>
        <time>2020-07-05T07:39:26.000Z</time>
      </trkpt>
      <trkpt lat="47.26602" lon="-2.30736">
        <ele>-3.4000000953674</ele>
        <time>2020-07-05T07:39:27.000Z</time>
      </trkpt>
      <trkpt lat="47.26605" lon="-2.30734">
        <ele>-3</ele>
        <time>2020-07-05T07:39:28.000Z</time>
      </trkpt>
      <trkpt lat="47.26607" lon="-2.30732">
        <ele>-2.5999999046326</ele>
        <time>2020-07-05T07:39:29.000Z</time>
      </trkpt>
      <trkpt lat="47.26614" lon="-2.30728">
        <ele>-2.2000000476837</ele>
        <time>2020-07-05T07:39:30.000Z</time>
      </trkpt>
      <trkpt lat="47.26616" lon="-2.30725">
        <ele>-2.2000000476837</ele>
        <time>2020-07-05T07:39:31.000Z</time>
      </trkpt>
      <trkpt lat="47.26631" lon="-2.30706">
        <ele>-2.2000000476837</ele>
        <time>2020-07-05T07:39:36.000Z</time>
      </trkpt>
      <trkpt lat="47.26638" lon="-2.307">
        <ele>-2.2000000476837</ele>
        <time>2020-07-05T07:39:38.000Z</time>
      </trkpt>
      <trkpt lat="47.26646" lon="-2.307">
        <ele>-2.2000000476837</ele>
        <time>2020-07-05T07:39:40.000Z</time>
      </trkpt>
      <trkpt lat="47.26666" lon="-2.3072">
        <ele>-2.2000000476837</ele>
        <time>2020-07-05T07:39:46.000Z</time>
      </trkpt>
      <trkpt lat="47.26671" lon="-2.30728">
        <ele>-2.2000000476837</ele>
        <time>2020-07-05T07:39:47.000Z</time>
      </trkpt>
      <trkpt lat="47.26675" lon="-2.30735">
        <ele>-1.7999999523163</ele>
        <time>2020-07-05T07:39:48.000Z</time>
      </trkpt>
      <trkpt lat="47.26678" lon="-2.30743">
        <ele>-1.2000000476837</ele>
        <time>2020-07-05T07:39:49.000Z</time>
      </trkpt>
      <trkpt lat="47.2668" lon="-2.30747">
        <ele>-0.80000001192093</ele>
        <time>2020-07-05T07:39:50.000Z</time>
      </trkpt>
      <trkpt lat="47.26683" lon="-2.30753">
        <ele>-0.40000000596046</ele>
        <time>2020-07-05T07:39:51.000Z</time>
      </trkpt>
      <trkpt lat="47.26686" lon="-2.30759">
        <ele>26.7</ele>
        <time>2020-07-05T07:39:52.000Z</time>
      </trkpt>
      <trkpt lat="47.26697" lon="-2.30789">
        <ele>0.40000000596046</ele>
        <time>2020-07-05T07:39:57.000Z</time>
      </trkpt>
      <trkpt lat="47.26699" lon="-2.30795">
        <ele>1.2000000476837</ele>
        <time>2020-07-05T07:39:58.000Z</time>
      </trkpt>
      <trkpt lat="47.26701" lon="-2.30801">
        <ele>1.6000000238419</ele>
        <time>2020-07-05T07:39:59.000Z</time>
      </trkpt>
      <trkpt lat="47.26704" lon="-2.30806">
        <ele>2</ele>
        <time>2020-07-05T07:40:00.000Z</time>
      </trkpt>
      <trkpt lat="47.26713" lon="-2.30827">
        <ele>2</ele>
        <time>2020-07-05T07:40:04.000Z</time>
      </trkpt>
      <trkpt lat="47.26729" lon="-2.30859">
        <ele>2</ele>
        <time>2020-07-05T07:40:10.000Z</time>
      </trkpt>
      <trkpt lat="47.26737" lon="-2.30868">
        <ele>2.4000000953674</ele>
        <time>2020-07-05T07:40:12.000Z</time>
      </trkpt>
      <trkpt lat="47.2674" lon="-2.3087">
        <ele>3</ele>
        <time>2020-07-05T07:40:13.000Z</time>
      </trkpt>
      <trkpt lat="47.26746" lon="-2.30867">
        <ele>3.4000000953674</ele>
        <time>2020-07-05T07:40:14.000Z</time>
      </trkpt>
      <trkpt lat="47.2675" lon="-2.30862">
        <ele>3.7999999523163</ele>
        <time>2020-07-05T07:40:15.000Z</time>
      </trkpt>
      <trkpt lat="47.26755" lon="-2.30857">
        <ele>4.1999998092651</ele>
        <time>2020-07-05T07:40:16.000Z</time>
      </trkpt>
      <trkpt lat="47.26759" lon="-2.30852">
        <ele>4.1999998092651</ele>
        <time>2020-07-05T07:40:17.000Z</time>
      </trkpt>
      <trkpt lat="47.26763" lon="-2.30849">
        <ele>4.1999998092651</ele>
        <time>2020-07-05T07:40:18.000Z</time>
      </trkpt>
      <trkpt lat="47.26781" lon="-2.30831">
        <ele>4.1999998092651</ele>
        <time>2020-07-05T07:40:22.000Z</time>
      </trkpt>
      <trkpt lat="47.26811" lon="-2.308">
        <ele>4.1999998092651</ele>
        <time>2020-07-05T07:40:29.000Z</time>
      </trkpt>
      <trkpt lat="47.26829" lon="-2.30787">
        <ele>4.1999998092651</ele>
        <time>2020-07-05T07:40:33.000Z</time>
      </trkpt>
      <trkpt lat="47.26833" lon="-2.30781">
        <ele>4.1999998092651</ele>
        <time>2020-07-05T07:40:34.000Z</time>
      </trkpt>
      <trkpt lat="47.26841" lon="-2.30756">
        <ele>4.1999998092651</ele>
        <time>2020-07-05T07:40:38.000Z</time>
      </trkpt>
      <trkpt lat="47.26843" lon="-2.3075">
        <ele>4.1999998092651</ele>
        <time>2020-07-05T07:40:39.000Z</time>
      </trkpt>
      <trkpt lat="47.26857" lon="-2.30715">
        <ele>4.1999998092651</ele>
        <time>2020-07-05T07:40:45.000Z</time>
      </trkpt>
      <trkpt lat="47.26871" lon="-2.30689">
        <ele>4.1999998092651</ele>
        <time>2020-07-05T07:40:50.000Z</time>
      </trkpt>
      <trkpt lat="47.26878" lon="-2.30679">
        <ele>4.1999998092651</ele>
        <time>2020-07-05T07:40:52.000Z</time>
      </trkpt>
      <trkpt lat="47.26892" lon="-2.30664">
        <ele>4.1999998092651</ele>
        <time>2020-07-05T07:40:56.000Z</time>
      </trkpt>
      <trkpt lat="47.26899" lon="-2.30667">
        <ele>4.1999998092651</ele>
        <time>2020-07-05T07:40:58.000Z</time>
      </trkpt>
      <trkpt lat="47.26907" lon="-2.30681">
        <ele>4.1999998092651</ele>
        <time>2020-07-05T07:41:01.000Z</time>
      </trkpt>
      <trkpt lat="47.26911" lon="-2.30686">
        <ele>4.1999998092651</ele>
        <time>2020-07-05T07:41:02.000Z</time>
      </trkpt>
      <trkpt lat="47.26927" lon="-2.30707">
        <ele>4.1999998092651</ele>
        <time>2020-07-05T07:41:06.000Z</time>
      </trkpt>
      <trkpt lat="47.26935" lon="-2.30719">
        <ele>4.1999998092651</ele>
        <time>2020-07-05T07:41:08.000Z</time>
      </trkpt>
      <trkpt lat="47.26952" lon="-2.30745">
        <ele>4.1999998092651</ele>
        <time>2020-07-05T07:41:12.000Z</time>
      </trkpt>
      <trkpt lat="47.26957" lon="-2.30751">
        <ele>4.1999998092651</ele>
        <time>2020-07-05T07:41:13.000Z</time>
      </trkpt>
      <trkpt lat="47.26962" lon="-2.30758">
        <ele>3.7999999523163</ele>
        <time>2020-07-05T07:41:14.000Z</time>
      </trkpt>
      <trkpt lat="47.26967" lon="-2.30764">
        <ele>3.2000000476837</ele>
        <time>2020-07-05T07:41:15.000Z</time>
      </trkpt>
      <trkpt lat="47.26971" lon="-2.30773">
        <ele>2.7999999523163</ele>
        <time>2020-07-05T07:41:16.000Z</time>
      </trkpt>
      <trkpt lat="47.26976" lon="-2.3078">
        <ele>2.4000000953674</ele>
        <time>2020-07-05T07:41:17.000Z</time>
      </trkpt>
      <trkpt lat="47.26981" lon="-2.30786">
        <ele>2</ele>
        <time>2020-07-05T07:41:18.000Z</time>
      </trkpt>
      <trkpt lat="47.27005" lon="-2.30824">
        <ele>1.6000000238419</ele>
        <time>2020-07-05T07:41:23.000Z</time>
      </trkpt>
      <trkpt lat="47.2701" lon="-2.30831">
        <ele>1</ele>
        <time>2020-07-05T07:41:24.000Z</time>
      </trkpt>
      <trkpt lat="47.27015" lon="-2.30839">
        <ele>0.60000002384186</ele>
        <time>2020-07-05T07:41:25.000Z</time>
      </trkpt>
      <trkpt lat="47.27019" lon="-2.30845">
        <ele>0.20000000298023</ele>
        <time>2020-07-05T07:41:26.000Z</time>
      </trkpt>
      <trkpt lat="47.27023" lon="-2.30853">
        <ele>-0.20000000298023</ele>
        <time>2020-07-05T07:41:27.000Z</time>
      </trkpt>
      <trkpt lat="47.27039" lon="-2.30879">
        <ele>-0.80000001192093</ele>
        <time>2020-07-05T07:41:31.000Z</time>
      </trkpt>
      <trkpt lat="47.27042" lon="-2.30884">
        <ele>-1.2000000476837</ele>
        <time>2020-07-05T07:41:32.000Z</time>
      </trkpt>
      <trkpt lat="47.27044" lon="-2.30886">
        <ele>-1.7999999523163</ele>
        <time>2020-07-05T07:41:33.000Z</time>
      </trkpt>
      <trkpt lat="47.27045" lon="-2.3089">
        <ele>-2.2000000476837</ele>
        <time>2020-07-05T07:41:34.000Z</time>
      </trkpt>
      <trkpt lat="47.27046" lon="-2.30893">
        <ele>-2.5999999046326</ele>
        <time>2020-07-05T07:41:35.000Z</time>
      </trkpt>
      <trkpt lat="47.27051" lon="-2.30912">
        <ele>-2.5999999046326</ele>
        <time>2020-07-05T07:41:40.000Z</time>
      </trkpt>
      <trkpt lat="47.27062" lon="-2.30941">
        <ele>-2.5999999046326</ele>
        <time>2020-07-05T07:41:47.000Z</time>
      </trkpt>
      <trkpt lat="47.27072" lon="-2.30974">
        <ele>-2.5999999046326</ele>
        <time>2020-07-05T07:41:53.000Z</time>
      </trkpt>
      <trkpt lat="47.27072" lon="-2.30991">
        <ele>-2.5999999046326</ele>
        <time>2020-07-05T07:41:57.000Z</time>
      </trkpt>
      <trkpt lat="47.27068" lon="-2.31008">
        <ele>-2.5999999046326</ele>
        <time>2020-07-05T07:42:02.000Z</time>
      </trkpt>
      <trkpt lat="47.27056" lon="-2.31024">
        <ele>-2.5999999046326</ele>
        <time>2020-07-05T07:42:06.000Z</time>
      </trkpt>
      <trkpt lat="47.27043" lon="-2.31034">
        <ele>-2.5999999046326</ele>
        <time>2020-07-05T07:42:08.000Z</time>
      </trkpt>
      <trkpt lat="47.27027" lon="-2.31057">
        <ele>-2.5999999046326</ele>
        <time>2020-07-05T07:42:12.000Z</time>
      </trkpt>
      <trkpt lat="47.27023" lon="-2.31066">
        <ele>-2.2000000476837</ele>
        <time>2020-07-05T07:42:13.000Z</time>
      </trkpt>
      <trkpt lat="47.2702" lon="-2.31074">
        <ele>-1.7999999523163</ele>
        <time>2020-07-05T07:42:14.000Z</time>
      </trkpt>
      <trkpt lat="47.27019" lon="-2.31081">
        <ele>-1.3999999761581</ele>
        <time>2020-07-05T07:42:15.000Z</time>
      </trkpt>
      <trkpt lat="47.27018" lon="-2.31089">
        <ele>-0.80000001192093</ele>
        <time>2020-07-05T07:42:16.000Z</time>
      </trkpt>
      <trkpt lat="47.27016" lon="-2.31095">
        <ele>-0.40000000596046</ele>
        <time>2020-07-05T07:42:17.000Z</time>
      </trkpt>
      <trkpt lat="47.27014" lon="-2.31102">
        <ele>-0.40000000596046</ele>
        <time>2020-07-05T07:42:18.000Z</time>
      </trkpt>
      <trkpt lat="47.27009" lon="-2.31126">
        <ele>-0.40000000596046</ele>
        <time>2020-07-05T07:42:21.000Z</time>
      </trkpt>
      <trkpt lat="47.27003" lon="-2.31149">
        <ele>-0.40000000596046</ele>
        <time>2020-07-05T07:42:24.000Z</time>
      </trkpt>
      <trkpt lat="47.26994" lon="-2.31178">
        <ele>28</ele>
        <time>2020-07-05T07:42:28.000Z</time>
      </trkpt>
      <trkpt lat="47.26992" lon="-2.31186">
        <ele>0.40000000596046</ele>
        <time>2020-07-05T07:42:29.000Z</time>
      </trkpt>
      <trkpt lat="47.26991" lon="-2.31193">
        <ele>0.80000001192093</ele>
        <time>2020-07-05T07:42:30.000Z</time>
      </trkpt>
      <trkpt lat="47.26989" lon="-2.312">
        <ele>1.2000000476837</ele>
        <time>2020-07-05T07:42:31.000Z</time>
      </trkpt>
      <trkpt lat="47.26988" lon="-2.31207">
        <ele>1.6000000238419</ele>
        <time>2020-07-05T07:42:32.000Z</time>
      </trkpt>
      <trkpt lat="47.26985" lon="-2.31215">
        <ele>1.6000000238419</ele>
        <time>2020-07-05T07:42:33.000Z</time>
      </trkpt>
      <trkpt lat="47.2698" lon="-2.31234">
        <ele>2</ele>
        <time>2020-07-05T07:42:36.000Z</time>
      </trkpt>
      <trkpt lat="47.26979" lon="-2.31242">
        <ele>2.4000000953674</ele>
        <time>2020-07-05T07:42:37.000Z</time>
      </trkpt>
      <trkpt lat="47.26979" lon="-2.31249">
        <ele>2.7999999523163</ele>
        <time>2020-07-05T07:42:38.000Z</time>
      </trkpt>
      <trkpt lat="47.26978" lon="-2.31258">
        <ele>3.4000000953674</ele>
        <time>2020-07-05T07:42:39.000Z</time>
      </trkpt>
      <trkpt lat="47.26978" lon="-2.31265">
        <ele>3.7999999523163</ele>
        <time>2020-07-05T07:42:40.000Z</time>
      </trkpt>
      <trkpt lat="47.26979" lon="-2.31273">
        <ele>3.7999999523163</ele>
        <time>2020-07-05T07:42:41.000Z</time>
      </trkpt>
      <trkpt lat="47.26979" lon="-2.3128">
        <ele>3.7999999523163</ele>
        <time>2020-07-05T07:42:42.000Z</time>
      </trkpt>
      <trkpt lat="47.26979" lon="-2.31306">
        <ele>3.7999999523163</ele>
        <time>2020-07-05T07:42:46.000Z</time>
      </trkpt>
      <trkpt lat="47.26981" lon="-2.31324">
        <ele>3.7999999523163</ele>
        <time>2020-07-05T07:42:49.000Z</time>
      </trkpt>
      <trkpt lat="47.26988" lon="-2.31376">
        <ele>3.7999999523163</ele>
        <time>2020-07-05T07:42:57.000Z</time>
      </trkpt>
      <trkpt lat="47.2699" lon="-2.31418">
        <ele>3.2000000476837</ele>
        <time>2020-07-05T07:43:02.000Z</time>
      </trkpt>
      <trkpt lat="47.26991" lon="-2.31427">
        <ele>2.7999999523163</ele>
        <time>2020-07-05T07:43:03.000Z</time>
      </trkpt>
      <trkpt lat="47.26991" lon="-2.31438">
        <ele>2.4000000953674</ele>
        <time>2020-07-05T07:43:04.000Z</time>
      </trkpt>
      <trkpt lat="47.26991" lon="-2.31447">
        <ele>2</ele>
        <time>2020-07-05T07:43:05.000Z</time>
      </trkpt>
      <trkpt lat="47.26992" lon="-2.31455">
        <ele>1.6000000238419</ele>
        <time>2020-07-05T07:43:06.000Z</time>
      </trkpt>
      <trkpt lat="47.26997" lon="-2.31487">
        <ele>1.6000000238419</ele>
        <time>2020-07-05T07:43:10.000Z</time>
      </trkpt>
      <trkpt lat="47.27004" lon="-2.31524">
        <ele>1</ele>
        <time>2020-07-05T07:43:14.000Z</time>
      </trkpt>
      <trkpt lat="47.27006" lon="-2.31534">
        <ele>0.20000000298023</ele>
        <time>2020-07-05T07:43:15.000Z</time>
      </trkpt>
      <trkpt lat="47.27009" lon="-2.31542">
        <ele>-0.20000000298023</ele>
        <time>2020-07-05T07:43:16.000Z</time>
      </trkpt>
      <trkpt lat="47.27011" lon="-2.31551">
        <ele>-0.60000002384186</ele>
        <time>2020-07-05T07:43:17.000Z</time>
      </trkpt>
      <trkpt lat="47.27017" lon="-2.31568">
        <ele>-1.2000000476837</ele>
        <time>2020-07-05T07:43:19.000Z</time>
      </trkpt>
      <trkpt lat="47.27019" lon="-2.31575">
        <ele>-1.6000000238419</ele>
        <time>2020-07-05T07:43:20.000Z</time>
      </trkpt>
      <trkpt lat="47.27022" lon="-2.31582">
        <ele>-2</ele>
        <time>2020-07-05T07:43:21.000Z</time>
      </trkpt>
      <trkpt lat="47.27024" lon="-2.31588">
        <ele>-2.5999999046326</ele>
        <time>2020-07-05T07:43:22.000Z</time>
      </trkpt>
      <trkpt lat="47.27027" lon="-2.31594">
        <ele>-3.2000000476837</ele>
        <time>2020-07-05T07:43:23.000Z</time>
      </trkpt>
      <trkpt lat="47.27028" lon="-2.31601">
        <ele>-3.7999999523163</ele>
        <time>2020-07-05T07:43:24.000Z</time>
      </trkpt>
      <trkpt lat="47.2703" lon="-2.31606">
        <ele>-4.4000000953674</ele>
        <time>2020-07-05T07:43:25.000Z</time>
      </trkpt>
      <trkpt lat="47.27032" lon="-2.31612">
        <ele>-5</ele>
        <time>2020-07-05T07:43:26.000Z</time>
      </trkpt>
      <trkpt lat="47.27034" lon="-2.31622">
        <ele>-5.5999999046326</ele>
        <time>2020-07-05T07:43:27.000Z</time>
      </trkpt>
      <trkpt lat="47.27037" lon="-2.31638">
        <ele>-6</ele>
        <time>2020-07-05T07:43:29.000Z</time>
      </trkpt>
      <trkpt lat="47.27038" lon="-2.31646">
        <ele>-6.4000000953674</ele>
        <time>2020-07-05T07:43:30.000Z</time>
      </trkpt>
      <trkpt lat="47.27039" lon="-2.31654">
        <ele>-6.8000001907349</ele>
        <time>2020-07-05T07:43:31.000Z</time>
      </trkpt>
      <trkpt lat="47.2704" lon="-2.31664">
        <ele>-7.1999998092651</ele>
        <time>2020-07-05T07:43:32.000Z</time>
      </trkpt>
      <trkpt lat="47.27041" lon="-2.31671">
        <ele>-7.5999999046326</ele>
        <time>2020-07-05T07:43:33.000Z</time>
      </trkpt>
      <trkpt lat="47.27035" lon="-2.31695">
        <ele>-8</ele>
        <time>2020-07-05T07:43:36.000Z</time>
      </trkpt>
      <trkpt lat="47.27034" lon="-2.31701">
        <ele>-8.6000003814697</ele>
        <time>2020-07-05T07:43:37.000Z</time>
      </trkpt>
      <trkpt lat="47.27033" lon="-2.31706">
        <ele>-9</ele>
        <time>2020-07-05T07:43:38.000Z</time>
      </trkpt>
      <trkpt lat="47.27035" lon="-2.3171">
        <ele>-9.6000003814697</ele>
        <time>2020-07-05T07:43:39.000Z</time>
      </trkpt>
      <trkpt lat="47.27038" lon="-2.31714">
        <ele>-10</ele>
        <time>2020-07-05T07:43:40.000Z</time>
      </trkpt>
      <trkpt lat="47.27045" lon="-2.31719">
        <ele>-10</ele>
        <time>2020-07-05T07:43:42.000Z</time>
      </trkpt>
      <trkpt lat="47.27053" lon="-2.31726">
        <ele>-10</ele>
        <time>2020-07-05T07:43:44.000Z</time>
      </trkpt>
      <trkpt lat="47.27057" lon="-2.31744">
        <ele>-10.60000038147</ele>
        <time>2020-07-05T07:43:47.000Z</time>
      </trkpt>
      <trkpt lat="47.27057" lon="-2.3175">
        <ele>-11</ele>
        <time>2020-07-05T07:43:48.000Z</time>
      </trkpt>
      <trkpt lat="47.27057" lon="-2.31755">
        <ele>-11.39999961853</ele>
        <time>2020-07-05T07:43:49.000Z</time>
      </trkpt>
      <trkpt lat="47.27057" lon="-2.31762">
        <ele>-11.800000190735</ele>
        <time>2020-07-05T07:43:50.000Z</time>
      </trkpt>
      <trkpt lat="47.27057" lon="-2.31768">
        <ele>-12.199999809265</ele>
        <time>2020-07-05T07:43:51.000Z</time>
      </trkpt>
      <trkpt lat="47.27058" lon="-2.31782">
        <ele>-12.199999809265</ele>
        <time>2020-07-05T07:43:53.000Z</time>
      </trkpt>
      <trkpt lat="47.27063" lon="-2.31835">
        <ele>-12.199999809265</ele>
        <time>2020-07-05T07:44:00.000Z</time>
      </trkpt>
      <trkpt lat="47.27067" lon="-2.3185">
        <ele>-12.60000038147</ele>
        <time>2020-07-05T07:44:03.000Z</time>
      </trkpt>
      <trkpt lat="47.27069" lon="-2.31852">
        <ele>-13</ele>
        <time>2020-07-05T07:44:04.000Z</time>
      </trkpt>
      <trkpt lat="47.27071" lon="-2.31854">
        <ele>-13.800000190735</ele>
        <time>2020-07-05T07:44:05.000Z</time>
      </trkpt>
      <trkpt lat="47.27074" lon="-2.31857">
        <ele>-14.199999809265</ele>
        <time>2020-07-05T07:44:06.000Z</time>
      </trkpt>
      <trkpt lat="47.27078" lon="-2.31862">
        <ele>-14.199999809265</ele>
        <time>2020-07-05T07:44:08.000Z</time>
      </trkpt>
      <trkpt lat="47.27076" lon="-2.31877">
        <ele>-14.199999809265</ele>
        <time>2020-07-05T07:44:13.000Z</time>
      </trkpt>
      <trkpt lat="47.27076" lon="-2.319">
        <ele>-14.199999809265</ele>
        <time>2020-07-05T07:44:18.000Z</time>
      </trkpt>
      <trkpt lat="47.27078" lon="-2.31916">
        <ele>-14.60000038147</ele>
        <time>2020-07-05T07:44:21.000Z</time>
      </trkpt>
      <trkpt lat="47.27078" lon="-2.31921">
        <ele>-15</ele>
        <time>2020-07-05T07:44:22.000Z</time>
      </trkpt>
      <trkpt lat="47.27078" lon="-2.31926">
        <ele>-15.39999961853</ele>
        <time>2020-07-05T07:44:23.000Z</time>
      </trkpt>
      <trkpt lat="47.27079" lon="-2.31931">
        <ele>-15.800000190735</ele>
        <time>2020-07-05T07:44:24.000Z</time>
      </trkpt>
      <trkpt lat="47.27079" lon="-2.31936">
        <ele>-16.200000762939</ele>
        <time>2020-07-05T07:44:25.000Z</time>
      </trkpt>
      <trkpt lat="47.27074" lon="-2.31949">
        <ele>-16.200000762939</ele>
        <time>2020-07-05T07:44:29.000Z</time>
      </trkpt>
      <trkpt lat="47.27057" lon="-2.31952">
        <ele>-16.200000762939</ele>
        <time>2020-07-05T07:44:35.000Z</time>
      </trkpt>
      <trkpt lat="47.27042" lon="-2.3196">
        <ele>-16.200000762939</ele>
        <time>2020-07-05T07:44:39.000Z</time>
      </trkpt>
      <trkpt lat="47.27037" lon="-2.31963">
        <ele>-16.200000762939</ele>
        <time>2020-07-05T07:44:40.000Z</time>
      </trkpt>
      <trkpt lat="47.27021" lon="-2.31977">
        <ele>-16.200000762939</ele>
        <time>2020-07-05T07:44:44.000Z</time>
      </trkpt>
      <trkpt lat="47.27018" lon="-2.31982">
        <ele>-16.200000762939</ele>
        <time>2020-07-05T07:44:45.000Z</time>
      </trkpt>
      <trkpt lat="47.27017" lon="-2.32007">
        <ele>-16.200000762939</ele>
        <time>2020-07-05T07:44:49.000Z</time>
      </trkpt>
      <trkpt lat="47.27018" lon="-2.32014">
        <ele>-16.200000762939</ele>
        <time>2020-07-05T07:44:50.000Z</time>
      </trkpt>
      <trkpt lat="47.27021" lon="-2.32029">
        <ele>-16.200000762939</ele>
        <time>2020-07-05T07:44:52.000Z</time>
      </trkpt>
      <trkpt lat="47.27023" lon="-2.32045">
        <ele>-16.200000762939</ele>
        <time>2020-07-05T07:44:54.000Z</time>
      </trkpt>
      <trkpt lat="47.27024" lon="-2.3207">
        <ele>-16.799999237061</ele>
        <time>2020-07-05T07:44:57.000Z</time>
      </trkpt>
      <trkpt lat="47.27024" lon="-2.32079">
        <ele>-17.200000762939</ele>
        <time>2020-07-05T07:44:58.000Z</time>
      </trkpt>
      <trkpt lat="47.27024" lon="-2.32088">
        <ele>-17.60000038147</ele>
        <time>2020-07-05T07:44:59.000Z</time>
      </trkpt>
      <trkpt lat="47.27023" lon="-2.32096">
        <ele>-18</ele>
        <time>2020-07-05T07:45:00.000Z</time>
      </trkpt>
      <trkpt lat="47.27022" lon="-2.32104">
        <ele>-18.60000038147</ele>
        <time>2020-07-05T07:45:01.000Z</time>
      </trkpt>
      <trkpt lat="47.27011" lon="-2.32124">
        <ele>-18.60000038147</ele>
        <time>2020-07-05T07:45:04.000Z</time>
      </trkpt>
      <trkpt lat="47.27008" lon="-2.3213">
        <ele>-18.60000038147</ele>
        <time>2020-07-05T07:45:05.000Z</time>
      </trkpt>
      <trkpt lat="47.27004" lon="-2.32136">
        <ele>-18.60000038147</ele>
        <time>2020-07-05T07:45:06.000Z</time>
      </trkpt>
      <trkpt lat="47.27001" lon="-2.32151">
        <ele>-18.60000038147</ele>
        <time>2020-07-05T07:45:08.000Z</time>
      </trkpt>
      <trkpt lat="47.27001" lon="-2.32157">
        <ele>-19</ele>
        <time>2020-07-05T07:45:09.000Z</time>
      </trkpt>
      <trkpt lat="47.27004" lon="-2.32163">
        <ele>-19.39999961853</ele>
        <time>2020-07-05T07:45:10.000Z</time>
      </trkpt>
      <trkpt lat="47.27008" lon="-2.32169">
        <ele>-19.799999237061</ele>
        <time>2020-07-05T07:45:11.000Z</time>
      </trkpt>
      <trkpt lat="47.27012" lon="-2.32176">
        <ele>-20.200000762939</ele>
        <time>2020-07-05T07:45:12.000Z</time>
      </trkpt>
      <trkpt lat="47.27015" lon="-2.32183">
        <ele>-20.60000038147</ele>
        <time>2020-07-05T07:45:13.000Z</time>
      </trkpt>
      <trkpt lat="47.27022" lon="-2.32199">
        <ele>-20.60000038147</ele>
        <time>2020-07-05T07:45:15.000Z</time>
      </trkpt>
      <trkpt lat="47.27028" lon="-2.32215">
        <ele>-20.60000038147</ele>
        <time>2020-07-05T07:45:17.000Z</time>
      </trkpt>
      <trkpt lat="47.27034" lon="-2.32241">
        <ele>-20.60000038147</ele>
        <time>2020-07-05T07:45:20.000Z</time>
      </trkpt>
      <trkpt lat="47.27038" lon="-2.32277">
        <ele>-20.60000038147</ele>
        <time>2020-07-05T07:45:24.000Z</time>
      </trkpt>
      <trkpt lat="47.27038" lon="-2.32287">
        <ele>-20.60000038147</ele>
        <time>2020-07-05T07:45:25.000Z</time>
      </trkpt>
      <trkpt lat="47.27035" lon="-2.32345">
        <ele>-20.60000038147</ele>
        <time>2020-07-05T07:45:31.000Z</time>
      </trkpt>
      <trkpt lat="47.27035" lon="-2.32362">
        <ele>-20.60000038147</ele>
        <time>2020-07-05T07:45:33.000Z</time>
      </trkpt>
      <trkpt lat="47.2704" lon="-2.32434">
        <ele>-20.60000038147</ele>
        <time>2020-07-05T07:45:40.000Z</time>
      </trkpt>
      <trkpt lat="47.27042" lon="-2.32481">
        <ele>-20.60000038147</ele>
        <time>2020-07-05T07:45:45.000Z</time>
      </trkpt>
      <trkpt lat="47.27036" lon="-2.32497">
        <ele>-20.60000038147</ele>
        <time>2020-07-05T07:45:48.000Z</time>
      </trkpt>
      <trkpt lat="47.27026" lon="-2.32498">
        <ele>-20.60000038147</ele>
        <time>2020-07-05T07:45:51.000Z</time>
      </trkpt>
      <trkpt lat="47.27016" lon="-2.32488">
        <ele>-20.60000038147</ele>
        <time>2020-07-05T07:45:53.000Z</time>
      </trkpt>
      <trkpt lat="47.27012" lon="-2.32482">
        <ele>-20.60000038147</ele>
        <time>2020-07-05T07:45:54.000Z</time>
      </trkpt>
      <trkpt lat="47.26985" lon="-2.32447">
        <ele>-20.60000038147</ele>
        <time>2020-07-05T07:46:00.000Z</time>
      </trkpt>
      <trkpt lat="47.26949" lon="-2.32393">
        <ele>-20.200000762939</ele>
        <time>2020-07-05T07:46:09.000Z</time>
      </trkpt>
      <trkpt lat="47.26945" lon="-2.32386">
        <ele>-19.39999961853</ele>
        <time>2020-07-05T07:46:10.000Z</time>
      </trkpt>
      <trkpt lat="47.26942" lon="-2.32379">
        <ele>-19</ele>
        <time>2020-07-05T07:46:11.000Z</time>
      </trkpt>
      <trkpt lat="47.26939" lon="-2.32371">
        <ele>-18.60000038147</ele>
        <time>2020-07-05T07:46:12.000Z</time>
      </trkpt>
      <trkpt lat="47.26934" lon="-2.32356">
        <ele>-18.60000038147</ele>
        <time>2020-07-05T07:46:14.000Z</time>
      </trkpt>
      <trkpt lat="47.2693" lon="-2.32344">
        <ele>-18.60000038147</ele>
        <time>2020-07-05T07:46:16.000Z</time>
      </trkpt>
      <trkpt lat="47.26923" lon="-2.32332">
        <ele>-18.60000038147</ele>
        <time>2020-07-05T07:46:19.000Z</time>
      </trkpt>
      <trkpt lat="47.2692" lon="-2.32331">
        <ele>-18.60000038147</ele>
        <time>2020-07-05T07:46:20.000Z</time>
      </trkpt>
      <trkpt lat="47.2691" lon="-2.32334">
        <ele>-18</ele>
        <time>2020-07-05T07:46:23.000Z</time>
      </trkpt>
      <trkpt lat="47.26907" lon="-2.32336">
        <ele>-17.60000038147</ele>
        <time>2020-07-05T07:46:24.000Z</time>
      </trkpt>
      <trkpt lat="47.26903" lon="-2.32337">
        <ele>-17.200000762939</ele>
        <time>2020-07-05T07:46:25.000Z</time>
      </trkpt>
      <trkpt lat="47.269" lon="-2.32338">
        <ele>-16.799999237061</ele>
        <time>2020-07-05T07:46:26.000Z</time>
      </trkpt>
      <trkpt lat="47.26896" lon="-2.3234">
        <ele>-16.39999961853</ele>
        <time>2020-07-05T07:46:27.000Z</time>
      </trkpt>
      <trkpt lat="47.26883" lon="-2.32344">
        <ele>-16.39999961853</ele>
        <time>2020-07-05T07:46:30.000Z</time>
      </trkpt>
      <trkpt lat="47.26862" lon="-2.32349">
        <ele>-16</ele>
        <time>2020-07-05T07:46:35.000Z</time>
      </trkpt>
      <trkpt lat="47.26858" lon="-2.32349">
        <ele>-15.60000038147</ele>
        <time>2020-07-05T07:46:36.000Z</time>
      </trkpt>
      <trkpt lat="47.26854" lon="-2.3235">
        <ele>-15.199999809265</ele>
        <time>2020-07-05T07:46:37.000Z</time>
      </trkpt>
      <trkpt lat="47.2685" lon="-2.3235">
        <ele>-14.800000190735</ele>
        <time>2020-07-05T07:46:38.000Z</time>
      </trkpt>
      <trkpt lat="47.26847" lon="-2.32351">
        <ele>-14.199999809265</ele>
        <time>2020-07-05T07:46:39.000Z</time>
      </trkpt>
      <trkpt lat="47.26833" lon="-2.32355">
        <ele>-13.800000190735</ele>
        <time>2020-07-05T07:46:43.000Z</time>
      </trkpt>
      <trkpt lat="47.26829" lon="-2.32356">
        <ele>-13.39999961853</ele>
        <time>2020-07-05T07:46:44.000Z</time>
      </trkpt>
      <trkpt lat="47.26826" lon="-2.32356">
        <ele>-13</ele>
        <time>2020-07-05T07:46:45.000Z</time>
      </trkpt>
      <trkpt lat="47.26822" lon="-2.32358">
        <ele>-12.60000038147</ele>
        <time>2020-07-05T07:46:46.000Z</time>
      </trkpt>
      <trkpt lat="47.26818" lon="-2.32359">
        <ele>-12</ele>
        <time>2020-07-05T07:46:47.000Z</time>
      </trkpt>
      <trkpt lat="47.26807" lon="-2.32363">
        <ele>-11.60000038147</ele>
        <time>2020-07-05T07:46:50.000Z</time>
      </trkpt>
      <trkpt lat="47.26803" lon="-2.32364">
        <ele>-11.199999809265</ele>
        <time>2020-07-05T07:46:51.000Z</time>
      </trkpt>
      <trkpt lat="47.268" lon="-2.32366">
        <ele>-10.800000190735</ele>
        <time>2020-07-05T07:46:52.000Z</time>
      </trkpt>
      <trkpt lat="47.26796" lon="-2.32367">
        <ele>-10.39999961853</ele>
        <time>2020-07-05T07:46:53.000Z</time>
      </trkpt>
      <trkpt lat="47.26793" lon="-2.32369">
        <ele>-10</ele>
        <time>2020-07-05T07:46:54.000Z</time>
      </trkpt>
      <trkpt lat="47.26787" lon="-2.32376">
        <ele>-10</ele>
        <time>2020-07-05T07:46:56.000Z</time>
      </trkpt>
      <trkpt lat="47.26784" lon="-2.32384">
        <ele>-10</ele>
        <time>2020-07-05T07:46:58.000Z</time>
      </trkpt>
      <trkpt lat="47.26784" lon="-2.32388">
        <ele>-9.1999998092651</ele>
        <time>2020-07-05T07:46:59.000Z</time>
      </trkpt>
      <trkpt lat="47.26784" lon="-2.32392">
        <ele>-8.8000001907349</ele>
        <time>2020-07-05T07:47:00.000Z</time>
      </trkpt>
      <trkpt lat="47.26784" lon="-2.32397">
        <ele>-8.3999996185303</ele>
        <time>2020-07-05T07:47:01.000Z</time>
      </trkpt>
      <trkpt lat="47.26784" lon="-2.32402">
        <ele>-8</ele>
        <time>2020-07-05T07:47:02.000Z</time>
      </trkpt>
      <trkpt lat="47.26787" lon="-2.32426">
        <ele>-8</ele>
        <time>2020-07-05T07:47:06.000Z</time>
      </trkpt>
      <trkpt lat="47.26794" lon="-2.32478">
        <ele>-8</ele>
        <time>2020-07-05T07:47:13.000Z</time>
      </trkpt>
      <trkpt lat="47.26801" lon="-2.32534">
        <ele>-8</ele>
        <time>2020-07-05T07:47:20.000Z</time>
      </trkpt>
      <trkpt lat="47.26804" lon="-2.32587">
        <ele>-8</ele>
        <time>2020-07-05T07:47:26.000Z</time>
      </trkpt>
      <trkpt lat="47.26811" lon="-2.32641">
        <ele>-8</ele>
        <time>2020-07-05T07:47:33.000Z</time>
      </trkpt>
      <trkpt lat="47.26812" lon="-2.32663">
        <ele>-8</ele>
        <time>2020-07-05T07:47:36.000Z</time>
      </trkpt>
      <trkpt lat="47.26811" lon="-2.32669">
        <ele>-8</ele>
        <time>2020-07-05T07:47:37.000Z</time>
      </trkpt>
      <trkpt lat="47.26803" lon="-2.32697">
        <ele>-8</ele>
        <time>2020-07-05T07:47:41.000Z</time>
      </trkpt>
      <trkpt lat="47.26803" lon="-2.32718">
        <ele>-8</ele>
        <time>2020-07-05T07:47:44.000Z</time>
      </trkpt>
      <trkpt lat="47.26804" lon="-2.32725">
        <ele>-8</ele>
        <time>2020-07-05T07:47:45.000Z</time>
      </trkpt>
      <trkpt lat="47.26811" lon="-2.32755">
        <ele>-8.3999996185303</ele>
        <time>2020-07-05T07:47:49.000Z</time>
      </trkpt>
      <trkpt lat="47.26813" lon="-2.32762">
        <ele>-8.8000001907349</ele>
        <time>2020-07-05T07:47:50.000Z</time>
      </trkpt>
      <trkpt lat="47.26815" lon="-2.32769">
        <ele>-9.3999996185303</ele>
        <time>2020-07-05T07:47:51.000Z</time>
      </trkpt>
      <trkpt lat="47.26817" lon="-2.32774">
        <ele>-9.8000001907349</ele>
        <time>2020-07-05T07:47:52.000Z</time>
      </trkpt>
      <trkpt lat="47.26819" lon="-2.32779">
        <ele>-10.39999961853</ele>
        <time>2020-07-05T07:47:53.000Z</time>
      </trkpt>
      <trkpt lat="47.26821" lon="-2.32784">
        <ele>-11</ele>
        <time>2020-07-05T07:47:54.000Z</time>
      </trkpt>
      <trkpt lat="47.26823" lon="-2.32789">
        <ele>-11.60000038147</ele>
        <time>2020-07-05T07:47:55.000Z</time>
      </trkpt>
      <trkpt lat="47.26826" lon="-2.32794">
        <ele>-12.199999809265</ele>
        <time>2020-07-05T07:47:56.000Z</time>
      </trkpt>
      <trkpt lat="47.26828" lon="-2.328">
        <ele>-12.800000190735</ele>
        <time>2020-07-05T07:47:57.000Z</time>
      </trkpt>
      <trkpt lat="47.26832" lon="-2.32806">
        <ele>-13.199999809265</ele>
        <time>2020-07-05T07:47:58.000Z</time>
      </trkpt>
      <trkpt lat="47.26835" lon="-2.32813">
        <ele>-13.60000038147</ele>
        <time>2020-07-05T07:47:59.000Z</time>
      </trkpt>
      <trkpt lat="47.26838" lon="-2.3282">
        <ele>-14.199999809265</ele>
        <time>2020-07-05T07:48:00.000Z</time>
      </trkpt>
      <trkpt lat="47.26842" lon="-2.32829">
        <ele>-14.60000038147</ele>
        <time>2020-07-05T07:48:01.000Z</time>
      </trkpt>
      <trkpt lat="47.26845" lon="-2.32837">
        <ele>-15</ele>
        <time>2020-07-05T07:48:02.000Z</time>
      </trkpt>
      <trkpt lat="47.26851" lon="-2.32852">
        <ele>-15.60000038147</ele>
        <time>2020-07-05T07:48:04.000Z</time>
      </trkpt>
      <trkpt lat="47.26854" lon="-2.3286">
        <ele>-16</ele>
        <time>2020-07-05T07:48:05.000Z</time>
      </trkpt>
      <trkpt lat="47.26857" lon="-2.32867">
        <ele>-16.60000038147</ele>
        <time>2020-07-05T07:48:06.000Z</time>
      </trkpt>
      <trkpt lat="47.26858" lon="-2.32873">
        <ele>-17.39999961853</ele>
        <time>2020-07-05T07:48:07.000Z</time>
      </trkpt>
      <trkpt lat="47.26857" lon="-2.32878">
        <ele>-18.200000762939</ele>
        <time>2020-07-05T07:48:08.000Z</time>
      </trkpt>
      <trkpt lat="47.26855" lon="-2.32882">
        <ele>-18.799999237061</ele>
        <time>2020-07-05T07:48:09.000Z</time>
      </trkpt>
      <trkpt lat="47.26852" lon="-2.32884">
        <ele>-19.60000038147</ele>
        <time>2020-07-05T07:48:10.000Z</time>
      </trkpt>
      <trkpt lat="47.26849" lon="-2.32886">
        <ele>-20.39999961853</ele>
        <time>2020-07-05T07:48:11.000Z</time>
      </trkpt>
      <trkpt lat="47.2684" lon="-2.3289">
        <ele>-20.39999961853</ele>
        <time>2020-07-05T07:48:13.000Z</time>
      </trkpt>
      <trkpt lat="47.26831" lon="-2.32898">
        <ele>-20.39999961853</ele>
        <time>2020-07-05T07:48:15.000Z</time>
      </trkpt>
      <trkpt lat="47.2682" lon="-2.3291">
        <ele>-20.39999961853</ele>
        <time>2020-07-05T07:48:17.000Z</time>
      </trkpt>
      <trkpt lat="47.26815" lon="-2.32916">
        <ele>-20.39999961853</ele>
        <time>2020-07-05T07:48:18.000Z</time>
      </trkpt>
      <trkpt lat="47.26804" lon="-2.32923">
        <ele>-20.39999961853</ele>
        <time>2020-07-05T07:48:20.000Z</time>
      </trkpt>
      <trkpt lat="47.26794" lon="-2.32929">
        <ele>-20.799999237061</ele>
        <time>2020-07-05T07:48:22.000Z</time>
      </trkpt>
      <trkpt lat="47.26789" lon="-2.32933">
        <ele>-21.200000762939</ele>
        <time>2020-07-05T07:48:23.000Z</time>
      </trkpt>
      <trkpt lat="47.26784" lon="-2.32939">
        <ele>-21.799999237061</ele>
        <time>2020-07-05T07:48:24.000Z</time>
      </trkpt>
      <trkpt lat="47.26779" lon="-2.32945">
        <ele>-22.200000762939</ele>
        <time>2020-07-05T07:48:25.000Z</time>
      </trkpt>
      <trkpt lat="47.26774" lon="-2.32951">
        <ele>-22.60000038147</ele>
        <time>2020-07-05T07:48:26.000Z</time>
      </trkpt>
      <trkpt lat="47.26763" lon="-2.32962">
        <ele>-22.60000038147</ele>
        <time>2020-07-05T07:48:28.000Z</time>
      </trkpt>
      <trkpt lat="47.26748" lon="-2.3298">
        <ele>-22.60000038147</ele>
        <time>2020-07-05T07:48:31.000Z</time>
      </trkpt>
      <trkpt lat="47.26744" lon="-2.32987">
        <ele>-22.60000038147</ele>
        <time>2020-07-05T07:48:32.000Z</time>
      </trkpt>
      <trkpt lat="47.26736" lon="-2.3301">
        <ele>-22.60000038147</ele>
        <time>2020-07-05T07:48:35.000Z</time>
      </trkpt>
      <trkpt lat="47.26733" lon="-2.33032">
        <ele>-22.60000038147</ele>
        <time>2020-07-05T07:48:38.000Z</time>
      </trkpt>
      <trkpt lat="47.26732" lon="-2.3304">
        <ele>-22.60000038147</ele>
        <time>2020-07-05T07:48:39.000Z</time>
      </trkpt>
      <trkpt lat="47.26731" lon="-2.33047">
        <ele>-22.60000038147</ele>
        <time>2020-07-05T07:48:40.000Z</time>
      </trkpt>
      <trkpt lat="47.26725" lon="-2.33069">
        <ele>-22.60000038147</ele>
        <time>2020-07-05T07:48:43.000Z</time>
      </trkpt>
      <trkpt lat="47.26708" lon="-2.33091">
        <ele>-22.60000038147</ele>
        <time>2020-07-05T07:48:47.000Z</time>
      </trkpt>
      <trkpt lat="47.26671" lon="-2.33126">
        <ele>-22.60000038147</ele>
        <time>2020-07-05T07:48:54.000Z</time>
      </trkpt>
      <trkpt lat="47.26639" lon="-2.33151">
        <ele>-22.60000038147</ele>
        <time>2020-07-05T07:49:01.000Z</time>
      </trkpt>
      <trkpt lat="47.26635" lon="-2.33152">
        <ele>-22.60000038147</ele>
        <time>2020-07-05T07:49:02.000Z</time>
      </trkpt>
      <trkpt lat="47.26623" lon="-2.33151">
        <ele>-22.60000038147</ele>
        <time>2020-07-05T07:49:05.000Z</time>
      </trkpt>
      <trkpt lat="47.26619" lon="-2.3315">
        <ele>-22.60000038147</ele>
        <time>2020-07-05T07:49:06.000Z</time>
      </trkpt>
      <trkpt lat="47.26604" lon="-2.33141">
        <ele>-22.60000038147</ele>
        <time>2020-07-05T07:49:11.000Z</time>
      </trkpt>
      <trkpt lat="47.26595" lon="-2.33139">
        <ele>-22.60000038147</ele>
        <time>2020-07-05T07:49:16.000Z</time>
      </trkpt>
      <trkpt lat="47.26593" lon="-2.33141">
        <ele>-22.60000038147</ele>
        <time>2020-07-05T07:49:17.000Z</time>
      </trkpt>
      <trkpt lat="47.26591" lon="-2.33154">
        <ele>-22.60000038147</ele>
        <time>2020-07-05T07:49:21.000Z</time>
      </trkpt>
      <trkpt lat="47.26591" lon="-2.33157">
        <ele>-22.60000038147</ele>
        <time>2020-07-05T07:49:22.000Z</time>
      </trkpt>
      <trkpt lat="47.26587" lon="-2.33177">
        <ele>-22.60000038147</ele>
        <time>2020-07-05T07:49:28.000Z</time>
      </trkpt>
      <trkpt lat="47.26575" lon="-2.33198">
        <ele>-22.60000038147</ele>
        <time>2020-07-05T07:49:35.000Z</time>
      </trkpt>
      <trkpt lat="47.26558" lon="-2.33209">
        <ele>-22.60000038147</ele>
        <time>2020-07-05T07:49:42.000Z</time>
      </trkpt>
      <trkpt lat="47.26551" lon="-2.33214">
        <ele>-23</ele>
        <time>2020-07-05T07:49:45.000Z</time>
      </trkpt>
      <trkpt lat="47.26548" lon="-2.33216">
        <ele>-23.39999961853</ele>
        <time>2020-07-05T07:49:46.000Z</time>
      </trkpt>
      <trkpt lat="47.26546" lon="-2.33217">
        <ele>-23.799999237061</ele>
        <time>2020-07-05T07:49:47.000Z</time>
      </trkpt>
      <trkpt lat="47.26543" lon="-2.33219">
        <ele>-24.200000762939</ele>
        <time>2020-07-05T07:49:48.000Z</time>
      </trkpt>
      <trkpt lat="47.26539" lon="-2.33221">
        <ele>-24.60000038147</ele>
        <time>2020-07-05T07:49:49.000Z</time>
      </trkpt>
      <trkpt lat="47.26513" lon="-2.33238">
        <ele>-24.60000038147</ele>
        <time>2020-07-05T07:49:56.000Z</time>
      </trkpt>
      <trkpt lat="47.26506" lon="-2.33245">
        <ele>-24.60000038147</ele>
        <time>2020-07-05T07:49:58.000Z</time>
      </trkpt>
      <trkpt lat="47.265" lon="-2.33261">
        <ele>-24.60000038147</ele>
        <time>2020-07-05T07:50:01.000Z</time>
      </trkpt>
      <trkpt lat="47.26505" lon="-2.33284">
        <ele>-24.60000038147</ele>
        <time>2020-07-05T07:50:05.000Z</time>
      </trkpt>
      <trkpt lat="47.26515" lon="-2.33289">
        <ele>-24.60000038147</ele>
        <time>2020-07-05T07:50:08.000Z</time>
      </trkpt>
      <trkpt lat="47.26521" lon="-2.33289">
        <ele>-24.60000038147</ele>
        <time>2020-07-05T07:50:10.000Z</time>
      </trkpt>
      <trkpt lat="47.2653" lon="-2.3329">
        <ele>-24.60000038147</ele>
        <time>2020-07-05T07:50:13.000Z</time>
      </trkpt>
      <trkpt lat="47.26532" lon="-2.33292">
        <ele>-24.60000038147</ele>
        <time>2020-07-05T07:50:14.000Z</time>
      </trkpt>
      <trkpt lat="47.26538" lon="-2.333">
        <ele>-24.60000038147</ele>
        <time>2020-07-05T07:50:17.000Z</time>
      </trkpt>
      <trkpt lat="47.2654" lon="-2.33299">
        <ele>-24.60000038147</ele>
        <time>2020-07-05T07:50:18.000Z</time>
      </trkpt>
      <trkpt lat="47.26548" lon="-2.33289">
        <ele>-24.60000038147</ele>
        <time>2020-07-05T07:50:21.000Z</time>
      </trkpt>
      <trkpt lat="47.26551" lon="-2.33285">
        <ele>-24.60000038147</ele>
        <time>2020-07-05T07:50:22.000Z</time>
      </trkpt>
      <trkpt lat="47.26573" lon="-2.33259">
        <ele>-24.60000038147</ele>
        <time>2020-07-05T07:50:28.000Z</time>
      </trkpt>
      <trkpt lat="47.26585" lon="-2.33247">
        <ele>-24.60000038147</ele>
        <time>2020-07-05T07:50:31.000Z</time>
      </trkpt>
      <trkpt lat="47.26596" lon="-2.33236">
        <ele>-24.60000038147</ele>
        <time>2020-07-05T07:50:34.000Z</time>
      </trkpt>
      <trkpt lat="47.26627" lon="-2.33204">
        <ele>-24.60000038147</ele>
        <time>2020-07-05T07:50:41.000Z</time>
      </trkpt>
      <trkpt lat="47.2665" lon="-2.3318">
        <ele>-24.60000038147</ele>
        <time>2020-07-05T07:50:47.000Z</time>
      </trkpt>
      <trkpt lat="47.26663" lon="-2.33166">
        <ele>-24.200000762939</ele>
        <time>2020-07-05T07:50:51.000Z</time>
      </trkpt>
      <trkpt lat="47.26666" lon="-2.33163">
        <ele>-23.799999237061</ele>
        <time>2020-07-05T07:50:52.000Z</time>
      </trkpt>
      <trkpt lat="47.26669" lon="-2.33161">
        <ele>-23.39999961853</ele>
        <time>2020-07-05T07:50:53.000Z</time>
      </trkpt>
      <trkpt lat="47.26673" lon="-2.33159">
        <ele>-23</ele>
        <time>2020-07-05T07:50:54.000Z</time>
      </trkpt>
      <trkpt lat="47.26676" lon="-2.33157">
        <ele>-22.60000038147</ele>
        <time>2020-07-05T07:50:55.000Z</time>
      </trkpt>
      <trkpt lat="47.26686" lon="-2.33146">
        <ele>-22.60000038147</ele>
        <time>2020-07-05T07:50:58.000Z</time>
      </trkpt>
      <trkpt lat="47.26709" lon="-2.33122">
        <ele>-22.60000038147</ele>
        <time>2020-07-05T07:51:04.000Z</time>
      </trkpt>
      <trkpt lat="47.26733" lon="-2.33098">
        <ele>-22.60000038147</ele>
        <time>2020-07-05T07:51:10.000Z</time>
      </trkpt>
      <trkpt lat="47.26741" lon="-2.3309">
        <ele>-22.60000038147</ele>
        <time>2020-07-05T07:51:12.000Z</time>
      </trkpt>
      <trkpt lat="47.26751" lon="-2.33089">
        <ele>-22.60000038147</ele>
        <time>2020-07-05T07:51:14.000Z</time>
      </trkpt>
      <trkpt lat="47.26763" lon="-2.33104">
        <ele>-22.60000038147</ele>
        <time>2020-07-05T07:51:17.000Z</time>
      </trkpt>
      <trkpt lat="47.26766" lon="-2.33129">
        <ele>-22.60000038147</ele>
        <time>2020-07-05T07:51:20.000Z</time>
      </trkpt>
      <trkpt lat="47.2676" lon="-2.33163">
        <ele>-22.60000038147</ele>
        <time>2020-07-05T07:51:24.000Z</time>
      </trkpt>
      <trkpt lat="47.26758" lon="-2.33171">
        <ele>-22.60000038147</ele>
        <time>2020-07-05T07:51:25.000Z</time>
      </trkpt>
      <trkpt lat="47.2674" lon="-2.33234">
        <ele>-22.60000038147</ele>
        <time>2020-07-05T07:51:33.000Z</time>
      </trkpt>
      <trkpt lat="47.26734" lon="-2.33249">
        <ele>-22.60000038147</ele>
        <time>2020-07-05T07:51:35.000Z</time>
      </trkpt>
      <trkpt lat="47.26731" lon="-2.33274">
        <ele>-22.60000038147</ele>
        <time>2020-07-05T07:51:38.000Z</time>
      </trkpt>
      <trkpt lat="47.26731" lon="-2.33282">
        <ele>-22.60000038147</ele>
        <time>2020-07-05T07:51:39.000Z</time>
      </trkpt>
      <trkpt lat="47.26732" lon="-2.3329">
        <ele>-22.60000038147</ele>
        <time>2020-07-05T07:51:40.000Z</time>
      </trkpt>
      <trkpt lat="47.26736" lon="-2.33306">
        <ele>-22.60000038147</ele>
        <time>2020-07-05T07:51:42.000Z</time>
      </trkpt>
      <trkpt lat="47.26748" lon="-2.33354">
        <ele>-22.60000038147</ele>
        <time>2020-07-05T07:51:49.000Z</time>
      </trkpt>
      <trkpt lat="47.26752" lon="-2.33374">
        <ele>-22.60000038147</ele>
        <time>2020-07-05T07:51:52.000Z</time>
      </trkpt>
      <trkpt lat="47.26754" lon="-2.33394">
        <ele>-22.60000038147</ele>
        <time>2020-07-05T07:51:55.000Z</time>
      </trkpt>
      <trkpt lat="47.26761" lon="-2.33452">
        <ele>-22.60000038147</ele>
        <time>2020-07-05T07:52:03.000Z</time>
      </trkpt>
      <trkpt lat="47.2677" lon="-2.33505">
        <ele>-22.60000038147</ele>
        <time>2020-07-05T07:52:11.000Z</time>
      </trkpt>
      <trkpt lat="47.26771" lon="-2.33512">
        <ele>-22.60000038147</ele>
        <time>2020-07-05T07:52:12.000Z</time>
      </trkpt>
      <trkpt lat="47.26778" lon="-2.33539">
        <ele>-22.60000038147</ele>
        <time>2020-07-05T07:52:16.000Z</time>
      </trkpt>
      <trkpt lat="47.26779" lon="-2.33553">
        <ele>-22.60000038147</ele>
        <time>2020-07-05T07:52:18.000Z</time>
      </trkpt>
      <trkpt lat="47.26783" lon="-2.33565">
        <ele>-22.60000038147</ele>
        <time>2020-07-05T07:52:20.000Z</time>
      </trkpt>
      <trkpt lat="47.26795" lon="-2.33565">
        <ele>-22.60000038147</ele>
        <time>2020-07-05T07:52:23.000Z</time>
      </trkpt>
      <trkpt lat="47.26799" lon="-2.33564">
        <ele>-22.60000038147</ele>
        <time>2020-07-05T07:52:24.000Z</time>
      </trkpt>
      <trkpt lat="47.26815" lon="-2.33556">
        <ele>-22.60000038147</ele>
        <time>2020-07-05T07:52:28.000Z</time>
      </trkpt>
      <trkpt lat="47.26819" lon="-2.33554">
        <ele>-22.60000038147</ele>
        <time>2020-07-05T07:52:29.000Z</time>
      </trkpt>
      <trkpt lat="47.26834" lon="-2.33548">
        <ele>-22.60000038147</ele>
        <time>2020-07-05T07:52:32.000Z</time>
      </trkpt>
      <trkpt lat="47.26844" lon="-2.33545">
        <ele>-22.60000038147</ele>
        <time>2020-07-05T07:52:34.000Z</time>
      </trkpt>
      <trkpt lat="47.26849" lon="-2.33542">
        <ele>-22.60000038147</ele>
        <time>2020-07-05T07:52:35.000Z</time>
      </trkpt>
      <trkpt lat="47.26854" lon="-2.33541">
        <ele>-22.60000038147</ele>
        <time>2020-07-05T07:52:36.000Z</time>
      </trkpt>
      <trkpt lat="47.26878" lon="-2.33533">
        <ele>-22.60000038147</ele>
        <time>2020-07-05T07:52:41.000Z</time>
      </trkpt>
      <trkpt lat="47.26882" lon="-2.33531">
        <ele>-22.60000038147</ele>
        <time>2020-07-05T07:52:42.000Z</time>
      </trkpt>
      <trkpt lat="47.26888" lon="-2.33518">
        <ele>-22.60000038147</ele>
        <time>2020-07-05T07:52:45.000Z</time>
      </trkpt>
      <trkpt lat="47.26887" lon="-2.33512">
        <ele>-22.200000762939</ele>
        <time>2020-07-05T07:52:46.000Z</time>
      </trkpt>
      <trkpt lat="47.26887" lon="-2.33506">
        <ele>-21.60000038147</ele>
        <time>2020-07-05T07:52:47.000Z</time>
      </trkpt>
      <trkpt lat="47.26886" lon="-2.33501">
        <ele>-21.200000762939</ele>
        <time>2020-07-05T07:52:48.000Z</time>
      </trkpt>
      <trkpt lat="47.26885" lon="-2.33495">
        <ele>-20.799999237061</ele>
        <time>2020-07-05T07:52:49.000Z</time>
      </trkpt>
      <trkpt lat="47.26885" lon="-2.3349">
        <ele>-20.39999961853</ele>
        <time>2020-07-05T07:52:50.000Z</time>
      </trkpt>
      <trkpt lat="47.26883" lon="-2.3348">
        <ele>-20</ele>
        <time>2020-07-05T07:52:52.000Z</time>
      </trkpt>
      <trkpt lat="47.26882" lon="-2.33474">
        <ele>-19.60000038147</ele>
        <time>2020-07-05T07:52:53.000Z</time>
      </trkpt>
      <trkpt lat="47.26881" lon="-2.33469">
        <ele>-19</ele>
        <time>2020-07-05T07:52:54.000Z</time>
      </trkpt>
      <trkpt lat="47.2688" lon="-2.33464">
        <ele>-18.60000038147</ele>
        <time>2020-07-05T07:52:55.000Z</time>
      </trkpt>
      <trkpt lat="47.26879" lon="-2.33458">
        <ele>-18.200000762939</ele>
        <time>2020-07-05T07:52:56.000Z</time>
      </trkpt>
      <trkpt lat="47.26879" lon="-2.33453">
        <ele>-17.799999237061</ele>
        <time>2020-07-05T07:52:57.000Z</time>
      </trkpt>
      <trkpt lat="47.26878" lon="-2.33448">
        <ele>-17.39999961853</ele>
        <time>2020-07-05T07:52:58.000Z</time>
      </trkpt>
      <trkpt lat="47.26877" lon="-2.33442">
        <ele>-17</ele>
        <time>2020-07-05T07:52:59.000Z</time>
      </trkpt>
      <trkpt lat="47.26877" lon="-2.33437">
        <ele>-16.39999961853</ele>
        <time>2020-07-05T07:53:00.000Z</time>
      </trkpt>
      <trkpt lat="47.26879" lon="-2.33433">
        <ele>-16</ele>
        <time>2020-07-05T07:53:01.000Z</time>
      </trkpt>
      <trkpt lat="47.2688" lon="-2.33424">
        <ele>-15.60000038147</ele>
        <time>2020-07-05T07:53:03.000Z</time>
      </trkpt>
      <trkpt lat="47.26881" lon="-2.33421">
        <ele>-15</ele>
        <time>2020-07-05T07:53:04.000Z</time>
      </trkpt>
      <trkpt lat="47.26883" lon="-2.33418">
        <ele>-14.60000038147</ele>
        <time>2020-07-05T07:53:05.000Z</time>
      </trkpt>
      <trkpt lat="47.26887" lon="-2.33416">
        <ele>-14.199999809265</ele>
        <time>2020-07-05T07:53:06.000Z</time>
      </trkpt>
      <trkpt lat="47.26891" lon="-2.33414">
        <ele>-13.60000038147</ele>
        <time>2020-07-05T07:53:07.000Z</time>
      </trkpt>
      <trkpt lat="47.26894" lon="-2.33411">
        <ele>-13.199999809265</ele>
        <time>2020-07-05T07:53:08.000Z</time>
      </trkpt>
      <trkpt lat="47.26898" lon="-2.33409">
        <ele>-12.39999961853</ele>
        <time>2020-07-05T07:53:09.000Z</time>
      </trkpt>
      <trkpt lat="47.26901" lon="-2.33407">
        <ele>-12</ele>
        <time>2020-07-05T07:53:10.000Z</time>
      </trkpt>
      <trkpt lat="47.26905" lon="-2.33406">
        <ele>-11.60000038147</ele>
        <time>2020-07-05T07:53:11.000Z</time>
      </trkpt>
      <trkpt lat="47.26915" lon="-2.33399">
        <ele>-11.60000038147</ele>
        <time>2020-07-05T07:53:14.000Z</time>
      </trkpt>
      <trkpt lat="47.26919" lon="-2.33397">
        <ele>-11.199999809265</ele>
        <time>2020-07-05T07:53:15.000Z</time>
      </trkpt>
      <trkpt lat="47.26922" lon="-2.33395">
        <ele>-10.800000190735</ele>
        <time>2020-07-05T07:53:16.000Z</time>
      </trkpt>
      <trkpt lat="47.26925" lon="-2.33394">
        <ele>-10.39999961853</ele>
        <time>2020-07-05T07:53:17.000Z</time>
      </trkpt>
      <trkpt lat="47.26928" lon="-2.33392">
        <ele>-10</ele>
        <time>2020-07-05T07:53:18.000Z</time>
      </trkpt>
      <trkpt lat="47.26931" lon="-2.33391">
        <ele>-9.3999996185303</ele>
        <time>2020-07-05T07:53:19.000Z</time>
      </trkpt>
      <trkpt lat="47.26934" lon="-2.3339">
        <ele>-9.3999996185303</ele>
        <time>2020-07-05T07:53:20.000Z</time>
      </trkpt>
      <trkpt lat="47.26954" lon="-2.33382">
        <ele>-9.3999996185303</ele>
        <time>2020-07-05T07:53:27.000Z</time>
      </trkpt>
      <trkpt lat="47.26969" lon="-2.33378">
        <ele>-9</ele>
        <time>2020-07-05T07:53:33.000Z</time>
      </trkpt>
      <trkpt lat="47.26971" lon="-2.33379">
        <ele>-8.1999998092651</ele>
        <time>2020-07-05T07:53:34.000Z</time>
      </trkpt>
      <trkpt lat="47.26972" lon="-2.3338">
        <ele>-7.8000001907349</ele>
        <time>2020-07-05T07:53:35.000Z</time>
      </trkpt>
      <trkpt lat="47.26973" lon="-2.33382">
        <ele>-7.4000000953674</ele>
        <time>2020-07-05T07:53:36.000Z</time>
      </trkpt>
      <trkpt lat="47.26973" lon="-2.33383">
        <ele>-7.4000000953674</ele>
        <time>2020-07-05T07:53:38.000Z</time>
      </trkpt>
      <trkpt lat="47.2697" lon="-2.33376">
        <ele>-7.4000000953674</ele>
        <time>2020-07-05T07:53:43.000Z</time>
      </trkpt>
      <trkpt lat="47.26975" lon="-2.33372">
        <ele>-7.4000000953674</ele>
        <time>2020-07-05T07:53:47.000Z</time>
      </trkpt>
      <trkpt lat="47.26983" lon="-2.33376">
        <ele>-7.4000000953674</ele>
        <time>2020-07-05T07:53:52.000Z</time>
      </trkpt>
      <trkpt lat="47.26985" lon="-2.33381">
        <ele>-7.4000000953674</ele>
        <time>2020-07-05T07:53:55.000Z</time>
      </trkpt>
      <trkpt lat="47.26984" lon="-2.33381">
        <ele>-7.4000000953674</ele>
        <time>2020-07-05T07:53:56.000Z</time>
      </trkpt>
      <trkpt lat="47.2698" lon="-2.33379">
        <ele>-7.4000000953674</ele>
        <time>2020-07-05T07:53:58.000Z</time>
      </trkpt>
      <trkpt lat="47.26973" lon="-2.33369">
        <ele>-7.4000000953674</ele>
        <time>2020-07-05T07:54:01.000Z</time>
      </trkpt>
      <trkpt lat="47.26962" lon="-2.33345">
        <ele>-7.4000000953674</ele>
        <time>2020-07-05T07:54:05.000Z</time>
      </trkpt>
      <trkpt lat="47.26959" lon="-2.33338">
        <ele>-7.4000000953674</ele>
        <time>2020-07-05T07:54:06.000Z</time>
      </trkpt>
      <trkpt lat="47.26941" lon="-2.33286">
        <ele>-7.4000000953674</ele>
        <time>2020-07-05T07:54:13.000Z</time>
      </trkpt>
      <trkpt lat="47.26933" lon="-2.33262">
        <ele>-7.4000000953674</ele>
        <time>2020-07-05T07:54:16.000Z</time>
      </trkpt>
      <trkpt lat="47.26926" lon="-2.33239">
        <ele>-7.4000000953674</ele>
        <time>2020-07-05T07:54:19.000Z</time>
      </trkpt>
      <trkpt lat="47.26925" lon="-2.33232">
        <ele>-7.4000000953674</ele>
        <time>2020-07-05T07:54:20.000Z</time>
      </trkpt>
      <trkpt lat="47.26931" lon="-2.33221">
        <ele>-7.4000000953674</ele>
        <time>2020-07-05T07:54:22.000Z</time>
      </trkpt>
      <trkpt lat="47.26946" lon="-2.33215">
        <ele>-7.4000000953674</ele>
        <time>2020-07-05T07:54:25.000Z</time>
      </trkpt>
      <trkpt lat="47.26951" lon="-2.33212">
        <ele>-7.4000000953674</ele>
        <time>2020-07-05T07:54:26.000Z</time>
      </trkpt>
      <trkpt lat="47.26961" lon="-2.33206">
        <ele>-7.4000000953674</ele>
        <time>2020-07-05T07:54:28.000Z</time>
      </trkpt>
      <trkpt lat="47.26974" lon="-2.33192">
        <ele>-7.4000000953674</ele>
        <time>2020-07-05T07:54:31.000Z</time>
      </trkpt>
      <trkpt lat="47.26991" lon="-2.33172">
        <ele>-7.4000000953674</ele>
        <time>2020-07-05T07:54:35.000Z</time>
      </trkpt>
      <trkpt lat="47.26995" lon="-2.33168">
        <ele>-7.4000000953674</ele>
        <time>2020-07-05T07:54:36.000Z</time>
      </trkpt>
      <trkpt lat="47.27005" lon="-2.33161">
        <ele>-7</ele>
        <time>2020-07-05T07:54:38.000Z</time>
      </trkpt>
      <trkpt lat="47.2701" lon="-2.33157">
        <ele>-6.5999999046326</ele>
        <time>2020-07-05T07:54:39.000Z</time>
      </trkpt>
      <trkpt lat="47.27015" lon="-2.33152">
        <ele>-6.1999998092651</ele>
        <time>2020-07-05T07:54:40.000Z</time>
      </trkpt>
      <trkpt lat="47.27019" lon="-2.33148">
        <ele>-5.8000001907349</ele>
        <time>2020-07-05T07:54:41.000Z</time>
      </trkpt>
      <trkpt lat="47.27024" lon="-2.33143">
        <ele>-5.1999998092651</ele>
        <time>2020-07-05T07:54:42.000Z</time>
      </trkpt>
      <trkpt lat="47.27028" lon="-2.33138">
        <ele>-5.1999998092651</ele>
        <time>2020-07-05T07:54:43.000Z</time>
      </trkpt>
      <trkpt lat="47.27066" lon="-2.33098">
        <ele>-5.1999998092651</ele>
        <time>2020-07-05T07:54:51.000Z</time>
      </trkpt>
      <trkpt lat="47.27075" lon="-2.33088">
        <ele>-5.1999998092651</ele>
        <time>2020-07-05T07:54:53.000Z</time>
      </trkpt>
      <trkpt lat="47.27091" lon="-2.33072">
        <ele>-5.1999998092651</ele>
        <time>2020-07-05T07:54:56.000Z</time>
      </trkpt>
      <trkpt lat="47.27107" lon="-2.33059">
        <ele>-5.1999998092651</ele>
        <time>2020-07-05T07:54:59.000Z</time>
      </trkpt>
      <trkpt lat="47.27123" lon="-2.33046">
        <ele>-5.1999998092651</ele>
        <time>2020-07-05T07:55:02.000Z</time>
      </trkpt>
      <trkpt lat="47.27151" lon="-2.33022">
        <ele>-5.1999998092651</ele>
        <time>2020-07-05T07:55:07.000Z</time>
      </trkpt>
      <trkpt lat="47.2718" lon="-2.33002">
        <ele>-5.1999998092651</ele>
        <time>2020-07-05T07:55:12.000Z</time>
      </trkpt>
      <trkpt lat="47.27202" lon="-2.32985">
        <ele>-5.1999998092651</ele>
        <time>2020-07-05T07:55:16.000Z</time>
      </trkpt>
      <trkpt lat="47.27207" lon="-2.32983">
        <ele>-5.1999998092651</ele>
        <time>2020-07-05T07:55:17.000Z</time>
      </trkpt>
      <trkpt lat="47.27212" lon="-2.32985">
        <ele>-5.5999999046326</ele>
        <time>2020-07-05T07:55:18.000Z</time>
      </trkpt>
      <trkpt lat="47.27217" lon="-2.32988">
        <ele>-6</ele>
        <time>2020-07-05T07:55:19.000Z</time>
      </trkpt>
      <trkpt lat="47.27223" lon="-2.32992">
        <ele>-6.4000000953674</ele>
        <time>2020-07-05T07:55:20.000Z</time>
      </trkpt>
      <trkpt lat="47.27227" lon="-2.32999">
        <ele>-6.8000001907349</ele>
        <time>2020-07-05T07:55:21.000Z</time>
      </trkpt>
      <trkpt lat="47.27232" lon="-2.33006">
        <ele>-7.1999998092651</ele>
        <time>2020-07-05T07:55:22.000Z</time>
      </trkpt>
      <trkpt lat="47.27236" lon="-2.33013">
        <ele>-7.1999998092651</ele>
        <time>2020-07-05T07:55:23.000Z</time>
      </trkpt>
      <trkpt lat="47.2726" lon="-2.33053">
        <ele>-7.1999998092651</ele>
        <time>2020-07-05T07:55:29.000Z</time>
      </trkpt>
      <trkpt lat="47.27264" lon="-2.33059">
        <ele>-6.8000001907349</ele>
        <time>2020-07-05T07:55:30.000Z</time>
      </trkpt>
      <trkpt lat="47.27268" lon="-2.33064">
        <ele>-6.4000000953674</ele>
        <time>2020-07-05T07:55:31.000Z</time>
      </trkpt>
      <trkpt lat="47.27272" lon="-2.33069">
        <ele>-6</ele>
        <time>2020-07-05T07:55:32.000Z</time>
      </trkpt>
      <trkpt lat="47.27275" lon="-2.33074">
        <ele>-5.5999999046326</ele>
        <time>2020-07-05T07:55:33.000Z</time>
      </trkpt>
      <trkpt lat="47.27279" lon="-2.33079">
        <ele>-5</ele>
        <time>2020-07-05T07:55:34.000Z</time>
      </trkpt>
      <trkpt lat="47.273" lon="-2.33109">
        <ele>-5</ele>
        <time>2020-07-05T07:55:40.000Z</time>
      </trkpt>
      <trkpt lat="47.27307" lon="-2.33114">
        <ele>-5</ele>
        <time>2020-07-05T07:55:42.000Z</time>
      </trkpt>
      <trkpt lat="47.27318" lon="-2.33102">
        <ele>-5</ele>
        <time>2020-07-05T07:55:45.000Z</time>
      </trkpt>
      <trkpt lat="47.27322" lon="-2.3309">
        <ele>-5</ele>
        <time>2020-07-05T07:55:47.000Z</time>
      </trkpt>
      <trkpt lat="47.27331" lon="-2.33062">
        <ele>-5</ele>
        <time>2020-07-05T07:55:51.000Z</time>
      </trkpt>
      <trkpt lat="47.27356" lon="-2.32989">
        <ele>-5</ele>
        <time>2020-07-05T07:56:00.000Z</time>
      </trkpt>
      <trkpt lat="47.2736" lon="-2.32982">
        <ele>-5</ele>
        <time>2020-07-05T07:56:01.000Z</time>
      </trkpt>
      <trkpt lat="47.27377" lon="-2.32946">
        <ele>-5</ele>
        <time>2020-07-05T07:56:06.000Z</time>
      </trkpt>
      <trkpt lat="47.27385" lon="-2.32935">
        <ele>-5</ele>
        <time>2020-07-05T07:56:08.000Z</time>
      </trkpt>
      <trkpt lat="47.27391" lon="-2.32924">
        <ele>-5</ele>
        <time>2020-07-05T07:56:10.000Z</time>
      </trkpt>
      <trkpt lat="47.27393" lon="-2.32919">
        <ele>-5.5999999046326</ele>
        <time>2020-07-05T07:56:11.000Z</time>
      </trkpt>
      <trkpt lat="47.27394" lon="-2.32914">
        <ele>-6</ele>
        <time>2020-07-05T07:56:12.000Z</time>
      </trkpt>
      <trkpt lat="47.27395" lon="-2.32909">
        <ele>-6.4000000953674</ele>
        <time>2020-07-05T07:56:13.000Z</time>
      </trkpt>
      <trkpt lat="47.27398" lon="-2.32904">
        <ele>-6.8000001907349</ele>
        <time>2020-07-05T07:56:14.000Z</time>
      </trkpt>
      <trkpt lat="47.274" lon="-2.32899">
        <ele>-7.1999998092651</ele>
        <time>2020-07-05T07:56:15.000Z</time>
      </trkpt>
      <trkpt lat="47.27402" lon="-2.32894">
        <ele>-7.1999998092651</ele>
        <time>2020-07-05T07:56:16.000Z</time>
      </trkpt>
      <trkpt lat="47.2741" lon="-2.32875">
        <ele>-7.1999998092651</ele>
        <time>2020-07-05T07:56:19.000Z</time>
      </trkpt>
      <trkpt lat="47.27425" lon="-2.32833">
        <ele>-7.5999999046326</ele>
        <time>2020-07-05T07:56:25.000Z</time>
      </trkpt>
      <trkpt lat="47.27427" lon="-2.32824">
        <ele>-8.1999998092651</ele>
        <time>2020-07-05T07:56:26.000Z</time>
      </trkpt>
      <trkpt lat="47.27429" lon="-2.32816">
        <ele>-9</ele>
        <time>2020-07-05T07:56:27.000Z</time>
      </trkpt>
      <trkpt lat="47.27431" lon="-2.32807">
        <ele>-9.3999996185303</ele>
        <time>2020-07-05T07:56:28.000Z</time>
      </trkpt>
      <trkpt lat="47.27437" lon="-2.32773">
        <ele>-9.3999996185303</ele>
        <time>2020-07-05T07:56:32.000Z</time>
      </trkpt>
      <trkpt lat="47.27443" lon="-2.32746">
        <ele>-9.8000001907349</ele>
        <time>2020-07-05T07:56:35.000Z</time>
      </trkpt>
      <trkpt lat="47.27446" lon="-2.32737">
        <ele>-10.199999809265</ele>
        <time>2020-07-05T07:56:36.000Z</time>
      </trkpt>
      <trkpt lat="47.27448" lon="-2.32728">
        <ele>-10.800000190735</ele>
        <time>2020-07-05T07:56:37.000Z</time>
      </trkpt>
      <trkpt lat="47.27451" lon="-2.32718">
        <ele>-11.199999809265</ele>
        <time>2020-07-05T07:56:38.000Z</time>
      </trkpt>
      <trkpt lat="47.27455" lon="-2.32708">
        <ele>-11.60000038147</ele>
        <time>2020-07-05T07:56:39.000Z</time>
      </trkpt>
      <trkpt lat="47.27458" lon="-2.327">
        <ele>-11.60000038147</ele>
        <time>2020-07-05T07:56:40.000Z</time>
      </trkpt>
      <trkpt lat="47.27463" lon="-2.32693">
        <ele>-12</ele>
        <time>2020-07-05T07:56:41.000Z</time>
      </trkpt>
      <trkpt lat="47.27467" lon="-2.32687">
        <ele>-12.60000038147</ele>
        <time>2020-07-05T07:56:42.000Z</time>
      </trkpt>
      <trkpt lat="47.27471" lon="-2.32684">
        <ele>-13</ele>
        <time>2020-07-05T07:56:43.000Z</time>
      </trkpt>
      <trkpt lat="47.27476" lon="-2.32681">
        <ele>-13.60000038147</ele>
        <time>2020-07-05T07:56:44.000Z</time>
      </trkpt>
      <trkpt lat="47.27482" lon="-2.32678">
        <ele>-14.199999809265</ele>
        <time>2020-07-05T07:56:45.000Z</time>
      </trkpt>
      <trkpt lat="47.27488" lon="-2.32673">
        <ele>-14.60000038147</ele>
        <time>2020-07-05T07:56:46.000Z</time>
      </trkpt>
      <trkpt lat="47.27493" lon="-2.32666">
        <ele>-15</ele>
        <time>2020-07-05T07:56:47.000Z</time>
      </trkpt>
      <trkpt lat="47.27498" lon="-2.32657">
        <ele>-15.39999961853</ele>
        <time>2020-07-05T07:56:48.000Z</time>
      </trkpt>
      <trkpt lat="47.27501" lon="-2.32649">
        <ele>-15.800000190735</ele>
        <time>2020-07-05T07:56:49.000Z</time>
      </trkpt>
      <trkpt lat="47.27505" lon="-2.3264">
        <ele>-16.200000762939</ele>
        <time>2020-07-05T07:56:50.000Z</time>
      </trkpt>
      <trkpt lat="47.27514" lon="-2.32627">
        <ele>-16.200000762939</ele>
        <time>2020-07-05T07:56:52.000Z</time>
      </trkpt>
      <trkpt lat="47.27518" lon="-2.32623">
        <ele>-16.200000762939</ele>
        <time>2020-07-05T07:56:53.000Z</time>
      </trkpt>
      <trkpt lat="47.27527" lon="-2.32614">
        <ele>-16.200000762939</ele>
        <time>2020-07-05T07:56:55.000Z</time>
      </trkpt>
      <trkpt lat="47.27536" lon="-2.32601">
        <ele>-16.200000762939</ele>
        <time>2020-07-05T07:56:57.000Z</time>
      </trkpt>
      <trkpt lat="47.27546" lon="-2.32582">
        <ele>-16.200000762939</ele>
        <time>2020-07-05T07:57:00.000Z</time>
      </trkpt>
      <trkpt lat="47.27548" lon="-2.32571">
        <ele>-16.200000762939</ele>
        <time>2020-07-05T07:57:02.000Z</time>
      </trkpt>
      <trkpt lat="47.27543" lon="-2.32552">
        <ele>-16.200000762939</ele>
        <time>2020-07-05T07:57:06.000Z</time>
      </trkpt>
      <trkpt lat="47.27541" lon="-2.32548">
        <ele>-16.200000762939</ele>
        <time>2020-07-05T07:57:07.000Z</time>
      </trkpt>
      <trkpt lat="47.27536" lon="-2.32526">
        <ele>-15.800000190735</ele>
        <time>2020-07-05T07:57:12.000Z</time>
      </trkpt>
      <trkpt lat="47.27536" lon="-2.32522">
        <ele>-15.39999961853</ele>
        <time>2020-07-05T07:57:13.000Z</time>
      </trkpt>
      <trkpt lat="47.27536" lon="-2.32517">
        <ele>-14.800000190735</ele>
        <time>2020-07-05T07:57:14.000Z</time>
      </trkpt>
      <trkpt lat="47.27537" lon="-2.32513">
        <ele>-14.39999961853</ele>
        <time>2020-07-05T07:57:15.000Z</time>
      </trkpt>
      <trkpt lat="47.27537" lon="-2.32509">
        <ele>-13.39999961853</ele>
        <time>2020-07-05T07:57:16.000Z</time>
      </trkpt>
      <trkpt lat="47.27538" lon="-2.32505">
        <ele>-13</ele>
        <time>2020-07-05T07:57:17.000Z</time>
      </trkpt>
      <trkpt lat="47.27539" lon="-2.325">
        <ele>-12.60000038147</ele>
        <time>2020-07-05T07:57:18.000Z</time>
      </trkpt>
      <trkpt lat="47.27539" lon="-2.32495">
        <ele>-12.199999809265</ele>
        <time>2020-07-05T07:57:19.000Z</time>
      </trkpt>
      <trkpt lat="47.27539" lon="-2.3249">
        <ele>-11.800000190735</ele>
        <time>2020-07-05T07:57:20.000Z</time>
      </trkpt>
      <trkpt lat="47.2754" lon="-2.32484">
        <ele>-11.39999961853</ele>
        <time>2020-07-05T07:57:21.000Z</time>
      </trkpt>
      <trkpt lat="47.27541" lon="-2.32479">
        <ele>-11</ele>
        <time>2020-07-05T07:57:22.000Z</time>
      </trkpt>
      <trkpt lat="47.27542" lon="-2.32473">
        <ele>-10.60000038147</ele>
        <time>2020-07-05T07:57:23.000Z</time>
      </trkpt>
      <trkpt lat="47.27543" lon="-2.32466">
        <ele>-10.199999809265</ele>
        <time>2020-07-05T07:57:24.000Z</time>
      </trkpt>
      <trkpt lat="47.27545" lon="-2.32459">
        <ele>-9.6000003814697</ele>
        <time>2020-07-05T07:57:25.000Z</time>
      </trkpt>
      <trkpt lat="47.27563" lon="-2.32431">
        <ele>-9.6000003814697</ele>
        <time>2020-07-05T07:57:30.000Z</time>
      </trkpt>
      <trkpt lat="47.27572" lon="-2.32428">
        <ele>-9.1999998092651</ele>
        <time>2020-07-05T07:57:33.000Z</time>
      </trkpt>
      <trkpt lat="47.27575" lon="-2.32428">
        <ele>-8.8000001907349</ele>
        <time>2020-07-05T07:57:34.000Z</time>
      </trkpt>
      <trkpt lat="47.27578" lon="-2.32429">
        <ele>-8.3999996185303</ele>
        <time>2020-07-05T07:57:35.000Z</time>
      </trkpt>
      <trkpt lat="47.27581" lon="-2.32431">
        <ele>-8</ele>
        <time>2020-07-05T07:57:36.000Z</time>
      </trkpt>
      <trkpt lat="47.27584" lon="-2.32433">
        <ele>-7.5999999046326</ele>
        <time>2020-07-05T07:57:37.000Z</time>
      </trkpt>
      <trkpt lat="47.27588" lon="-2.32436">
        <ele>-7.5999999046326</ele>
        <time>2020-07-05T07:57:38.000Z</time>
      </trkpt>
      <trkpt lat="47.27606" lon="-2.32454">
        <ele>-7.5999999046326</ele>
        <time>2020-07-05T07:57:43.000Z</time>
      </trkpt>
      <trkpt lat="47.27619" lon="-2.3247">
        <ele>-7.1999998092651</ele>
        <time>2020-07-05T07:57:47.000Z</time>
      </trkpt>
      <trkpt lat="47.27622" lon="-2.32474">
        <ele>-6.8000001907349</ele>
        <time>2020-07-05T07:57:48.000Z</time>
      </trkpt>
      <trkpt lat="47.27625" lon="-2.32478">
        <ele>-6.1999998092651</ele>
        <time>2020-07-05T07:57:49.000Z</time>
      </trkpt>
      <trkpt lat="47.27629" lon="-2.3248">
        <ele>-5.8000001907349</ele>
        <time>2020-07-05T07:57:50.000Z</time>
      </trkpt>
      <trkpt lat="47.27632" lon="-2.32483">
        <ele>-5.4000000953674</ele>
        <time>2020-07-05T07:57:51.000Z</time>
      </trkpt>
      <trkpt lat="47.27645" lon="-2.32491">
        <ele>-5.4000000953674</ele>
        <time>2020-07-05T07:57:55.000Z</time>
      </trkpt>
      <trkpt lat="47.27658" lon="-2.32501">
        <ele>-5.4000000953674</ele>
        <time>2020-07-05T07:58:01.000Z</time>
      </trkpt>
      <trkpt lat="47.27659" lon="-2.32501">
        <ele>-5.4000000953674</ele>
        <time>2020-07-05T07:58:04.000Z</time>
      </trkpt>
      <trkpt lat="47.27655" lon="-2.32494">
        <ele>-5.4000000953674</ele>
        <time>2020-07-05T08:00:43.000Z</time>
      </trkpt>
      <trkpt lat="47.27654" lon="-2.32493">
        <ele>-5.4000000953674</ele>
        <time>2020-07-05T08:00:44.000Z</time>
      </trkpt>
      <trkpt lat="47.27641" lon="-2.32484">
        <ele>-5.4000000953674</ele>
        <time>2020-07-05T08:00:51.000Z</time>
      </trkpt>
      <trkpt lat="47.27637" lon="-2.32484">
        <ele>-5.4000000953674</ele>
        <time>2020-07-05T08:00:53.000Z</time>
      </trkpt>
      <trkpt lat="47.27631" lon="-2.32488">
        <ele>-5.4000000953674</ele>
        <time>2020-07-05T08:00:55.000Z</time>
      </trkpt>
      <trkpt lat="47.2763" lon="-2.32506">
        <ele>-5.4000000953674</ele>
        <time>2020-07-05T08:00:59.000Z</time>
      </trkpt>
      <trkpt lat="47.27631" lon="-2.32516">
        <ele>-5.4000000953674</ele>
        <time>2020-07-05T08:01:01.000Z</time>
      </trkpt>
      <trkpt lat="47.27637" lon="-2.32541">
        <ele>-5.4000000953674</ele>
        <time>2020-07-05T08:01:05.000Z</time>
      </trkpt>
      <trkpt lat="47.27645" lon="-2.3257">
        <ele>-6</ele>
        <time>2020-07-05T08:01:09.000Z</time>
      </trkpt>
      <trkpt lat="47.27647" lon="-2.32579">
        <ele>-6.5999999046326</ele>
        <time>2020-07-05T08:01:10.000Z</time>
      </trkpt>
      <trkpt lat="47.2765" lon="-2.32588">
        <ele>-7</ele>
        <time>2020-07-05T08:01:11.000Z</time>
      </trkpt>
      <trkpt lat="47.27653" lon="-2.32597">
        <ele>-7.5999999046326</ele>
        <time>2020-07-05T08:01:12.000Z</time>
      </trkpt>
      <trkpt lat="47.27655" lon="-2.32606">
        <ele>-8</ele>
        <time>2020-07-05T08:01:13.000Z</time>
      </trkpt>
      <trkpt lat="47.27658" lon="-2.32614">
        <ele>-8.6000003814697</ele>
        <time>2020-07-05T08:01:14.000Z</time>
      </trkpt>
      <trkpt lat="47.27661" lon="-2.32623">
        <ele>-9</ele>
        <time>2020-07-05T08:01:15.000Z</time>
      </trkpt>
      <trkpt lat="47.27664" lon="-2.32632">
        <ele>-9.6000003814697</ele>
        <time>2020-07-05T08:01:16.000Z</time>
      </trkpt>
      <trkpt lat="47.27668" lon="-2.32642">
        <ele>-10</ele>
        <time>2020-07-05T08:01:17.000Z</time>
      </trkpt>
      <trkpt lat="47.27672" lon="-2.32652">
        <ele>-10.39999961853</ele>
        <time>2020-07-05T08:01:18.000Z</time>
      </trkpt>
      <trkpt lat="47.2768" lon="-2.32671">
        <ele>-10.800000190735</ele>
        <time>2020-07-05T08:01:20.000Z</time>
      </trkpt>
      <trkpt lat="47.27684" lon="-2.3268">
        <ele>-11.39999961853</ele>
        <time>2020-07-05T08:01:21.000Z</time>
      </trkpt>
      <trkpt lat="47.27688" lon="-2.32687">
        <ele>-11.800000190735</ele>
        <time>2020-07-05T08:01:22.000Z</time>
      </trkpt>
      <trkpt lat="47.27692" lon="-2.32694">
        <ele>-12.199999809265</ele>
        <time>2020-07-05T08:01:23.000Z</time>
      </trkpt>
      <trkpt lat="47.27694" lon="-2.32699">
        <ele>-13</ele>
        <time>2020-07-05T08:01:24.000Z</time>
      </trkpt>
      <trkpt lat="47.27696" lon="-2.32702">
        <ele>-13.60000038147</ele>
        <time>2020-07-05T08:01:25.000Z</time>
      </trkpt>
      <trkpt lat="47.27697" lon="-2.32705">
        <ele>-14</ele>
        <time>2020-07-05T08:01:26.000Z</time>
      </trkpt>
      <trkpt lat="47.27698" lon="-2.32707">
        <ele>-14.60000038147</ele>
        <time>2020-07-05T08:01:27.000Z</time>
      </trkpt>
      <trkpt lat="47.27699" lon="-2.32709">
        <ele>-15</ele>
        <time>2020-07-05T08:01:28.000Z</time>
      </trkpt>
      <trkpt lat="47.27701" lon="-2.32712">
        <ele>-15</ele>
        <time>2020-07-05T08:01:32.000Z</time>
      </trkpt>
      <trkpt lat="47.27703" lon="-2.32715">
        <ele>-15</ele>
        <time>2020-07-05T08:01:48.000Z</time>
      </trkpt>
      <trkpt lat="47.27705" lon="-2.32714">
        <ele>-15</ele>
        <time>2020-07-05T08:01:49.000Z</time>
      </trkpt>
      <trkpt lat="47.27707" lon="-2.32712">
        <ele>-15</ele>
        <time>2020-07-05T08:01:50.000Z</time>
      </trkpt>
      <trkpt lat="47.27715" lon="-2.32701">
        <ele>-15</ele>
        <time>2020-07-05T08:01:55.000Z</time>
      </trkpt>
      <trkpt lat="47.27716" lon="-2.32699">
        <ele>-15</ele>
        <time>2020-07-05T08:01:56.000Z</time>
      </trkpt>
      <trkpt lat="47.2773" lon="-2.32671">
        <ele>-15</ele>
        <time>2020-07-05T08:02:06.000Z</time>
      </trkpt>
      <trkpt lat="47.27732" lon="-2.32668">
        <ele>-14.60000038147</ele>
        <time>2020-07-05T08:02:07.000Z</time>
      </trkpt>
      <trkpt lat="47.27733" lon="-2.32666">
        <ele>-14.199999809265</ele>
        <time>2020-07-05T08:02:08.000Z</time>
      </trkpt>
      <trkpt lat="47.27735" lon="-2.32663">
        <ele>-13.800000190735</ele>
        <time>2020-07-05T08:02:09.000Z</time>
      </trkpt>
      <trkpt lat="47.27736" lon="-2.32661">
        <ele>-13.39999961853</ele>
        <time>2020-07-05T08:02:10.000Z</time>
      </trkpt>
      <trkpt lat="47.27737" lon="-2.32659">
        <ele>-13</ele>
        <time>2020-07-05T08:02:11.000Z</time>
      </trkpt>
      <trkpt lat="47.27738" lon="-2.32657">
        <ele>-13</ele>
        <time>2020-07-05T08:02:12.000Z</time>
      </trkpt>
      <trkpt lat="47.27739" lon="-2.32652">
        <ele>-12.60000038147</ele>
        <time>2020-07-05T08:02:14.000Z</time>
      </trkpt>
      <trkpt lat="47.27739" lon="-2.3265">
        <ele>-12</ele>
        <time>2020-07-05T08:02:15.000Z</time>
      </trkpt>
      <trkpt lat="47.2774" lon="-2.32647">
        <ele>-11.60000038147</ele>
        <time>2020-07-05T08:02:16.000Z</time>
      </trkpt>
      <trkpt lat="47.27741" lon="-2.32645">
        <ele>-11.199999809265</ele>
        <time>2020-07-05T08:02:17.000Z</time>
      </trkpt>
      <trkpt lat="47.27742" lon="-2.32643">
        <ele>-10.60000038147</ele>
        <time>2020-07-05T08:02:18.000Z</time>
      </trkpt>
      <trkpt lat="47.2775" lon="-2.32625">
        <ele>-10.199999809265</ele>
        <time>2020-07-05T08:02:25.000Z</time>
      </trkpt>
      <trkpt lat="47.27752" lon="-2.32622">
        <ele>-9.8000001907349</ele>
        <time>2020-07-05T08:02:26.000Z</time>
      </trkpt>
      <trkpt lat="47.27754" lon="-2.32619">
        <ele>-9.3999996185303</ele>
        <time>2020-07-05T08:02:27.000Z</time>
      </trkpt>
      <trkpt lat="47.27756" lon="-2.32616">
        <ele>-9</ele>
        <time>2020-07-05T08:02:28.000Z</time>
      </trkpt>
      <trkpt lat="47.27758" lon="-2.32614">
        <ele>-8.6000003814697</ele>
        <time>2020-07-05T08:02:29.000Z</time>
      </trkpt>
      <trkpt lat="47.27763" lon="-2.326">
        <ele>-8.6000003814697</ele>
        <time>2020-07-05T08:02:33.000Z</time>
      </trkpt>
      <trkpt lat="47.27778" lon="-2.32575">
        <ele>-8.6000003814697</ele>
        <time>2020-07-05T08:02:41.000Z</time>
      </trkpt>
      <trkpt lat="47.27792" lon="-2.32558">
        <ele>-8.6000003814697</ele>
        <time>2020-07-05T08:02:47.000Z</time>
      </trkpt>
      <trkpt lat="47.27796" lon="-2.32552">
        <ele>-8.1999998092651</ele>
        <time>2020-07-05T08:02:49.000Z</time>
      </trkpt>
      <trkpt lat="47.27798" lon="-2.32549">
        <ele>-7.8000001907349</ele>
        <time>2020-07-05T08:02:50.000Z</time>
      </trkpt>
      <trkpt lat="47.27799" lon="-2.32546">
        <ele>-7.4000000953674</ele>
        <time>2020-07-05T08:02:51.000Z</time>
      </trkpt>
      <trkpt lat="47.27801" lon="-2.32542">
        <ele>-7</ele>
        <time>2020-07-05T08:02:52.000Z</time>
      </trkpt>
      <trkpt lat="47.27804" lon="-2.32538">
        <ele>-6.5999999046326</ele>
        <time>2020-07-05T08:02:53.000Z</time>
      </trkpt>
      <trkpt lat="47.27823" lon="-2.32511">
        <ele>-6.5999999046326</ele>
        <time>2020-07-05T08:03:00.000Z</time>
      </trkpt>
      <trkpt lat="47.27842" lon="-2.32483">
        <ele>-6.5999999046326</ele>
        <time>2020-07-05T08:03:06.000Z</time>
      </trkpt>
      <trkpt lat="47.27859" lon="-2.32459">
        <ele>-6.5999999046326</ele>
        <time>2020-07-05T08:03:12.000Z</time>
      </trkpt>
      <trkpt lat="47.27877" lon="-2.32439">
        <ele>-6.5999999046326</ele>
        <time>2020-07-05T08:03:19.000Z</time>
      </trkpt>
      <trkpt lat="47.2789" lon="-2.32413">
        <ele>-6.5999999046326</ele>
        <time>2020-07-05T08:03:25.000Z</time>
      </trkpt>
      <trkpt lat="47.27895" lon="-2.32408">
        <ele>-6.5999999046326</ele>
        <time>2020-07-05T08:03:29.000Z</time>
      </trkpt>
      <trkpt lat="47.27898" lon="-2.32404">
        <ele>-6.5999999046326</ele>
        <time>2020-07-05T08:03:34.000Z</time>
      </trkpt>
      <trkpt lat="47.27904" lon="-2.32393">
        <ele>-6.5999999046326</ele>
        <time>2020-07-05T08:03:54.000Z</time>
      </trkpt>
      <trkpt lat="47.27909" lon="-2.32398">
        <ele>-6.5999999046326</ele>
        <time>2020-07-05T08:04:01.000Z</time>
      </trkpt>
      <trkpt lat="47.27913" lon="-2.32398">
        <ele>-6.5999999046326</ele>
        <time>2020-07-05T08:04:03.000Z</time>
      </trkpt>
      <trkpt lat="47.27921" lon="-2.32399">
        <ele>-6.5999999046326</ele>
        <time>2020-07-05T08:04:06.000Z</time>
      </trkpt>
      <trkpt lat="47.27931" lon="-2.324">
        <ele>-6.5999999046326</ele>
        <time>2020-07-05T08:04:10.000Z</time>
      </trkpt>
      <trkpt lat="47.2796" lon="-2.32407">
        <ele>-6.5999999046326</ele>
        <time>2020-07-05T08:04:15.000Z</time>
      </trkpt>
      <trkpt lat="47.27985" lon="-2.32414">
        <ele>-6.5999999046326</ele>
        <time>2020-07-05T08:04:19.000Z</time>
      </trkpt>
      <trkpt lat="47.28034" lon="-2.32425">
        <ele>-6.5999999046326</ele>
        <time>2020-07-05T08:04:27.000Z</time>
      </trkpt>
      <trkpt lat="47.28065" lon="-2.32428">
        <ele>-6.5999999046326</ele>
        <time>2020-07-05T08:04:33.000Z</time>
      </trkpt>
      <trkpt lat="47.2807" lon="-2.32428">
        <ele>-6.5999999046326</ele>
        <time>2020-07-05T08:04:34.000Z</time>
      </trkpt>
      <trkpt lat="47.28094" lon="-2.32436">
        <ele>-6.5999999046326</ele>
        <time>2020-07-05T08:04:40.000Z</time>
      </trkpt>
      <trkpt lat="47.28105" lon="-2.32446">
        <ele>-6.5999999046326</ele>
        <time>2020-07-05T08:04:44.000Z</time>
      </trkpt>
      <trkpt lat="47.28121" lon="-2.3245">
        <ele>-6.5999999046326</ele>
        <time>2020-07-05T08:04:48.000Z</time>
      </trkpt>
      <trkpt lat="47.28125" lon="-2.3245">
        <ele>-6.5999999046326</ele>
        <time>2020-07-05T08:04:49.000Z</time>
      </trkpt>
      <trkpt lat="47.28142" lon="-2.32445">
        <ele>-6.5999999046326</ele>
        <time>2020-07-05T08:04:52.000Z</time>
      </trkpt>
      <trkpt lat="47.28152" lon="-2.32445">
        <ele>-6.5999999046326</ele>
        <time>2020-07-05T08:04:54.000Z</time>
      </trkpt>
      <trkpt lat="47.28175" lon="-2.32444">
        <ele>-6.5999999046326</ele>
        <time>2020-07-05T08:04:58.000Z</time>
      </trkpt>
      <trkpt lat="47.28187" lon="-2.32447">
        <ele>-6.5999999046326</ele>
        <time>2020-07-05T08:05:00.000Z</time>
      </trkpt>
      <trkpt lat="47.28203" lon="-2.32456">
        <ele>-6.5999999046326</ele>
        <time>2020-07-05T08:05:03.000Z</time>
      </trkpt>
      <trkpt lat="47.28215" lon="-2.32466">
        <ele>-7.4000000953674</ele>
        <time>2020-07-05T08:05:05.000Z</time>
      </trkpt>
      <trkpt lat="47.2822" lon="-2.3247">
        <ele>-7.8000001907349</ele>
        <time>2020-07-05T08:05:06.000Z</time>
      </trkpt>
      <trkpt lat="47.28225" lon="-2.32475">
        <ele>-8.1999998092651</ele>
        <time>2020-07-05T08:05:07.000Z</time>
      </trkpt>
      <trkpt lat="47.2823" lon="-2.32481">
        <ele>-8.6000003814697</ele>
        <time>2020-07-05T08:05:08.000Z</time>
      </trkpt>
      <trkpt lat="47.28235" lon="-2.32487">
        <ele>-8.6000003814697</ele>
        <time>2020-07-05T08:05:09.000Z</time>
      </trkpt>
      <trkpt lat="47.28254" lon="-2.32509">
        <ele>-8.6000003814697</ele>
        <time>2020-07-05T08:05:13.000Z</time>
      </trkpt>
      <trkpt lat="47.28264" lon="-2.32515">
        <ele>-8.6000003814697</ele>
        <time>2020-07-05T08:05:15.000Z</time>
      </trkpt>
      <trkpt lat="47.2827" lon="-2.32515">
        <ele>-8.6000003814697</ele>
        <time>2020-07-05T08:05:16.000Z</time>
      </trkpt>
      <trkpt lat="47.28286" lon="-2.32516">
        <ele>-8.6000003814697</ele>
        <time>2020-07-05T08:05:19.000Z</time>
      </trkpt>
      <trkpt lat="47.28315" lon="-2.32515">
        <ele>-8.6000003814697</ele>
        <time>2020-07-05T08:05:24.000Z</time>
      </trkpt>
      <trkpt lat="47.28343" lon="-2.3252">
        <ele>-8.6000003814697</ele>
        <time>2020-07-05T08:05:30.000Z</time>
      </trkpt>
      <trkpt lat="47.28349" lon="-2.32536">
        <ele>-8.6000003814697</ele>
        <time>2020-07-05T08:05:33.000Z</time>
      </trkpt>
      <trkpt lat="47.28351" lon="-2.3255">
        <ele>-8.6000003814697</ele>
        <time>2020-07-05T08:05:35.000Z</time>
      </trkpt>
      <trkpt lat="47.28356" lon="-2.32569">
        <ele>-8.6000003814697</ele>
        <time>2020-07-05T08:05:38.000Z</time>
      </trkpt>
      <trkpt lat="47.28358" lon="-2.32573">
        <ele>-8.6000003814697</ele>
        <time>2020-07-05T08:05:39.000Z</time>
      </trkpt>
      <trkpt lat="47.28365" lon="-2.32574">
        <ele>-8.6000003814697</ele>
        <time>2020-07-05T08:05:41.000Z</time>
      </trkpt>
      <trkpt lat="47.28379" lon="-2.32575">
        <ele>-8.6000003814697</ele>
        <time>2020-07-05T08:05:45.000Z</time>
      </trkpt>
      <trkpt lat="47.28385" lon="-2.3259">
        <ele>-8.6000003814697</ele>
        <time>2020-07-05T08:05:48.000Z</time>
      </trkpt>
      <trkpt lat="47.28391" lon="-2.32598">
        <ele>-8.6000003814697</ele>
        <time>2020-07-05T08:05:50.000Z</time>
      </trkpt>
      <trkpt lat="47.28396" lon="-2.32606">
        <ele>-8.6000003814697</ele>
        <time>2020-07-05T08:05:52.000Z</time>
      </trkpt>
      <trkpt lat="47.28398" lon="-2.32636">
        <ele>-8.6000003814697</ele>
        <time>2020-07-05T08:05:56.000Z</time>
      </trkpt>
      <trkpt lat="47.28392" lon="-2.32682">
        <ele>-8.6000003814697</ele>
        <time>2020-07-05T08:06:01.000Z</time>
      </trkpt>
      <trkpt lat="47.28377" lon="-2.32758">
        <ele>-8.6000003814697</ele>
        <time>2020-07-05T08:06:09.000Z</time>
      </trkpt>
      <trkpt lat="47.28367" lon="-2.32818">
        <ele>-8.6000003814697</ele>
        <time>2020-07-05T08:06:15.000Z</time>
      </trkpt>
      <trkpt lat="47.28367" lon="-2.32865">
        <ele>-9</ele>
        <time>2020-07-05T08:06:20.000Z</time>
      </trkpt>
      <trkpt lat="47.28367" lon="-2.3287">
        <ele>-9.3999996185303</ele>
        <time>2020-07-05T08:06:21.000Z</time>
      </trkpt>
      <trkpt lat="47.28368" lon="-2.32875">
        <ele>-9.8000001907349</ele>
        <time>2020-07-05T08:06:22.000Z</time>
      </trkpt>
      <trkpt lat="47.28369" lon="-2.32878">
        <ele>-10.199999809265</ele>
        <time>2020-07-05T08:06:23.000Z</time>
      </trkpt>
      <trkpt lat="47.28369" lon="-2.32882">
        <ele>-10.800000190735</ele>
        <time>2020-07-05T08:06:24.000Z</time>
      </trkpt>
      <trkpt lat="47.28369" lon="-2.32891">
        <ele>-10.800000190735</ele>
        <time>2020-07-05T08:06:26.000Z</time>
      </trkpt>
      <trkpt lat="47.28368" lon="-2.32898">
        <ele>-10.800000190735</ele>
        <time>2020-07-05T08:06:27.000Z</time>
      </trkpt>
      <trkpt lat="47.28364" lon="-2.32913">
        <ele>-10.800000190735</ele>
        <time>2020-07-05T08:06:29.000Z</time>
      </trkpt>
      <trkpt lat="47.28346" lon="-2.32943">
        <ele>-10.800000190735</ele>
        <time>2020-07-05T08:06:34.000Z</time>
      </trkpt>
      <trkpt lat="47.28335" lon="-2.32951">
        <ele>-10.800000190735</ele>
        <time>2020-07-05T08:06:36.000Z</time>
      </trkpt>
      <trkpt lat="47.28315" lon="-2.32964">
        <ele>-10.800000190735</ele>
        <time>2020-07-05T08:06:39.000Z</time>
      </trkpt>
      <trkpt lat="47.28277" lon="-2.32993">
        <ele>-10.800000190735</ele>
        <time>2020-07-05T08:06:45.000Z</time>
      </trkpt>
      <trkpt lat="47.2823" lon="-2.33032">
        <ele>-10.800000190735</ele>
        <time>2020-07-05T08:06:53.000Z</time>
      </trkpt>
      <trkpt lat="47.28225" lon="-2.33038">
        <ele>-10.800000190735</ele>
        <time>2020-07-05T08:06:54.000Z</time>
      </trkpt>
      <trkpt lat="47.2821" lon="-2.33061">
        <ele>-10.800000190735</ele>
        <time>2020-07-05T08:06:57.000Z</time>
      </trkpt>
      <trkpt lat="47.2819" lon="-2.33116">
        <ele>-10.800000190735</ele>
        <time>2020-07-05T08:07:03.000Z</time>
      </trkpt>
      <trkpt lat="47.28187" lon="-2.33135">
        <ele>-10.800000190735</ele>
        <time>2020-07-05T08:07:05.000Z</time>
      </trkpt>
      <trkpt lat="47.28187" lon="-2.33155">
        <ele>-10.800000190735</ele>
        <time>2020-07-05T08:07:07.000Z</time>
      </trkpt>
      <trkpt lat="47.28187" lon="-2.3323">
        <ele>-10.800000190735</ele>
        <time>2020-07-05T08:07:14.000Z</time>
      </trkpt>
      <trkpt lat="47.28186" lon="-2.3324">
        <ele>-10.199999809265</ele>
        <time>2020-07-05T08:07:15.000Z</time>
      </trkpt>
      <trkpt lat="47.28185" lon="-2.3325">
        <ele>-9.8000001907349</ele>
        <time>2020-07-05T08:07:16.000Z</time>
      </trkpt>
      <trkpt lat="47.28184" lon="-2.3326">
        <ele>-9.3999996185303</ele>
        <time>2020-07-05T08:07:17.000Z</time>
      </trkpt>
      <trkpt lat="47.28183" lon="-2.3327">
        <ele>-8.8000001907349</ele>
        <time>2020-07-05T08:07:18.000Z</time>
      </trkpt>
      <trkpt lat="47.28182" lon="-2.3328">
        <ele>-8.3999996185303</ele>
        <time>2020-07-05T08:07:19.000Z</time>
      </trkpt>
      <trkpt lat="47.28178" lon="-2.33296">
        <ele>-8.3999996185303</ele>
        <time>2020-07-05T08:07:21.000Z</time>
      </trkpt>
      <trkpt lat="47.28162" lon="-2.33339">
        <ele>-8.3999996185303</ele>
        <time>2020-07-05T08:07:26.000Z</time>
      </trkpt>
      <trkpt lat="47.28129" lon="-2.33413">
        <ele>-8.3999996185303</ele>
        <time>2020-07-05T08:07:35.000Z</time>
      </trkpt>
      <trkpt lat="47.281" lon="-2.33476">
        <ele>-8.3999996185303</ele>
        <time>2020-07-05T08:07:43.000Z</time>
      </trkpt>
      <trkpt lat="47.28087" lon="-2.33501">
        <ele>-8.3999996185303</ele>
        <time>2020-07-05T08:07:47.000Z</time>
      </trkpt>
      <trkpt lat="47.28084" lon="-2.33505">
        <ele>-8.3999996185303</ele>
        <time>2020-07-05T08:07:48.000Z</time>
      </trkpt>
      <trkpt lat="47.28075" lon="-2.33525">
        <ele>-8.3999996185303</ele>
        <time>2020-07-05T08:07:53.000Z</time>
      </trkpt>
      <trkpt lat="47.28078" lon="-2.33557">
        <ele>-8.3999996185303</ele>
        <time>2020-07-05T08:07:59.000Z</time>
      </trkpt>
      <trkpt lat="47.28081" lon="-2.3357">
        <ele>-8</ele>
        <time>2020-07-05T08:08:01.000Z</time>
      </trkpt>
      <trkpt lat="47.28082" lon="-2.33576">
        <ele>-7.5999999046326</ele>
        <time>2020-07-05T08:08:02.000Z</time>
      </trkpt>
      <trkpt lat="47.28083" lon="-2.33582">
        <ele>-7.1999998092651</ele>
        <time>2020-07-05T08:08:03.000Z</time>
      </trkpt>
      <trkpt lat="47.28084" lon="-2.33587">
        <ele>-6.8000001907349</ele>
        <time>2020-07-05T08:08:04.000Z</time>
      </trkpt>
      <trkpt lat="47.28086" lon="-2.33592">
        <ele>-6.4000000953674</ele>
        <time>2020-07-05T08:08:05.000Z</time>
      </trkpt>
      <trkpt lat="47.28087" lon="-2.33598">
        <ele>-6.4000000953674</ele>
        <time>2020-07-05T08:08:06.000Z</time>
      </trkpt>
      <trkpt lat="47.28092" lon="-2.33633">
        <ele>-6.4000000953674</ele>
        <time>2020-07-05T08:08:12.000Z</time>
      </trkpt>
      <trkpt lat="47.28097" lon="-2.33652">
        <ele>-6.4000000953674</ele>
        <time>2020-07-05T08:08:16.000Z</time>
      </trkpt>
      <trkpt lat="47.28102" lon="-2.33663">
        <ele>-6.4000000953674</ele>
        <time>2020-07-05T08:08:18.000Z</time>
      </trkpt>
      <trkpt lat="47.28113" lon="-2.33676">
        <ele>-6.4000000953674</ele>
        <time>2020-07-05T08:08:21.000Z</time>
      </trkpt>
      <trkpt lat="47.2812" lon="-2.33686">
        <ele>-6.4000000953674</ele>
        <time>2020-07-05T08:08:23.000Z</time>
      </trkpt>
      <trkpt lat="47.28133" lon="-2.33706">
        <ele>-6.4000000953674</ele>
        <time>2020-07-05T08:08:27.000Z</time>
      </trkpt>
      <trkpt lat="47.28148" lon="-2.33732">
        <ele>-6.4000000953674</ele>
        <time>2020-07-05T08:08:32.000Z</time>
      </trkpt>
      <trkpt lat="47.28156" lon="-2.33739">
        <ele>-6.4000000953674</ele>
        <time>2020-07-05T08:08:34.000Z</time>
      </trkpt>
      <trkpt lat="47.28179" lon="-2.33764">
        <ele>-6.4000000953674</ele>
        <time>2020-07-05T08:08:41.000Z</time>
      </trkpt>
      <trkpt lat="47.28189" lon="-2.33777">
        <ele>-6</ele>
        <time>2020-07-05T08:08:44.000Z</time>
      </trkpt>
      <trkpt lat="47.28193" lon="-2.33781">
        <ele>-5.5999999046326</ele>
        <time>2020-07-05T08:08:45.000Z</time>
      </trkpt>
      <trkpt lat="47.28197" lon="-2.33784">
        <ele>-5.1999998092651</ele>
        <time>2020-07-05T08:08:46.000Z</time>
      </trkpt>
      <trkpt lat="47.28201" lon="-2.33788">
        <ele>-4.4000000953674</ele>
        <time>2020-07-05T08:08:47.000Z</time>
      </trkpt>
      <trkpt lat="47.28205" lon="-2.33792">
        <ele>-4.4000000953674</ele>
        <time>2020-07-05T08:08:48.000Z</time>
      </trkpt>
      <trkpt lat="47.2821" lon="-2.33794">
        <ele>-4.4000000953674</ele>
        <time>2020-07-05T08:08:49.000Z</time>
      </trkpt>
      <trkpt lat="47.28225" lon="-2.33799">
        <ele>-4.4000000953674</ele>
        <time>2020-07-05T08:08:52.000Z</time>
      </trkpt>
      <trkpt lat="47.2823" lon="-2.33802">
        <ele>-4.4000000953674</ele>
        <time>2020-07-05T08:08:53.000Z</time>
      </trkpt>
      <trkpt lat="47.28247" lon="-2.33809">
        <ele>-4.4000000953674</ele>
        <time>2020-07-05T08:08:57.000Z</time>
      </trkpt>
      <trkpt lat="47.2825" lon="-2.33812">
        <ele>-4.4000000953674</ele>
        <time>2020-07-05T08:08:58.000Z</time>
      </trkpt>
      <trkpt lat="47.28255" lon="-2.33822">
        <ele>-4.4000000953674</ele>
        <time>2020-07-05T08:09:00.000Z</time>
      </trkpt>
      <trkpt lat="47.28264" lon="-2.33839">
        <ele>-4.4000000953674</ele>
        <time>2020-07-05T08:09:03.000Z</time>
      </trkpt>
      <trkpt lat="47.28272" lon="-2.33857">
        <ele>-4.4000000953674</ele>
        <time>2020-07-05T08:09:06.000Z</time>
      </trkpt>
      <trkpt lat="47.28277" lon="-2.33868">
        <ele>-4.4000000953674</ele>
        <time>2020-07-05T08:09:08.000Z</time>
      </trkpt>
      <trkpt lat="47.28284" lon="-2.33885">
        <ele>-4.4000000953674</ele>
        <time>2020-07-05T08:09:11.000Z</time>
      </trkpt>
      <trkpt lat="47.28301" lon="-2.33921">
        <ele>-4.4000000953674</ele>
        <time>2020-07-05T08:09:18.000Z</time>
      </trkpt>
      <trkpt lat="47.28312" lon="-2.33947">
        <ele>-4.4000000953674</ele>
        <time>2020-07-05T08:09:24.000Z</time>
      </trkpt>
      <trkpt lat="47.28317" lon="-2.33957">
        <ele>-4</ele>
        <time>2020-07-05T08:09:26.000Z</time>
      </trkpt>
      <trkpt lat="47.2832" lon="-2.33962">
        <ele>-3.5999999046326</ele>
        <time>2020-07-05T08:09:27.000Z</time>
      </trkpt>
      <trkpt lat="47.28322" lon="-2.33967">
        <ele>-3</ele>
        <time>2020-07-05T08:09:28.000Z</time>
      </trkpt>
      <trkpt lat="47.28324" lon="-2.33973">
        <ele>-2.5999999046326</ele>
        <time>2020-07-05T08:09:29.000Z</time>
      </trkpt>
      <trkpt lat="47.28326" lon="-2.33978">
        <ele>-2.2000000476837</ele>
        <time>2020-07-05T08:09:30.000Z</time>
      </trkpt>
      <trkpt lat="47.28328" lon="-2.33984">
        <ele>-2.2000000476837</ele>
        <time>2020-07-05T08:09:31.000Z</time>
      </trkpt>
      <trkpt lat="47.28337" lon="-2.34008">
        <ele>-2.2000000476837</ele>
        <time>2020-07-05T08:09:37.000Z</time>
      </trkpt>
      <trkpt lat="47.28345" lon="-2.34032">
        <ele>-2.2000000476837</ele>
        <time>2020-07-05T08:09:44.000Z</time>
      </trkpt>
      <trkpt lat="47.28344" lon="-2.34057">
        <ele>-2.2000000476837</ele>
        <time>2020-07-05T08:09:49.000Z</time>
      </trkpt>
      <trkpt lat="47.28345" lon="-2.34061">
        <ele>-2.2000000476837</ele>
        <time>2020-07-05T08:09:50.000Z</time>
      </trkpt>
      <trkpt lat="47.28351" lon="-2.34068">
        <ele>-2.2000000476837</ele>
        <time>2020-07-05T08:09:52.000Z</time>
      </trkpt>
      <trkpt lat="47.28365" lon="-2.34088">
        <ele>-2.2000000476837</ele>
        <time>2020-07-05T08:09:57.000Z</time>
      </trkpt>
      <trkpt lat="47.28366" lon="-2.34094">
        <ele>-2.2000000476837</ele>
        <time>2020-07-05T08:09:58.000Z</time>
      </trkpt>
      <trkpt lat="47.28366" lon="-2.34111">
        <ele>-1.3999999761581</ele>
        <time>2020-07-05T08:10:01.000Z</time>
      </trkpt>
      <trkpt lat="47.28365" lon="-2.34116">
        <ele>-1</ele>
        <time>2020-07-05T08:10:02.000Z</time>
      </trkpt>
      <trkpt lat="47.28364" lon="-2.34122">
        <ele>-0.60000002384186</ele>
        <time>2020-07-05T08:10:03.000Z</time>
      </trkpt>
      <trkpt lat="47.28363" lon="-2.34128">
        <ele>-0.20000000298023</ele>
        <time>2020-07-05T08:10:04.000Z</time>
      </trkpt>
      <trkpt lat="47.28358" lon="-2.34149">
        <ele>-0.20000000298023</ele>
        <time>2020-07-05T08:10:08.000Z</time>
      </trkpt>
      <trkpt lat="47.28358" lon="-2.34169">
        <ele>-0.20000000298023</ele>
        <time>2020-07-05T08:10:12.000Z</time>
      </trkpt>
      <trkpt lat="47.2836" lon="-2.34209">
        <ele>-0.20000000298023</ele>
        <time>2020-07-05T08:10:20.000Z</time>
      </trkpt>
      <trkpt lat="47.28358" lon="-2.34226">
        <ele>-0.20000000298023</ele>
        <time>2020-07-05T08:10:24.000Z</time>
      </trkpt>
      <trkpt lat="47.28355" lon="-2.3423">
        <ele>-0.20000000298023</ele>
        <time>2020-07-05T08:10:25.000Z</time>
      </trkpt>
      <trkpt lat="47.28342" lon="-2.34238">
        <ele>0.20000000298023</ele>
        <time>2020-07-05T08:10:28.000Z</time>
      </trkpt>
      <trkpt lat="47.28338" lon="-2.34241">
        <ele>0.60000002384186</ele>
        <time>2020-07-05T08:10:29.000Z</time>
      </trkpt>
      <trkpt lat="47.28333" lon="-2.34244">
        <ele>1</ele>
        <time>2020-07-05T08:10:30.000Z</time>
      </trkpt>
      <trkpt lat="47.28328" lon="-2.34247">
        <ele>1.3999999761581</ele>
        <time>2020-07-05T08:10:31.000Z</time>
      </trkpt>
      <trkpt lat="47.28324" lon="-2.3425">
        <ele>1.7999999523163</ele>
        <time>2020-07-05T08:10:32.000Z</time>
      </trkpt>
      <trkpt lat="47.28304" lon="-2.34261">
        <ele>1.7999999523163</ele>
        <time>2020-07-05T08:10:36.000Z</time>
      </trkpt>
      <trkpt lat="47.28271" lon="-2.34277">
        <ele>1.7999999523163</ele>
        <time>2020-07-05T08:10:43.000Z</time>
      </trkpt>
      <trkpt lat="47.28225" lon="-2.34297">
        <ele>1.7999999523163</ele>
        <time>2020-07-05T08:10:52.000Z</time>
      </trkpt>
      <trkpt lat="47.2819" lon="-2.34314">
        <ele>1.7999999523163</ele>
        <time>2020-07-05T08:10:59.000Z</time>
      </trkpt>
      <trkpt lat="47.28185" lon="-2.34316">
        <ele>1.7999999523163</ele>
        <time>2020-07-05T08:11:00.000Z</time>
      </trkpt>
      <trkpt lat="47.28165" lon="-2.34319">
        <ele>1.7999999523163</ele>
        <time>2020-07-05T08:11:04.000Z</time>
      </trkpt>
      <trkpt lat="47.28155" lon="-2.34319">
        <ele>1.7999999523163</ele>
        <time>2020-07-05T08:11:06.000Z</time>
      </trkpt>
      <trkpt lat="47.28139" lon="-2.34315">
        <ele>1.7999999523163</ele>
        <time>2020-07-05T08:11:09.000Z</time>
      </trkpt>
      <trkpt lat="47.28095" lon="-2.34307">
        <ele>1.7999999523163</ele>
        <time>2020-07-05T08:11:17.000Z</time>
      </trkpt>
      <trkpt lat="47.28078" lon="-2.34307">
        <ele>2.2000000476837</ele>
        <time>2020-07-05T08:11:20.000Z</time>
      </trkpt>
      <trkpt lat="47.28073" lon="-2.34308">
        <ele>2.5999999046326</ele>
        <time>2020-07-05T08:11:21.000Z</time>
      </trkpt>
      <trkpt lat="47.28068" lon="-2.34308">
        <ele>3.2000000476837</ele>
        <time>2020-07-05T08:11:22.000Z</time>
      </trkpt>
      <trkpt lat="47.28064" lon="-2.34309">
        <ele>3.5999999046326</ele>
        <time>2020-07-05T08:11:23.000Z</time>
      </trkpt>
      <trkpt lat="47.28059" lon="-2.34311">
        <ele>4</ele>
        <time>2020-07-05T08:11:24.000Z</time>
      </trkpt>
      <trkpt lat="47.28051" lon="-2.34329">
        <ele>4</ele>
        <time>2020-07-05T08:11:27.000Z</time>
      </trkpt>
      <trkpt lat="47.28052" lon="-2.34352">
        <ele>4</ele>
        <time>2020-07-05T08:11:31.000Z</time>
      </trkpt>
      <trkpt lat="47.28059" lon="-2.3436">
        <ele>4</ele>
        <time>2020-07-05T08:11:33.000Z</time>
      </trkpt>
      <trkpt lat="47.28063" lon="-2.34366">
        <ele>4</ele>
        <time>2020-07-05T08:11:34.000Z</time>
      </trkpt>
      <trkpt lat="47.28068" lon="-2.34377">
        <ele>4</ele>
        <time>2020-07-05T08:11:36.000Z</time>
      </trkpt>
      <trkpt lat="47.28091" lon="-2.34416">
        <ele>4</ele>
        <time>2020-07-05T08:11:43.000Z</time>
      </trkpt>
      <trkpt lat="47.28099" lon="-2.34426">
        <ele>4</ele>
        <time>2020-07-05T08:11:45.000Z</time>
      </trkpt>
      <trkpt lat="47.2811" lon="-2.34443">
        <ele>4</ele>
        <time>2020-07-05T08:11:48.000Z</time>
      </trkpt>
      <trkpt lat="47.2814" lon="-2.34489">
        <ele>4</ele>
        <time>2020-07-05T08:11:55.000Z</time>
      </trkpt>
      <trkpt lat="47.28146" lon="-2.34504">
        <ele>4</ele>
        <time>2020-07-05T08:11:57.000Z</time>
      </trkpt>
      <trkpt lat="47.28146" lon="-2.34521">
        <ele>4</ele>
        <time>2020-07-05T08:11:59.000Z</time>
      </trkpt>
      <trkpt lat="47.28138" lon="-2.34548">
        <ele>4</ele>
        <time>2020-07-05T08:12:03.000Z</time>
      </trkpt>
      <trkpt lat="47.2812" lon="-2.34562">
        <ele>4</ele>
        <time>2020-07-05T08:12:07.000Z</time>
      </trkpt>
      <trkpt lat="47.28112" lon="-2.34569">
        <ele>4</ele>
        <time>2020-07-05T08:12:09.000Z</time>
      </trkpt>
      <trkpt lat="47.28105" lon="-2.34584">
        <ele>4</ele>
        <time>2020-07-05T08:12:12.000Z</time>
      </trkpt>
      <trkpt lat="47.28101" lon="-2.34601">
        <ele>4</ele>
        <time>2020-07-05T08:12:15.000Z</time>
      </trkpt>
      <trkpt lat="47.28101" lon="-2.34616">
        <ele>4</ele>
        <time>2020-07-05T08:12:18.000Z</time>
      </trkpt>
      <trkpt lat="47.28107" lon="-2.34633">
        <ele>4</ele>
        <time>2020-07-05T08:12:22.000Z</time>
      </trkpt>
      <trkpt lat="47.2811" lon="-2.3464">
        <ele>4</ele>
        <time>2020-07-05T08:12:24.000Z</time>
      </trkpt>
      <trkpt lat="47.28115" lon="-2.3465">
        <ele>3.5999999046326</ele>
        <time>2020-07-05T08:12:27.000Z</time>
      </trkpt>
      <trkpt lat="47.28117" lon="-2.34654">
        <ele>3.2000000476837</ele>
        <time>2020-07-05T08:12:28.000Z</time>
      </trkpt>
      <trkpt lat="47.28118" lon="-2.34658">
        <ele>2.5999999046326</ele>
        <time>2020-07-05T08:12:29.000Z</time>
      </trkpt>
      <trkpt lat="47.2812" lon="-2.34661">
        <ele>1.7999999523163</ele>
        <time>2020-07-05T08:12:30.000Z</time>
      </trkpt>
      <trkpt lat="47.28122" lon="-2.34664">
        <ele>1.7999999523163</ele>
        <time>2020-07-05T08:12:31.000Z</time>
      </trkpt>
      <trkpt lat="47.28131" lon="-2.34681">
        <ele>1.7999999523163</ele>
        <time>2020-07-05T08:12:36.000Z</time>
      </trkpt>
      <trkpt lat="47.28141" lon="-2.34702">
        <ele>1.7999999523163</ele>
        <time>2020-07-05T08:12:42.000Z</time>
      </trkpt>
      <trkpt lat="47.28147" lon="-2.34722">
        <ele>1.7999999523163</ele>
        <time>2020-07-05T08:12:47.000Z</time>
      </trkpt>
      <trkpt lat="47.28153" lon="-2.34742">
        <ele>1.7999999523163</ele>
        <time>2020-07-05T08:12:53.000Z</time>
      </trkpt>
      <trkpt lat="47.2816" lon="-2.3477">
        <ele>1.7999999523163</ele>
        <time>2020-07-05T08:13:00.000Z</time>
      </trkpt>
      <trkpt lat="47.2817" lon="-2.34782">
        <ele>1.7999999523163</ele>
        <time>2020-07-05T08:13:05.000Z</time>
      </trkpt>
      <trkpt lat="47.28178" lon="-2.34797">
        <ele>1.7999999523163</ele>
        <time>2020-07-05T08:13:10.000Z</time>
      </trkpt>
      <trkpt lat="47.2818" lon="-2.34823">
        <ele>1.7999999523163</ele>
        <time>2020-07-05T08:13:15.000Z</time>
      </trkpt>
      <trkpt lat="47.28182" lon="-2.34852">
        <ele>1.7999999523163</ele>
        <time>2020-07-05T08:13:21.000Z</time>
      </trkpt>
      <trkpt lat="47.28191" lon="-2.34883">
        <ele>1.7999999523163</ele>
        <time>2020-07-05T08:13:29.000Z</time>
      </trkpt>
      <trkpt lat="47.28202" lon="-2.34921">
        <ele>1.7999999523163</ele>
        <time>2020-07-05T08:13:38.000Z</time>
      </trkpt>
      <trkpt lat="47.28216" lon="-2.34964">
        <ele>1.7999999523163</ele>
        <time>2020-07-05T08:13:47.000Z</time>
      </trkpt>
      <trkpt lat="47.28226" lon="-2.34986">
        <ele>1.7999999523163</ele>
        <time>2020-07-05T08:13:53.000Z</time>
      </trkpt>
      <trkpt lat="47.28244" lon="-2.35017">
        <ele>1.7999999523163</ele>
        <time>2020-07-05T08:14:01.000Z</time>
      </trkpt>
      <trkpt lat="47.28261" lon="-2.3504">
        <ele>1.7999999523163</ele>
        <time>2020-07-05T08:14:07.000Z</time>
      </trkpt>
      <trkpt lat="47.28267" lon="-2.35048">
        <ele>1.7999999523163</ele>
        <time>2020-07-05T08:14:09.000Z</time>
      </trkpt>
      <trkpt lat="47.2829" lon="-2.3507">
        <ele>1.7999999523163</ele>
        <time>2020-07-05T08:14:15.000Z</time>
      </trkpt>
      <trkpt lat="47.28295" lon="-2.35073">
        <ele>1.7999999523163</ele>
        <time>2020-07-05T08:14:16.000Z</time>
      </trkpt>
      <trkpt lat="47.28311" lon="-2.35078">
        <ele>1.7999999523163</ele>
        <time>2020-07-05T08:14:19.000Z</time>
      </trkpt>
      <trkpt lat="47.28333" lon="-2.35089">
        <ele>1.7999999523163</ele>
        <time>2020-07-05T08:14:23.000Z</time>
      </trkpt>
      <trkpt lat="47.28342" lon="-2.35098">
        <ele>1.7999999523163</ele>
        <time>2020-07-05T08:14:25.000Z</time>
      </trkpt>
      <trkpt lat="47.28353" lon="-2.35123">
        <ele>1.7999999523163</ele>
        <time>2020-07-05T08:14:29.000Z</time>
      </trkpt>
      <trkpt lat="47.28372" lon="-2.35174">
        <ele>1.7999999523163</ele>
        <time>2020-07-05T08:14:37.000Z</time>
      </trkpt>
      <trkpt lat="47.28384" lon="-2.35208">
        <ele>1.7999999523163</ele>
        <time>2020-07-05T08:14:43.000Z</time>
      </trkpt>
      <trkpt lat="47.28387" lon="-2.35237">
        <ele>1.7999999523163</ele>
        <time>2020-07-05T08:14:49.000Z</time>
      </trkpt>
      <trkpt lat="47.28375" lon="-2.35257">
        <ele>1.7999999523163</ele>
        <time>2020-07-05T08:14:53.000Z</time>
      </trkpt>
      <trkpt lat="47.28354" lon="-2.35289">
        <ele>1.7999999523163</ele>
        <time>2020-07-05T08:14:59.000Z</time>
      </trkpt>
      <trkpt lat="47.28348" lon="-2.35298">
        <ele>1.7999999523163</ele>
        <time>2020-07-05T08:15:01.000Z</time>
      </trkpt>
      <trkpt lat="47.28346" lon="-2.35308">
        <ele>1.3999999761581</ele>
        <time>2020-07-05T08:15:03.000Z</time>
      </trkpt>
      <trkpt lat="47.28346" lon="-2.35313">
        <ele>1</ele>
        <time>2020-07-05T08:15:04.000Z</time>
      </trkpt>
      <trkpt lat="47.28347" lon="-2.35318">
        <ele>0.60000002384186</ele>
        <time>2020-07-05T08:15:05.000Z</time>
      </trkpt>
      <trkpt lat="47.28348" lon="-2.35324">
        <ele>24.2</ele>
        <time>2020-07-05T08:15:06.000Z</time>
      </trkpt>
      <trkpt lat="47.2835" lon="-2.35329">
        <ele>-0.40000000596046</ele>
        <time>2020-07-05T08:15:07.000Z</time>
      </trkpt>
      <trkpt lat="47.28352" lon="-2.35336">
        <ele>-0.40000000596046</ele>
        <time>2020-07-05T08:15:08.000Z</time>
      </trkpt>
      <trkpt lat="47.28353" lon="-2.35342">
        <ele>-0.40000000596046</ele>
        <time>2020-07-05T08:15:09.000Z</time>
      </trkpt>
      <trkpt lat="47.28356" lon="-2.3536">
        <ele>-0.40000000596046</ele>
        <time>2020-07-05T08:15:13.000Z</time>
      </trkpt>
      <trkpt lat="47.2836" lon="-2.35369">
        <ele>-0.40000000596046</ele>
        <time>2020-07-05T08:15:18.000Z</time>
      </trkpt>
      <trkpt lat="47.28361" lon="-2.35375">
        <ele>27.4</ele>
        <time>2020-07-05T08:15:21.000Z</time>
      </trkpt>
      <trkpt lat="47.28361" lon="-2.35376">
        <ele>0.80000001192093</ele>
        <time>2020-07-05T08:15:22.000Z</time>
      </trkpt>
      <trkpt lat="47.28362" lon="-2.35377">
        <ele>1.3999999761581</ele>
        <time>2020-07-05T08:15:23.000Z</time>
      </trkpt>
      <trkpt lat="47.28362" lon="-2.35379">
        <ele>1.7999999523163</ele>
        <time>2020-07-05T08:15:24.000Z</time>
      </trkpt>
      <trkpt lat="47.28363" lon="-2.3538">
        <ele>1.7999999523163</ele>
        <time>2020-07-05T08:15:25.000Z</time>
      </trkpt>
      <trkpt lat="47.28364" lon="-2.35383">
        <ele>2.2000000476837</ele>
        <time>2020-07-05T08:15:27.000Z</time>
      </trkpt>
      <trkpt lat="47.28364" lon="-2.35384">
        <ele>2.5999999046326</ele>
        <time>2020-07-05T08:15:28.000Z</time>
      </trkpt>
      <trkpt lat="47.28365" lon="-2.35386">
        <ele>3</ele>
        <time>2020-07-05T08:15:29.000Z</time>
      </trkpt>
      <trkpt lat="47.28366" lon="-2.35388">
        <ele>3.4000000953674</ele>
        <time>2020-07-05T08:15:30.000Z</time>
      </trkpt>
      <trkpt lat="47.28367" lon="-2.3539">
        <ele>3.7999999523163</ele>
        <time>2020-07-05T08:15:31.000Z</time>
      </trkpt>
      <trkpt lat="47.28368" lon="-2.35392">
        <ele>4.1999998092651</ele>
        <time>2020-07-05T08:15:32.000Z</time>
      </trkpt>
      <trkpt lat="47.2837" lon="-2.35394">
        <ele>4.5999999046326</ele>
        <time>2020-07-05T08:15:33.000Z</time>
      </trkpt>
      <trkpt lat="47.28371" lon="-2.35396">
        <ele>5</ele>
        <time>2020-07-05T08:15:34.000Z</time>
      </trkpt>
      <trkpt lat="47.28373" lon="-2.35399">
        <ele>5.4000000953674</ele>
        <time>2020-07-05T08:15:35.000Z</time>
      </trkpt>
      <trkpt lat="47.28376" lon="-2.35401">
        <ele>5.8000001907349</ele>
        <time>2020-07-05T08:15:36.000Z</time>
      </trkpt>
      <trkpt lat="47.2838" lon="-2.35407">
        <ele>6.1999998092651</ele>
        <time>2020-07-05T08:15:38.000Z</time>
      </trkpt>
      <trkpt lat="47.28382" lon="-2.35409">
        <ele>6.5999999046326</ele>
        <time>2020-07-05T08:15:39.000Z</time>
      </trkpt>
      <trkpt lat="47.28383" lon="-2.35411">
        <ele>7</ele>
        <time>2020-07-05T08:15:40.000Z</time>
      </trkpt>
      <trkpt lat="47.28385" lon="-2.35414">
        <ele>7.4000000953674</ele>
        <time>2020-07-05T08:15:41.000Z</time>
      </trkpt>
      <trkpt lat="47.28386" lon="-2.35416">
        <ele>8</ele>
        <time>2020-07-05T08:15:42.000Z</time>
      </trkpt>
      <trkpt lat="47.28391" lon="-2.35423">
        <ele>8</ele>
        <time>2020-07-05T08:15:45.000Z</time>
      </trkpt>
      <trkpt lat="47.28397" lon="-2.35425">
        <ele>8</ele>
        <time>2020-07-05T08:15:47.000Z</time>
      </trkpt>
      <trkpt lat="47.28402" lon="-2.3542">
        <ele>8</ele>
        <time>2020-07-05T08:15:49.000Z</time>
      </trkpt>
      <trkpt lat="47.28406" lon="-2.35416">
        <ele>8</ele>
        <time>2020-07-05T08:15:51.000Z</time>
      </trkpt>
      <trkpt lat="47.28411" lon="-2.3541">
        <ele>8</ele>
        <time>2020-07-05T08:15:54.000Z</time>
      </trkpt>
      <trkpt lat="47.28419" lon="-2.35406">
        <ele>8.3999996185303</ele>
        <time>2020-07-05T08:15:58.000Z</time>
      </trkpt>
      <trkpt lat="47.28424" lon="-2.35407">
        <ele>8.8000001907349</ele>
        <time>2020-07-05T08:15:59.000Z</time>
      </trkpt>
      <trkpt lat="47.28428" lon="-2.35407">
        <ele>9.1999998092651</ele>
        <time>2020-07-05T08:16:00.000Z</time>
      </trkpt>
      <trkpt lat="47.28432" lon="-2.3541">
        <ele>9.6000003814697</ele>
        <time>2020-07-05T08:16:01.000Z</time>
      </trkpt>
      <trkpt lat="47.28436" lon="-2.35409">
        <ele>10</ele>
        <time>2020-07-05T08:16:02.000Z</time>
      </trkpt>
      <trkpt lat="47.28444" lon="-2.35404">
        <ele>9.6000003814697</ele>
        <time>2020-07-05T08:16:04.000Z</time>
      </trkpt>
      <trkpt lat="47.28447" lon="-2.35401">
        <ele>9.1999998092651</ele>
        <time>2020-07-05T08:16:05.000Z</time>
      </trkpt>
      <trkpt lat="47.2845" lon="-2.35398">
        <ele>8.8000001907349</ele>
        <time>2020-07-05T08:16:06.000Z</time>
      </trkpt>
      <trkpt lat="47.28452" lon="-2.35394">
        <ele>8.1999998092651</ele>
        <time>2020-07-05T08:16:07.000Z</time>
      </trkpt>
      <trkpt lat="47.28454" lon="-2.35391">
        <ele>7.8000001907349</ele>
        <time>2020-07-05T08:16:08.000Z</time>
      </trkpt>
      <trkpt lat="47.28455" lon="-2.35387">
        <ele>7.8000001907349</ele>
        <time>2020-07-05T08:16:09.000Z</time>
      </trkpt>
      <trkpt lat="47.28456" lon="-2.35383">
        <ele>7.4000000953674</ele>
        <time>2020-07-05T08:16:10.000Z</time>
      </trkpt>
      <trkpt lat="47.28457" lon="-2.3538">
        <ele>6.5999999046326</ele>
        <time>2020-07-05T08:16:11.000Z</time>
      </trkpt>
      <trkpt lat="47.28458" lon="-2.35376">
        <ele>6.1999998092651</ele>
        <time>2020-07-05T08:16:12.000Z</time>
      </trkpt>
      <trkpt lat="47.28458" lon="-2.35369">
        <ele>5.5999999046326</ele>
        <time>2020-07-05T08:16:13.000Z</time>
      </trkpt>
      <trkpt lat="47.28459" lon="-2.35362">
        <ele>5</ele>
        <time>2020-07-05T08:16:14.000Z</time>
      </trkpt>
      <trkpt lat="47.2846" lon="-2.35357">
        <ele>4.4000000953674</ele>
        <time>2020-07-05T08:16:15.000Z</time>
      </trkpt>
      <trkpt lat="47.28461" lon="-2.35354">
        <ele>3.7999999523163</ele>
        <time>2020-07-05T08:16:16.000Z</time>
      </trkpt>
      <trkpt lat="47.28463" lon="-2.35352">
        <ele>3.2000000476837</ele>
        <time>2020-07-05T08:16:17.000Z</time>
      </trkpt>
      <trkpt lat="47.28465" lon="-2.3535">
        <ele>2.4000000953674</ele>
        <time>2020-07-05T08:16:18.000Z</time>
      </trkpt>
      <trkpt lat="47.28467" lon="-2.35352">
        <ele>1.7999999523163</ele>
        <time>2020-07-05T08:16:19.000Z</time>
      </trkpt>
      <trkpt lat="47.28469" lon="-2.35356">
        <ele>1.2000000476837</ele>
        <time>2020-07-05T08:16:20.000Z</time>
      </trkpt>
      <trkpt lat="47.28471" lon="-2.35361">
        <ele>1.2000000476837</ele>
        <time>2020-07-05T08:16:21.000Z</time>
      </trkpt>
      <trkpt lat="47.28473" lon="-2.35366">
        <ele>1.2000000476837</ele>
        <time>2020-07-05T08:16:22.000Z</time>
      </trkpt>
      <trkpt lat="47.28483" lon="-2.35402">
        <ele>1.2000000476837</ele>
        <time>2020-07-05T08:16:28.000Z</time>
      </trkpt>
      <trkpt lat="47.28489" lon="-2.35428">
        <ele>1.2000000476837</ele>
        <time>2020-07-05T08:16:34.000Z</time>
      </trkpt>
      <trkpt lat="47.28487" lon="-2.35433">
        <ele>2</ele>
        <time>2020-07-05T08:16:36.000Z</time>
      </trkpt>
      <trkpt lat="47.28486" lon="-2.35435">
        <ele>2.4000000953674</ele>
        <time>2020-07-05T08:16:37.000Z</time>
      </trkpt>
      <trkpt lat="47.28485" lon="-2.35437">
        <ele>2.7999999523163</ele>
        <time>2020-07-05T08:16:38.000Z</time>
      </trkpt>
      <trkpt lat="47.28484" lon="-2.35438">
        <ele>3.2000000476837</ele>
        <time>2020-07-05T08:16:39.000Z</time>
      </trkpt>
      <trkpt lat="47.28483" lon="-2.3544">
        <ele>3.2000000476837</ele>
        <time>2020-07-05T08:16:40.000Z</time>
      </trkpt>
      <trkpt lat="47.28481" lon="-2.35442">
        <ele>3.5999999046326</ele>
        <time>2020-07-05T08:16:41.000Z</time>
      </trkpt>
      <trkpt lat="47.28479" lon="-2.35443">
        <ele>4.1999998092651</ele>
        <time>2020-07-05T08:16:42.000Z</time>
      </trkpt>
      <trkpt lat="47.28477" lon="-2.35443">
        <ele>4.5999999046326</ele>
        <time>2020-07-05T08:16:43.000Z</time>
      </trkpt>
      <trkpt lat="47.28476" lon="-2.35442">
        <ele>5</ele>
        <time>2020-07-05T08:16:44.000Z</time>
      </trkpt>
      <trkpt lat="47.28474" lon="-2.35442">
        <ele>5.4000000953674</ele>
        <time>2020-07-05T08:16:45.000Z</time>
      </trkpt>
      <trkpt lat="47.28472" lon="-2.35441">
        <ele>5.4000000953674</ele>
        <time>2020-07-05T08:16:46.000Z</time>
      </trkpt>
      <trkpt lat="47.28469" lon="-2.35438">
        <ele>5.8000001907349</ele>
        <time>2020-07-05T08:16:48.000Z</time>
      </trkpt>
      <trkpt lat="47.28468" lon="-2.35436">
        <ele>6.1999998092651</ele>
        <time>2020-07-05T08:16:49.000Z</time>
      </trkpt>
      <trkpt lat="47.28466" lon="-2.35434">
        <ele>6.5999999046326</ele>
        <time>2020-07-05T08:16:50.000Z</time>
      </trkpt>
      <trkpt lat="47.28464" lon="-2.35431">
        <ele>7</ele>
        <time>2020-07-05T08:16:51.000Z</time>
      </trkpt>
      <trkpt lat="47.28463" lon="-2.35428">
        <ele>7.4000000953674</ele>
        <time>2020-07-05T08:16:52.000Z</time>
      </trkpt>
      <trkpt lat="47.28456" lon="-2.35429">
        <ele>7.4000000953674</ele>
        <time>2020-07-05T08:16:57.000Z</time>
      </trkpt>
      <trkpt lat="47.28453" lon="-2.35432">
        <ele>7.4000000953674</ele>
        <time>2020-07-05T08:16:59.000Z</time>
      </trkpt>
      <trkpt lat="47.28451" lon="-2.35438">
        <ele>7.4000000953674</ele>
        <time>2020-07-05T08:17:02.000Z</time>
      </trkpt>
      <trkpt lat="47.28452" lon="-2.35442">
        <ele>7.8000001907349</ele>
        <time>2020-07-05T08:17:04.000Z</time>
      </trkpt>
      <trkpt lat="47.28452" lon="-2.35444">
        <ele>8.1999998092651</ele>
        <time>2020-07-05T08:17:05.000Z</time>
      </trkpt>
      <trkpt lat="47.28452" lon="-2.35445">
        <ele>8.6000003814697</ele>
        <time>2020-07-05T08:17:06.000Z</time>
      </trkpt>
      <trkpt lat="47.28452" lon="-2.35447">
        <ele>9</ele>
        <time>2020-07-05T08:17:07.000Z</time>
      </trkpt>
      <trkpt lat="47.28452" lon="-2.35448">
        <ele>9.3999996185303</ele>
        <time>2020-07-05T08:17:08.000Z</time>
      </trkpt>
      <trkpt lat="47.28452" lon="-2.35454">
        <ele>10</ele>
        <time>2020-07-05T08:17:11.000Z</time>
      </trkpt>
      <trkpt lat="47.28452" lon="-2.35457">
        <ele>10.39999961853</ele>
        <time>2020-07-05T08:17:12.000Z</time>
      </trkpt>
      <trkpt lat="47.28453" lon="-2.3546">
        <ele>10.800000190735</ele>
        <time>2020-07-05T08:17:13.000Z</time>
      </trkpt>
      <trkpt lat="47.28453" lon="-2.35462">
        <ele>11.199999809265</ele>
        <time>2020-07-05T08:17:14.000Z</time>
      </trkpt>
      <trkpt lat="47.28454" lon="-2.35464">
        <ele>11.60000038147</ele>
        <time>2020-07-05T08:17:15.000Z</time>
      </trkpt>
      <trkpt lat="47.28455" lon="-2.35466">
        <ele>11.60000038147</ele>
        <time>2020-07-05T08:17:16.000Z</time>
      </trkpt>
      <trkpt lat="47.2846" lon="-2.35481">
        <ele>12</ele>
        <time>2020-07-05T08:17:22.000Z</time>
      </trkpt>
      <trkpt lat="47.28461" lon="-2.35482">
        <ele>12.39999961853</ele>
        <time>2020-07-05T08:17:23.000Z</time>
      </trkpt>
      <trkpt lat="47.28463" lon="-2.35484">
        <ele>12.800000190735</ele>
        <time>2020-07-05T08:17:24.000Z</time>
      </trkpt>
      <trkpt lat="47.28465" lon="-2.35486">
        <ele>13.199999809265</ele>
        <time>2020-07-05T08:17:25.000Z</time>
      </trkpt>
      <trkpt lat="47.28466" lon="-2.35488">
        <ele>13.60000038147</ele>
        <time>2020-07-05T08:17:26.000Z</time>
      </trkpt>
      <trkpt lat="47.28473" lon="-2.355">
        <ele>14</ele>
        <time>2020-07-05T08:17:31.000Z</time>
      </trkpt>
      <trkpt lat="47.28473" lon="-2.35502">
        <ele>14.39999961853</ele>
        <time>2020-07-05T08:17:32.000Z</time>
      </trkpt>
      <trkpt lat="47.28474" lon="-2.35505">
        <ele>14.800000190735</ele>
        <time>2020-07-05T08:17:33.000Z</time>
      </trkpt>
      <trkpt lat="47.28474" lon="-2.35508">
        <ele>15.199999809265</ele>
        <time>2020-07-05T08:17:34.000Z</time>
      </trkpt>
      <trkpt lat="47.28475" lon="-2.35511">
        <ele>15.60000038147</ele>
        <time>2020-07-05T08:17:35.000Z</time>
      </trkpt>
      <trkpt lat="47.28477" lon="-2.35523">
        <ele>15.60000038147</ele>
        <time>2020-07-05T08:17:38.000Z</time>
      </trkpt>
      <trkpt lat="47.28478" lon="-2.35527">
        <ele>15.60000038147</ele>
        <time>2020-07-05T08:17:39.000Z</time>
      </trkpt>
      <trkpt lat="47.28484" lon="-2.35554">
        <ele>15.60000038147</ele>
        <time>2020-07-05T08:17:44.000Z</time>
      </trkpt>
      <trkpt lat="47.28499" lon="-2.35587">
        <ele>15.60000038147</ele>
        <time>2020-07-05T08:17:51.000Z</time>
      </trkpt>
      <trkpt lat="47.28504" lon="-2.35594">
        <ele>15.199999809265</ele>
        <time>2020-07-05T08:17:53.000Z</time>
      </trkpt>
      <trkpt lat="47.28507" lon="-2.35597">
        <ele>14.800000190735</ele>
        <time>2020-07-05T08:17:54.000Z</time>
      </trkpt>
      <trkpt lat="47.28511" lon="-2.35597">
        <ele>14.199999809265</ele>
        <time>2020-07-05T08:17:55.000Z</time>
      </trkpt>
      <trkpt lat="47.28514" lon="-2.35599">
        <ele>13.800000190735</ele>
        <time>2020-07-05T08:17:56.000Z</time>
      </trkpt>
      <trkpt lat="47.28517" lon="-2.35599">
        <ele>13.199999809265</ele>
        <time>2020-07-05T08:17:57.000Z</time>
      </trkpt>
      <trkpt lat="47.28522" lon="-2.35598">
        <ele>12.800000190735</ele>
        <time>2020-07-05T08:17:59.000Z</time>
      </trkpt>
      <trkpt lat="47.28524" lon="-2.35595">
        <ele>12.39999961853</ele>
        <time>2020-07-05T08:18:00.000Z</time>
      </trkpt>
      <trkpt lat="47.28526" lon="-2.35594">
        <ele>12</ele>
        <time>2020-07-05T08:18:01.000Z</time>
      </trkpt>
      <trkpt lat="47.28527" lon="-2.35591">
        <ele>11.60000038147</ele>
        <time>2020-07-05T08:18:02.000Z</time>
      </trkpt>
      <trkpt lat="47.28528" lon="-2.35589">
        <ele>11.199999809265</ele>
        <time>2020-07-05T08:18:03.000Z</time>
      </trkpt>
      <trkpt lat="47.28531" lon="-2.35571">
        <ele>10.60000038147</ele>
        <time>2020-07-05T08:18:07.000Z</time>
      </trkpt>
      <trkpt lat="47.2853" lon="-2.35566">
        <ele>10.199999809265</ele>
        <time>2020-07-05T08:18:08.000Z</time>
      </trkpt>
      <trkpt lat="47.28529" lon="-2.35561">
        <ele>9.8000001907349</ele>
        <time>2020-07-05T08:18:09.000Z</time>
      </trkpt>
      <trkpt lat="47.28528" lon="-2.35555">
        <ele>9.3999996185303</ele>
        <time>2020-07-05T08:18:10.000Z</time>
      </trkpt>
      <trkpt lat="47.28527" lon="-2.3555">
        <ele>9</ele>
        <time>2020-07-05T08:18:11.000Z</time>
      </trkpt>
      <trkpt lat="47.28521" lon="-2.35534">
        <ele>9</ele>
        <time>2020-07-05T08:18:14.000Z</time>
      </trkpt>
      <trkpt lat="47.2852" lon="-2.35528">
        <ele>8.6000003814697</ele>
        <time>2020-07-05T08:18:15.000Z</time>
      </trkpt>
      <trkpt lat="47.28519" lon="-2.35523">
        <ele>8</ele>
        <time>2020-07-05T08:18:16.000Z</time>
      </trkpt>
      <trkpt lat="47.28517" lon="-2.35516">
        <ele>7.5999999046326</ele>
        <time>2020-07-05T08:18:17.000Z</time>
      </trkpt>
      <trkpt lat="47.28518" lon="-2.35509">
        <ele>7.1999998092651</ele>
        <time>2020-07-05T08:18:18.000Z</time>
      </trkpt>
      <trkpt lat="47.28519" lon="-2.35503">
        <ele>6.5999999046326</ele>
        <time>2020-07-05T08:18:19.000Z</time>
      </trkpt>
      <trkpt lat="47.28521" lon="-2.35496">
        <ele>6.1999998092651</ele>
        <time>2020-07-05T08:18:20.000Z</time>
      </trkpt>
      <trkpt lat="47.28522" lon="-2.35491">
        <ele>5.5999999046326</ele>
        <time>2020-07-05T08:18:21.000Z</time>
      </trkpt>
      <trkpt lat="47.28522" lon="-2.35488">
        <ele>5.1999998092651</ele>
        <time>2020-07-05T08:18:22.000Z</time>
      </trkpt>
      <trkpt lat="47.28524" lon="-2.35484">
        <ele>4.5999999046326</ele>
        <time>2020-07-05T08:18:23.000Z</time>
      </trkpt>
      <trkpt lat="47.28524" lon="-2.35481">
        <ele>4.5999999046326</ele>
        <time>2020-07-05T08:18:24.000Z</time>
      </trkpt>
      <trkpt lat="47.28537" lon="-2.35477">
        <ele>4.5999999046326</ele>
        <time>2020-07-05T08:18:29.000Z</time>
      </trkpt>
      <trkpt lat="47.28541" lon="-2.35478">
        <ele>4.1999998092651</ele>
        <time>2020-07-05T08:18:30.000Z</time>
      </trkpt>
      <trkpt lat="47.28542" lon="-2.35477">
        <ele>3.7999999523163</ele>
        <time>2020-07-05T08:18:31.000Z</time>
      </trkpt>
      <trkpt lat="47.28553" lon="-2.3548">
        <ele>3.4000000953674</ele>
        <time>2020-07-05T08:18:32.000Z</time>
      </trkpt>
      <trkpt lat="47.28554" lon="-2.35479">
        <ele>3</ele>
        <time>2020-07-05T08:18:33.000Z</time>
      </trkpt>
      <trkpt lat="47.28558" lon="-2.35477">
        <ele>2.5999999046326</ele>
        <time>2020-07-05T08:18:34.000Z</time>
      </trkpt>
      <trkpt lat="47.2856" lon="-2.35472">
        <ele>2.5999999046326</ele>
        <time>2020-07-05T08:18:36.000Z</time>
      </trkpt>
      <trkpt lat="47.28562" lon="-2.35477">
        <ele>2.5999999046326</ele>
        <time>2020-07-05T08:18:40.000Z</time>
      </trkpt>
      <trkpt lat="47.28566" lon="-2.35497">
        <ele>2.5999999046326</ele>
        <time>2020-07-05T08:18:46.000Z</time>
      </trkpt>
      <trkpt lat="47.28572" lon="-2.35523">
        <ele>2.5999999046326</ele>
        <time>2020-07-05T08:18:51.000Z</time>
      </trkpt>
      <trkpt lat="47.2858" lon="-2.35558">
        <ele>2.5999999046326</ele>
        <time>2020-07-05T08:18:58.000Z</time>
      </trkpt>
      <trkpt lat="47.28587" lon="-2.3561">
        <ele>2.5999999046326</ele>
        <time>2020-07-05T08:19:06.000Z</time>
      </trkpt>
      <trkpt lat="47.28589" lon="-2.35623">
        <ele>3</ele>
        <time>2020-07-05T08:19:08.000Z</time>
      </trkpt>
      <trkpt lat="47.28589" lon="-2.3563">
        <ele>3.4000000953674</ele>
        <time>2020-07-05T08:19:09.000Z</time>
      </trkpt>
      <trkpt lat="47.2859" lon="-2.35636">
        <ele>3.7999999523163</ele>
        <time>2020-07-05T08:19:10.000Z</time>
      </trkpt>
      <trkpt lat="47.28591" lon="-2.35642">
        <ele>4.4000000953674</ele>
        <time>2020-07-05T08:19:11.000Z</time>
      </trkpt>
      <trkpt lat="47.28593" lon="-2.35649">
        <ele>4.8000001907349</ele>
        <time>2020-07-05T08:19:12.000Z</time>
      </trkpt>
      <trkpt lat="47.28597" lon="-2.35668">
        <ele>4.8000001907349</ele>
        <time>2020-07-05T08:19:15.000Z</time>
      </trkpt>
      <trkpt lat="47.28603" lon="-2.35716">
        <ele>4.8000001907349</ele>
        <time>2020-07-05T08:19:22.000Z</time>
      </trkpt>
      <trkpt lat="47.28603" lon="-2.35723">
        <ele>4.8000001907349</ele>
        <time>2020-07-05T08:19:23.000Z</time>
      </trkpt>
      <trkpt lat="47.286" lon="-2.35767">
        <ele>4.8000001907349</ele>
        <time>2020-07-05T08:19:30.000Z</time>
      </trkpt>
      <trkpt lat="47.28598" lon="-2.35772">
        <ele>4.8000001907349</ele>
        <time>2020-07-05T08:19:31.000Z</time>
      </trkpt>
      <trkpt lat="47.28586" lon="-2.35795">
        <ele>4.8000001907349</ele>
        <time>2020-07-05T08:19:36.000Z</time>
      </trkpt>
      <trkpt lat="47.28569" lon="-2.35821">
        <ele>4.8000001907349</ele>
        <time>2020-07-05T08:19:43.000Z</time>
      </trkpt>
      <trkpt lat="47.2856" lon="-2.35831">
        <ele>4.8000001907349</ele>
        <time>2020-07-05T08:19:48.000Z</time>
      </trkpt>
      <trkpt lat="47.28557" lon="-2.35836">
        <ele>4.8000001907349</ele>
        <time>2020-07-05T08:19:53.000Z</time>
      </trkpt>
      <trkpt lat="47.2856" lon="-2.35841">
        <ele>6.8000001907349</ele>
        <time>2020-07-05T08:20:27.000Z</time>
      </trkpt>
      <trkpt lat="47.28562" lon="-2.35848">
        <ele>6.8000001907349</ele>
        <time>2020-07-05T08:20:29.000Z</time>
      </trkpt>
      <trkpt lat="47.28574" lon="-2.35871">
        <ele>6.8000001907349</ele>
        <time>2020-07-05T08:20:34.000Z</time>
      </trkpt>
      <trkpt lat="47.28584" lon="-2.35903">
        <ele>6.8000001907349</ele>
        <time>2020-07-05T08:20:41.000Z</time>
      </trkpt>
      <trkpt lat="47.28585" lon="-2.35909">
        <ele>7.1999998092651</ele>
        <time>2020-07-05T08:20:42.000Z</time>
      </trkpt>
      <trkpt lat="47.28587" lon="-2.35915">
        <ele>7.5999999046326</ele>
        <time>2020-07-05T08:20:43.000Z</time>
      </trkpt>
      <trkpt lat="47.28589" lon="-2.35921">
        <ele>8.3999996185303</ele>
        <time>2020-07-05T08:20:44.000Z</time>
      </trkpt>
      <trkpt lat="47.28591" lon="-2.35927">
        <ele>8.8000001907349</ele>
        <time>2020-07-05T08:20:45.000Z</time>
      </trkpt>
      <trkpt lat="47.28606" lon="-2.35964">
        <ele>8.8000001907349</ele>
        <time>2020-07-05T08:20:52.000Z</time>
      </trkpt>
      <trkpt lat="47.2862" lon="-2.35997">
        <ele>8.8000001907349</ele>
        <time>2020-07-05T08:20:58.000Z</time>
      </trkpt>
      <trkpt lat="47.28626" lon="-2.36015">
        <ele>9.1999998092651</ele>
        <time>2020-07-05T08:21:01.000Z</time>
      </trkpt>
      <trkpt lat="47.28628" lon="-2.3602">
        <ele>9.6000003814697</ele>
        <time>2020-07-05T08:21:02.000Z</time>
      </trkpt>
      <trkpt lat="47.2863" lon="-2.36025">
        <ele>10</ele>
        <time>2020-07-05T08:21:03.000Z</time>
      </trkpt>
      <trkpt lat="47.28632" lon="-2.3603">
        <ele>10.39999961853</ele>
        <time>2020-07-05T08:21:04.000Z</time>
      </trkpt>
      <trkpt lat="47.28634" lon="-2.36035">
        <ele>10.800000190735</ele>
        <time>2020-07-05T08:21:05.000Z</time>
      </trkpt>
      <trkpt lat="47.28641" lon="-2.36065">
        <ele>10.800000190735</ele>
        <time>2020-07-05T08:21:11.000Z</time>
      </trkpt>
      <trkpt lat="47.28645" lon="-2.36079">
        <ele>10.800000190735</ele>
        <time>2020-07-05T08:21:17.000Z</time>
      </trkpt>
      <trkpt lat="47.28647" lon="-2.36085">
        <ele>11.199999809265</ele>
        <time>2020-07-05T08:21:21.000Z</time>
      </trkpt>
      <trkpt lat="47.28647" lon="-2.36086">
        <ele>11.800000190735</ele>
        <time>2020-07-05T08:21:22.000Z</time>
      </trkpt>
      <trkpt lat="47.28647" lon="-2.36087">
        <ele>12.199999809265</ele>
        <time>2020-07-05T08:21:23.000Z</time>
      </trkpt>
      <trkpt lat="47.28647" lon="-2.36088">
        <ele>12.60000038147</ele>
        <time>2020-07-05T08:21:24.000Z</time>
      </trkpt>
      <trkpt lat="47.28647" lon="-2.3609">
        <ele>13</ele>
        <time>2020-07-05T08:21:25.000Z</time>
      </trkpt>
      <trkpt lat="47.28647" lon="-2.36092">
        <ele>13.39999961853</ele>
        <time>2020-07-05T08:21:27.000Z</time>
      </trkpt>
      <trkpt lat="47.28646" lon="-2.36093">
        <ele>14</ele>
        <time>2020-07-05T08:21:28.000Z</time>
      </trkpt>
      <trkpt lat="47.28646" lon="-2.36094">
        <ele>14.39999961853</ele>
        <time>2020-07-05T08:21:29.000Z</time>
      </trkpt>
      <trkpt lat="47.28646" lon="-2.36095">
        <ele>14.800000190735</ele>
        <time>2020-07-05T08:21:30.000Z</time>
      </trkpt>
      <trkpt lat="47.28646" lon="-2.36097">
        <ele>15.199999809265</ele>
        <time>2020-07-05T08:21:31.000Z</time>
      </trkpt>
      <trkpt lat="47.28645" lon="-2.36102">
        <ele>15.60000038147</ele>
        <time>2020-07-05T08:21:34.000Z</time>
      </trkpt>
      <trkpt lat="47.28644" lon="-2.36103">
        <ele>16.200000762939</ele>
        <time>2020-07-05T08:21:35.000Z</time>
      </trkpt>
      <trkpt lat="47.28644" lon="-2.36105">
        <ele>16.60000038147</ele>
        <time>2020-07-05T08:21:36.000Z</time>
      </trkpt>
      <trkpt lat="47.28643" lon="-2.36106">
        <ele>17</ele>
        <time>2020-07-05T08:21:37.000Z</time>
      </trkpt>
      <trkpt lat="47.28643" lon="-2.36108">
        <ele>17.39999961853</ele>
        <time>2020-07-05T08:21:38.000Z</time>
      </trkpt>
      <trkpt lat="47.28639" lon="-2.36115">
        <ele>17.799999237061</ele>
        <time>2020-07-05T08:21:43.000Z</time>
      </trkpt>
      <trkpt lat="47.28638" lon="-2.36116">
        <ele>18.200000762939</ele>
        <time>2020-07-05T08:21:44.000Z</time>
      </trkpt>
      <trkpt lat="47.28637" lon="-2.36117">
        <ele>18.799999237061</ele>
        <time>2020-07-05T08:21:45.000Z</time>
      </trkpt>
      <trkpt lat="47.28636" lon="-2.36118">
        <ele>19.200000762939</ele>
        <time>2020-07-05T08:21:46.000Z</time>
      </trkpt>
      <trkpt lat="47.28635" lon="-2.36119">
        <ele>19.60000038147</ele>
        <time>2020-07-05T08:21:47.000Z</time>
      </trkpt>
      <trkpt lat="47.28631" lon="-2.36122">
        <ele>19.60000038147</ele>
        <time>2020-07-05T08:21:51.000Z</time>
      </trkpt>
      <trkpt lat="47.2863" lon="-2.36124">
        <ele>19.60000038147</ele>
        <time>2020-07-05T08:21:52.000Z</time>
      </trkpt>
      <trkpt lat="47.28625" lon="-2.36129">
        <ele>19.60000038147</ele>
        <time>2020-07-05T08:21:55.000Z</time>
      </trkpt>
      <trkpt lat="47.28616" lon="-2.36141">
        <ele>19.60000038147</ele>
        <time>2020-07-05T08:22:00.000Z</time>
      </trkpt>
      <trkpt lat="47.28598" lon="-2.36152">
        <ele>19.60000038147</ele>
        <time>2020-07-05T08:22:05.000Z</time>
      </trkpt>
      <trkpt lat="47.28573" lon="-2.36147">
        <ele>19.60000038147</ele>
        <time>2020-07-05T08:22:12.000Z</time>
      </trkpt>
      <trkpt lat="47.28568" lon="-2.36147">
        <ele>19.60000038147</ele>
        <time>2020-07-05T08:22:13.000Z</time>
      </trkpt>
      <trkpt lat="47.28555" lon="-2.36153">
        <ele>19.60000038147</ele>
        <time>2020-07-05T08:22:16.000Z</time>
      </trkpt>
      <trkpt lat="47.2854" lon="-2.36161">
        <ele>19</ele>
        <time>2020-07-05T08:22:20.000Z</time>
      </trkpt>
      <trkpt lat="47.28536" lon="-2.36162">
        <ele>18.60000038147</ele>
        <time>2020-07-05T08:22:21.000Z</time>
      </trkpt>
      <trkpt lat="47.28532" lon="-2.36162">
        <ele>18</ele>
        <time>2020-07-05T08:22:22.000Z</time>
      </trkpt>
      <trkpt lat="47.28527" lon="-2.36161">
        <ele>16.799999237061</ele>
        <time>2020-07-05T08:22:23.000Z</time>
      </trkpt>
      <trkpt lat="47.28523" lon="-2.36159">
        <ele>16.200000762939</ele>
        <time>2020-07-05T08:22:24.000Z</time>
      </trkpt>
      <trkpt lat="47.28518" lon="-2.36157">
        <ele>15.60000038147</ele>
        <time>2020-07-05T08:22:25.000Z</time>
      </trkpt>
      <trkpt lat="47.28511" lon="-2.36155">
        <ele>14.800000190735</ele>
        <time>2020-07-05T08:22:26.000Z</time>
      </trkpt>
      <trkpt lat="47.28503" lon="-2.36155">
        <ele>14.199999809265</ele>
        <time>2020-07-05T08:22:27.000Z</time>
      </trkpt>
      <trkpt lat="47.28497" lon="-2.36157">
        <ele>13.800000190735</ele>
        <time>2020-07-05T08:22:28.000Z</time>
      </trkpt>
      <trkpt lat="47.28491" lon="-2.36161">
        <ele>13.39999961853</ele>
        <time>2020-07-05T08:22:29.000Z</time>
      </trkpt>
      <trkpt lat="47.28486" lon="-2.36165">
        <ele>12.800000190735</ele>
        <time>2020-07-05T08:22:30.000Z</time>
      </trkpt>
      <trkpt lat="47.28481" lon="-2.36171">
        <ele>12.39999961853</ele>
        <time>2020-07-05T08:22:31.000Z</time>
      </trkpt>
      <trkpt lat="47.28477" lon="-2.36177">
        <ele>12</ele>
        <time>2020-07-05T08:22:32.000Z</time>
      </trkpt>
      <trkpt lat="47.28472" lon="-2.36182">
        <ele>12</ele>
        <time>2020-07-05T08:22:33.000Z</time>
      </trkpt>
      <trkpt lat="47.28468" lon="-2.36186">
        <ele>11.60000038147</ele>
        <time>2020-07-05T08:22:34.000Z</time>
      </trkpt>
      <trkpt lat="47.28463" lon="-2.3619">
        <ele>11.199999809265</ele>
        <time>2020-07-05T08:22:35.000Z</time>
      </trkpt>
      <trkpt lat="47.2846" lon="-2.36192">
        <ele>10.800000190735</ele>
        <time>2020-07-05T08:22:36.000Z</time>
      </trkpt>
      <trkpt lat="47.28456" lon="-2.36192">
        <ele>10.199999809265</ele>
        <time>2020-07-05T08:22:37.000Z</time>
      </trkpt>
      <trkpt lat="47.28454" lon="-2.36191">
        <ele>9.8000001907349</ele>
        <time>2020-07-05T08:22:38.000Z</time>
      </trkpt>
      <trkpt lat="47.28452" lon="-2.36189">
        <ele>9.3999996185303</ele>
        <time>2020-07-05T08:22:39.000Z</time>
      </trkpt>
      <trkpt lat="47.2845" lon="-2.36187">
        <ele>9</ele>
        <time>2020-07-05T08:22:40.000Z</time>
      </trkpt>
      <trkpt lat="47.28448" lon="-2.36184">
        <ele>8.6000003814697</ele>
        <time>2020-07-05T08:22:41.000Z</time>
      </trkpt>
      <trkpt lat="47.28447" lon="-2.36181">
        <ele>8.1999998092651</ele>
        <time>2020-07-05T08:22:42.000Z</time>
      </trkpt>
      <trkpt lat="47.28446" lon="-2.36178">
        <ele>7.5999999046326</ele>
        <time>2020-07-05T08:22:43.000Z</time>
      </trkpt>
      <trkpt lat="47.28446" lon="-2.36174">
        <ele>7.5999999046326</ele>
        <time>2020-07-05T08:22:44.000Z</time>
      </trkpt>
      <trkpt lat="47.28447" lon="-2.36171">
        <ele>7.5999999046326</ele>
        <time>2020-07-05T08:22:45.000Z</time>
      </trkpt>
      <trkpt lat="47.28447" lon="-2.36156">
        <ele>8</ele>
        <time>2020-07-05T08:22:50.000Z</time>
      </trkpt>
      <trkpt lat="47.28447" lon="-2.36154">
        <ele>8.3999996185303</ele>
        <time>2020-07-05T08:22:51.000Z</time>
      </trkpt>
      <trkpt lat="47.28446" lon="-2.36152">
        <ele>8.8000001907349</ele>
        <time>2020-07-05T08:22:52.000Z</time>
      </trkpt>
      <trkpt lat="47.28445" lon="-2.3615">
        <ele>9.3999996185303</ele>
        <time>2020-07-05T08:22:53.000Z</time>
      </trkpt>
      <trkpt lat="47.28445" lon="-2.36148">
        <ele>9.8000001907349</ele>
        <time>2020-07-05T08:22:54.000Z</time>
      </trkpt>
      <trkpt lat="47.28443" lon="-2.36142">
        <ele>9.8000001907349</ele>
        <time>2020-07-05T08:22:56.000Z</time>
      </trkpt>
      <trkpt lat="47.28441" lon="-2.36135">
        <ele>9.8000001907349</ele>
        <time>2020-07-05T08:22:58.000Z</time>
      </trkpt>
      <trkpt lat="47.28441" lon="-2.36131">
        <ele>10.199999809265</ele>
        <time>2020-07-05T08:22:59.000Z</time>
      </trkpt>
      <trkpt lat="47.2844" lon="-2.36128">
        <ele>10.60000038147</ele>
        <time>2020-07-05T08:23:00.000Z</time>
      </trkpt>
      <trkpt lat="47.28439" lon="-2.36125">
        <ele>11</ele>
        <time>2020-07-05T08:23:01.000Z</time>
      </trkpt>
      <trkpt lat="47.28438" lon="-2.36122">
        <ele>11.39999961853</ele>
        <time>2020-07-05T08:23:02.000Z</time>
      </trkpt>
      <trkpt lat="47.28438" lon="-2.36119">
        <ele>11.800000190735</ele>
        <time>2020-07-05T08:23:03.000Z</time>
      </trkpt>
      <trkpt lat="47.28436" lon="-2.36099">
        <ele>11.800000190735</ele>
        <time>2020-07-05T08:23:09.000Z</time>
      </trkpt>
      <trkpt lat="47.28435" lon="-2.36095">
        <ele>12.199999809265</ele>
        <time>2020-07-05T08:23:10.000Z</time>
      </trkpt>
      <trkpt lat="47.28435" lon="-2.36092">
        <ele>12.60000038147</ele>
        <time>2020-07-05T08:23:11.000Z</time>
      </trkpt>
      <trkpt lat="47.28435" lon="-2.36089">
        <ele>13.60000038147</ele>
        <time>2020-07-05T08:23:12.000Z</time>
      </trkpt>
      <trkpt lat="47.28434" lon="-2.36086">
        <ele>14</ele>
        <time>2020-07-05T08:23:13.000Z</time>
      </trkpt>
      <trkpt lat="47.28434" lon="-2.36076">
        <ele>14</ele>
        <time>2020-07-05T08:23:16.000Z</time>
      </trkpt>
      <trkpt lat="47.28434" lon="-2.36062">
        <ele>14.39999961853</ele>
        <time>2020-07-05T08:23:21.000Z</time>
      </trkpt>
      <trkpt lat="47.28434" lon="-2.36059">
        <ele>14.800000190735</ele>
        <time>2020-07-05T08:23:22.000Z</time>
      </trkpt>
      <trkpt lat="47.28434" lon="-2.36056">
        <ele>15.199999809265</ele>
        <time>2020-07-05T08:23:23.000Z</time>
      </trkpt>
      <trkpt lat="47.28434" lon="-2.36053">
        <ele>15.60000038147</ele>
        <time>2020-07-05T08:23:24.000Z</time>
      </trkpt>
      <trkpt lat="47.28435" lon="-2.3605">
        <ele>16.200000762939</ele>
        <time>2020-07-05T08:23:25.000Z</time>
      </trkpt>
      <trkpt lat="47.28437" lon="-2.36035">
        <ele>16.200000762939</ele>
        <time>2020-07-05T08:23:30.000Z</time>
      </trkpt>
      <trkpt lat="47.28439" lon="-2.36024">
        <ele>16.60000038147</ele>
        <time>2020-07-05T08:23:35.000Z</time>
      </trkpt>
      <trkpt lat="47.28439" lon="-2.36023">
        <ele>17</ele>
        <time>2020-07-05T08:23:36.000Z</time>
      </trkpt>
      <trkpt lat="47.28439" lon="-2.36022">
        <ele>17.799999237061</ele>
        <time>2020-07-05T08:23:37.000Z</time>
      </trkpt>
      <trkpt lat="47.2844" lon="-2.36015">
        <ele>18.200000762939</ele>
        <time>2020-07-05T08:23:42.000Z</time>
      </trkpt>
      <trkpt lat="47.28441" lon="-2.36008">
        <ele>18.200000762939</ele>
        <time>2020-07-05T08:23:44.000Z</time>
      </trkpt>
      <trkpt lat="47.28441" lon="-2.35994">
        <ele>18.200000762939</ele>
        <time>2020-07-05T08:23:47.000Z</time>
      </trkpt>
      <trkpt lat="47.2844" lon="-2.35991">
        <ele>18.200000762939</ele>
        <time>2020-07-05T08:23:48.000Z</time>
      </trkpt>
      <trkpt lat="47.28432" lon="-2.35991">
        <ele>18.200000762939</ele>
        <time>2020-07-05T08:23:52.000Z</time>
      </trkpt>
      <trkpt lat="47.28418" lon="-2.36004">
        <ele>18.200000762939</ele>
        <time>2020-07-05T08:23:58.000Z</time>
      </trkpt>
      <trkpt lat="47.28406" lon="-2.36016">
        <ele>18.200000762939</ele>
        <time>2020-07-05T08:24:04.000Z</time>
      </trkpt>
      <trkpt lat="47.28391" lon="-2.36017">
        <ele>18.200000762939</ele>
        <time>2020-07-05T08:24:09.000Z</time>
      </trkpt>
      <trkpt lat="47.28386" lon="-2.36016">
        <ele>17.799999237061</ele>
        <time>2020-07-05T08:24:10.000Z</time>
      </trkpt>
      <trkpt lat="47.28381" lon="-2.36016">
        <ele>17.200000762939</ele>
        <time>2020-07-05T08:24:11.000Z</time>
      </trkpt>
      <trkpt lat="47.28375" lon="-2.36017">
        <ele>16.799999237061</ele>
        <time>2020-07-05T08:24:12.000Z</time>
      </trkpt>
      <trkpt lat="47.2837" lon="-2.36017">
        <ele>16.39999961853</ele>
        <time>2020-07-05T08:24:13.000Z</time>
      </trkpt>
      <trkpt lat="47.28364" lon="-2.36019">
        <ele>15.800000190735</ele>
        <time>2020-07-05T08:24:14.000Z</time>
      </trkpt>
      <trkpt lat="47.28357" lon="-2.36021">
        <ele>15.199999809265</ele>
        <time>2020-07-05T08:24:15.000Z</time>
      </trkpt>
      <trkpt lat="47.28352" lon="-2.36025">
        <ele>14.60000038147</ele>
        <time>2020-07-05T08:24:16.000Z</time>
      </trkpt>
      <trkpt lat="47.28346" lon="-2.36029">
        <ele>14</ele>
        <time>2020-07-05T08:24:17.000Z</time>
      </trkpt>
      <trkpt lat="47.28341" lon="-2.36034">
        <ele>13.39999961853</ele>
        <time>2020-07-05T08:24:18.000Z</time>
      </trkpt>
      <trkpt lat="47.28335" lon="-2.36038">
        <ele>13</ele>
        <time>2020-07-05T08:24:19.000Z</time>
      </trkpt>
      <trkpt lat="47.2833" lon="-2.36042">
        <ele>12.60000038147</ele>
        <time>2020-07-05T08:24:20.000Z</time>
      </trkpt>
      <trkpt lat="47.28326" lon="-2.36045">
        <ele>12.199999809265</ele>
        <time>2020-07-05T08:24:21.000Z</time>
      </trkpt>
      <trkpt lat="47.28322" lon="-2.36045">
        <ele>11.60000038147</ele>
        <time>2020-07-05T08:24:22.000Z</time>
      </trkpt>
      <trkpt lat="47.28317" lon="-2.36045">
        <ele>11.199999809265</ele>
        <time>2020-07-05T08:24:23.000Z</time>
      </trkpt>
      <trkpt lat="47.28302" lon="-2.36045">
        <ele>11.199999809265</ele>
        <time>2020-07-05T08:24:26.000Z</time>
      </trkpt>
      <trkpt lat="47.28293" lon="-2.3604">
        <ele>10.800000190735</ele>
        <time>2020-07-05T08:24:28.000Z</time>
      </trkpt>
      <trkpt lat="47.28288" lon="-2.36035">
        <ele>10.199999809265</ele>
        <time>2020-07-05T08:24:29.000Z</time>
      </trkpt>
      <trkpt lat="47.28284" lon="-2.3603">
        <ele>9.6000003814697</ele>
        <time>2020-07-05T08:24:30.000Z</time>
      </trkpt>
      <trkpt lat="47.28281" lon="-2.36023">
        <ele>9</ele>
        <time>2020-07-05T08:24:31.000Z</time>
      </trkpt>
      <trkpt lat="47.28279" lon="-2.36017">
        <ele>8.1999998092651</ele>
        <time>2020-07-05T08:24:32.000Z</time>
      </trkpt>
      <trkpt lat="47.28276" lon="-2.36011">
        <ele>7.1999998092651</ele>
        <time>2020-07-05T08:24:33.000Z</time>
      </trkpt>
      <trkpt lat="47.28275" lon="-2.36007">
        <ele>6.4000000953674</ele>
        <time>2020-07-05T08:24:34.000Z</time>
      </trkpt>
      <trkpt lat="47.28272" lon="-2.36004">
        <ele>5.5999999046326</ele>
        <time>2020-07-05T08:24:35.000Z</time>
      </trkpt>
      <trkpt lat="47.2827" lon="-2.36003">
        <ele>4.5999999046326</ele>
        <time>2020-07-05T08:24:36.000Z</time>
      </trkpt>
      <trkpt lat="47.28268" lon="-2.36003">
        <ele>3.7999999523163</ele>
        <time>2020-07-05T08:24:37.000Z</time>
      </trkpt>
      <trkpt lat="47.28266" lon="-2.36006">
        <ele>3</ele>
        <time>2020-07-05T08:24:38.000Z</time>
      </trkpt>
      <trkpt lat="47.28264" lon="-2.36009">
        <ele>2.2000000476837</ele>
        <time>2020-07-05T08:24:39.000Z</time>
      </trkpt>
      <trkpt lat="47.28262" lon="-2.36014">
        <ele>1.2000000476837</ele>
        <time>2020-07-05T08:24:40.000Z</time>
      </trkpt>
      <trkpt lat="47.28255" lon="-2.36031">
        <ele>1.2000000476837</ele>
        <time>2020-07-05T08:24:43.000Z</time>
      </trkpt>
      <trkpt lat="47.28252" lon="-2.36056">
        <ele>1.2000000476837</ele>
        <time>2020-07-05T08:24:48.000Z</time>
      </trkpt>
      <trkpt lat="47.28246" lon="-2.36078">
        <ele>1.6000000238419</ele>
        <time>2020-07-05T08:24:53.000Z</time>
      </trkpt>
      <trkpt lat="47.28245" lon="-2.36082">
        <ele>2</ele>
        <time>2020-07-05T08:24:54.000Z</time>
      </trkpt>
      <trkpt lat="47.28244" lon="-2.36086">
        <ele>2.5999999046326</ele>
        <time>2020-07-05T08:24:55.000Z</time>
      </trkpt>
      <trkpt lat="47.28243" lon="-2.36089">
        <ele>3</ele>
        <time>2020-07-05T08:24:56.000Z</time>
      </trkpt>
      <trkpt lat="47.28242" lon="-2.36093">
        <ele>3.4000000953674</ele>
        <time>2020-07-05T08:24:57.000Z</time>
      </trkpt>
      <trkpt lat="47.28241" lon="-2.36104">
        <ele>3.4000000953674</ele>
        <time>2020-07-05T08:25:00.000Z</time>
      </trkpt>
      <trkpt lat="47.28246" lon="-2.36134">
        <ele>3.4000000953674</ele>
        <time>2020-07-05T08:25:05.000Z</time>
      </trkpt>
      <trkpt lat="47.28249" lon="-2.36143">
        <ele>3.4000000953674</ele>
        <time>2020-07-05T08:25:06.000Z</time>
      </trkpt>
      <trkpt lat="47.28255" lon="-2.36167">
        <ele>3.4000000953674</ele>
        <time>2020-07-05T08:25:09.000Z</time>
      </trkpt>
      <trkpt lat="47.28257" lon="-2.36175">
        <ele>3.4000000953674</ele>
        <time>2020-07-05T08:25:10.000Z</time>
      </trkpt>
      <trkpt lat="47.28266" lon="-2.36206">
        <ele>3</ele>
        <time>2020-07-05T08:25:14.000Z</time>
      </trkpt>
      <trkpt lat="47.28272" lon="-2.36214">
        <ele>2.5999999046326</ele>
        <time>2020-07-05T08:25:15.000Z</time>
      </trkpt>
      <trkpt lat="47.28277" lon="-2.36221">
        <ele>1.6000000238419</ele>
        <time>2020-07-05T08:25:16.000Z</time>
      </trkpt>
      <trkpt lat="47.28282" lon="-2.36225">
        <ele>1.2000000476837</ele>
        <time>2020-07-05T08:25:17.000Z</time>
      </trkpt>
      <trkpt lat="47.28287" lon="-2.36228">
        <ele>1.2000000476837</ele>
        <time>2020-07-05T08:25:18.000Z</time>
      </trkpt>
      <trkpt lat="47.28305" lon="-2.36234">
        <ele>1.2000000476837</ele>
        <time>2020-07-05T08:25:22.000Z</time>
      </trkpt>
      <trkpt lat="47.28321" lon="-2.36239">
        <ele>1.2000000476837</ele>
        <time>2020-07-05T08:25:26.000Z</time>
      </trkpt>
      <trkpt lat="47.28331" lon="-2.36243">
        <ele>1.2000000476837</ele>
        <time>2020-07-05T08:25:28.000Z</time>
      </trkpt>
      <trkpt lat="47.28345" lon="-2.36251">
        <ele>1.2000000476837</ele>
        <time>2020-07-05T08:25:33.000Z</time>
      </trkpt>
      <trkpt lat="47.28347" lon="-2.3626">
        <ele>1.2000000476837</ele>
        <time>2020-07-05T08:25:37.000Z</time>
      </trkpt>
      <trkpt lat="47.28347" lon="-2.36263">
        <ele>1.2000000476837</ele>
        <time>2020-07-05T08:25:38.000Z</time>
      </trkpt>
      <trkpt lat="47.28346" lon="-2.36274">
        <ele>1.2000000476837</ele>
        <time>2020-07-05T08:25:42.000Z</time>
      </trkpt>
      <trkpt lat="47.28346" lon="-2.36277">
        <ele>1.6000000238419</ele>
        <time>2020-07-05T08:25:43.000Z</time>
      </trkpt>
      <trkpt lat="47.28347" lon="-2.3628">
        <ele>2</ele>
        <time>2020-07-05T08:25:44.000Z</time>
      </trkpt>
      <trkpt lat="47.28348" lon="-2.36283">
        <ele>2.4000000953674</ele>
        <time>2020-07-05T08:25:45.000Z</time>
      </trkpt>
      <trkpt lat="47.2835" lon="-2.36287">
        <ele>2.7999999523163</ele>
        <time>2020-07-05T08:25:46.000Z</time>
      </trkpt>
      <trkpt lat="47.28351" lon="-2.3629">
        <ele>3.2000000476837</ele>
        <time>2020-07-05T08:25:47.000Z</time>
      </trkpt>
      <trkpt lat="47.28355" lon="-2.36292">
        <ele>3.2000000476837</ele>
        <time>2020-07-05T08:25:49.000Z</time>
      </trkpt>
      <trkpt lat="47.28363" lon="-2.36297">
        <ele>3.2000000476837</ele>
        <time>2020-07-05T08:25:53.000Z</time>
      </trkpt>
      <trkpt lat="47.28369" lon="-2.36303">
        <ele>3.2000000476837</ele>
        <time>2020-07-05T08:25:55.000Z</time>
      </trkpt>
      <trkpt lat="47.28374" lon="-2.36308">
        <ele>3.5999999046326</ele>
        <time>2020-07-05T08:25:57.000Z</time>
      </trkpt>
      <trkpt lat="47.28377" lon="-2.3631">
        <ele>4</ele>
        <time>2020-07-05T08:25:58.000Z</time>
      </trkpt>
      <trkpt lat="47.2838" lon="-2.36313">
        <ele>4.4000000953674</ele>
        <time>2020-07-05T08:25:59.000Z</time>
      </trkpt>
      <trkpt lat="47.28383" lon="-2.36315">
        <ele>5</ele>
        <time>2020-07-05T08:26:00.000Z</time>
      </trkpt>
      <trkpt lat="47.28386" lon="-2.36318">
        <ele>5.4000000953674</ele>
        <time>2020-07-05T08:26:01.000Z</time>
      </trkpt>
      <trkpt lat="47.28396" lon="-2.36326">
        <ele>5.4000000953674</ele>
        <time>2020-07-05T08:26:04.000Z</time>
      </trkpt>
      <trkpt lat="47.28408" lon="-2.36342">
        <ele>5.4000000953674</ele>
        <time>2020-07-05T08:26:09.000Z</time>
      </trkpt>
      <trkpt lat="47.28423" lon="-2.36354">
        <ele>5.8000001907349</ele>
        <time>2020-07-05T08:26:14.000Z</time>
      </trkpt>
      <trkpt lat="47.28426" lon="-2.36357">
        <ele>6.1999998092651</ele>
        <time>2020-07-05T08:26:15.000Z</time>
      </trkpt>
      <trkpt lat="47.2843" lon="-2.36361">
        <ele>6.5999999046326</ele>
        <time>2020-07-05T08:26:16.000Z</time>
      </trkpt>
      <trkpt lat="47.28434" lon="-2.36366">
        <ele>7</ele>
        <time>2020-07-05T08:26:17.000Z</time>
      </trkpt>
      <trkpt lat="47.28438" lon="-2.3637">
        <ele>7.4000000953674</ele>
        <time>2020-07-05T08:26:18.000Z</time>
      </trkpt>
      <trkpt lat="47.28453" lon="-2.36387">
        <ele>7.4000000953674</ele>
        <time>2020-07-05T08:26:22.000Z</time>
      </trkpt>
      <trkpt lat="47.2846" lon="-2.36399">
        <ele>7.8000001907349</ele>
        <time>2020-07-05T08:26:24.000Z</time>
      </trkpt>
      <trkpt lat="47.28464" lon="-2.36405">
        <ele>8.1999998092651</ele>
        <time>2020-07-05T08:26:25.000Z</time>
      </trkpt>
      <trkpt lat="47.28467" lon="-2.3641">
        <ele>8.8000001907349</ele>
        <time>2020-07-05T08:26:26.000Z</time>
      </trkpt>
      <trkpt lat="47.28471" lon="-2.36414">
        <ele>9.1999998092651</ele>
        <time>2020-07-05T08:26:27.000Z</time>
      </trkpt>
      <trkpt lat="47.28476" lon="-2.36419">
        <ele>9.6000003814697</ele>
        <time>2020-07-05T08:26:28.000Z</time>
      </trkpt>
      <trkpt lat="47.28503" lon="-2.36443">
        <ele>9.6000003814697</ele>
        <time>2020-07-05T08:26:34.000Z</time>
      </trkpt>
      <trkpt lat="47.28518" lon="-2.36468">
        <ele>9.6000003814697</ele>
        <time>2020-07-05T08:26:39.000Z</time>
      </trkpt>
      <trkpt lat="47.28521" lon="-2.36494">
        <ele>9.6000003814697</ele>
        <time>2020-07-05T08:26:43.000Z</time>
      </trkpt>
      <trkpt lat="47.28521" lon="-2.365">
        <ele>9.6000003814697</ele>
        <time>2020-07-05T08:26:44.000Z</time>
      </trkpt>
      <trkpt lat="47.28519" lon="-2.36507">
        <ele>9.6000003814697</ele>
        <time>2020-07-05T08:26:45.000Z</time>
      </trkpt>
      <trkpt lat="47.28513" lon="-2.36516">
        <ele>9.1999998092651</ele>
        <time>2020-07-05T08:26:47.000Z</time>
      </trkpt>
      <trkpt lat="47.28508" lon="-2.3652">
        <ele>8.8000001907349</ele>
        <time>2020-07-05T08:26:48.000Z</time>
      </trkpt>
      <trkpt lat="47.28504" lon="-2.36525">
        <ele>8.3999996185303</ele>
        <time>2020-07-05T08:26:49.000Z</time>
      </trkpt>
      <trkpt lat="47.28499" lon="-2.3653">
        <ele>8</ele>
        <time>2020-07-05T08:26:50.000Z</time>
      </trkpt>
      <trkpt lat="47.28495" lon="-2.36535">
        <ele>7.5999999046326</ele>
        <time>2020-07-05T08:26:51.000Z</time>
      </trkpt>
      <trkpt lat="47.28477" lon="-2.36559">
        <ele>7.5999999046326</ele>
        <time>2020-07-05T08:26:55.000Z</time>
      </trkpt>
      <trkpt lat="47.28474" lon="-2.36567">
        <ele>7.1999998092651</ele>
        <time>2020-07-05T08:26:56.000Z</time>
      </trkpt>
      <trkpt lat="47.28472" lon="-2.36576">
        <ele>6.5999999046326</ele>
        <time>2020-07-05T08:26:57.000Z</time>
      </trkpt>
      <trkpt lat="47.28472" lon="-2.36584">
        <ele>6.1999998092651</ele>
        <time>2020-07-05T08:26:58.000Z</time>
      </trkpt>
      <trkpt lat="47.28474" lon="-2.36593">
        <ele>5.8000001907349</ele>
        <time>2020-07-05T08:26:59.000Z</time>
      </trkpt>
      <trkpt lat="47.28475" lon="-2.366">
        <ele>5.4000000953674</ele>
        <time>2020-07-05T08:27:00.000Z</time>
      </trkpt>
      <trkpt lat="47.28479" lon="-2.36614">
        <ele>5.4000000953674</ele>
        <time>2020-07-05T08:27:02.000Z</time>
      </trkpt>
      <trkpt lat="47.28481" lon="-2.3662">
        <ele>5.4000000953674</ele>
        <time>2020-07-05T08:27:03.000Z</time>
      </trkpt>
      <trkpt lat="47.28485" lon="-2.36632">
        <ele>5.4000000953674</ele>
        <time>2020-07-05T08:27:05.000Z</time>
      </trkpt>
      <trkpt lat="47.2849" lon="-2.36649">
        <ele>5.4000000953674</ele>
        <time>2020-07-05T08:27:08.000Z</time>
      </trkpt>
      <trkpt lat="47.28497" lon="-2.36664">
        <ele>5.4000000953674</ele>
        <time>2020-07-05T08:27:11.000Z</time>
      </trkpt>
      <trkpt lat="47.285" lon="-2.36669">
        <ele>5.4000000953674</ele>
        <time>2020-07-05T08:27:12.000Z</time>
      </trkpt>
      <trkpt lat="47.28507" lon="-2.36678">
        <ele>5.4000000953674</ele>
        <time>2020-07-05T08:27:14.000Z</time>
      </trkpt>
      <trkpt lat="47.2851" lon="-2.36683">
        <ele>5.4000000953674</ele>
        <time>2020-07-05T08:27:15.000Z</time>
      </trkpt>
      <trkpt lat="47.2853" lon="-2.36715">
        <ele>5</ele>
        <time>2020-07-05T08:27:20.000Z</time>
      </trkpt>
      <trkpt lat="47.28535" lon="-2.36724">
        <ele>4.5999999046326</ele>
        <time>2020-07-05T08:27:21.000Z</time>
      </trkpt>
      <trkpt lat="47.2854" lon="-2.36733">
        <ele>4.1999998092651</ele>
        <time>2020-07-05T08:27:22.000Z</time>
      </trkpt>
      <trkpt lat="47.28544" lon="-2.36742">
        <ele>3.7999999523163</ele>
        <time>2020-07-05T08:27:23.000Z</time>
      </trkpt>
      <trkpt lat="47.28549" lon="-2.36751">
        <ele>3.4000000953674</ele>
        <time>2020-07-05T08:27:24.000Z</time>
      </trkpt>
      <trkpt lat="47.28559" lon="-2.36769">
        <ele>3.4000000953674</ele>
        <time>2020-07-05T08:27:26.000Z</time>
      </trkpt>
      <trkpt lat="47.28564" lon="-2.36779">
        <ele>3</ele>
        <time>2020-07-05T08:27:27.000Z</time>
      </trkpt>
      <trkpt lat="47.28569" lon="-2.36789">
        <ele>2.4000000953674</ele>
        <time>2020-07-05T08:27:28.000Z</time>
      </trkpt>
      <trkpt lat="47.28574" lon="-2.36798">
        <ele>2</ele>
        <time>2020-07-05T08:27:29.000Z</time>
      </trkpt>
      <trkpt lat="47.28579" lon="-2.36808">
        <ele>1.6000000238419</ele>
        <time>2020-07-05T08:27:30.000Z</time>
      </trkpt>
      <trkpt lat="47.28584" lon="-2.36818">
        <ele>1</ele>
        <time>2020-07-05T08:27:31.000Z</time>
      </trkpt>
      <trkpt lat="47.28593" lon="-2.36833">
        <ele>1</ele>
        <time>2020-07-05T08:27:33.000Z</time>
      </trkpt>
      <trkpt lat="47.28603" lon="-2.3684">
        <ele>0.60000002384186</ele>
        <time>2020-07-05T08:27:35.000Z</time>
      </trkpt>
      <trkpt lat="47.28609" lon="-2.3684">
        <ele>18.8</ele>
        <time>2020-07-05T08:27:36.000Z</time>
      </trkpt>
      <trkpt lat="47.28615" lon="-2.36838">
        <ele>-0.40000000596046</ele>
        <time>2020-07-05T08:27:37.000Z</time>
      </trkpt>
      <trkpt lat="47.28621" lon="-2.36835">
        <ele>-0.80000001192093</ele>
        <time>2020-07-05T08:27:38.000Z</time>
      </trkpt>
      <trkpt lat="47.28626" lon="-2.36831">
        <ele>-1.3999999761581</ele>
        <time>2020-07-05T08:27:39.000Z</time>
      </trkpt>
      <trkpt lat="47.28634" lon="-2.36821">
        <ele>-1.3999999761581</ele>
        <time>2020-07-05T08:27:41.000Z</time>
      </trkpt>
      <trkpt lat="47.28646" lon="-2.36804">
        <ele>-1.3999999761581</ele>
        <time>2020-07-05T08:27:44.000Z</time>
      </trkpt>
      <trkpt lat="47.2865" lon="-2.36799">
        <ele>-1.3999999761581</ele>
        <time>2020-07-05T08:27:45.000Z</time>
      </trkpt>
      <trkpt lat="47.28663" lon="-2.36786">
        <ele>-1</ele>
        <time>2020-07-05T08:27:48.000Z</time>
      </trkpt>
      <trkpt lat="47.28667" lon="-2.36783">
        <ele>-0.40000000596046</ele>
        <time>2020-07-05T08:27:49.000Z</time>
      </trkpt>
      <trkpt lat="47.2867" lon="-2.3678">
        <ele>23</ele>
        <time>2020-07-05T08:27:50.000Z</time>
      </trkpt>
      <trkpt lat="47.28673" lon="-2.36777">
        <ele>0.40000000596046</ele>
        <time>2020-07-05T08:27:51.000Z</time>
      </trkpt>
      <trkpt lat="47.28675" lon="-2.36775">
        <ele>0.80000001192093</ele>
        <time>2020-07-05T08:27:52.000Z</time>
      </trkpt>
      <trkpt lat="47.28677" lon="-2.36772">
        <ele>0.80000001192093</ele>
        <time>2020-07-05T08:27:53.000Z</time>
      </trkpt>
      <trkpt lat="47.28683" lon="-2.36763">
        <ele>1.3999999761581</ele>
        <time>2020-07-05T08:27:56.000Z</time>
      </trkpt>
      <trkpt lat="47.28686" lon="-2.3676">
        <ele>1.7999999523163</ele>
        <time>2020-07-05T08:27:57.000Z</time>
      </trkpt>
      <trkpt lat="47.28688" lon="-2.36757">
        <ele>2.2000000476837</ele>
        <time>2020-07-05T08:27:58.000Z</time>
      </trkpt>
      <trkpt lat="47.28691" lon="-2.36754">
        <ele>2.5999999046326</ele>
        <time>2020-07-05T08:27:59.000Z</time>
      </trkpt>
      <trkpt lat="47.28693" lon="-2.36751">
        <ele>3.2000000476837</ele>
        <time>2020-07-05T08:28:00.000Z</time>
      </trkpt>
      <trkpt lat="47.28702" lon="-2.36737">
        <ele>3.2000000476837</ele>
        <time>2020-07-05T08:28:04.000Z</time>
      </trkpt>
      <trkpt lat="47.2871" lon="-2.36721">
        <ele>3.5999999046326</ele>
        <time>2020-07-05T08:28:08.000Z</time>
      </trkpt>
      <trkpt lat="47.28712" lon="-2.36717">
        <ele>4.4000000953674</ele>
        <time>2020-07-05T08:28:09.000Z</time>
      </trkpt>
      <trkpt lat="47.28714" lon="-2.36712">
        <ele>4.8000001907349</ele>
        <time>2020-07-05T08:28:10.000Z</time>
      </trkpt>
      <trkpt lat="47.28716" lon="-2.36708">
        <ele>5.1999998092651</ele>
        <time>2020-07-05T08:28:11.000Z</time>
      </trkpt>
      <trkpt lat="47.28724" lon="-2.36689">
        <ele>5.1999998092651</ele>
        <time>2020-07-05T08:28:16.000Z</time>
      </trkpt>
      <trkpt lat="47.28726" lon="-2.36686">
        <ele>5.5999999046326</ele>
        <time>2020-07-05T08:28:17.000Z</time>
      </trkpt>
      <trkpt lat="47.28729" lon="-2.36682">
        <ele>6</ele>
        <time>2020-07-05T08:28:18.000Z</time>
      </trkpt>
      <trkpt lat="47.28731" lon="-2.36679">
        <ele>6.5999999046326</ele>
        <time>2020-07-05T08:28:19.000Z</time>
      </trkpt>
      <trkpt lat="47.28733" lon="-2.36676">
        <ele>7</ele>
        <time>2020-07-05T08:28:20.000Z</time>
      </trkpt>
      <trkpt lat="47.28734" lon="-2.36672">
        <ele>7.4000000953674</ele>
        <time>2020-07-05T08:28:21.000Z</time>
      </trkpt>
      <trkpt lat="47.28736" lon="-2.36668">
        <ele>7.4000000953674</ele>
        <time>2020-07-05T08:28:22.000Z</time>
      </trkpt>
      <trkpt lat="47.28742" lon="-2.36653">
        <ele>7.8000001907349</ele>
        <time>2020-07-05T08:28:26.000Z</time>
      </trkpt>
      <trkpt lat="47.28744" lon="-2.36649">
        <ele>8.1999998092651</ele>
        <time>2020-07-05T08:28:27.000Z</time>
      </trkpt>
      <trkpt lat="47.28746" lon="-2.36645">
        <ele>8.6000003814697</ele>
        <time>2020-07-05T08:28:28.000Z</time>
      </trkpt>
      <trkpt lat="47.28748" lon="-2.36641">
        <ele>9</ele>
        <time>2020-07-05T08:28:29.000Z</time>
      </trkpt>
      <trkpt lat="47.28751" lon="-2.36637">
        <ele>9.6000003814697</ele>
        <time>2020-07-05T08:28:30.000Z</time>
      </trkpt>
      <trkpt lat="47.28764" lon="-2.36614">
        <ele>9.6000003814697</ele>
        <time>2020-07-05T08:28:36.000Z</time>
      </trkpt>
      <trkpt lat="47.28775" lon="-2.36593">
        <ele>9.6000003814697</ele>
        <time>2020-07-05T08:28:42.000Z</time>
      </trkpt>
      <trkpt lat="47.28784" lon="-2.36589">
        <ele>9.6000003814697</ele>
        <time>2020-07-05T08:28:45.000Z</time>
      </trkpt>
      <trkpt lat="47.28787" lon="-2.3659">
        <ele>9.6000003814697</ele>
        <time>2020-07-05T08:28:46.000Z</time>
      </trkpt>
      <trkpt lat="47.28797" lon="-2.36604">
        <ele>9.6000003814697</ele>
        <time>2020-07-05T08:28:50.000Z</time>
      </trkpt>
      <trkpt lat="47.288" lon="-2.36609">
        <ele>9.6000003814697</ele>
        <time>2020-07-05T08:28:51.000Z</time>
      </trkpt>
      <trkpt lat="47.28808" lon="-2.36625">
        <ele>9.6000003814697</ele>
        <time>2020-07-05T08:28:54.000Z</time>
      </trkpt>
      <trkpt lat="47.2881" lon="-2.36632">
        <ele>9.6000003814697</ele>
        <time>2020-07-05T08:28:55.000Z</time>
      </trkpt>
      <trkpt lat="47.28812" lon="-2.36654">
        <ele>8.8000001907349</ele>
        <time>2020-07-05T08:28:59.000Z</time>
      </trkpt>
      <trkpt lat="47.28811" lon="-2.36659">
        <ele>8.3999996185303</ele>
        <time>2020-07-05T08:29:00.000Z</time>
      </trkpt>
      <trkpt lat="47.2881" lon="-2.36665">
        <ele>8</ele>
        <time>2020-07-05T08:29:01.000Z</time>
      </trkpt>
      <trkpt lat="47.28808" lon="-2.36671">
        <ele>7.4000000953674</ele>
        <time>2020-07-05T08:29:02.000Z</time>
      </trkpt>
      <trkpt lat="47.28806" lon="-2.36679">
        <ele>6.8000001907349</ele>
        <time>2020-07-05T08:29:03.000Z</time>
      </trkpt>
      <trkpt lat="47.28804" lon="-2.36687">
        <ele>6.4000000953674</ele>
        <time>2020-07-05T08:29:04.000Z</time>
      </trkpt>
      <trkpt lat="47.28803" lon="-2.36695">
        <ele>5.8000001907349</ele>
        <time>2020-07-05T08:29:05.000Z</time>
      </trkpt>
      <trkpt lat="47.28801" lon="-2.36704">
        <ele>5.4000000953674</ele>
        <time>2020-07-05T08:29:06.000Z</time>
      </trkpt>
      <trkpt lat="47.28799" lon="-2.36712">
        <ele>4.8000001907349</ele>
        <time>2020-07-05T08:29:07.000Z</time>
      </trkpt>
      <trkpt lat="47.28796" lon="-2.36724">
        <ele>4.4000000953674</ele>
        <time>2020-07-05T08:29:08.000Z</time>
      </trkpt>
      <trkpt lat="47.28792" lon="-2.36737">
        <ele>4</ele>
        <time>2020-07-05T08:29:09.000Z</time>
      </trkpt>
      <trkpt lat="47.2879" lon="-2.36748">
        <ele>3.5999999046326</ele>
        <time>2020-07-05T08:29:10.000Z</time>
      </trkpt>
      <trkpt lat="47.28787" lon="-2.3676">
        <ele>3</ele>
        <time>2020-07-05T08:29:11.000Z</time>
      </trkpt>
      <trkpt lat="47.28785" lon="-2.36771">
        <ele>2.4000000953674</ele>
        <time>2020-07-05T08:29:12.000Z</time>
      </trkpt>
      <trkpt lat="47.28783" lon="-2.36782">
        <ele>2</ele>
        <time>2020-07-05T08:29:13.000Z</time>
      </trkpt>
      <trkpt lat="47.28781" lon="-2.36793">
        <ele>1.3999999761581</ele>
        <time>2020-07-05T08:29:14.000Z</time>
      </trkpt>
      <trkpt lat="47.28779" lon="-2.36804">
        <ele>1</ele>
        <time>2020-07-05T08:29:15.000Z</time>
      </trkpt>
      <trkpt lat="47.28778" lon="-2.36815">
        <ele>0.40000000596046</ele>
        <time>2020-07-05T08:29:16.000Z</time>
      </trkpt>
      <trkpt lat="47.28776" lon="-2.36827">
        <ele>15.9</ele>
        <time>2020-07-05T08:29:17.000Z</time>
      </trkpt>
      <trkpt lat="47.28775" lon="-2.36837">
        <ele>-0.60000002384186</ele>
        <time>2020-07-05T08:29:18.000Z</time>
      </trkpt>
      <trkpt lat="47.28774" lon="-2.36847">
        <ele>-1.2000000476837</ele>
        <time>2020-07-05T08:29:19.000Z</time>
      </trkpt>
      <trkpt lat="47.28773" lon="-2.36857">
        <ele>-1.7999999523163</ele>
        <time>2020-07-05T08:29:20.000Z</time>
      </trkpt>
      <trkpt lat="47.28771" lon="-2.36865">
        <ele>-2.5999999046326</ele>
        <time>2020-07-05T08:29:21.000Z</time>
      </trkpt>
      <trkpt lat="47.28769" lon="-2.36873">
        <ele>-3.2000000476837</ele>
        <time>2020-07-05T08:29:22.000Z</time>
      </trkpt>
      <trkpt lat="47.28766" lon="-2.3688">
        <ele>-4.8000001907349</ele>
        <time>2020-07-05T08:29:23.000Z</time>
      </trkpt>
      <trkpt lat="47.28763" lon="-2.36884">
        <ele>-5.5999999046326</ele>
        <time>2020-07-05T08:29:24.000Z</time>
      </trkpt>
      <trkpt lat="47.2876" lon="-2.36888">
        <ele>-6.4000000953674</ele>
        <time>2020-07-05T08:29:25.000Z</time>
      </trkpt>
      <trkpt lat="47.28753" lon="-2.36894">
        <ele>-6.4000000953674</ele>
        <time>2020-07-05T08:29:27.000Z</time>
      </trkpt>
      <trkpt lat="47.28748" lon="-2.36908">
        <ele>-6.4000000953674</ele>
        <time>2020-07-05T08:29:31.000Z</time>
      </trkpt>
      <trkpt lat="47.28748" lon="-2.36915">
        <ele>-6</ele>
        <time>2020-07-05T08:29:33.000Z</time>
      </trkpt>
      <trkpt lat="47.28749" lon="-2.36919">
        <ele>-5.5999999046326</ele>
        <time>2020-07-05T08:29:34.000Z</time>
      </trkpt>
      <trkpt lat="47.2875" lon="-2.36922">
        <ele>-5.1999998092651</ele>
        <time>2020-07-05T08:29:35.000Z</time>
      </trkpt>
      <trkpt lat="47.2875" lon="-2.36925">
        <ele>-4.5999999046326</ele>
        <time>2020-07-05T08:29:36.000Z</time>
      </trkpt>
      <trkpt lat="47.28751" lon="-2.36928">
        <ele>-4.1999998092651</ele>
        <time>2020-07-05T08:29:37.000Z</time>
      </trkpt>
      <trkpt lat="47.28752" lon="-2.36934">
        <ele>-3.7999999523163</ele>
        <time>2020-07-05T08:29:39.000Z</time>
      </trkpt>
      <trkpt lat="47.28752" lon="-2.36938">
        <ele>-3.4000000953674</ele>
        <time>2020-07-05T08:29:40.000Z</time>
      </trkpt>
      <trkpt lat="47.28752" lon="-2.36941">
        <ele>-3</ele>
        <time>2020-07-05T08:29:41.000Z</time>
      </trkpt>
      <trkpt lat="47.28752" lon="-2.36944">
        <ele>-2.5999999046326</ele>
        <time>2020-07-05T08:29:42.000Z</time>
      </trkpt>
      <trkpt lat="47.28753" lon="-2.36946">
        <ele>-2.2000000476837</ele>
        <time>2020-07-05T08:29:43.000Z</time>
      </trkpt>
      <trkpt lat="47.28753" lon="-2.36951">
        <ele>-1.7999999523163</ele>
        <time>2020-07-05T08:29:45.000Z</time>
      </trkpt>
      <trkpt lat="47.28753" lon="-2.36953">
        <ele>-1.2000000476837</ele>
        <time>2020-07-05T08:29:46.000Z</time>
      </trkpt>
      <trkpt lat="47.28753" lon="-2.36955">
        <ele>-0.80000001192093</ele>
        <time>2020-07-05T08:29:47.000Z</time>
      </trkpt>
      <trkpt lat="47.28754" lon="-2.36957">
        <ele>18.8</ele>
        <time>2020-07-05T08:29:48.000Z</time>
      </trkpt>
      <trkpt lat="47.28756" lon="-2.36963">
        <ele>19.1</ele>
        <time>2020-07-05T08:29:50.000Z</time>
      </trkpt>
      <trkpt lat="47.28757" lon="-2.36967">
        <ele>19.1</ele>
        <time>2020-07-05T08:29:51.000Z</time>
      </trkpt>
      <trkpt lat="47.28762" lon="-2.3698">
        <ele>18.7</ele>
        <time>2020-07-05T08:29:57.000Z</time>
      </trkpt>
      <trkpt lat="47.28763" lon="-2.36981">
        <ele>18.5</ele>
        <time>2020-07-05T08:29:58.000Z</time>
      </trkpt>
      <trkpt lat="47.28765" lon="-2.36984">
        <ele>18.4</ele>
        <time>2020-07-05T08:30:00.000Z</time>
      </trkpt>
      <trkpt lat="47.28766" lon="-2.3699">
        <ele>18.7</ele>
        <time>2020-07-05T08:30:02.000Z</time>
      </trkpt>
      <trkpt lat="47.28774" lon="-2.37011">
        <ele>19</ele>
        <time>2020-07-05T08:30:06.000Z</time>
      </trkpt>
      <trkpt lat="47.28783" lon="-2.37035">
        <ele>17.9</ele>
        <time>2020-07-05T08:30:10.000Z</time>
      </trkpt>
      <trkpt lat="47.28785" lon="-2.37042">
        <ele>17.5</ele>
        <time>2020-07-05T08:30:11.000Z</time>
      </trkpt>
      <trkpt lat="47.28789" lon="-2.37067">
        <ele>-0.40000000596046</ele>
        <time>2020-07-05T08:30:14.000Z</time>
      </trkpt>
      <trkpt lat="47.2879" lon="-2.37074">
        <ele>-1</ele>
        <time>2020-07-05T08:30:15.000Z</time>
      </trkpt>
      <trkpt lat="47.28792" lon="-2.3708">
        <ele>-1.3999999761581</ele>
        <time>2020-07-05T08:30:16.000Z</time>
      </trkpt>
      <trkpt lat="47.28794" lon="-2.37083">
        <ele>-1.7999999523163</ele>
        <time>2020-07-05T08:30:17.000Z</time>
      </trkpt>
      <trkpt lat="47.28798" lon="-2.37086">
        <ele>-2.4000000953674</ele>
        <time>2020-07-05T08:30:18.000Z</time>
      </trkpt>
      <trkpt lat="47.28801" lon="-2.37088">
        <ele>-2.7999999523163</ele>
        <time>2020-07-05T08:30:19.000Z</time>
      </trkpt>
      <trkpt lat="47.28805" lon="-2.37089">
        <ele>-3.2000000476837</ele>
        <time>2020-07-05T08:30:20.000Z</time>
      </trkpt>
      <trkpt lat="47.28809" lon="-2.37089">
        <ele>-3.5999999046326</ele>
        <time>2020-07-05T08:30:21.000Z</time>
      </trkpt>
      <trkpt lat="47.28812" lon="-2.37088">
        <ele>-4</ele>
        <time>2020-07-05T08:30:22.000Z</time>
      </trkpt>
      <trkpt lat="47.28816" lon="-2.37086">
        <ele>-4.8000001907349</ele>
        <time>2020-07-05T08:30:23.000Z</time>
      </trkpt>
      <trkpt lat="47.28819" lon="-2.37085">
        <ele>-5.4000000953674</ele>
        <time>2020-07-05T08:30:24.000Z</time>
      </trkpt>
      <trkpt lat="47.28821" lon="-2.37085">
        <ele>-6.1999998092651</ele>
        <time>2020-07-05T08:30:25.000Z</time>
      </trkpt>
      <trkpt lat="47.28824" lon="-2.37084">
        <ele>-6.8000001907349</ele>
        <time>2020-07-05T08:30:26.000Z</time>
      </trkpt>
      <trkpt lat="47.28826" lon="-2.37086">
        <ele>-7.4000000953674</ele>
        <time>2020-07-05T08:30:27.000Z</time>
      </trkpt>
      <trkpt lat="47.28828" lon="-2.37089">
        <ele>-8</ele>
        <time>2020-07-05T08:30:28.000Z</time>
      </trkpt>
      <trkpt lat="47.2883" lon="-2.37091">
        <ele>-8.3999996185303</ele>
        <time>2020-07-05T08:30:29.000Z</time>
      </trkpt>
      <trkpt lat="47.2883" lon="-2.37091">
        <ele>-9</ele>
        <time>2020-07-05T08:30:30.000Z</time>
      </trkpt>
      <trkpt lat="47.2883" lon="-2.37091">
        <ele>-9.6000003814697</ele>
        <time>2020-07-05T08:30:31.000Z</time>
      </trkpt>
      <trkpt lat="47.28825" lon="-2.37092">
        <ele>-7.5999999046326</ele>
        <time>2020-07-05T08:30:41.000Z</time>
      </trkpt>
      <trkpt lat="47.28825" lon="-2.3709">
        <ele>-7.5999999046326</ele>
        <time>2020-07-05T08:30:42.000Z</time>
      </trkpt>
      <trkpt lat="47.28825" lon="-2.37087">
        <ele>-7.8000001907349</ele>
        <time>2020-07-05T08:30:43.000Z</time>
      </trkpt>
      <trkpt lat="47.28824" lon="-2.37084">
        <ele>-7.8000001907349</ele>
        <time>2020-07-05T08:30:44.000Z</time>
      </trkpt>
      <trkpt lat="47.28822" lon="-2.37065">
        <ele>-7.8000001907349</ele>
        <time>2020-07-05T08:30:48.000Z</time>
      </trkpt>
      <trkpt lat="47.2882" lon="-2.37059">
        <ele>-7.8000001907349</ele>
        <time>2020-07-05T08:30:49.000Z</time>
      </trkpt>
      <trkpt lat="47.28812" lon="-2.3704">
        <ele>-7.8000001907349</ele>
        <time>2020-07-05T08:30:52.000Z</time>
      </trkpt>
      <trkpt lat="47.28809" lon="-2.37026">
        <ele>-7.8000001907349</ele>
        <time>2020-07-05T08:30:54.000Z</time>
      </trkpt>
      <trkpt lat="47.28803" lon="-2.37007">
        <ele>-7.8000001907349</ele>
        <time>2020-07-05T08:30:57.000Z</time>
      </trkpt>
      <trkpt lat="47.28801" lon="-2.37001">
        <ele>-7.8000001907349</ele>
        <time>2020-07-05T08:30:58.000Z</time>
      </trkpt>
      <trkpt lat="47.28787" lon="-2.36955">
        <ele>-7.8000001907349</ele>
        <time>2020-07-05T08:31:05.000Z</time>
      </trkpt>
      <trkpt lat="47.28777" lon="-2.36915">
        <ele>-7.8000001907349</ele>
        <time>2020-07-05T08:31:11.000Z</time>
      </trkpt>
      <trkpt lat="47.28768" lon="-2.36903">
        <ele>-7.8000001907349</ele>
        <time>2020-07-05T08:31:15.000Z</time>
      </trkpt>
      <trkpt lat="47.28764" lon="-2.36895">
        <ele>-7.8000001907349</ele>
        <time>2020-07-05T08:31:19.000Z</time>
      </trkpt>
      <trkpt lat="47.28763" lon="-2.3689">
        <ele>-7.8000001907349</ele>
        <time>2020-07-05T08:31:22.000Z</time>
      </trkpt>
      <trkpt lat="47.28763" lon="-2.36876">
        <ele>-7.8000001907349</ele>
        <time>2020-07-05T08:31:26.000Z</time>
      </trkpt>
      <trkpt lat="47.28763" lon="-2.36864">
        <ele>-7.4000000953674</ele>
        <time>2020-07-05T08:31:29.000Z</time>
      </trkpt>
      <trkpt lat="47.28763" lon="-2.3686">
        <ele>-7</ele>
        <time>2020-07-05T08:31:30.000Z</time>
      </trkpt>
      <trkpt lat="47.28764" lon="-2.36857">
        <ele>-6.5999999046326</ele>
        <time>2020-07-05T08:31:31.000Z</time>
      </trkpt>
      <trkpt lat="47.28764" lon="-2.36853">
        <ele>-6</ele>
        <time>2020-07-05T08:31:32.000Z</time>
      </trkpt>
      <trkpt lat="47.28765" lon="-2.36849">
        <ele>-5.5999999046326</ele>
        <time>2020-07-05T08:31:33.000Z</time>
      </trkpt>
      <trkpt lat="47.28768" lon="-2.36832">
        <ele>-5.1999998092651</ele>
        <time>2020-07-05T08:31:37.000Z</time>
      </trkpt>
      <trkpt lat="47.28769" lon="-2.36829">
        <ele>-4.8000001907349</ele>
        <time>2020-07-05T08:31:38.000Z</time>
      </trkpt>
      <trkpt lat="47.28769" lon="-2.36825">
        <ele>-4.4000000953674</ele>
        <time>2020-07-05T08:31:39.000Z</time>
      </trkpt>
      <trkpt lat="47.2877" lon="-2.36821">
        <ele>-4</ele>
        <time>2020-07-05T08:31:40.000Z</time>
      </trkpt>
      <trkpt lat="47.28771" lon="-2.36816">
        <ele>-3.5999999046326</ele>
        <time>2020-07-05T08:31:41.000Z</time>
      </trkpt>
      <trkpt lat="47.28777" lon="-2.36788">
        <ele>-3.5999999046326</ele>
        <time>2020-07-05T08:31:47.000Z</time>
      </trkpt>
      <trkpt lat="47.28778" lon="-2.36783">
        <ele>-3</ele>
        <time>2020-07-05T08:31:48.000Z</time>
      </trkpt>
      <trkpt lat="47.28779" lon="-2.36778">
        <ele>-2.5999999046326</ele>
        <time>2020-07-05T08:31:49.000Z</time>
      </trkpt>
      <trkpt lat="47.2878" lon="-2.36773">
        <ele>-2.2000000476837</ele>
        <time>2020-07-05T08:31:50.000Z</time>
      </trkpt>
      <trkpt lat="47.28781" lon="-2.36769">
        <ele>-1.7999999523163</ele>
        <time>2020-07-05T08:31:51.000Z</time>
      </trkpt>
      <trkpt lat="47.28781" lon="-2.36765">
        <ele>-1.2000000476837</ele>
        <time>2020-07-05T08:31:52.000Z</time>
      </trkpt>
      <trkpt lat="47.28784" lon="-2.36753">
        <ele>-1.2000000476837</ele>
        <time>2020-07-05T08:31:55.000Z</time>
      </trkpt>
      <trkpt lat="47.28789" lon="-2.36733">
        <ele>-1.2000000476837</ele>
        <time>2020-07-05T08:32:01.000Z</time>
      </trkpt>
      <trkpt lat="47.28792" lon="-2.36728">
        <ele>-0.80000001192093</ele>
        <time>2020-07-05T08:32:03.000Z</time>
      </trkpt>
      <trkpt lat="47.28793" lon="-2.36725">
        <ele>-0.40000000596046</ele>
        <time>2020-07-05T08:32:04.000Z</time>
      </trkpt>
      <trkpt lat="47.28794" lon="-2.36722">
        <ele>20.3</ele>
        <time>2020-07-05T08:32:05.000Z</time>
      </trkpt>
      <trkpt lat="47.28795" lon="-2.36719">
        <ele>0.40000000596046</ele>
        <time>2020-07-05T08:32:06.000Z</time>
      </trkpt>
      <trkpt lat="47.28796" lon="-2.36717">
        <ele>0.80000001192093</ele>
        <time>2020-07-05T08:32:07.000Z</time>
      </trkpt>
      <trkpt lat="47.28797" lon="-2.36712">
        <ele>0.80000001192093</ele>
        <time>2020-07-05T08:32:09.000Z</time>
      </trkpt>
      <trkpt lat="47.28799" lon="-2.36707">
        <ele>1.2000000476837</ele>
        <time>2020-07-05T08:32:11.000Z</time>
      </trkpt>
      <trkpt lat="47.288" lon="-2.36704">
        <ele>1.6000000238419</ele>
        <time>2020-07-05T08:32:12.000Z</time>
      </trkpt>
      <trkpt lat="47.28801" lon="-2.36701">
        <ele>2</ele>
        <time>2020-07-05T08:32:13.000Z</time>
      </trkpt>
      <trkpt lat="47.28802" lon="-2.36699">
        <ele>2.4000000953674</ele>
        <time>2020-07-05T08:32:14.000Z</time>
      </trkpt>
      <trkpt lat="47.28803" lon="-2.36697">
        <ele>2.7999999523163</ele>
        <time>2020-07-05T08:32:15.000Z</time>
      </trkpt>
      <trkpt lat="47.28804" lon="-2.36691">
        <ele>2.7999999523163</ele>
        <time>2020-07-05T08:32:17.000Z</time>
      </trkpt>
      <trkpt lat="47.28805" lon="-2.36688">
        <ele>3.2000000476837</ele>
        <time>2020-07-05T08:32:18.000Z</time>
      </trkpt>
      <trkpt lat="47.28806" lon="-2.36685">
        <ele>3.5999999046326</ele>
        <time>2020-07-05T08:32:19.000Z</time>
      </trkpt>
      <trkpt lat="47.28807" lon="-2.36683">
        <ele>4</ele>
        <time>2020-07-05T08:32:20.000Z</time>
      </trkpt>
      <trkpt lat="47.28808" lon="-2.3668">
        <ele>4.5999999046326</ele>
        <time>2020-07-05T08:32:21.000Z</time>
      </trkpt>
      <trkpt lat="47.28809" lon="-2.36678">
        <ele>5</ele>
        <time>2020-07-05T08:32:22.000Z</time>
      </trkpt>
      <trkpt lat="47.28813" lon="-2.3667">
        <ele>5.4000000953674</ele>
        <time>2020-07-05T08:32:25.000Z</time>
      </trkpt>
      <trkpt lat="47.28814" lon="-2.36668">
        <ele>5.8000001907349</ele>
        <time>2020-07-05T08:32:26.000Z</time>
      </trkpt>
      <trkpt lat="47.28815" lon="-2.36665">
        <ele>6.1999998092651</ele>
        <time>2020-07-05T08:32:27.000Z</time>
      </trkpt>
      <trkpt lat="47.28817" lon="-2.36663">
        <ele>6.5999999046326</ele>
        <time>2020-07-05T08:32:28.000Z</time>
      </trkpt>
      <trkpt lat="47.28818" lon="-2.3666">
        <ele>7</ele>
        <time>2020-07-05T08:32:29.000Z</time>
      </trkpt>
      <trkpt lat="47.28823" lon="-2.36653">
        <ele>7</ele>
        <time>2020-07-05T08:32:32.000Z</time>
      </trkpt>
      <trkpt lat="47.28825" lon="-2.3665">
        <ele>7</ele>
        <time>2020-07-05T08:32:35.000Z</time>
      </trkpt>
      <trkpt lat="47.2883" lon="-2.36638">
        <ele>9</ele>
        <time>2020-07-05T08:33:03.000Z</time>
      </trkpt>
      <trkpt lat="47.28831" lon="-2.36635">
        <ele>9</ele>
        <time>2020-07-05T08:33:04.000Z</time>
      </trkpt>
      <trkpt lat="47.28839" lon="-2.36613">
        <ele>9</ele>
        <time>2020-07-05T08:33:09.000Z</time>
      </trkpt>
      <trkpt lat="47.28852" lon="-2.36571">
        <ele>9</ele>
        <time>2020-07-05T08:33:16.000Z</time>
      </trkpt>
      <trkpt lat="47.28855" lon="-2.36557">
        <ele>9</ele>
        <time>2020-07-05T08:33:18.000Z</time>
      </trkpt>
      <trkpt lat="47.28854" lon="-2.36544">
        <ele>9</ele>
        <time>2020-07-05T08:33:20.000Z</time>
      </trkpt>
      <trkpt lat="47.28854" lon="-2.36533">
        <ele>9.3999996185303</ele>
        <time>2020-07-05T08:33:22.000Z</time>
      </trkpt>
      <trkpt lat="47.28854" lon="-2.36527">
        <ele>10</ele>
        <time>2020-07-05T08:33:23.000Z</time>
      </trkpt>
      <trkpt lat="47.28852" lon="-2.36523">
        <ele>10.39999961853</ele>
        <time>2020-07-05T08:33:24.000Z</time>
      </trkpt>
      <trkpt lat="47.28851" lon="-2.36519">
        <ele>10.800000190735</ele>
        <time>2020-07-05T08:33:25.000Z</time>
      </trkpt>
      <trkpt lat="47.2885" lon="-2.36516">
        <ele>11.39999961853</ele>
        <time>2020-07-05T08:33:26.000Z</time>
      </trkpt>
      <trkpt lat="47.28848" lon="-2.36508">
        <ele>11.800000190735</ele>
        <time>2020-07-05T08:33:28.000Z</time>
      </trkpt>
      <trkpt lat="47.28847" lon="-2.36505">
        <ele>12.199999809265</ele>
        <time>2020-07-05T08:33:29.000Z</time>
      </trkpt>
      <trkpt lat="47.28846" lon="-2.36501">
        <ele>12.800000190735</ele>
        <time>2020-07-05T08:33:30.000Z</time>
      </trkpt>
      <trkpt lat="47.28845" lon="-2.36497">
        <ele>13.199999809265</ele>
        <time>2020-07-05T08:33:31.000Z</time>
      </trkpt>
      <trkpt lat="47.28844" lon="-2.36492">
        <ele>13.60000038147</ele>
        <time>2020-07-05T08:33:32.000Z</time>
      </trkpt>
      <trkpt lat="47.28844" lon="-2.36487">
        <ele>13.60000038147</ele>
        <time>2020-07-05T08:33:33.000Z</time>
      </trkpt>
      <trkpt lat="47.28843" lon="-2.36463">
        <ele>14</ele>
        <time>2020-07-05T08:33:38.000Z</time>
      </trkpt>
      <trkpt lat="47.28842" lon="-2.36457">
        <ele>14.39999961853</ele>
        <time>2020-07-05T08:33:39.000Z</time>
      </trkpt>
      <trkpt lat="47.28841" lon="-2.36453">
        <ele>14.800000190735</ele>
        <time>2020-07-05T08:33:40.000Z</time>
      </trkpt>
      <trkpt lat="47.28841" lon="-2.36449">
        <ele>15.199999809265</ele>
        <time>2020-07-05T08:33:41.000Z</time>
      </trkpt>
      <trkpt lat="47.2884" lon="-2.36445">
        <ele>15.60000038147</ele>
        <time>2020-07-05T08:33:42.000Z</time>
      </trkpt>
      <trkpt lat="47.2884" lon="-2.36438">
        <ele>16.200000762939</ele>
        <time>2020-07-05T08:33:44.000Z</time>
      </trkpt>
      <trkpt lat="47.2884" lon="-2.36434">
        <ele>16.60000038147</ele>
        <time>2020-07-05T08:33:45.000Z</time>
      </trkpt>
      <trkpt lat="47.2884" lon="-2.36431">
        <ele>17</ele>
        <time>2020-07-05T08:33:46.000Z</time>
      </trkpt>
      <trkpt lat="47.2884" lon="-2.36428">
        <ele>17.39999961853</ele>
        <time>2020-07-05T08:33:47.000Z</time>
      </trkpt>
      <trkpt lat="47.28839" lon="-2.36425">
        <ele>17.799999237061</ele>
        <time>2020-07-05T08:33:48.000Z</time>
      </trkpt>
      <trkpt lat="47.28839" lon="-2.36423">
        <ele>18.200000762939</ele>
        <time>2020-07-05T08:33:49.000Z</time>
      </trkpt>
      <trkpt lat="47.28838" lon="-2.36421">
        <ele>18.799999237061</ele>
        <time>2020-07-05T08:33:50.000Z</time>
      </trkpt>
      <trkpt lat="47.28837" lon="-2.36419">
        <ele>19.200000762939</ele>
        <time>2020-07-05T08:33:51.000Z</time>
      </trkpt>
      <trkpt lat="47.28836" lon="-2.36418">
        <ele>19.60000038147</ele>
        <time>2020-07-05T08:33:52.000Z</time>
      </trkpt>
      <trkpt lat="47.28835" lon="-2.36417">
        <ele>20.200000762939</ele>
        <time>2020-07-05T08:33:53.000Z</time>
      </trkpt>
      <trkpt lat="47.28834" lon="-2.36416">
        <ele>20.200000762939</ele>
        <time>2020-07-05T08:33:54.000Z</time>
      </trkpt>
      <trkpt lat="47.28832" lon="-2.36416">
        <ele>20.200000762939</ele>
        <time>2020-07-05T08:33:56.000Z</time>
      </trkpt>
      <trkpt lat="47.28828" lon="-2.36416">
        <ele>20.200000762939</ele>
        <time>2020-07-05T08:33:59.000Z</time>
      </trkpt>
      <trkpt lat="47.28814" lon="-2.36417">
        <ele>20.200000762939</ele>
        <time>2020-07-05T08:34:04.000Z</time>
      </trkpt>
      <trkpt lat="47.28813" lon="-2.36416">
        <ele>20.200000762939</ele>
        <time>2020-07-05T08:34:05.000Z</time>
      </trkpt>
      <trkpt lat="47.2881" lon="-2.36415">
        <ele>20.200000762939</ele>
        <time>2020-07-05T08:34:07.000Z</time>
      </trkpt>
      <trkpt lat="47.2881" lon="-2.36419">
        <ele>20.200000762939</ele>
        <time>2020-07-05T08:34:41.000Z</time>
      </trkpt>
      <trkpt lat="47.2881" lon="-2.36421">
        <ele>20.200000762939</ele>
        <time>2020-07-05T08:34:42.000Z</time>
      </trkpt>
      <trkpt lat="47.28811" lon="-2.36424">
        <ele>20.200000762939</ele>
        <time>2020-07-05T08:34:47.000Z</time>
      </trkpt>
      <trkpt lat="47.288" lon="-2.36417">
        <ele>20.200000762939</ele>
        <time>2020-07-05T08:35:19.000Z</time>
      </trkpt>
      <trkpt lat="47.28799" lon="-2.36415">
        <ele>20.200000762939</ele>
        <time>2020-07-05T08:35:20.000Z</time>
      </trkpt>
      <trkpt lat="47.288" lon="-2.36409">
        <ele>20.200000762939</ele>
        <time>2020-07-05T08:35:26.000Z</time>
      </trkpt>
      <trkpt lat="47.288" lon="-2.36409">
        <ele>20.200000762939</ele>
        <time>2020-07-05T08:35:27.000Z</time>
      </trkpt>
      <trkpt lat="47.28805" lon="-2.36401">
        <ele>20.200000762939</ele>
        <time>2020-07-05T08:36:11.000Z</time>
      </trkpt>
      <trkpt lat="47.28808" lon="-2.36392">
        <ele>20.200000762939</ele>
        <time>2020-07-05T08:36:14.000Z</time>
      </trkpt>
      <trkpt lat="47.2881" lon="-2.36388">
        <ele>20.200000762939</ele>
        <time>2020-07-05T08:36:15.000Z</time>
      </trkpt>
      <trkpt lat="47.28818" lon="-2.36364">
        <ele>20.200000762939</ele>
        <time>2020-07-05T08:36:20.000Z</time>
      </trkpt>
      <trkpt lat="47.28833" lon="-2.36338">
        <ele>20.200000762939</ele>
        <time>2020-07-05T08:36:27.000Z</time>
      </trkpt>
      <trkpt lat="47.2884" lon="-2.36328">
        <ele>20.200000762939</ele>
        <time>2020-07-05T08:36:31.000Z</time>
      </trkpt>
      <trkpt lat="47.2884" lon="-2.36327">
        <ele>20.200000762939</ele>
        <time>2020-07-05T08:36:33.000Z</time>
      </trkpt>
      <trkpt lat="47.28843" lon="-2.36324">
        <ele>20.200000762939</ele>
        <time>2020-07-05T08:36:59.000Z</time>
      </trkpt>
      <trkpt lat="47.28845" lon="-2.3632">
        <ele>20.200000762939</ele>
        <time>2020-07-05T08:37:00.000Z</time>
      </trkpt>
      <trkpt lat="47.28855" lon="-2.36308">
        <ele>20.200000762939</ele>
        <time>2020-07-05T08:37:03.000Z</time>
      </trkpt>
      <trkpt lat="47.28859" lon="-2.36305">
        <ele>20.200000762939</ele>
        <time>2020-07-05T08:37:04.000Z</time>
      </trkpt>
      <trkpt lat="47.28878" lon="-2.36298">
        <ele>20.200000762939</ele>
        <time>2020-07-05T08:37:07.000Z</time>
      </trkpt>
      <trkpt lat="47.28885" lon="-2.36296">
        <ele>20.200000762939</ele>
        <time>2020-07-05T08:37:08.000Z</time>
      </trkpt>
      <trkpt lat="47.28915" lon="-2.36282">
        <ele>19.60000038147</ele>
        <time>2020-07-05T08:37:12.000Z</time>
      </trkpt>
      <trkpt lat="47.28923" lon="-2.3628">
        <ele>19.200000762939</ele>
        <time>2020-07-05T08:37:13.000Z</time>
      </trkpt>
      <trkpt lat="47.28931" lon="-2.36277">
        <ele>18.799999237061</ele>
        <time>2020-07-05T08:37:14.000Z</time>
      </trkpt>
      <trkpt lat="47.28938" lon="-2.36274">
        <ele>18.39999961853</ele>
        <time>2020-07-05T08:37:15.000Z</time>
      </trkpt>
      <trkpt lat="47.28946" lon="-2.36271">
        <ele>18</ele>
        <time>2020-07-05T08:37:16.000Z</time>
      </trkpt>
      <trkpt lat="47.28981" lon="-2.36256">
        <ele>18</ele>
        <time>2020-07-05T08:37:21.000Z</time>
      </trkpt>
      <trkpt lat="47.29025" lon="-2.36237">
        <ele>18</ele>
        <time>2020-07-05T08:37:28.000Z</time>
      </trkpt>
      <trkpt lat="47.29033" lon="-2.36235">
        <ele>18</ele>
        <time>2020-07-05T08:37:29.000Z</time>
      </trkpt>
      <trkpt lat="47.29046" lon="-2.36231">
        <ele>18</ele>
        <time>2020-07-05T08:37:31.000Z</time>
      </trkpt>
      <trkpt lat="47.2909" lon="-2.36213">
        <ele>18</ele>
        <time>2020-07-05T08:37:38.000Z</time>
      </trkpt>
      <trkpt lat="47.29132" lon="-2.36194">
        <ele>18</ele>
        <time>2020-07-05T08:37:45.000Z</time>
      </trkpt>
      <trkpt lat="47.29169" lon="-2.36178">
        <ele>18</ele>
        <time>2020-07-05T08:37:51.000Z</time>
      </trkpt>
      <trkpt lat="47.29187" lon="-2.3617">
        <ele>18.60000038147</ele>
        <time>2020-07-05T08:37:54.000Z</time>
      </trkpt>
      <trkpt lat="47.29193" lon="-2.36168">
        <ele>19</ele>
        <time>2020-07-05T08:37:55.000Z</time>
      </trkpt>
      <trkpt lat="47.29199" lon="-2.36165">
        <ele>19.39999961853</ele>
        <time>2020-07-05T08:37:56.000Z</time>
      </trkpt>
      <trkpt lat="47.29206" lon="-2.36162">
        <ele>20</ele>
        <time>2020-07-05T08:37:57.000Z</time>
      </trkpt>
      <trkpt lat="47.29212" lon="-2.36159">
        <ele>20.39999961853</ele>
        <time>2020-07-05T08:37:58.000Z</time>
      </trkpt>
      <trkpt lat="47.29267" lon="-2.36136">
        <ele>20.39999961853</ele>
        <time>2020-07-05T08:38:06.000Z</time>
      </trkpt>
      <trkpt lat="47.29314" lon="-2.36113">
        <ele>20.39999961853</ele>
        <time>2020-07-05T08:38:13.000Z</time>
      </trkpt>
      <trkpt lat="47.29358" lon="-2.36083">
        <ele>20.39999961853</ele>
        <time>2020-07-05T08:38:20.000Z</time>
      </trkpt>
      <trkpt lat="47.29396" lon="-2.3605">
        <ele>20.39999961853</ele>
        <time>2020-07-05T08:38:27.000Z</time>
      </trkpt>
      <trkpt lat="47.29433" lon="-2.3602">
        <ele>20.39999961853</ele>
        <time>2020-07-05T08:38:34.000Z</time>
      </trkpt>
      <trkpt lat="47.29456" lon="-2.35999">
        <ele>20.39999961853</ele>
        <time>2020-07-05T08:38:39.000Z</time>
      </trkpt>
      <trkpt lat="47.29459" lon="-2.35993">
        <ele>20.39999961853</ele>
        <time>2020-07-05T08:38:40.000Z</time>
      </trkpt>
      <trkpt lat="47.29468" lon="-2.35976">
        <ele>20.39999961853</ele>
        <time>2020-07-05T08:38:43.000Z</time>
      </trkpt>
      <trkpt lat="47.29476" lon="-2.35973">
        <ele>20.39999961853</ele>
        <time>2020-07-05T08:38:45.000Z</time>
      </trkpt>
      <trkpt lat="47.29481" lon="-2.35971">
        <ele>20.39999961853</ele>
        <time>2020-07-05T08:38:46.000Z</time>
      </trkpt>
      <trkpt lat="47.29486" lon="-2.35971">
        <ele>20.39999961853</ele>
        <time>2020-07-05T08:38:47.000Z</time>
      </trkpt>
      <trkpt lat="47.29498" lon="-2.3596">
        <ele>20.39999961853</ele>
        <time>2020-07-05T08:38:50.000Z</time>
      </trkpt>
      <trkpt lat="47.29507" lon="-2.35952">
        <ele>20.39999961853</ele>
        <time>2020-07-05T08:38:52.000Z</time>
      </trkpt>
      <trkpt lat="47.29517" lon="-2.35945">
        <ele>20.39999961853</ele>
        <time>2020-07-05T08:38:54.000Z</time>
      </trkpt>
      <trkpt lat="47.29522" lon="-2.35941">
        <ele>20.39999961853</ele>
        <time>2020-07-05T08:38:55.000Z</time>
      </trkpt>
      <trkpt lat="47.29549" lon="-2.35925">
        <ele>20.39999961853</ele>
        <time>2020-07-05T08:39:00.000Z</time>
      </trkpt>
      <trkpt lat="47.29555" lon="-2.35923">
        <ele>20.39999961853</ele>
        <time>2020-07-05T08:39:01.000Z</time>
      </trkpt>
      <trkpt lat="47.29585" lon="-2.35905">
        <ele>20.39999961853</ele>
        <time>2020-07-05T08:39:07.000Z</time>
      </trkpt>
      <trkpt lat="47.29621" lon="-2.35881">
        <ele>20.39999961853</ele>
        <time>2020-07-05T08:39:14.000Z</time>
      </trkpt>
      <trkpt lat="47.29647" lon="-2.35864">
        <ele>20.39999961853</ele>
        <time>2020-07-05T08:39:19.000Z</time>
      </trkpt>
      <trkpt lat="47.29655" lon="-2.35851">
        <ele>20.39999961853</ele>
        <time>2020-07-05T08:39:21.000Z</time>
      </trkpt>
      <trkpt lat="47.29671" lon="-2.35835">
        <ele>20.39999961853</ele>
        <time>2020-07-05T08:39:25.000Z</time>
      </trkpt>
      <trkpt lat="47.29694" lon="-2.35837">
        <ele>20.39999961853</ele>
        <time>2020-07-05T08:39:29.000Z</time>
      </trkpt>
      <trkpt lat="47.297" lon="-2.35835">
        <ele>20.39999961853</ele>
        <time>2020-07-05T08:39:30.000Z</time>
      </trkpt>
      <trkpt lat="47.2973" lon="-2.35818">
        <ele>20.39999961853</ele>
        <time>2020-07-05T08:39:35.000Z</time>
      </trkpt>
      <trkpt lat="47.29752" lon="-2.35807">
        <ele>20.799999237061</ele>
        <time>2020-07-05T08:39:39.000Z</time>
      </trkpt>
      <trkpt lat="47.29758" lon="-2.35804">
        <ele>21.39999961853</ele>
        <time>2020-07-05T08:39:40.000Z</time>
      </trkpt>
      <trkpt lat="47.29764" lon="-2.358">
        <ele>21.799999237061</ele>
        <time>2020-07-05T08:39:41.000Z</time>
      </trkpt>
      <trkpt lat="47.29769" lon="-2.35798">
        <ele>22.200000762939</ele>
        <time>2020-07-05T08:39:42.000Z</time>
      </trkpt>
      <trkpt lat="47.29775" lon="-2.35796">
        <ele>22.799999237061</ele>
        <time>2020-07-05T08:39:43.000Z</time>
      </trkpt>
      <trkpt lat="47.29787" lon="-2.35793">
        <ele>23.200000762939</ele>
        <time>2020-07-05T08:39:45.000Z</time>
      </trkpt>
      <trkpt lat="47.29792" lon="-2.35791">
        <ele>23.60000038147</ele>
        <time>2020-07-05T08:39:46.000Z</time>
      </trkpt>
      <trkpt lat="47.29797" lon="-2.35789">
        <ele>24</ele>
        <time>2020-07-05T08:39:47.000Z</time>
      </trkpt>
      <trkpt lat="47.29803" lon="-2.35787">
        <ele>24.39999961853</ele>
        <time>2020-07-05T08:39:48.000Z</time>
      </trkpt>
      <trkpt lat="47.29809" lon="-2.35785">
        <ele>24.799999237061</ele>
        <time>2020-07-05T08:39:49.000Z</time>
      </trkpt>
      <trkpt lat="47.2984" lon="-2.35775">
        <ele>24.799999237061</ele>
        <time>2020-07-05T08:39:54.000Z</time>
      </trkpt>
      <trkpt lat="47.29878" lon="-2.35763">
        <ele>24.200000762939</ele>
        <time>2020-07-05T08:39:59.000Z</time>
      </trkpt>
      <trkpt lat="47.29885" lon="-2.35761">
        <ele>23.799999237061</ele>
        <time>2020-07-05T08:40:00.000Z</time>
      </trkpt>
      <trkpt lat="47.29892" lon="-2.35759">
        <ele>23.39999961853</ele>
        <time>2020-07-05T08:40:01.000Z</time>
      </trkpt>
      <trkpt lat="47.29897" lon="-2.35757">
        <ele>23</ele>
        <time>2020-07-05T08:40:02.000Z</time>
      </trkpt>
      <trkpt lat="47.299" lon="-2.35751">
        <ele>22.39999961853</ele>
        <time>2020-07-05T08:40:03.000Z</time>
      </trkpt>
      <trkpt lat="47.29898" lon="-2.35736">
        <ele>22.39999961853</ele>
        <time>2020-07-05T08:40:05.000Z</time>
      </trkpt>
      <trkpt lat="47.29891" lon="-2.35713">
        <ele>22.39999961853</ele>
        <time>2020-07-05T08:40:08.000Z</time>
      </trkpt>
      <trkpt lat="47.2989" lon="-2.35705">
        <ele>22.39999961853</ele>
        <time>2020-07-05T08:40:09.000Z</time>
      </trkpt>
      <trkpt lat="47.29888" lon="-2.35697">
        <ele>22.39999961853</ele>
        <time>2020-07-05T08:40:10.000Z</time>
      </trkpt>
      <trkpt lat="47.29878" lon="-2.35655">
        <ele>22.39999961853</ele>
        <time>2020-07-05T08:40:15.000Z</time>
      </trkpt>
      <trkpt lat="47.29876" lon="-2.35646">
        <ele>22.39999961853</ele>
        <time>2020-07-05T08:40:16.000Z</time>
      </trkpt>
      <trkpt lat="47.29875" lon="-2.35638">
        <ele>22.39999961853</ele>
        <time>2020-07-05T08:40:17.000Z</time>
      </trkpt>
      <trkpt lat="47.29865" lon="-2.35596">
        <ele>22.39999961853</ele>
        <time>2020-07-05T08:40:22.000Z</time>
      </trkpt>
      <trkpt lat="47.29843" lon="-2.35519">
        <ele>22.39999961853</ele>
        <time>2020-07-05T08:40:31.000Z</time>
      </trkpt>
      <trkpt lat="47.29841" lon="-2.3551">
        <ele>22.39999961853</ele>
        <time>2020-07-05T08:40:32.000Z</time>
      </trkpt>
      <trkpt lat="47.29833" lon="-2.35484">
        <ele>22</ele>
        <time>2020-07-05T08:40:35.000Z</time>
      </trkpt>
      <trkpt lat="47.2983" lon="-2.35476">
        <ele>21.60000038147</ele>
        <time>2020-07-05T08:40:36.000Z</time>
      </trkpt>
      <trkpt lat="47.29829" lon="-2.35468">
        <ele>21.200000762939</ele>
        <time>2020-07-05T08:40:37.000Z</time>
      </trkpt>
      <trkpt lat="47.29829" lon="-2.3546">
        <ele>20.799999237061</ele>
        <time>2020-07-05T08:40:38.000Z</time>
      </trkpt>
      <trkpt lat="47.29831" lon="-2.35453">
        <ele>20.39999961853</ele>
        <time>2020-07-05T08:40:39.000Z</time>
      </trkpt>
      <trkpt lat="47.2984" lon="-2.35441">
        <ele>20.39999961853</ele>
        <time>2020-07-05T08:40:41.000Z</time>
      </trkpt>
      <trkpt lat="47.29845" lon="-2.35435">
        <ele>20.39999961853</ele>
        <time>2020-07-05T08:40:42.000Z</time>
      </trkpt>
      <trkpt lat="47.29879" lon="-2.35399">
        <ele>20.39999961853</ele>
        <time>2020-07-05T08:40:49.000Z</time>
      </trkpt>
      <trkpt lat="47.299" lon="-2.35376">
        <ele>19.799999237061</ele>
        <time>2020-07-05T08:40:53.000Z</time>
      </trkpt>
      <trkpt lat="47.29905" lon="-2.3537">
        <ele>19.39999961853</ele>
        <time>2020-07-05T08:40:54.000Z</time>
      </trkpt>
      <trkpt lat="47.29911" lon="-2.35364">
        <ele>19</ele>
        <time>2020-07-05T08:40:55.000Z</time>
      </trkpt>
      <trkpt lat="47.29916" lon="-2.35359">
        <ele>18.60000038147</ele>
        <time>2020-07-05T08:40:56.000Z</time>
      </trkpt>
      <trkpt lat="47.2992" lon="-2.35353">
        <ele>18.200000762939</ele>
        <time>2020-07-05T08:40:57.000Z</time>
      </trkpt>
      <trkpt lat="47.29943" lon="-2.35324">
        <ele>18.200000762939</ele>
        <time>2020-07-05T08:41:02.000Z</time>
      </trkpt>
      <trkpt lat="47.29966" lon="-2.35293">
        <ele>18.200000762939</ele>
        <time>2020-07-05T08:41:07.000Z</time>
      </trkpt>
      <trkpt lat="47.29975" lon="-2.35282">
        <ele>18.200000762939</ele>
        <time>2020-07-05T08:41:09.000Z</time>
      </trkpt>
      <trkpt lat="47.29999" lon="-2.35256">
        <ele>18.200000762939</ele>
        <time>2020-07-05T08:41:15.000Z</time>
      </trkpt>
      <trkpt lat="47.30009" lon="-2.35253">
        <ele>18.200000762939</ele>
        <time>2020-07-05T08:41:19.000Z</time>
      </trkpt>
      <trkpt lat="47.30013" lon="-2.35252">
        <ele>18.200000762939</ele>
        <time>2020-07-05T08:41:23.000Z</time>
      </trkpt>
      <trkpt lat="47.30013" lon="-2.35252">
        <ele>18.200000762939</ele>
        <time>2020-07-05T08:41:24.000Z</time>
      </trkpt>
      <trkpt lat="47.30015" lon="-2.3525">
        <ele>18.200000762939</ele>
        <time>2020-07-05T08:41:27.000Z</time>
      </trkpt>
      <trkpt lat="47.30018" lon="-2.35246">
        <ele>18.200000762939</ele>
        <time>2020-07-05T08:41:29.000Z</time>
      </trkpt>
      <trkpt lat="47.30023" lon="-2.35245">
        <ele>18.200000762939</ele>
        <time>2020-07-05T08:41:32.000Z</time>
      </trkpt>
      <trkpt lat="47.30026" lon="-2.35243">
        <ele>18.200000762939</ele>
        <time>2020-07-05T08:41:34.000Z</time>
      </trkpt>
      <trkpt lat="47.30036" lon="-2.35237">
        <ele>18.200000762939</ele>
        <time>2020-07-05T08:41:37.000Z</time>
      </trkpt>
      <trkpt lat="47.30039" lon="-2.35235">
        <ele>18.200000762939</ele>
        <time>2020-07-05T08:41:38.000Z</time>
      </trkpt>
      <trkpt lat="47.30069" lon="-2.35218">
        <ele>18.200000762939</ele>
        <time>2020-07-05T08:41:46.000Z</time>
      </trkpt>
      <trkpt lat="47.30085" lon="-2.35212">
        <ele>18.200000762939</ele>
        <time>2020-07-05T08:41:50.000Z</time>
      </trkpt>
      <trkpt lat="47.30105" lon="-2.35203">
        <ele>18.200000762939</ele>
        <time>2020-07-05T08:41:54.000Z</time>
      </trkpt>
      <trkpt lat="47.30116" lon="-2.35197">
        <ele>18.200000762939</ele>
        <time>2020-07-05T08:41:56.000Z</time>
      </trkpt>
      <trkpt lat="47.30121" lon="-2.35196">
        <ele>18.200000762939</ele>
        <time>2020-07-05T08:41:57.000Z</time>
      </trkpt>
      <trkpt lat="47.30137" lon="-2.35192">
        <ele>18.200000762939</ele>
        <time>2020-07-05T08:42:00.000Z</time>
      </trkpt>
      <trkpt lat="47.30142" lon="-2.35192">
        <ele>18.200000762939</ele>
        <time>2020-07-05T08:42:01.000Z</time>
      </trkpt>
      <trkpt lat="47.30156" lon="-2.35181">
        <ele>18.200000762939</ele>
        <time>2020-07-05T08:42:04.000Z</time>
      </trkpt>
      <trkpt lat="47.30161" lon="-2.35178">
        <ele>18.200000762939</ele>
        <time>2020-07-05T08:42:05.000Z</time>
      </trkpt>
      <trkpt lat="47.30183" lon="-2.35174">
        <ele>18.200000762939</ele>
        <time>2020-07-05T08:42:09.000Z</time>
      </trkpt>
      <trkpt lat="47.30188" lon="-2.3517">
        <ele>18.200000762939</ele>
        <time>2020-07-05T08:42:10.000Z</time>
      </trkpt>
      <trkpt lat="47.30198" lon="-2.35161">
        <ele>18.200000762939</ele>
        <time>2020-07-05T08:42:12.000Z</time>
      </trkpt>
      <trkpt lat="47.30202" lon="-2.35139">
        <ele>18.200000762939</ele>
        <time>2020-07-05T08:42:15.000Z</time>
      </trkpt>
      <trkpt lat="47.30202" lon="-2.35131">
        <ele>18.200000762939</ele>
        <time>2020-07-05T08:42:16.000Z</time>
      </trkpt>
      <trkpt lat="47.30204" lon="-2.35109">
        <ele>18.200000762939</ele>
        <time>2020-07-05T08:42:19.000Z</time>
      </trkpt>
      <trkpt lat="47.30205" lon="-2.35087">
        <ele>18.200000762939</ele>
        <time>2020-07-05T08:42:22.000Z</time>
      </trkpt>
      <trkpt lat="47.30206" lon="-2.35051">
        <ele>18.200000762939</ele>
        <time>2020-07-05T08:42:27.000Z</time>
      </trkpt>
      <trkpt lat="47.30206" lon="-2.35045">
        <ele>18.200000762939</ele>
        <time>2020-07-05T08:42:28.000Z</time>
      </trkpt>
      <trkpt lat="47.30206" lon="-2.35039">
        <ele>18.60000038147</ele>
        <time>2020-07-05T08:42:29.000Z</time>
      </trkpt>
      <trkpt lat="47.30206" lon="-2.35033">
        <ele>19</ele>
        <time>2020-07-05T08:42:30.000Z</time>
      </trkpt>
      <trkpt lat="47.30206" lon="-2.35028">
        <ele>19.39999961853</ele>
        <time>2020-07-05T08:42:31.000Z</time>
      </trkpt>
      <trkpt lat="47.30206" lon="-2.35022">
        <ele>19.799999237061</ele>
        <time>2020-07-05T08:42:32.000Z</time>
      </trkpt>
      <trkpt lat="47.30206" lon="-2.35017">
        <ele>20.200000762939</ele>
        <time>2020-07-05T08:42:33.000Z</time>
      </trkpt>
      <trkpt lat="47.30205" lon="-2.34991">
        <ele>20.200000762939</ele>
        <time>2020-07-05T08:42:38.000Z</time>
      </trkpt>
      <trkpt lat="47.30207" lon="-2.34956">
        <ele>20.200000762939</ele>
        <time>2020-07-05T08:42:44.000Z</time>
      </trkpt>
      <trkpt lat="47.30207" lon="-2.34931">
        <ele>20.200000762939</ele>
        <time>2020-07-05T08:42:48.000Z</time>
      </trkpt>
      <trkpt lat="47.30207" lon="-2.34925">
        <ele>20.60000038147</ele>
        <time>2020-07-05T08:42:49.000Z</time>
      </trkpt>
      <trkpt lat="47.30207" lon="-2.3492">
        <ele>21</ele>
        <time>2020-07-05T08:42:50.000Z</time>
      </trkpt>
      <trkpt lat="47.30208" lon="-2.34914">
        <ele>21.39999961853</ele>
        <time>2020-07-05T08:42:51.000Z</time>
      </trkpt>
      <trkpt lat="47.30209" lon="-2.34908">
        <ele>21.799999237061</ele>
        <time>2020-07-05T08:42:52.000Z</time>
      </trkpt>
      <trkpt lat="47.3021" lon="-2.34903">
        <ele>22.200000762939</ele>
        <time>2020-07-05T08:42:53.000Z</time>
      </trkpt>
      <trkpt lat="47.30211" lon="-2.349">
        <ele>22.200000762939</ele>
        <time>2020-07-05T08:42:54.000Z</time>
      </trkpt>
      <trkpt lat="47.3022" lon="-2.34889">
        <ele>22.200000762939</ele>
        <time>2020-07-05T08:42:57.000Z</time>
      </trkpt>
      <trkpt lat="47.30223" lon="-2.34885">
        <ele>22.200000762939</ele>
        <time>2020-07-05T08:42:58.000Z</time>
      </trkpt>
      <trkpt lat="47.30228" lon="-2.34881">
        <ele>22.200000762939</ele>
        <time>2020-07-05T08:42:59.000Z</time>
      </trkpt>
      <trkpt lat="47.30243" lon="-2.34873">
        <ele>22.200000762939</ele>
        <time>2020-07-05T08:43:02.000Z</time>
      </trkpt>
      <trkpt lat="47.30269" lon="-2.34859">
        <ele>22.200000762939</ele>
        <time>2020-07-05T08:43:08.000Z</time>
      </trkpt>
      <trkpt lat="47.30286" lon="-2.34847">
        <ele>22.200000762939</ele>
        <time>2020-07-05T08:43:12.000Z</time>
      </trkpt>
      <trkpt lat="47.3029" lon="-2.34843">
        <ele>22.200000762939</ele>
        <time>2020-07-05T08:43:13.000Z</time>
      </trkpt>
      <trkpt lat="47.3031" lon="-2.34813">
        <ele>22.200000762939</ele>
        <time>2020-07-05T08:43:19.000Z</time>
      </trkpt>
      <trkpt lat="47.30326" lon="-2.34782">
        <ele>22.200000762939</ele>
        <time>2020-07-05T08:43:25.000Z</time>
      </trkpt>
      <trkpt lat="47.30329" lon="-2.34777">
        <ele>23.200000762939</ele>
        <time>2020-07-05T08:43:26.000Z</time>
      </trkpt>
      <trkpt lat="47.30333" lon="-2.34774">
        <ele>23.60000038147</ele>
        <time>2020-07-05T08:43:27.000Z</time>
      </trkpt>
      <trkpt lat="47.30337" lon="-2.3477">
        <ele>24</ele>
        <time>2020-07-05T08:43:28.000Z</time>
      </trkpt>
      <trkpt lat="47.3034" lon="-2.34767">
        <ele>24.39999961853</ele>
        <time>2020-07-05T08:43:29.000Z</time>
      </trkpt>
      <trkpt lat="47.30345" lon="-2.34764">
        <ele>24.39999961853</ele>
        <time>2020-07-05T08:43:30.000Z</time>
      </trkpt>
      <trkpt lat="47.30371" lon="-2.34746">
        <ele>24.39999961853</ele>
        <time>2020-07-05T08:43:36.000Z</time>
      </trkpt>
      <trkpt lat="47.30376" lon="-2.34744">
        <ele>24.39999961853</ele>
        <time>2020-07-05T08:43:37.000Z</time>
      </trkpt>
      <trkpt lat="47.30385" lon="-2.34738">
        <ele>24.39999961853</ele>
        <time>2020-07-05T08:43:39.000Z</time>
      </trkpt>
      <trkpt lat="47.30394" lon="-2.34732">
        <ele>24.39999961853</ele>
        <time>2020-07-05T08:43:41.000Z</time>
      </trkpt>
      <trkpt lat="47.30417" lon="-2.34712">
        <ele>24.39999961853</ele>
        <time>2020-07-05T08:43:46.000Z</time>
      </trkpt>
      <trkpt lat="47.30432" lon="-2.347">
        <ele>24.39999961853</ele>
        <time>2020-07-05T08:43:49.000Z</time>
      </trkpt>
      <trkpt lat="47.30442" lon="-2.34691">
        <ele>24.39999961853</ele>
        <time>2020-07-05T08:43:51.000Z</time>
      </trkpt>
      <trkpt lat="47.30452" lon="-2.34682">
        <ele>24.39999961853</ele>
        <time>2020-07-05T08:43:53.000Z</time>
      </trkpt>
      <trkpt lat="47.30469" lon="-2.34666">
        <ele>24.39999961853</ele>
        <time>2020-07-05T08:43:56.000Z</time>
      </trkpt>
      <trkpt lat="47.30484" lon="-2.34645">
        <ele>24.39999961853</ele>
        <time>2020-07-05T08:44:00.000Z</time>
      </trkpt>
      <trkpt lat="47.30487" lon="-2.3464">
        <ele>24.39999961853</ele>
        <time>2020-07-05T08:44:01.000Z</time>
      </trkpt>
      <trkpt lat="47.30506" lon="-2.34611">
        <ele>24.39999961853</ele>
        <time>2020-07-05T08:44:07.000Z</time>
      </trkpt>
      <trkpt lat="47.30524" lon="-2.34587">
        <ele>24.39999961853</ele>
        <time>2020-07-05T08:44:11.000Z</time>
      </trkpt>
      <trkpt lat="47.30532" lon="-2.34574">
        <ele>24.39999961853</ele>
        <time>2020-07-05T08:44:13.000Z</time>
      </trkpt>
      <trkpt lat="47.30546" lon="-2.34554">
        <ele>24.39999961853</ele>
        <time>2020-07-05T08:44:18.000Z</time>
      </trkpt>
      <trkpt lat="47.3055" lon="-2.34549">
        <ele>24.39999961853</ele>
        <time>2020-07-05T08:44:22.000Z</time>
      </trkpt>
      <trkpt lat="47.30558" lon="-2.34537">
        <ele>24.39999961853</ele>
        <time>2020-07-05T08:44:28.000Z</time>
      </trkpt>
      <trkpt lat="47.30559" lon="-2.34535">
        <ele>24.39999961853</ele>
        <time>2020-07-05T08:44:29.000Z</time>
      </trkpt>
      <trkpt lat="47.30555" lon="-2.34526">
        <ele>24.39999961853</ele>
        <time>2020-07-05T08:44:34.000Z</time>
      </trkpt>
      <trkpt lat="47.30546" lon="-2.34509">
        <ele>24.39999961853</ele>
        <time>2020-07-05T08:44:39.000Z</time>
      </trkpt>
      <trkpt lat="47.30539" lon="-2.34497">
        <ele>24.39999961853</ele>
        <time>2020-07-05T08:44:42.000Z</time>
      </trkpt>
      <trkpt lat="47.30534" lon="-2.3449">
        <ele>24.39999961853</ele>
        <time>2020-07-05T08:44:44.000Z</time>
      </trkpt>
      <trkpt lat="47.30521" lon="-2.34482">
        <ele>24.39999961853</ele>
        <time>2020-07-05T08:44:48.000Z</time>
      </trkpt>
      <trkpt lat="47.30518" lon="-2.34475">
        <ele>24.39999961853</ele>
        <time>2020-07-05T08:44:50.000Z</time>
      </trkpt>
      <trkpt lat="47.30515" lon="-2.34465">
        <ele>24.39999961853</ele>
        <time>2020-07-05T08:44:52.000Z</time>
      </trkpt>
      <trkpt lat="47.30509" lon="-2.34425">
        <ele>24.39999961853</ele>
        <time>2020-07-05T08:44:59.000Z</time>
      </trkpt>
      <trkpt lat="47.30513" lon="-2.34398">
        <ele>24.39999961853</ele>
        <time>2020-07-05T08:45:03.000Z</time>
      </trkpt>
      <trkpt lat="47.30515" lon="-2.3436">
        <ele>24.39999961853</ele>
        <time>2020-07-05T08:45:09.000Z</time>
      </trkpt>
      <trkpt lat="47.30511" lon="-2.34326">
        <ele>24.39999961853</ele>
        <time>2020-07-05T08:45:15.000Z</time>
      </trkpt>
      <trkpt lat="47.305" lon="-2.34285">
        <ele>24.39999961853</ele>
        <time>2020-07-05T08:45:22.000Z</time>
      </trkpt>
      <trkpt lat="47.30497" lon="-2.34257">
        <ele>24.39999961853</ele>
        <time>2020-07-05T08:45:27.000Z</time>
      </trkpt>
      <trkpt lat="47.30504" lon="-2.34229">
        <ele>24.39999961853</ele>
        <time>2020-07-05T08:45:32.000Z</time>
      </trkpt>
      <trkpt lat="47.30512" lon="-2.34207">
        <ele>24.39999961853</ele>
        <time>2020-07-05T08:45:35.000Z</time>
      </trkpt>
      <trkpt lat="47.30518" lon="-2.34197">
        <ele>24.39999961853</ele>
        <time>2020-07-05T08:45:37.000Z</time>
      </trkpt>
      <trkpt lat="47.30534" lon="-2.34181">
        <ele>24.39999961853</ele>
        <time>2020-07-05T08:45:42.000Z</time>
      </trkpt>
      <trkpt lat="47.30547" lon="-2.34166">
        <ele>24.39999961853</ele>
        <time>2020-07-05T08:45:45.000Z</time>
      </trkpt>
      <trkpt lat="47.30551" lon="-2.34158">
        <ele>24.39999961853</ele>
        <time>2020-07-05T08:45:46.000Z</time>
      </trkpt>
      <trkpt lat="47.3056" lon="-2.34148">
        <ele>24.39999961853</ele>
        <time>2020-07-05T08:45:48.000Z</time>
      </trkpt>
      <trkpt lat="47.3057" lon="-2.34136">
        <ele>24.39999961853</ele>
        <time>2020-07-05T08:45:50.000Z</time>
      </trkpt>
      <trkpt lat="47.30574" lon="-2.34131">
        <ele>24.39999961853</ele>
        <time>2020-07-05T08:45:51.000Z</time>
      </trkpt>
      <trkpt lat="47.30583" lon="-2.34113">
        <ele>24.39999961853</ele>
        <time>2020-07-05T08:45:54.000Z</time>
      </trkpt>
      <trkpt lat="47.30589" lon="-2.34101">
        <ele>24</ele>
        <time>2020-07-05T08:45:56.000Z</time>
      </trkpt>
      <trkpt lat="47.30592" lon="-2.34096">
        <ele>23.60000038147</ele>
        <time>2020-07-05T08:45:57.000Z</time>
      </trkpt>
      <trkpt lat="47.30594" lon="-2.34091">
        <ele>23.200000762939</ele>
        <time>2020-07-05T08:45:58.000Z</time>
      </trkpt>
      <trkpt lat="47.30596" lon="-2.34086">
        <ele>22.799999237061</ele>
        <time>2020-07-05T08:45:59.000Z</time>
      </trkpt>
      <trkpt lat="47.30599" lon="-2.34082">
        <ele>22.39999961853</ele>
        <time>2020-07-05T08:46:00.000Z</time>
      </trkpt>
      <trkpt lat="47.30604" lon="-2.34076">
        <ele>22.39999961853</ele>
        <time>2020-07-05T08:46:02.000Z</time>
      </trkpt>
      <trkpt lat="47.30632" lon="-2.34058">
        <ele>22.39999961853</ele>
        <time>2020-07-05T08:46:09.000Z</time>
      </trkpt>
      <trkpt lat="47.30644" lon="-2.34052">
        <ele>22.39999961853</ele>
        <time>2020-07-05T08:46:12.000Z</time>
      </trkpt>
      <trkpt lat="47.30651" lon="-2.34047">
        <ele>22.39999961853</ele>
        <time>2020-07-05T08:46:14.000Z</time>
      </trkpt>
      <trkpt lat="47.3066" lon="-2.34039">
        <ele>22.39999961853</ele>
        <time>2020-07-05T08:46:16.000Z</time>
      </trkpt>
      <trkpt lat="47.30671" lon="-2.34027">
        <ele>22.39999961853</ele>
        <time>2020-07-05T08:46:19.000Z</time>
      </trkpt>
      <trkpt lat="47.30675" lon="-2.34025">
        <ele>22.39999961853</ele>
        <time>2020-07-05T08:46:20.000Z</time>
      </trkpt>
      <trkpt lat="47.30684" lon="-2.3402">
        <ele>22.39999961853</ele>
        <time>2020-07-05T08:46:22.000Z</time>
      </trkpt>
      <trkpt lat="47.30688" lon="-2.34019">
        <ele>22.39999961853</ele>
        <time>2020-07-05T08:46:23.000Z</time>
      </trkpt>
      <trkpt lat="47.3071" lon="-2.34016">
        <ele>22.39999961853</ele>
        <time>2020-07-05T08:46:29.000Z</time>
      </trkpt>
      <trkpt lat="47.30717" lon="-2.3401">
        <ele>22.39999961853</ele>
        <time>2020-07-05T08:46:32.000Z</time>
      </trkpt>
      <trkpt lat="47.30718" lon="-2.34005">
        <ele>22.39999961853</ele>
        <time>2020-07-05T08:46:33.000Z</time>
      </trkpt>
      <trkpt lat="47.3072" lon="-2.33988">
        <ele>22.39999961853</ele>
        <time>2020-07-05T08:46:36.000Z</time>
      </trkpt>
      <trkpt lat="47.30723" lon="-2.33983">
        <ele>22.39999961853</ele>
        <time>2020-07-05T08:46:37.000Z</time>
      </trkpt>
      <trkpt lat="47.30736" lon="-2.33976">
        <ele>22.39999961853</ele>
        <time>2020-07-05T08:46:40.000Z</time>
      </trkpt>
      <trkpt lat="47.30741" lon="-2.33975">
        <ele>22.39999961853</ele>
        <time>2020-07-05T08:46:41.000Z</time>
      </trkpt>
      <trkpt lat="47.30763" lon="-2.3397">
        <ele>22.39999961853</ele>
        <time>2020-07-05T08:46:46.000Z</time>
      </trkpt>
      <trkpt lat="47.3077" lon="-2.33969">
        <ele>22.799999237061</ele>
        <time>2020-07-05T08:46:48.000Z</time>
      </trkpt>
      <trkpt lat="47.30775" lon="-2.33968">
        <ele>23.200000762939</ele>
        <time>2020-07-05T08:46:49.000Z</time>
      </trkpt>
      <trkpt lat="47.30779" lon="-2.33966">
        <ele>23.60000038147</ele>
        <time>2020-07-05T08:46:50.000Z</time>
      </trkpt>
      <trkpt lat="47.30783" lon="-2.33965">
        <ele>24</ele>
        <time>2020-07-05T08:46:51.000Z</time>
      </trkpt>
      <trkpt lat="47.30787" lon="-2.33965">
        <ele>24.39999961853</ele>
        <time>2020-07-05T08:46:52.000Z</time>
      </trkpt>
      <trkpt lat="47.30816" lon="-2.33956">
        <ele>24.39999961853</ele>
        <time>2020-07-05T08:46:59.000Z</time>
      </trkpt>
      <trkpt lat="47.30843" lon="-2.3395">
        <ele>24.39999961853</ele>
        <time>2020-07-05T08:47:06.000Z</time>
      </trkpt>
      <trkpt lat="47.3087" lon="-2.33946">
        <ele>24.39999961853</ele>
        <time>2020-07-05T08:47:12.000Z</time>
      </trkpt>
      <trkpt lat="47.30902" lon="-2.33942">
        <ele>24.39999961853</ele>
        <time>2020-07-05T08:47:20.000Z</time>
      </trkpt>
      <trkpt lat="47.30926" lon="-2.33943">
        <ele>24.39999961853</ele>
        <time>2020-07-05T08:47:27.000Z</time>
      </trkpt>
      <trkpt lat="47.30956" lon="-2.33949">
        <ele>24.39999961853</ele>
        <time>2020-07-05T08:47:34.000Z</time>
      </trkpt>
      <trkpt lat="47.30984" lon="-2.33951">
        <ele>24.39999961853</ele>
        <time>2020-07-05T08:47:40.000Z</time>
      </trkpt>
      <trkpt lat="47.30997" lon="-2.33949">
        <ele>24.39999961853</ele>
        <time>2020-07-05T08:47:43.000Z</time>
      </trkpt>
      <trkpt lat="47.31016" lon="-2.33948">
        <ele>24.39999961853</ele>
        <time>2020-07-05T08:47:47.000Z</time>
      </trkpt>
      <trkpt lat="47.31047" lon="-2.33942">
        <ele>24.39999961853</ele>
        <time>2020-07-05T08:47:53.000Z</time>
      </trkpt>
      <trkpt lat="47.31051" lon="-2.33941">
        <ele>24</ele>
        <time>2020-07-05T08:47:54.000Z</time>
      </trkpt>
      <trkpt lat="47.31054" lon="-2.33941">
        <ele>23.60000038147</ele>
        <time>2020-07-05T08:47:55.000Z</time>
      </trkpt>
      <trkpt lat="47.31057" lon="-2.3394">
        <ele>23.200000762939</ele>
        <time>2020-07-05T08:47:56.000Z</time>
      </trkpt>
      <trkpt lat="47.31059" lon="-2.33937">
        <ele>22.60000038147</ele>
        <time>2020-07-05T08:47:57.000Z</time>
      </trkpt>
      <trkpt lat="47.31061" lon="-2.33932">
        <ele>22.200000762939</ele>
        <time>2020-07-05T08:47:58.000Z</time>
      </trkpt>
      <trkpt lat="47.31062" lon="-2.33922">
        <ele>22.200000762939</ele>
        <time>2020-07-05T08:48:00.000Z</time>
      </trkpt>
      <trkpt lat="47.31061" lon="-2.33906">
        <ele>22.200000762939</ele>
        <time>2020-07-05T08:48:03.000Z</time>
      </trkpt>
      <trkpt lat="47.31062" lon="-2.33894">
        <ele>22.200000762939</ele>
        <time>2020-07-05T08:48:05.000Z</time>
      </trkpt>
      <trkpt lat="47.31063" lon="-2.33844">
        <ele>22.200000762939</ele>
        <time>2020-07-05T08:48:13.000Z</time>
      </trkpt>
      <trkpt lat="47.31065" lon="-2.3381">
        <ele>22.200000762939</ele>
        <time>2020-07-05T08:48:18.000Z</time>
      </trkpt>
      <trkpt lat="47.31068" lon="-2.33797">
        <ele>22.200000762939</ele>
        <time>2020-07-05T08:48:20.000Z</time>
      </trkpt>
      <trkpt lat="47.31081" lon="-2.33765">
        <ele>22.200000762939</ele>
        <time>2020-07-05T08:48:25.000Z</time>
      </trkpt>
      <trkpt lat="47.31089" lon="-2.33746">
        <ele>22.200000762939</ele>
        <time>2020-07-05T08:48:28.000Z</time>
      </trkpt>
      <trkpt lat="47.31092" lon="-2.33734">
        <ele>22.200000762939</ele>
        <time>2020-07-05T08:48:30.000Z</time>
      </trkpt>
      <trkpt lat="47.31094" lon="-2.33721">
        <ele>22.200000762939</ele>
        <time>2020-07-05T08:48:32.000Z</time>
      </trkpt>
      <trkpt lat="47.31098" lon="-2.33696">
        <ele>22.200000762939</ele>
        <time>2020-07-05T08:48:36.000Z</time>
      </trkpt>
      <trkpt lat="47.31098" lon="-2.3369">
        <ele>22.200000762939</ele>
        <time>2020-07-05T08:48:37.000Z</time>
      </trkpt>
      <trkpt lat="47.31104" lon="-2.33642">
        <ele>22.200000762939</ele>
        <time>2020-07-05T08:48:44.000Z</time>
      </trkpt>
      <trkpt lat="47.3111" lon="-2.33595">
        <ele>22.200000762939</ele>
        <time>2020-07-05T08:48:51.000Z</time>
      </trkpt>
      <trkpt lat="47.31111" lon="-2.33588">
        <ele>22.200000762939</ele>
        <time>2020-07-05T08:48:52.000Z</time>
      </trkpt>
      <trkpt lat="47.3111" lon="-2.33535">
        <ele>22.200000762939</ele>
        <time>2020-07-05T08:48:59.000Z</time>
      </trkpt>
      <trkpt lat="47.311" lon="-2.33487">
        <ele>22.200000762939</ele>
        <time>2020-07-05T08:49:05.000Z</time>
      </trkpt>
      <trkpt lat="47.31096" lon="-2.33439">
        <ele>22.200000762939</ele>
        <time>2020-07-05T08:49:10.000Z</time>
      </trkpt>
      <trkpt lat="47.31096" lon="-2.33391">
        <ele>21.799999237061</ele>
        <time>2020-07-05T08:49:15.000Z</time>
      </trkpt>
      <trkpt lat="47.31096" lon="-2.33382">
        <ele>21.39999961853</ele>
        <time>2020-07-05T08:49:16.000Z</time>
      </trkpt>
      <trkpt lat="47.31096" lon="-2.33372">
        <ele>21</ele>
        <time>2020-07-05T08:49:17.000Z</time>
      </trkpt>
      <trkpt lat="47.31096" lon="-2.33363">
        <ele>20.60000038147</ele>
        <time>2020-07-05T08:49:18.000Z</time>
      </trkpt>
      <trkpt lat="47.31097" lon="-2.33354">
        <ele>20.200000762939</ele>
        <time>2020-07-05T08:49:19.000Z</time>
      </trkpt>
      <trkpt lat="47.311" lon="-2.33293">
        <ele>20.200000762939</ele>
        <time>2020-07-05T08:49:26.000Z</time>
      </trkpt>
      <trkpt lat="47.31103" lon="-2.33234">
        <ele>20.200000762939</ele>
        <time>2020-07-05T08:49:33.000Z</time>
      </trkpt>
      <trkpt lat="47.31104" lon="-2.33218">
        <ele>20.200000762939</ele>
        <time>2020-07-05T08:49:35.000Z</time>
      </trkpt>
      <trkpt lat="47.3111" lon="-2.33203">
        <ele>20.200000762939</ele>
        <time>2020-07-05T08:49:37.000Z</time>
      </trkpt>
      <trkpt lat="47.31124" lon="-2.33193">
        <ele>20.200000762939</ele>
        <time>2020-07-05T08:49:40.000Z</time>
      </trkpt>
      <trkpt lat="47.31129" lon="-2.3319">
        <ele>19.799999237061</ele>
        <time>2020-07-05T08:49:41.000Z</time>
      </trkpt>
      <trkpt lat="47.31135" lon="-2.33187">
        <ele>19.39999961853</ele>
        <time>2020-07-05T08:49:42.000Z</time>
      </trkpt>
      <trkpt lat="47.31141" lon="-2.33184">
        <ele>19</ele>
        <time>2020-07-05T08:49:43.000Z</time>
      </trkpt>
      <trkpt lat="47.31147" lon="-2.33181">
        <ele>18.60000038147</ele>
        <time>2020-07-05T08:49:44.000Z</time>
      </trkpt>
      <trkpt lat="47.31152" lon="-2.33178">
        <ele>18.200000762939</ele>
        <time>2020-07-05T08:49:45.000Z</time>
      </trkpt>
      <trkpt lat="47.31158" lon="-2.33174">
        <ele>18.200000762939</ele>
        <time>2020-07-05T08:49:46.000Z</time>
      </trkpt>
      <trkpt lat="47.31193" lon="-2.33152">
        <ele>18.200000762939</ele>
        <time>2020-07-05T08:49:52.000Z</time>
      </trkpt>
      <trkpt lat="47.31199" lon="-2.33149">
        <ele>18.200000762939</ele>
        <time>2020-07-05T08:49:53.000Z</time>
      </trkpt>
      <trkpt lat="47.31205" lon="-2.33147">
        <ele>18.200000762939</ele>
        <time>2020-07-05T08:49:54.000Z</time>
      </trkpt>
      <trkpt lat="47.31222" lon="-2.33143">
        <ele>18.200000762939</ele>
        <time>2020-07-05T08:49:57.000Z</time>
      </trkpt>
      <trkpt lat="47.31228" lon="-2.33142">
        <ele>18.200000762939</ele>
        <time>2020-07-05T08:49:58.000Z</time>
      </trkpt>
      <trkpt lat="47.31247" lon="-2.33144">
        <ele>18.200000762939</ele>
        <time>2020-07-05T08:50:01.000Z</time>
      </trkpt>
      <trkpt lat="47.31283" lon="-2.33155">
        <ele>18.200000762939</ele>
        <time>2020-07-05T08:50:07.000Z</time>
      </trkpt>
      <trkpt lat="47.31289" lon="-2.33158">
        <ele>18.200000762939</ele>
        <time>2020-07-05T08:50:08.000Z</time>
      </trkpt>
      <trkpt lat="47.31311" lon="-2.33175">
        <ele>18.200000762939</ele>
        <time>2020-07-05T08:50:12.000Z</time>
      </trkpt>
      <trkpt lat="47.31348" lon="-2.3321">
        <ele>18.200000762939</ele>
        <time>2020-07-05T08:50:19.000Z</time>
      </trkpt>
      <trkpt lat="47.31381" lon="-2.33232">
        <ele>18.200000762939</ele>
        <time>2020-07-05T08:50:25.000Z</time>
      </trkpt>
      <trkpt lat="47.3143" lon="-2.3327">
        <ele>18.200000762939</ele>
        <time>2020-07-05T08:50:34.000Z</time>
      </trkpt>
      <trkpt lat="47.3144" lon="-2.3328">
        <ele>18.200000762939</ele>
        <time>2020-07-05T08:50:36.000Z</time>
      </trkpt>
      <trkpt lat="47.31448" lon="-2.33292">
        <ele>18.200000762939</ele>
        <time>2020-07-05T08:50:38.000Z</time>
      </trkpt>
      <trkpt lat="47.31455" lon="-2.33303">
        <ele>18.200000762939</ele>
        <time>2020-07-05T08:50:40.000Z</time>
      </trkpt>
      <trkpt lat="47.31468" lon="-2.33329">
        <ele>18.60000038147</ele>
        <time>2020-07-05T08:50:44.000Z</time>
      </trkpt>
      <trkpt lat="47.31471" lon="-2.33336">
        <ele>19</ele>
        <time>2020-07-05T08:50:45.000Z</time>
      </trkpt>
      <trkpt lat="47.31474" lon="-2.33343">
        <ele>19.39999961853</ele>
        <time>2020-07-05T08:50:46.000Z</time>
      </trkpt>
      <trkpt lat="47.31477" lon="-2.33349">
        <ele>19.799999237061</ele>
        <time>2020-07-05T08:50:47.000Z</time>
      </trkpt>
      <trkpt lat="47.31481" lon="-2.33353">
        <ele>20.200000762939</ele>
        <time>2020-07-05T08:50:48.000Z</time>
      </trkpt>
      <trkpt lat="47.31491" lon="-2.33355">
        <ele>20.200000762939</ele>
        <time>2020-07-05T08:50:50.000Z</time>
      </trkpt>
      <trkpt lat="47.31507" lon="-2.33348">
        <ele>20.200000762939</ele>
        <time>2020-07-05T08:50:53.000Z</time>
      </trkpt>
      <trkpt lat="47.31518" lon="-2.33342">
        <ele>20.200000762939</ele>
        <time>2020-07-05T08:50:55.000Z</time>
      </trkpt>
      <trkpt lat="47.31529" lon="-2.33337">
        <ele>20.200000762939</ele>
        <time>2020-07-05T08:50:57.000Z</time>
      </trkpt>
      <trkpt lat="47.31551" lon="-2.33327">
        <ele>20.200000762939</ele>
        <time>2020-07-05T08:51:01.000Z</time>
      </trkpt>
      <trkpt lat="47.31588" lon="-2.3331">
        <ele>20.200000762939</ele>
        <time>2020-07-05T08:51:08.000Z</time>
      </trkpt>
      <trkpt lat="47.31633" lon="-2.33283">
        <ele>20.200000762939</ele>
        <time>2020-07-05T08:51:16.000Z</time>
      </trkpt>
      <trkpt lat="47.31679" lon="-2.33262">
        <ele>20.200000762939</ele>
        <time>2020-07-05T08:51:23.000Z</time>
      </trkpt>
      <trkpt lat="47.31709" lon="-2.3325">
        <ele>20.200000762939</ele>
        <time>2020-07-05T08:51:28.000Z</time>
      </trkpt>
      <trkpt lat="47.31733" lon="-2.3324">
        <ele>19.799999237061</ele>
        <time>2020-07-05T08:51:32.000Z</time>
      </trkpt>
      <trkpt lat="47.31738" lon="-2.3324">
        <ele>19.200000762939</ele>
        <time>2020-07-05T08:51:33.000Z</time>
      </trkpt>
      <trkpt lat="47.31743" lon="-2.33242">
        <ele>18.799999237061</ele>
        <time>2020-07-05T08:51:34.000Z</time>
      </trkpt>
      <trkpt lat="47.31746" lon="-2.33246">
        <ele>18</ele>
        <time>2020-07-05T08:51:35.000Z</time>
      </trkpt>
      <trkpt lat="47.3175" lon="-2.33257">
        <ele>18</ele>
        <time>2020-07-05T08:51:37.000Z</time>
      </trkpt>
      <trkpt lat="47.31752" lon="-2.33263">
        <ele>18</ele>
        <time>2020-07-05T08:51:38.000Z</time>
      </trkpt>
      <trkpt lat="47.31756" lon="-2.33283">
        <ele>17.60000038147</ele>
        <time>2020-07-05T08:51:41.000Z</time>
      </trkpt>
      <trkpt lat="47.31758" lon="-2.3329">
        <ele>17.200000762939</ele>
        <time>2020-07-05T08:51:42.000Z</time>
      </trkpt>
      <trkpt lat="47.31761" lon="-2.33297">
        <ele>16.799999237061</ele>
        <time>2020-07-05T08:51:43.000Z</time>
      </trkpt>
      <trkpt lat="47.31764" lon="-2.33304">
        <ele>16.39999961853</ele>
        <time>2020-07-05T08:51:44.000Z</time>
      </trkpt>
      <trkpt lat="47.31769" lon="-2.3331">
        <ele>16</ele>
        <time>2020-07-05T08:51:45.000Z</time>
      </trkpt>
      <trkpt lat="47.31774" lon="-2.33315">
        <ele>16</ele>
        <time>2020-07-05T08:51:46.000Z</time>
      </trkpt>
      <trkpt lat="47.31788" lon="-2.33315">
        <ele>16</ele>
        <time>2020-07-05T08:51:49.000Z</time>
      </trkpt>
      <trkpt lat="47.31793" lon="-2.33312">
        <ele>16</ele>
        <time>2020-07-05T08:51:50.000Z</time>
      </trkpt>
      <trkpt lat="47.31798" lon="-2.33308">
        <ele>15.39999961853</ele>
        <time>2020-07-05T08:51:51.000Z</time>
      </trkpt>
      <trkpt lat="47.31804" lon="-2.33304">
        <ele>15</ele>
        <time>2020-07-05T08:51:52.000Z</time>
      </trkpt>
      <trkpt lat="47.3181" lon="-2.33299">
        <ele>14.39999961853</ele>
        <time>2020-07-05T08:51:53.000Z</time>
      </trkpt>
      <trkpt lat="47.31816" lon="-2.33294">
        <ele>14</ele>
        <time>2020-07-05T08:51:54.000Z</time>
      </trkpt>
      <trkpt lat="47.31822" lon="-2.3329">
        <ele>13.39999961853</ele>
        <time>2020-07-05T08:51:55.000Z</time>
      </trkpt>
      <trkpt lat="47.31828" lon="-2.33286">
        <ele>13</ele>
        <time>2020-07-05T08:51:56.000Z</time>
      </trkpt>
      <trkpt lat="47.31833" lon="-2.3328">
        <ele>12.39999961853</ele>
        <time>2020-07-05T08:51:57.000Z</time>
      </trkpt>
      <trkpt lat="47.31839" lon="-2.33274">
        <ele>12</ele>
        <time>2020-07-05T08:51:58.000Z</time>
      </trkpt>
      <trkpt lat="47.31843" lon="-2.33267">
        <ele>11</ele>
        <time>2020-07-05T08:51:59.000Z</time>
      </trkpt>
      <trkpt lat="47.31854" lon="-2.33238">
        <ele>11</ele>
        <time>2020-07-05T08:52:02.000Z</time>
      </trkpt>
      <trkpt lat="47.31858" lon="-2.33216">
        <ele>11</ele>
        <time>2020-07-05T08:52:04.000Z</time>
      </trkpt>
      <trkpt lat="47.31859" lon="-2.33204">
        <ele>11</ele>
        <time>2020-07-05T08:52:05.000Z</time>
      </trkpt>
      <trkpt lat="47.31862" lon="-2.33182">
        <ele>10.60000038147</ele>
        <time>2020-07-05T08:52:07.000Z</time>
      </trkpt>
      <trkpt lat="47.31864" lon="-2.3317">
        <ele>10</ele>
        <time>2020-07-05T08:52:08.000Z</time>
      </trkpt>
      <trkpt lat="47.31865" lon="-2.33159">
        <ele>9.6000003814697</ele>
        <time>2020-07-05T08:52:09.000Z</time>
      </trkpt>
      <trkpt lat="47.31866" lon="-2.33147">
        <ele>9.1999998092651</ele>
        <time>2020-07-05T08:52:10.000Z</time>
      </trkpt>
      <trkpt lat="47.31868" lon="-2.33136">
        <ele>8.8000001907349</ele>
        <time>2020-07-05T08:52:11.000Z</time>
      </trkpt>
      <trkpt lat="47.31871" lon="-2.33112">
        <ele>8.1999998092651</ele>
        <time>2020-07-05T08:52:13.000Z</time>
      </trkpt>
      <trkpt lat="47.31872" lon="-2.33101">
        <ele>7.8000001907349</ele>
        <time>2020-07-05T08:52:14.000Z</time>
      </trkpt>
      <trkpt lat="47.31873" lon="-2.33089">
        <ele>7.4000000953674</ele>
        <time>2020-07-05T08:52:15.000Z</time>
      </trkpt>
      <trkpt lat="47.31873" lon="-2.33076">
        <ele>7</ele>
        <time>2020-07-05T08:52:16.000Z</time>
      </trkpt>
      <trkpt lat="47.31874" lon="-2.33063">
        <ele>6.5999999046326</ele>
        <time>2020-07-05T08:52:17.000Z</time>
      </trkpt>
      <trkpt lat="47.31875" lon="-2.33012">
        <ele>6.1999998092651</ele>
        <time>2020-07-05T08:52:21.000Z</time>
      </trkpt>
      <trkpt lat="47.31875" lon="-2.33">
        <ele>5.8000001907349</ele>
        <time>2020-07-05T08:52:22.000Z</time>
      </trkpt>
      <trkpt lat="47.31875" lon="-2.32988">
        <ele>5.4000000953674</ele>
        <time>2020-07-05T08:52:23.000Z</time>
      </trkpt>
      <trkpt lat="47.31876" lon="-2.32976">
        <ele>4.5999999046326</ele>
        <time>2020-07-05T08:52:24.000Z</time>
      </trkpt>
      <trkpt lat="47.3188" lon="-2.32943">
        <ele>4.5999999046326</ele>
        <time>2020-07-05T08:52:27.000Z</time>
      </trkpt>
      <trkpt lat="47.31882" lon="-2.32895">
        <ele>4.5999999046326</ele>
        <time>2020-07-05T08:52:32.000Z</time>
      </trkpt>
      <trkpt lat="47.31884" lon="-2.32832">
        <ele>4.5999999046326</ele>
        <time>2020-07-05T08:52:38.000Z</time>
      </trkpt>
      <trkpt lat="47.31884" lon="-2.32823">
        <ele>4.5999999046326</ele>
        <time>2020-07-05T08:52:39.000Z</time>
      </trkpt>
      <trkpt lat="47.31882" lon="-2.32804">
        <ele>4.5999999046326</ele>
        <time>2020-07-05T08:52:41.000Z</time>
      </trkpt>
      <trkpt lat="47.31882" lon="-2.32794">
        <ele>4.5999999046326</ele>
        <time>2020-07-05T08:52:42.000Z</time>
      </trkpt>
      <trkpt lat="47.31882" lon="-2.32766">
        <ele>4.5999999046326</ele>
        <time>2020-07-05T08:52:45.000Z</time>
      </trkpt>
      <trkpt lat="47.31878" lon="-2.32749">
        <ele>4.5999999046326</ele>
        <time>2020-07-05T08:52:47.000Z</time>
      </trkpt>
      <trkpt lat="47.31876" lon="-2.32741">
        <ele>5</ele>
        <time>2020-07-05T08:52:48.000Z</time>
      </trkpt>
      <trkpt lat="47.31873" lon="-2.32733">
        <ele>6</ele>
        <time>2020-07-05T08:52:49.000Z</time>
      </trkpt>
      <trkpt lat="47.3187" lon="-2.32726">
        <ele>6.4000000953674</ele>
        <time>2020-07-05T08:52:50.000Z</time>
      </trkpt>
      <trkpt lat="47.31868" lon="-2.32719">
        <ele>6.8000001907349</ele>
        <time>2020-07-05T08:52:51.000Z</time>
      </trkpt>
      <trkpt lat="47.31866" lon="-2.32713">
        <ele>6.8000001907349</ele>
        <time>2020-07-05T08:52:52.000Z</time>
      </trkpt>
      <trkpt lat="47.31851" lon="-2.32676">
        <ele>6.8000001907349</ele>
        <time>2020-07-05T08:52:58.000Z</time>
      </trkpt>
      <trkpt lat="47.31844" lon="-2.32656">
        <ele>6.8000001907349</ele>
        <time>2020-07-05T08:53:01.000Z</time>
      </trkpt>
      <trkpt lat="47.3184" lon="-2.32636">
        <ele>6.8000001907349</ele>
        <time>2020-07-05T08:53:04.000Z</time>
      </trkpt>
      <trkpt lat="47.3183" lon="-2.326">
        <ele>7.1999998092651</ele>
        <time>2020-07-05T08:53:09.000Z</time>
      </trkpt>
      <trkpt lat="47.31829" lon="-2.32594">
        <ele>7.8000001907349</ele>
        <time>2020-07-05T08:53:10.000Z</time>
      </trkpt>
      <trkpt lat="47.31827" lon="-2.32587">
        <ele>8.1999998092651</ele>
        <time>2020-07-05T08:53:11.000Z</time>
      </trkpt>
      <trkpt lat="47.31826" lon="-2.32581">
        <ele>8.6000003814697</ele>
        <time>2020-07-05T08:53:12.000Z</time>
      </trkpt>
      <trkpt lat="47.31824" lon="-2.32575">
        <ele>9</ele>
        <time>2020-07-05T08:53:13.000Z</time>
      </trkpt>
      <trkpt lat="47.31819" lon="-2.32557">
        <ele>9</ele>
        <time>2020-07-05T08:53:16.000Z</time>
      </trkpt>
      <trkpt lat="47.31813" lon="-2.32535">
        <ele>9.3999996185303</ele>
        <time>2020-07-05T08:53:20.000Z</time>
      </trkpt>
      <trkpt lat="47.31811" lon="-2.3253">
        <ele>9.8000001907349</ele>
        <time>2020-07-05T08:53:21.000Z</time>
      </trkpt>
      <trkpt lat="47.3181" lon="-2.32525">
        <ele>10.39999961853</ele>
        <time>2020-07-05T08:53:22.000Z</time>
      </trkpt>
      <trkpt lat="47.31808" lon="-2.32519">
        <ele>10.800000190735</ele>
        <time>2020-07-05T08:53:23.000Z</time>
      </trkpt>
      <trkpt lat="47.31807" lon="-2.32513">
        <ele>11.199999809265</ele>
        <time>2020-07-05T08:53:24.000Z</time>
      </trkpt>
      <trkpt lat="47.318" lon="-2.32492">
        <ele>11.199999809265</ele>
        <time>2020-07-05T08:53:28.000Z</time>
      </trkpt>
      <trkpt lat="47.31797" lon="-2.32483">
        <ele>11.60000038147</ele>
        <time>2020-07-05T08:53:30.000Z</time>
      </trkpt>
      <trkpt lat="47.31795" lon="-2.32478">
        <ele>12</ele>
        <time>2020-07-05T08:53:31.000Z</time>
      </trkpt>
      <trkpt lat="47.31792" lon="-2.32474">
        <ele>12.39999961853</ele>
        <time>2020-07-05T08:53:32.000Z</time>
      </trkpt>
      <trkpt lat="47.31791" lon="-2.32469">
        <ele>12.800000190735</ele>
        <time>2020-07-05T08:53:33.000Z</time>
      </trkpt>
      <trkpt lat="47.31791" lon="-2.32464">
        <ele>13.39999961853</ele>
        <time>2020-07-05T08:53:34.000Z</time>
      </trkpt>
      <trkpt lat="47.3179" lon="-2.32452">
        <ele>13.800000190735</ele>
        <time>2020-07-05T08:53:36.000Z</time>
      </trkpt>
      <trkpt lat="47.31789" lon="-2.32445">
        <ele>14.199999809265</ele>
        <time>2020-07-05T08:53:37.000Z</time>
      </trkpt>
      <trkpt lat="47.31789" lon="-2.32439">
        <ele>15</ele>
        <time>2020-07-05T08:53:38.000Z</time>
      </trkpt>
      <trkpt lat="47.31788" lon="-2.32434">
        <ele>15.39999961853</ele>
        <time>2020-07-05T08:53:39.000Z</time>
      </trkpt>
      <trkpt lat="47.31782" lon="-2.32402">
        <ele>15.39999961853</ele>
        <time>2020-07-05T08:53:45.000Z</time>
      </trkpt>
      <trkpt lat="47.31778" lon="-2.32366">
        <ele>15.800000190735</ele>
        <time>2020-07-05T08:53:51.000Z</time>
      </trkpt>
      <trkpt lat="47.31778" lon="-2.32361">
        <ele>16.200000762939</ele>
        <time>2020-07-05T08:53:52.000Z</time>
      </trkpt>
      <trkpt lat="47.31777" lon="-2.32354">
        <ele>16.60000038147</ele>
        <time>2020-07-05T08:53:53.000Z</time>
      </trkpt>
      <trkpt lat="47.31776" lon="-2.32349">
        <ele>17</ele>
        <time>2020-07-05T08:53:54.000Z</time>
      </trkpt>
      <trkpt lat="47.31774" lon="-2.32343">
        <ele>17.39999961853</ele>
        <time>2020-07-05T08:53:55.000Z</time>
      </trkpt>
      <trkpt lat="47.31768" lon="-2.32313">
        <ele>17.39999961853</ele>
        <time>2020-07-05T08:54:00.000Z</time>
      </trkpt>
      <trkpt lat="47.31762" lon="-2.3228">
        <ele>17.39999961853</ele>
        <time>2020-07-05T08:54:06.000Z</time>
      </trkpt>
      <trkpt lat="47.31757" lon="-2.32258">
        <ele>17.39999961853</ele>
        <time>2020-07-05T08:54:12.000Z</time>
      </trkpt>
      <trkpt lat="47.31755" lon="-2.32252">
        <ele>17.799999237061</ele>
        <time>2020-07-05T08:54:14.000Z</time>
      </trkpt>
      <trkpt lat="47.31754" lon="-2.3225">
        <ele>18.200000762939</ele>
        <time>2020-07-05T08:54:15.000Z</time>
      </trkpt>
      <trkpt lat="47.31754" lon="-2.32247">
        <ele>18.60000038147</ele>
        <time>2020-07-05T08:54:16.000Z</time>
      </trkpt>
      <trkpt lat="47.31754" lon="-2.32246">
        <ele>19.200000762939</ele>
        <time>2020-07-05T08:54:17.000Z</time>
      </trkpt>
      <trkpt lat="47.31754" lon="-2.32245">
        <ele>19.60000038147</ele>
        <time>2020-07-05T08:54:18.000Z</time>
      </trkpt>
      <trkpt lat="47.31754" lon="-2.32239">
        <ele>19.60000038147</ele>
        <time>2020-07-05T08:54:23.000Z</time>
      </trkpt>
      <trkpt lat="47.31756" lon="-2.32236">
        <ele>21.60000038147</ele>
        <time>2020-07-05T09:08:32.000Z</time>
      </trkpt>
      <trkpt lat="47.31758" lon="-2.32235">
        <ele>21.60000038147</ele>
        <time>2020-07-05T09:08:33.000Z</time>
      </trkpt>
      <trkpt lat="47.31767" lon="-2.32233">
        <ele>21.60000038147</ele>
        <time>2020-07-05T09:08:36.000Z</time>
      </trkpt>
      <trkpt lat="47.31774" lon="-2.32234">
        <ele>21.60000038147</ele>
        <time>2020-07-05T09:08:38.000Z</time>
      </trkpt>
      <trkpt lat="47.31796" lon="-2.32229">
        <ele>21.60000038147</ele>
        <time>2020-07-05T09:08:43.000Z</time>
      </trkpt>
      <trkpt lat="47.31801" lon="-2.32227">
        <ele>21.60000038147</ele>
        <time>2020-07-05T09:08:44.000Z</time>
      </trkpt>
      <trkpt lat="47.31811" lon="-2.32225">
        <ele>21.60000038147</ele>
        <time>2020-07-05T09:08:46.000Z</time>
      </trkpt>
      <trkpt lat="47.31831" lon="-2.32221">
        <ele>21.200000762939</ele>
        <time>2020-07-05T09:08:50.000Z</time>
      </trkpt>
      <trkpt lat="47.31836" lon="-2.3222">
        <ele>20.799999237061</ele>
        <time>2020-07-05T09:08:51.000Z</time>
      </trkpt>
      <trkpt lat="47.31842" lon="-2.32219">
        <ele>20.39999961853</ele>
        <time>2020-07-05T09:08:52.000Z</time>
      </trkpt>
      <trkpt lat="47.31848" lon="-2.32217">
        <ele>19.39999961853</ele>
        <time>2020-07-05T09:08:53.000Z</time>
      </trkpt>
      <trkpt lat="47.31861" lon="-2.32212">
        <ele>19.39999961853</ele>
        <time>2020-07-05T09:08:55.000Z</time>
      </trkpt>
      <trkpt lat="47.31876" lon="-2.32206">
        <ele>19</ele>
        <time>2020-07-05T09:08:57.000Z</time>
      </trkpt>
      <trkpt lat="47.31884" lon="-2.32204">
        <ele>18.60000038147</ele>
        <time>2020-07-05T09:08:58.000Z</time>
      </trkpt>
      <trkpt lat="47.31891" lon="-2.32203">
        <ele>18.200000762939</ele>
        <time>2020-07-05T09:08:59.000Z</time>
      </trkpt>
      <trkpt lat="47.31899" lon="-2.32202">
        <ele>17.799999237061</ele>
        <time>2020-07-05T09:09:00.000Z</time>
      </trkpt>
      <trkpt lat="47.31906" lon="-2.32202">
        <ele>17.39999961853</ele>
        <time>2020-07-05T09:09:01.000Z</time>
      </trkpt>
      <trkpt lat="47.31931" lon="-2.32206">
        <ele>17</ele>
        <time>2020-07-05T09:09:04.000Z</time>
      </trkpt>
      <trkpt lat="47.31938" lon="-2.32208">
        <ele>16.60000038147</ele>
        <time>2020-07-05T09:09:05.000Z</time>
      </trkpt>
      <trkpt lat="47.31944" lon="-2.3221">
        <ele>16.200000762939</ele>
        <time>2020-07-05T09:09:06.000Z</time>
      </trkpt>
      <trkpt lat="47.31948" lon="-2.32213">
        <ele>15.39999961853</ele>
        <time>2020-07-05T09:09:07.000Z</time>
      </trkpt>
      <trkpt lat="47.31951" lon="-2.32217">
        <ele>14.60000038147</ele>
        <time>2020-07-05T09:09:08.000Z</time>
      </trkpt>
      <trkpt lat="47.31954" lon="-2.32221">
        <ele>14</ele>
        <time>2020-07-05T09:09:09.000Z</time>
      </trkpt>
      <trkpt lat="47.31954" lon="-2.32226">
        <ele>13.199999809265</ele>
        <time>2020-07-05T09:09:10.000Z</time>
      </trkpt>
      <trkpt lat="47.31952" lon="-2.32231">
        <ele>12.39999961853</ele>
        <time>2020-07-05T09:09:11.000Z</time>
      </trkpt>
      <trkpt lat="47.31951" lon="-2.32235">
        <ele>11.800000190735</ele>
        <time>2020-07-05T09:09:12.000Z</time>
      </trkpt>
      <trkpt lat="47.3195" lon="-2.3224">
        <ele>11</ele>
        <time>2020-07-05T09:09:13.000Z</time>
      </trkpt>
      <trkpt lat="47.31949" lon="-2.32245">
        <ele>10.199999809265</ele>
        <time>2020-07-05T09:09:14.000Z</time>
      </trkpt>
      <trkpt lat="47.31948" lon="-2.3226">
        <ele>10.199999809265</ele>
        <time>2020-07-05T09:09:17.000Z</time>
      </trkpt>
      <trkpt lat="47.31955" lon="-2.32264">
        <ele>10.199999809265</ele>
        <time>2020-07-05T09:09:19.000Z</time>
      </trkpt>
      <trkpt lat="47.31958" lon="-2.32262">
        <ele>9.8000001907349</ele>
        <time>2020-07-05T09:09:20.000Z</time>
      </trkpt>
      <trkpt lat="47.31962" lon="-2.32255">
        <ele>9.1999998092651</ele>
        <time>2020-07-05T09:09:21.000Z</time>
      </trkpt>
      <trkpt lat="47.31965" lon="-2.32247">
        <ele>8.6000003814697</ele>
        <time>2020-07-05T09:09:22.000Z</time>
      </trkpt>
      <trkpt lat="47.3197" lon="-2.32241">
        <ele>8.1999998092651</ele>
        <time>2020-07-05T09:09:23.000Z</time>
      </trkpt>
      <trkpt lat="47.31975" lon="-2.32233">
        <ele>7.5999999046326</ele>
        <time>2020-07-05T09:09:24.000Z</time>
      </trkpt>
      <trkpt lat="47.31981" lon="-2.32226">
        <ele>7.1999998092651</ele>
        <time>2020-07-05T09:09:25.000Z</time>
      </trkpt>
      <trkpt lat="47.31987" lon="-2.3222">
        <ele>6.5999999046326</ele>
        <time>2020-07-05T09:09:26.000Z</time>
      </trkpt>
      <trkpt lat="47.31992" lon="-2.32214">
        <ele>6.1999998092651</ele>
        <time>2020-07-05T09:09:27.000Z</time>
      </trkpt>
      <trkpt lat="47.31998" lon="-2.32208">
        <ele>5.5999999046326</ele>
        <time>2020-07-05T09:09:28.000Z</time>
      </trkpt>
      <trkpt lat="47.32004" lon="-2.32202">
        <ele>5.1999998092651</ele>
        <time>2020-07-05T09:09:29.000Z</time>
      </trkpt>
      <trkpt lat="47.32017" lon="-2.32191">
        <ele>5.1999998092651</ele>
        <time>2020-07-05T09:09:31.000Z</time>
      </trkpt>
      <trkpt lat="47.32025" lon="-2.32188">
        <ele>5.1999998092651</ele>
        <time>2020-07-05T09:09:32.000Z</time>
      </trkpt>
      <trkpt lat="47.32056" lon="-2.32184">
        <ele>5.1999998092651</ele>
        <time>2020-07-05T09:09:36.000Z</time>
      </trkpt>
      <trkpt lat="47.32064" lon="-2.32183">
        <ele>5.1999998092651</ele>
        <time>2020-07-05T09:09:37.000Z</time>
      </trkpt>
      <trkpt lat="47.32087" lon="-2.32179">
        <ele>4.5999999046326</ele>
        <time>2020-07-05T09:09:40.000Z</time>
      </trkpt>
      <trkpt lat="47.32095" lon="-2.32179">
        <ele>4.1999998092651</ele>
        <time>2020-07-05T09:09:41.000Z</time>
      </trkpt>
      <trkpt lat="47.32103" lon="-2.32177">
        <ele>3.4000000953674</ele>
        <time>2020-07-05T09:09:42.000Z</time>
      </trkpt>
      <trkpt lat="47.32112" lon="-2.32176">
        <ele>3</ele>
        <time>2020-07-05T09:09:43.000Z</time>
      </trkpt>
      <trkpt lat="47.3212" lon="-2.32174">
        <ele>3</ele>
        <time>2020-07-05T09:09:44.000Z</time>
      </trkpt>
      <trkpt lat="47.32135" lon="-2.32167">
        <ele>3</ele>
        <time>2020-07-05T09:09:46.000Z</time>
      </trkpt>
      <trkpt lat="47.32143" lon="-2.32161">
        <ele>3</ele>
        <time>2020-07-05T09:09:47.000Z</time>
      </trkpt>
      <trkpt lat="47.32168" lon="-2.32138">
        <ele>3</ele>
        <time>2020-07-05T09:09:51.000Z</time>
      </trkpt>
      <trkpt lat="47.32189" lon="-2.32122">
        <ele>2.4000000953674</ele>
        <time>2020-07-05T09:09:55.000Z</time>
      </trkpt>
      <trkpt lat="47.32193" lon="-2.32118">
        <ele>2</ele>
        <time>2020-07-05T09:09:56.000Z</time>
      </trkpt>
      <trkpt lat="47.32196" lon="-2.32117">
        <ele>1.6000000238419</ele>
        <time>2020-07-05T09:09:57.000Z</time>
      </trkpt>
      <trkpt lat="47.32199" lon="-2.32115">
        <ele>1</ele>
        <time>2020-07-05T09:09:58.000Z</time>
      </trkpt>
      <trkpt lat="47.32201" lon="-2.32114">
        <ele>0.60000002384186</ele>
        <time>2020-07-05T09:09:59.000Z</time>
      </trkpt>
      <trkpt lat="47.32204" lon="-2.32114">
        <ele>0.60000002384186</ele>
        <time>2020-07-05T09:10:00.000Z</time>
      </trkpt>
      <trkpt lat="47.32221" lon="-2.32111">
        <ele>0.60000002384186</ele>
        <time>2020-07-05T09:10:05.000Z</time>
      </trkpt>
      <trkpt lat="47.32253" lon="-2.32106">
        <ele>0.60000002384186</ele>
        <time>2020-07-05T09:10:12.000Z</time>
      </trkpt>
      <trkpt lat="47.32298" lon="-2.32099">
        <ele>0.60000002384186</ele>
        <time>2020-07-05T09:10:22.000Z</time>
      </trkpt>
      <trkpt lat="47.32311" lon="-2.32097">
        <ele>0.60000002384186</ele>
        <time>2020-07-05T09:10:25.000Z</time>
      </trkpt>
      <trkpt lat="47.32325" lon="-2.32099">
        <ele>0.60000002384186</ele>
        <time>2020-07-05T09:10:28.000Z</time>
      </trkpt>
      <trkpt lat="47.32348" lon="-2.32103">
        <ele>0.60000002384186</ele>
        <time>2020-07-05T09:10:33.000Z</time>
      </trkpt>
      <trkpt lat="47.32366" lon="-2.32106">
        <ele>0.60000002384186</ele>
        <time>2020-07-05T09:10:38.000Z</time>
      </trkpt>
      <trkpt lat="47.32371" lon="-2.32106">
        <ele>0.60000002384186</ele>
        <time>2020-07-05T09:10:39.000Z</time>
      </trkpt>
      <trkpt lat="47.32395" lon="-2.32103">
        <ele>0.60000002384186</ele>
        <time>2020-07-05T09:10:44.000Z</time>
      </trkpt>
      <trkpt lat="47.32427" lon="-2.321">
        <ele>0.60000002384186</ele>
        <time>2020-07-05T09:10:50.000Z</time>
      </trkpt>
      <trkpt lat="47.32467" lon="-2.32099">
        <ele>0.60000002384186</ele>
        <time>2020-07-05T09:10:57.000Z</time>
      </trkpt>
      <trkpt lat="47.3249" lon="-2.32095">
        <ele>0.60000002384186</ele>
        <time>2020-07-05T09:11:02.000Z</time>
      </trkpt>
      <trkpt lat="47.32494" lon="-2.32092">
        <ele>0.60000002384186</ele>
        <time>2020-07-05T09:11:03.000Z</time>
      </trkpt>
      <trkpt lat="47.32498" lon="-2.32078">
        <ele>0.60000002384186</ele>
        <time>2020-07-05T09:11:06.000Z</time>
      </trkpt>
      <trkpt lat="47.32499" lon="-2.32073">
        <ele>0.60000002384186</ele>
        <time>2020-07-05T09:11:07.000Z</time>
      </trkpt>
      <trkpt lat="47.32501" lon="-2.32045">
        <ele>0.60000002384186</ele>
        <time>2020-07-05T09:11:11.000Z</time>
      </trkpt>
      <trkpt lat="47.32502" lon="-2.32009">
        <ele>0.60000002384186</ele>
        <time>2020-07-05T09:11:16.000Z</time>
      </trkpt>
      <trkpt lat="47.32502" lon="-2.31994">
        <ele>0.60000002384186</ele>
        <time>2020-07-05T09:11:18.000Z</time>
      </trkpt>
      <trkpt lat="47.32504" lon="-2.31972">
        <ele>0.60000002384186</ele>
        <time>2020-07-05T09:11:21.000Z</time>
      </trkpt>
      <trkpt lat="47.32507" lon="-2.31948">
        <ele>0.60000002384186</ele>
        <time>2020-07-05T09:11:24.000Z</time>
      </trkpt>
      <trkpt lat="47.32512" lon="-2.31901">
        <ele>0.60000002384186</ele>
        <time>2020-07-05T09:11:30.000Z</time>
      </trkpt>
      <trkpt lat="47.32517" lon="-2.31851">
        <ele>0.60000002384186</ele>
        <time>2020-07-05T09:11:36.000Z</time>
      </trkpt>
      <trkpt lat="47.32517" lon="-2.31826">
        <ele>1</ele>
        <time>2020-07-05T09:11:39.000Z</time>
      </trkpt>
      <trkpt lat="47.32516" lon="-2.31818">
        <ele>1.3999999761581</ele>
        <time>2020-07-05T09:11:40.000Z</time>
      </trkpt>
      <trkpt lat="47.32516" lon="-2.3181">
        <ele>1.7999999523163</ele>
        <time>2020-07-05T09:11:41.000Z</time>
      </trkpt>
      <trkpt lat="47.32515" lon="-2.31803">
        <ele>2.2000000476837</ele>
        <time>2020-07-05T09:11:42.000Z</time>
      </trkpt>
      <trkpt lat="47.32514" lon="-2.31795">
        <ele>2.5999999046326</ele>
        <time>2020-07-05T09:11:43.000Z</time>
      </trkpt>
      <trkpt lat="47.32511" lon="-2.31749">
        <ele>2.5999999046326</ele>
        <time>2020-07-05T09:11:49.000Z</time>
      </trkpt>
      <trkpt lat="47.32506" lon="-2.31702">
        <ele>2.5999999046326</ele>
        <time>2020-07-05T09:11:55.000Z</time>
      </trkpt>
      <trkpt lat="47.32505" lon="-2.31668">
        <ele>2.5999999046326</ele>
        <time>2020-07-05T09:11:59.000Z</time>
      </trkpt>
      <trkpt lat="47.32507" lon="-2.31652">
        <ele>2.5999999046326</ele>
        <time>2020-07-05T09:12:01.000Z</time>
      </trkpt>
      <trkpt lat="47.3252" lon="-2.31628">
        <ele>2.5999999046326</ele>
        <time>2020-07-05T09:12:05.000Z</time>
      </trkpt>
      <trkpt lat="47.32543" lon="-2.31598">
        <ele>2.5999999046326</ele>
        <time>2020-07-05T09:12:10.000Z</time>
      </trkpt>
      <trkpt lat="47.32549" lon="-2.31592">
        <ele>2.5999999046326</ele>
        <time>2020-07-05T09:12:11.000Z</time>
      </trkpt>
      <trkpt lat="47.32552" lon="-2.31586">
        <ele>2.5999999046326</ele>
        <time>2020-07-05T09:12:12.000Z</time>
      </trkpt>
      <trkpt lat="47.32555" lon="-2.31571">
        <ele>2.5999999046326</ele>
        <time>2020-07-05T09:12:14.000Z</time>
      </trkpt>
      <trkpt lat="47.32555" lon="-2.31541">
        <ele>2.5999999046326</ele>
        <time>2020-07-05T09:12:18.000Z</time>
      </trkpt>
      <trkpt lat="47.32555" lon="-2.31533">
        <ele>2.5999999046326</ele>
        <time>2020-07-05T09:12:19.000Z</time>
      </trkpt>
      <trkpt lat="47.32555" lon="-2.31518">
        <ele>2.5999999046326</ele>
        <time>2020-07-05T09:12:21.000Z</time>
      </trkpt>
      <trkpt lat="47.32556" lon="-2.31491">
        <ele>2.5999999046326</ele>
        <time>2020-07-05T09:12:25.000Z</time>
      </trkpt>
      <trkpt lat="47.32556" lon="-2.31463">
        <ele>2.5999999046326</ele>
        <time>2020-07-05T09:12:29.000Z</time>
      </trkpt>
      <trkpt lat="47.32554" lon="-2.31452">
        <ele>2.5999999046326</ele>
        <time>2020-07-05T09:12:31.000Z</time>
      </trkpt>
      <trkpt lat="47.32549" lon="-2.31412">
        <ele>2.5999999046326</ele>
        <time>2020-07-05T09:12:38.000Z</time>
      </trkpt>
      <trkpt lat="47.32553" lon="-2.31391">
        <ele>2.5999999046326</ele>
        <time>2020-07-05T09:12:42.000Z</time>
      </trkpt>
      <trkpt lat="47.32555" lon="-2.31349">
        <ele>2.5999999046326</ele>
        <time>2020-07-05T09:12:47.000Z</time>
      </trkpt>
      <trkpt lat="47.32557" lon="-2.31341">
        <ele>2.5999999046326</ele>
        <time>2020-07-05T09:12:48.000Z</time>
      </trkpt>
      <trkpt lat="47.32566" lon="-2.3132">
        <ele>2.5999999046326</ele>
        <time>2020-07-05T09:12:51.000Z</time>
      </trkpt>
      <trkpt lat="47.3257" lon="-2.31293">
        <ele>2.5999999046326</ele>
        <time>2020-07-05T09:12:54.000Z</time>
      </trkpt>
      <trkpt lat="47.32571" lon="-2.31284">
        <ele>2.5999999046326</ele>
        <time>2020-07-05T09:12:55.000Z</time>
      </trkpt>
      <trkpt lat="47.32573" lon="-2.31228">
        <ele>2.5999999046326</ele>
        <time>2020-07-05T09:13:01.000Z</time>
      </trkpt>
      <trkpt lat="47.32572" lon="-2.31219">
        <ele>2.5999999046326</ele>
        <time>2020-07-05T09:13:02.000Z</time>
      </trkpt>
      <trkpt lat="47.32565" lon="-2.31205">
        <ele>2.2000000476837</ele>
        <time>2020-07-05T09:13:04.000Z</time>
      </trkpt>
      <trkpt lat="47.32561" lon="-2.31197">
        <ele>1.7999999523163</ele>
        <time>2020-07-05T09:13:05.000Z</time>
      </trkpt>
      <trkpt lat="47.32559" lon="-2.31189">
        <ele>1.3999999761581</ele>
        <time>2020-07-05T09:13:06.000Z</time>
      </trkpt>
      <trkpt lat="47.32558" lon="-2.3118">
        <ele>1</ele>
        <time>2020-07-05T09:13:07.000Z</time>
      </trkpt>
      <trkpt lat="47.32558" lon="-2.31171">
        <ele>0.60000002384186</ele>
        <time>2020-07-05T09:13:08.000Z</time>
      </trkpt>
      <trkpt lat="47.3256" lon="-2.31155">
        <ele>0.60000002384186</ele>
        <time>2020-07-05T09:13:10.000Z</time>
      </trkpt>
      <trkpt lat="47.32561" lon="-2.31147">
        <ele>0.60000002384186</ele>
        <time>2020-07-05T09:13:11.000Z</time>
      </trkpt>
      <trkpt lat="47.32565" lon="-2.31109">
        <ele>0.60000002384186</ele>
        <time>2020-07-05T09:13:16.000Z</time>
      </trkpt>
      <trkpt lat="47.32567" lon="-2.31066">
        <ele>1.2000000476837</ele>
        <time>2020-07-05T09:13:22.000Z</time>
      </trkpt>
      <trkpt lat="47.32567" lon="-2.31059">
        <ele>1.6000000238419</ele>
        <time>2020-07-05T09:13:23.000Z</time>
      </trkpt>
      <trkpt lat="47.32567" lon="-2.31053">
        <ele>2.4000000953674</ele>
        <time>2020-07-05T09:13:24.000Z</time>
      </trkpt>
      <trkpt lat="47.32566" lon="-2.31046">
        <ele>2.7999999523163</ele>
        <time>2020-07-05T09:13:25.000Z</time>
      </trkpt>
      <trkpt lat="47.32561" lon="-2.31009">
        <ele>2.7999999523163</ele>
        <time>2020-07-05T09:13:30.000Z</time>
      </trkpt>
      <trkpt lat="47.3256" lon="-2.30973">
        <ele>2.7999999523163</ele>
        <time>2020-07-05T09:13:34.000Z</time>
      </trkpt>
      <trkpt lat="47.32561" lon="-2.30954">
        <ele>2.7999999523163</ele>
        <time>2020-07-05T09:13:36.000Z</time>
      </trkpt>
      <trkpt lat="47.32564" lon="-2.30897">
        <ele>2.7999999523163</ele>
        <time>2020-07-05T09:13:42.000Z</time>
      </trkpt>
      <trkpt lat="47.32562" lon="-2.30837">
        <ele>2.7999999523163</ele>
        <time>2020-07-05T09:13:48.000Z</time>
      </trkpt>
      <trkpt lat="47.32559" lon="-2.3079">
        <ele>2.7999999523163</ele>
        <time>2020-07-05T09:13:53.000Z</time>
      </trkpt>
      <trkpt lat="47.32553" lon="-2.30745">
        <ele>2.7999999523163</ele>
        <time>2020-07-05T09:13:58.000Z</time>
      </trkpt>
      <trkpt lat="47.32546" lon="-2.30708">
        <ele>2.7999999523163</ele>
        <time>2020-07-05T09:14:02.000Z</time>
      </trkpt>
      <trkpt lat="47.32545" lon="-2.30698">
        <ele>2.7999999523163</ele>
        <time>2020-07-05T09:14:03.000Z</time>
      </trkpt>
      <trkpt lat="47.32538" lon="-2.30645">
        <ele>2.7999999523163</ele>
        <time>2020-07-05T09:14:09.000Z</time>
      </trkpt>
      <trkpt lat="47.32536" lon="-2.30638">
        <ele>2.7999999523163</ele>
        <time>2020-07-05T09:14:10.000Z</time>
      </trkpt>
      <trkpt lat="47.32528" lon="-2.30594">
        <ele>2.7999999523163</ele>
        <time>2020-07-05T09:14:16.000Z</time>
      </trkpt>
      <trkpt lat="47.32521" lon="-2.30541">
        <ele>2.7999999523163</ele>
        <time>2020-07-05T09:14:23.000Z</time>
      </trkpt>
      <trkpt lat="47.32512" lon="-2.30493">
        <ele>2.7999999523163</ele>
        <time>2020-07-05T09:14:29.000Z</time>
      </trkpt>
      <trkpt lat="47.32498" lon="-2.30429">
        <ele>2.7999999523163</ele>
        <time>2020-07-05T09:14:38.000Z</time>
      </trkpt>
      <trkpt lat="47.32498" lon="-2.30422">
        <ele>2.7999999523163</ele>
        <time>2020-07-05T09:14:39.000Z</time>
      </trkpt>
      <trkpt lat="47.32506" lon="-2.30414">
        <ele>2.7999999523163</ele>
        <time>2020-07-05T09:14:41.000Z</time>
      </trkpt>
      <trkpt lat="47.32516" lon="-2.3041">
        <ele>2.7999999523163</ele>
        <time>2020-07-05T09:14:43.000Z</time>
      </trkpt>
      <trkpt lat="47.32531" lon="-2.30404">
        <ele>2.7999999523163</ele>
        <time>2020-07-05T09:14:46.000Z</time>
      </trkpt>
      <trkpt lat="47.32536" lon="-2.30401">
        <ele>2.7999999523163</ele>
        <time>2020-07-05T09:14:47.000Z</time>
      </trkpt>
      <trkpt lat="47.32541" lon="-2.30384">
        <ele>2.7999999523163</ele>
        <time>2020-07-05T09:14:50.000Z</time>
      </trkpt>
      <trkpt lat="47.32538" lon="-2.30365">
        <ele>2.7999999523163</ele>
        <time>2020-07-05T09:14:53.000Z</time>
      </trkpt>
      <trkpt lat="47.32536" lon="-2.3036">
        <ele>2.7999999523163</ele>
        <time>2020-07-05T09:14:54.000Z</time>
      </trkpt>
      <trkpt lat="47.32534" lon="-2.30353">
        <ele>2.7999999523163</ele>
        <time>2020-07-05T09:14:55.000Z</time>
      </trkpt>
      <trkpt lat="47.3253" lon="-2.30332">
        <ele>2.7999999523163</ele>
        <time>2020-07-05T09:14:58.000Z</time>
      </trkpt>
      <trkpt lat="47.32527" lon="-2.30317">
        <ele>2.7999999523163</ele>
        <time>2020-07-05T09:15:00.000Z</time>
      </trkpt>
      <trkpt lat="47.32524" lon="-2.30303">
        <ele>3.2000000476837</ele>
        <time>2020-07-05T09:15:02.000Z</time>
      </trkpt>
      <trkpt lat="47.32522" lon="-2.30296">
        <ele>4</ele>
        <time>2020-07-05T09:15:03.000Z</time>
      </trkpt>
      <trkpt lat="47.32521" lon="-2.30289">
        <ele>4.4000000953674</ele>
        <time>2020-07-05T09:15:04.000Z</time>
      </trkpt>
      <trkpt lat="47.3252" lon="-2.30282">
        <ele>4.8000001907349</ele>
        <time>2020-07-05T09:15:05.000Z</time>
      </trkpt>
      <trkpt lat="47.32518" lon="-2.30268">
        <ele>4.8000001907349</ele>
        <time>2020-07-05T09:15:07.000Z</time>
      </trkpt>
      <trkpt lat="47.32511" lon="-2.30215">
        <ele>4.8000001907349</ele>
        <time>2020-07-05T09:15:14.000Z</time>
      </trkpt>
      <trkpt lat="47.32509" lon="-2.30207">
        <ele>4.8000001907349</ele>
        <time>2020-07-05T09:15:15.000Z</time>
      </trkpt>
      <trkpt lat="47.32503" lon="-2.30163">
        <ele>4.8000001907349</ele>
        <time>2020-07-05T09:15:21.000Z</time>
      </trkpt>
      <trkpt lat="47.32497" lon="-2.30119">
        <ele>4.8000001907349</ele>
        <time>2020-07-05T09:15:27.000Z</time>
      </trkpt>
      <trkpt lat="47.32493" lon="-2.30088">
        <ele>4.8000001907349</ele>
        <time>2020-07-05T09:15:31.000Z</time>
      </trkpt>
      <trkpt lat="47.32492" lon="-2.3008">
        <ele>4.8000001907349</ele>
        <time>2020-07-05T09:15:32.000Z</time>
      </trkpt>
      <trkpt lat="47.32492" lon="-2.30072">
        <ele>5.1999998092651</ele>
        <time>2020-07-05T09:15:33.000Z</time>
      </trkpt>
      <trkpt lat="47.32491" lon="-2.30065">
        <ele>5.5999999046326</ele>
        <time>2020-07-05T09:15:34.000Z</time>
      </trkpt>
      <trkpt lat="47.32489" lon="-2.30058">
        <ele>6</ele>
        <time>2020-07-05T09:15:35.000Z</time>
      </trkpt>
      <trkpt lat="47.32487" lon="-2.3005">
        <ele>6.4000000953674</ele>
        <time>2020-07-05T09:15:36.000Z</time>
      </trkpt>
      <trkpt lat="47.32485" lon="-2.30042">
        <ele>6.8000001907349</ele>
        <time>2020-07-05T09:15:37.000Z</time>
      </trkpt>
      <trkpt lat="47.32468" lon="-2.29996">
        <ele>6.8000001907349</ele>
        <time>2020-07-05T09:15:43.000Z</time>
      </trkpt>
      <trkpt lat="47.32449" lon="-2.29966">
        <ele>6.8000001907349</ele>
        <time>2020-07-05T09:15:48.000Z</time>
      </trkpt>
      <trkpt lat="47.3244" lon="-2.29952">
        <ele>6.8000001907349</ele>
        <time>2020-07-05T09:15:52.000Z</time>
      </trkpt>
      <trkpt lat="47.32439" lon="-2.29952">
        <ele>6.8000001907349</ele>
        <time>2020-07-05T09:15:54.000Z</time>
      </trkpt>
      <trkpt lat="47.32439" lon="-2.29949">
        <ele>6.8000001907349</ele>
        <time>2020-07-05T09:16:02.000Z</time>
      </trkpt>
      <trkpt lat="47.3244" lon="-2.29947">
        <ele>6.8000001907349</ele>
        <time>2020-07-05T09:16:03.000Z</time>
      </trkpt>
      <trkpt lat="47.32446" lon="-2.29933">
        <ele>6.8000001907349</ele>
        <time>2020-07-05T09:16:07.000Z</time>
      </trkpt>
      <trkpt lat="47.32445" lon="-2.2991">
        <ele>6.8000001907349</ele>
        <time>2020-07-05T09:16:11.000Z</time>
      </trkpt>
      <trkpt lat="47.32442" lon="-2.29877">
        <ele>6.8000001907349</ele>
        <time>2020-07-05T09:16:16.000Z</time>
      </trkpt>
      <trkpt lat="47.32442" lon="-2.29871">
        <ele>6.8000001907349</ele>
        <time>2020-07-05T09:16:17.000Z</time>
      </trkpt>
      <trkpt lat="47.32451" lon="-2.29858">
        <ele>6.8000001907349</ele>
        <time>2020-07-05T09:16:20.000Z</time>
      </trkpt>
      <trkpt lat="47.3246" lon="-2.2985">
        <ele>6.8000001907349</ele>
        <time>2020-07-05T09:16:22.000Z</time>
      </trkpt>
      <trkpt lat="47.32471" lon="-2.29838">
        <ele>6.8000001907349</ele>
        <time>2020-07-05T09:16:25.000Z</time>
      </trkpt>
      <trkpt lat="47.32501" lon="-2.2981">
        <ele>6.8000001907349</ele>
        <time>2020-07-05T09:16:31.000Z</time>
      </trkpt>
      <trkpt lat="47.32521" lon="-2.2979">
        <ele>6.8000001907349</ele>
        <time>2020-07-05T09:16:35.000Z</time>
      </trkpt>
      <trkpt lat="47.32522" lon="-2.29783">
        <ele>6.8000001907349</ele>
        <time>2020-07-05T09:16:36.000Z</time>
      </trkpt>
      <trkpt lat="47.32519" lon="-2.29762">
        <ele>6.8000001907349</ele>
        <time>2020-07-05T09:16:39.000Z</time>
      </trkpt>
      <trkpt lat="47.32517" lon="-2.29754">
        <ele>6.8000001907349</ele>
        <time>2020-07-05T09:16:40.000Z</time>
      </trkpt>
      <trkpt lat="47.32508" lon="-2.29715">
        <ele>6.8000001907349</ele>
        <time>2020-07-05T09:16:44.000Z</time>
      </trkpt>
      <trkpt lat="47.32488" lon="-2.29646">
        <ele>6.8000001907349</ele>
        <time>2020-07-05T09:16:51.000Z</time>
      </trkpt>
      <trkpt lat="47.32485" lon="-2.29634">
        <ele>6.4000000953674</ele>
        <time>2020-07-05T09:16:52.000Z</time>
      </trkpt>
      <trkpt lat="47.32482" lon="-2.29623">
        <ele>5.8000001907349</ele>
        <time>2020-07-05T09:16:53.000Z</time>
      </trkpt>
      <trkpt lat="47.32479" lon="-2.29612">
        <ele>5.4000000953674</ele>
        <time>2020-07-05T09:16:54.000Z</time>
      </trkpt>
      <trkpt lat="47.32476" lon="-2.296">
        <ele>4.8000001907349</ele>
        <time>2020-07-05T09:16:55.000Z</time>
      </trkpt>
      <trkpt lat="47.32472" lon="-2.29589">
        <ele>4.4000000953674</ele>
        <time>2020-07-05T09:16:56.000Z</time>
      </trkpt>
      <trkpt lat="47.32469" lon="-2.29577">
        <ele>4.4000000953674</ele>
        <time>2020-07-05T09:16:57.000Z</time>
      </trkpt>
      <trkpt lat="47.32462" lon="-2.29552">
        <ele>3.7999999523163</ele>
        <time>2020-07-05T09:16:59.000Z</time>
      </trkpt>
      <trkpt lat="47.32458" lon="-2.2954">
        <ele>3.4000000953674</ele>
        <time>2020-07-05T09:17:00.000Z</time>
      </trkpt>
      <trkpt lat="47.32454" lon="-2.29528">
        <ele>2.7999999523163</ele>
        <time>2020-07-05T09:17:01.000Z</time>
      </trkpt>
      <trkpt lat="47.32449" lon="-2.29515">
        <ele>2.2000000476837</ele>
        <time>2020-07-05T09:17:02.000Z</time>
      </trkpt>
      <trkpt lat="47.32445" lon="-2.29503">
        <ele>1.7999999523163</ele>
        <time>2020-07-05T09:17:03.000Z</time>
      </trkpt>
      <trkpt lat="47.32441" lon="-2.29491">
        <ele>1.7999999523163</ele>
        <time>2020-07-05T09:17:04.000Z</time>
      </trkpt>
      <trkpt lat="47.32438" lon="-2.29478">
        <ele>1.3999999761581</ele>
        <time>2020-07-05T09:17:05.000Z</time>
      </trkpt>
      <trkpt lat="47.32435" lon="-2.29466">
        <ele>0.40000000596046</ele>
        <time>2020-07-05T09:17:06.000Z</time>
      </trkpt>
      <trkpt lat="47.32433" lon="-2.29453">
        <ele>7.3</ele>
        <time>2020-07-05T09:17:07.000Z</time>
      </trkpt>
      <trkpt lat="47.32432" lon="-2.2944">
        <ele>-0.60000002384186</ele>
        <time>2020-07-05T09:17:08.000Z</time>
      </trkpt>
      <trkpt lat="47.32432" lon="-2.29427">
        <ele>-1</ele>
        <time>2020-07-05T09:17:09.000Z</time>
      </trkpt>
      <trkpt lat="47.3243" lon="-2.29416">
        <ele>-1.3999999761581</ele>
        <time>2020-07-05T09:17:10.000Z</time>
      </trkpt>
      <trkpt lat="47.32429" lon="-2.29406">
        <ele>-1.7999999523163</ele>
        <time>2020-07-05T09:17:11.000Z</time>
      </trkpt>
      <trkpt lat="47.32427" lon="-2.29395">
        <ele>-2.2000000476837</ele>
        <time>2020-07-05T09:17:12.000Z</time>
      </trkpt>
      <trkpt lat="47.32425" lon="-2.29384">
        <ele>-2.7999999523163</ele>
        <time>2020-07-05T09:17:13.000Z</time>
      </trkpt>
      <trkpt lat="47.32421" lon="-2.29361">
        <ele>-3.2000000476837</ele>
        <time>2020-07-05T09:17:15.000Z</time>
      </trkpt>
      <trkpt lat="47.32419" lon="-2.29349">
        <ele>-3.5999999046326</ele>
        <time>2020-07-05T09:17:16.000Z</time>
      </trkpt>
      <trkpt lat="47.32418" lon="-2.29338">
        <ele>-4</ele>
        <time>2020-07-05T09:17:17.000Z</time>
      </trkpt>
      <trkpt lat="47.32417" lon="-2.29328">
        <ele>-4.4000000953674</ele>
        <time>2020-07-05T09:17:18.000Z</time>
      </trkpt>
      <trkpt lat="47.32415" lon="-2.29317">
        <ele>-4.8000001907349</ele>
        <time>2020-07-05T09:17:19.000Z</time>
      </trkpt>
      <trkpt lat="47.32409" lon="-2.29286">
        <ele>-4.8000001907349</ele>
        <time>2020-07-05T09:17:22.000Z</time>
      </trkpt>
      <trkpt lat="47.32399" lon="-2.29269">
        <ele>-4.8000001907349</ele>
        <time>2020-07-05T09:17:24.000Z</time>
      </trkpt>
      <trkpt lat="47.32393" lon="-2.29264">
        <ele>-4.8000001907349</ele>
        <time>2020-07-05T09:17:25.000Z</time>
      </trkpt>
      <trkpt lat="47.3238" lon="-2.29256">
        <ele>-4.8000001907349</ele>
        <time>2020-07-05T09:17:27.000Z</time>
      </trkpt>
      <trkpt lat="47.32374" lon="-2.29252">
        <ele>-4.8000001907349</ele>
        <time>2020-07-05T09:17:28.000Z</time>
      </trkpt>
      <trkpt lat="47.32334" lon="-2.29233">
        <ele>-4.8000001907349</ele>
        <time>2020-07-05T09:17:34.000Z</time>
      </trkpt>
      <trkpt lat="47.32316" lon="-2.29223">
        <ele>-4.8000001907349</ele>
        <time>2020-07-05T09:17:37.000Z</time>
      </trkpt>
      <trkpt lat="47.32305" lon="-2.29215">
        <ele>-4.8000001907349</ele>
        <time>2020-07-05T09:17:39.000Z</time>
      </trkpt>
      <trkpt lat="47.32286" lon="-2.29218">
        <ele>-4.8000001907349</ele>
        <time>2020-07-05T09:17:42.000Z</time>
      </trkpt>
      <trkpt lat="47.3228" lon="-2.29219">
        <ele>-4.8000001907349</ele>
        <time>2020-07-05T09:17:43.000Z</time>
      </trkpt>
      <trkpt lat="47.3225" lon="-2.29228">
        <ele>-4.8000001907349</ele>
        <time>2020-07-05T09:17:48.000Z</time>
      </trkpt>
      <trkpt lat="47.32245" lon="-2.29225">
        <ele>-4.8000001907349</ele>
        <time>2020-07-05T09:17:49.000Z</time>
      </trkpt>
      <trkpt lat="47.32235" lon="-2.29209">
        <ele>-4.8000001907349</ele>
        <time>2020-07-05T09:17:52.000Z</time>
      </trkpt>
      <trkpt lat="47.32231" lon="-2.29203">
        <ele>-4.8000001907349</ele>
        <time>2020-07-05T09:17:53.000Z</time>
      </trkpt>
      <trkpt lat="47.32213" lon="-2.29173">
        <ele>-4.8000001907349</ele>
        <time>2020-07-05T09:17:58.000Z</time>
      </trkpt>
      <trkpt lat="47.32182" lon="-2.29139">
        <ele>-4.8000001907349</ele>
        <time>2020-07-05T09:18:05.000Z</time>
      </trkpt>
      <trkpt lat="47.32156" lon="-2.29116">
        <ele>-4.8000001907349</ele>
        <time>2020-07-05T09:18:11.000Z</time>
      </trkpt>
      <trkpt lat="47.32148" lon="-2.29107">
        <ele>-4.8000001907349</ele>
        <time>2020-07-05T09:18:13.000Z</time>
      </trkpt>
      <trkpt lat="47.32141" lon="-2.29092">
        <ele>-4.8000001907349</ele>
        <time>2020-07-05T09:18:16.000Z</time>
      </trkpt>
      <trkpt lat="47.32128" lon="-2.29046">
        <ele>-4.8000001907349</ele>
        <time>2020-07-05T09:18:22.000Z</time>
      </trkpt>
      <trkpt lat="47.32118" lon="-2.29023">
        <ele>-4.8000001907349</ele>
        <time>2020-07-05T09:18:25.000Z</time>
      </trkpt>
      <trkpt lat="47.32113" lon="-2.29008">
        <ele>-4.8000001907349</ele>
        <time>2020-07-05T09:18:27.000Z</time>
      </trkpt>
      <trkpt lat="47.32103" lon="-2.28991">
        <ele>-4.8000001907349</ele>
        <time>2020-07-05T09:18:29.000Z</time>
      </trkpt>
      <trkpt lat="47.3209" lon="-2.2898">
        <ele>-4.8000001907349</ele>
        <time>2020-07-05T09:18:31.000Z</time>
      </trkpt>
      <trkpt lat="47.32077" lon="-2.28971">
        <ele>-4.8000001907349</ele>
        <time>2020-07-05T09:18:33.000Z</time>
      </trkpt>
      <trkpt lat="47.32065" lon="-2.28962">
        <ele>-5.1999998092651</ele>
        <time>2020-07-05T09:18:35.000Z</time>
      </trkpt>
      <trkpt lat="47.32059" lon="-2.28957">
        <ele>-5.5999999046326</ele>
        <time>2020-07-05T09:18:36.000Z</time>
      </trkpt>
      <trkpt lat="47.32054" lon="-2.2895">
        <ele>-6</ele>
        <time>2020-07-05T09:18:37.000Z</time>
      </trkpt>
      <trkpt lat="47.32052" lon="-2.2894">
        <ele>-6.4000000953674</ele>
        <time>2020-07-05T09:18:38.000Z</time>
      </trkpt>
      <trkpt lat="47.3205" lon="-2.2893">
        <ele>-6.8000001907349</ele>
        <time>2020-07-05T09:18:39.000Z</time>
      </trkpt>
      <trkpt lat="47.32046" lon="-2.28899">
        <ele>-6.8000001907349</ele>
        <time>2020-07-05T09:18:42.000Z</time>
      </trkpt>
      <trkpt lat="47.32042" lon="-2.28882">
        <ele>-6.8000001907349</ele>
        <time>2020-07-05T09:18:44.000Z</time>
      </trkpt>
      <trkpt lat="47.32039" lon="-2.28877">
        <ele>-7.4000000953674</ele>
        <time>2020-07-05T09:18:45.000Z</time>
      </trkpt>
      <trkpt lat="47.32034" lon="-2.28875">
        <ele>-7.8000001907349</ele>
        <time>2020-07-05T09:18:46.000Z</time>
      </trkpt>
      <trkpt lat="47.32029" lon="-2.28875">
        <ele>-8.1999998092651</ele>
        <time>2020-07-05T09:18:47.000Z</time>
      </trkpt>
      <trkpt lat="47.32023" lon="-2.28877">
        <ele>-8.6000003814697</ele>
        <time>2020-07-05T09:18:48.000Z</time>
      </trkpt>
      <trkpt lat="47.32018" lon="-2.2888">
        <ele>-9</ele>
        <time>2020-07-05T09:18:49.000Z</time>
      </trkpt>
      <trkpt lat="47.32012" lon="-2.28883">
        <ele>-9</ele>
        <time>2020-07-05T09:18:50.000Z</time>
      </trkpt>
      <trkpt lat="47.31995" lon="-2.28889">
        <ele>-9</ele>
        <time>2020-07-05T09:18:53.000Z</time>
      </trkpt>
      <trkpt lat="47.31985" lon="-2.28891">
        <ele>-9</ele>
        <time>2020-07-05T09:18:55.000Z</time>
      </trkpt>
      <trkpt lat="47.31953" lon="-2.28892">
        <ele>-9</ele>
        <time>2020-07-05T09:19:02.000Z</time>
      </trkpt>
      <trkpt lat="47.31947" lon="-2.28875">
        <ele>-9</ele>
        <time>2020-07-05T09:19:05.000Z</time>
      </trkpt>
      <trkpt lat="47.31946" lon="-2.28863">
        <ele>-9</ele>
        <time>2020-07-05T09:19:07.000Z</time>
      </trkpt>
      <trkpt lat="47.31943" lon="-2.2885">
        <ele>-9</ele>
        <time>2020-07-05T09:19:09.000Z</time>
      </trkpt>
      <trkpt lat="47.31941" lon="-2.28845">
        <ele>-9</ele>
        <time>2020-07-05T09:19:10.000Z</time>
      </trkpt>
      <trkpt lat="47.31929" lon="-2.28844">
        <ele>-9</ele>
        <time>2020-07-05T09:19:13.000Z</time>
      </trkpt>
      <trkpt lat="47.31924" lon="-2.28844">
        <ele>-9</ele>
        <time>2020-07-05T09:19:14.000Z</time>
      </trkpt>
      <trkpt lat="47.31896" lon="-2.28845">
        <ele>-9</ele>
        <time>2020-07-05T09:19:20.000Z</time>
      </trkpt>
      <trkpt lat="47.31871" lon="-2.28845">
        <ele>-8.6000003814697</ele>
        <time>2020-07-05T09:19:25.000Z</time>
      </trkpt>
      <trkpt lat="47.31868" lon="-2.28845">
        <ele>-8.1999998092651</ele>
        <time>2020-07-05T09:19:26.000Z</time>
      </trkpt>
      <trkpt lat="47.31867" lon="-2.28844">
        <ele>-7.8000001907349</ele>
        <time>2020-07-05T09:19:27.000Z</time>
      </trkpt>
      <trkpt lat="47.31866" lon="-2.28843">
        <ele>-7.4000000953674</ele>
        <time>2020-07-05T09:19:28.000Z</time>
      </trkpt>
      <trkpt lat="47.31866" lon="-2.28841">
        <ele>-7</ele>
        <time>2020-07-05T09:19:29.000Z</time>
      </trkpt>
      <trkpt lat="47.31868" lon="-2.2883">
        <ele>-7</ele>
        <time>2020-07-05T09:19:33.000Z</time>
      </trkpt>
      <trkpt lat="47.31868" lon="-2.28827">
        <ele>-7</ele>
        <time>2020-07-05T09:19:34.000Z</time>
      </trkpt>
      <trkpt lat="47.31872" lon="-2.288">
        <ele>-7</ele>
        <time>2020-07-05T09:19:40.000Z</time>
      </trkpt>
      <trkpt lat="47.31874" lon="-2.28769">
        <ele>-7</ele>
        <time>2020-07-05T09:19:46.000Z</time>
      </trkpt>
      <trkpt lat="47.31877" lon="-2.28732">
        <ele>-7</ele>
        <time>2020-07-05T09:19:53.000Z</time>
      </trkpt>
      <trkpt lat="47.3188" lon="-2.28694">
        <ele>-7</ele>
        <time>2020-07-05T09:20:00.000Z</time>
      </trkpt>
      <trkpt lat="47.31885" lon="-2.28653">
        <ele>-7</ele>
        <time>2020-07-05T09:20:07.000Z</time>
      </trkpt>
      <trkpt lat="47.31891" lon="-2.28626">
        <ele>-7</ele>
        <time>2020-07-05T09:20:12.000Z</time>
      </trkpt>
      <trkpt lat="47.31893" lon="-2.28619">
        <ele>-7</ele>
        <time>2020-07-05T09:20:16.000Z</time>
      </trkpt>
      <trkpt lat="47.31897" lon="-2.28608">
        <ele>-7</ele>
        <time>2020-07-05T09:23:36.000Z</time>
      </trkpt>
      <trkpt lat="47.31899" lon="-2.28597">
        <ele>-7</ele>
        <time>2020-07-05T09:23:39.000Z</time>
      </trkpt>
      <trkpt lat="47.31897" lon="-2.28574">
        <ele>-7</ele>
        <time>2020-07-05T09:23:44.000Z</time>
      </trkpt>
      <trkpt lat="47.31895" lon="-2.28545">
        <ele>-7</ele>
        <time>2020-07-05T09:23:49.000Z</time>
      </trkpt>
      <trkpt lat="47.31895" lon="-2.28537">
        <ele>-7</ele>
        <time>2020-07-05T09:23:50.000Z</time>
      </trkpt>
      <trkpt lat="47.31896" lon="-2.28492">
        <ele>-7</ele>
        <time>2020-07-05T09:23:56.000Z</time>
      </trkpt>
      <trkpt lat="47.31897" lon="-2.28485">
        <ele>-7</ele>
        <time>2020-07-05T09:23:57.000Z</time>
      </trkpt>
      <trkpt lat="47.31898" lon="-2.28429">
        <ele>-7</ele>
        <time>2020-07-05T09:24:04.000Z</time>
      </trkpt>
      <trkpt lat="47.31891" lon="-2.28383">
        <ele>-7</ele>
        <time>2020-07-05T09:24:10.000Z</time>
      </trkpt>
      <trkpt lat="47.3188" lon="-2.2833">
        <ele>-7</ele>
        <time>2020-07-05T09:24:17.000Z</time>
      </trkpt>
      <trkpt lat="47.3187" lon="-2.28272">
        <ele>-7</ele>
        <time>2020-07-05T09:24:24.000Z</time>
      </trkpt>
      <trkpt lat="47.31861" lon="-2.28203">
        <ele>-7</ele>
        <time>2020-07-05T09:24:31.000Z</time>
      </trkpt>
      <trkpt lat="47.31863" lon="-2.28138">
        <ele>-7</ele>
        <time>2020-07-05T09:24:37.000Z</time>
      </trkpt>
      <trkpt lat="47.31863" lon="-2.28079">
        <ele>-7</ele>
        <time>2020-07-05T09:24:43.000Z</time>
      </trkpt>
      <trkpt lat="47.31861" lon="-2.28024">
        <ele>-7</ele>
        <time>2020-07-05T09:24:49.000Z</time>
      </trkpt>
      <trkpt lat="47.31859" lon="-2.27966">
        <ele>-7</ele>
        <time>2020-07-05T09:24:55.000Z</time>
      </trkpt>
      <trkpt lat="47.31859" lon="-2.27901">
        <ele>-7</ele>
        <time>2020-07-05T09:25:02.000Z</time>
      </trkpt>
      <trkpt lat="47.31864" lon="-2.27834">
        <ele>-7</ele>
        <time>2020-07-05T09:25:09.000Z</time>
      </trkpt>
      <trkpt lat="47.31866" lon="-2.27757">
        <ele>-7</ele>
        <time>2020-07-05T09:25:17.000Z</time>
      </trkpt>
      <trkpt lat="47.31867" lon="-2.27699">
        <ele>-7</ele>
        <time>2020-07-05T09:25:23.000Z</time>
      </trkpt>
      <trkpt lat="47.31864" lon="-2.27622">
        <ele>-7</ele>
        <time>2020-07-05T09:25:31.000Z</time>
      </trkpt>
      <trkpt lat="47.31859" lon="-2.27539">
        <ele>-7</ele>
        <time>2020-07-05T09:25:39.000Z</time>
      </trkpt>
      <trkpt lat="47.31859" lon="-2.27467">
        <ele>-7</ele>
        <time>2020-07-05T09:25:46.000Z</time>
      </trkpt>
      <trkpt lat="47.3186" lon="-2.2741">
        <ele>-7</ele>
        <time>2020-07-05T09:25:52.000Z</time>
      </trkpt>
      <trkpt lat="47.31858" lon="-2.27356">
        <ele>-7</ele>
        <time>2020-07-05T09:25:58.000Z</time>
      </trkpt>
      <trkpt lat="47.31854" lon="-2.27304">
        <ele>-7</ele>
        <time>2020-07-05T09:26:04.000Z</time>
      </trkpt>
      <trkpt lat="47.31853" lon="-2.27287">
        <ele>-7</ele>
        <time>2020-07-05T09:26:06.000Z</time>
      </trkpt>
      <trkpt lat="47.31853" lon="-2.27257">
        <ele>-7</ele>
        <time>2020-07-05T09:26:09.000Z</time>
      </trkpt>
      <trkpt lat="47.3185" lon="-2.27178">
        <ele>-7</ele>
        <time>2020-07-05T09:26:17.000Z</time>
      </trkpt>
      <trkpt lat="47.3185" lon="-2.27168">
        <ele>-7</ele>
        <time>2020-07-05T09:26:18.000Z</time>
      </trkpt>
      <trkpt lat="47.31847" lon="-2.27106">
        <ele>-7</ele>
        <time>2020-07-05T09:26:25.000Z</time>
      </trkpt>
      <trkpt lat="47.31846" lon="-2.27094">
        <ele>-7</ele>
        <time>2020-07-05T09:26:27.000Z</time>
      </trkpt>
      <trkpt lat="47.31846" lon="-2.27075">
        <ele>-7.4000000953674</ele>
        <time>2020-07-05T09:26:30.000Z</time>
      </trkpt>
      <trkpt lat="47.31846" lon="-2.27069">
        <ele>-7.8000001907349</ele>
        <time>2020-07-05T09:26:31.000Z</time>
      </trkpt>
      <trkpt lat="47.31846" lon="-2.27062">
        <ele>-8.1999998092651</ele>
        <time>2020-07-05T09:26:32.000Z</time>
      </trkpt>
      <trkpt lat="47.31847" lon="-2.27056">
        <ele>-9.1999998092651</ele>
        <time>2020-07-05T09:26:33.000Z</time>
      </trkpt>
      <trkpt lat="47.31846" lon="-2.27049">
        <ele>-9.1999998092651</ele>
        <time>2020-07-05T09:26:34.000Z</time>
      </trkpt>
      <trkpt lat="47.31845" lon="-2.27033">
        <ele>-9.1999998092651</ele>
        <time>2020-07-05T09:26:36.000Z</time>
      </trkpt>
      <trkpt lat="47.31845" lon="-2.27015">
        <ele>-9.1999998092651</ele>
        <time>2020-07-05T09:26:38.000Z</time>
      </trkpt>
      <trkpt lat="47.31844" lon="-2.26986">
        <ele>-9.1999998092651</ele>
        <time>2020-07-05T09:26:41.000Z</time>
      </trkpt>
      <trkpt lat="47.31844" lon="-2.26976">
        <ele>-9.1999998092651</ele>
        <time>2020-07-05T09:26:42.000Z</time>
      </trkpt>
      <trkpt lat="47.31839" lon="-2.26904">
        <ele>-9.1999998092651</ele>
        <time>2020-07-05T09:26:49.000Z</time>
      </trkpt>
      <trkpt lat="47.31834" lon="-2.26837">
        <ele>-9.1999998092651</ele>
        <time>2020-07-05T09:26:56.000Z</time>
      </trkpt>
      <trkpt lat="47.31832" lon="-2.26796">
        <ele>-9.1999998092651</ele>
        <time>2020-07-05T09:27:01.000Z</time>
      </trkpt>
      <trkpt lat="47.31831" lon="-2.2677">
        <ele>-9.1999998092651</ele>
        <time>2020-07-05T09:27:05.000Z</time>
      </trkpt>
      <trkpt lat="47.31829" lon="-2.26764">
        <ele>-9.1999998092651</ele>
        <time>2020-07-05T09:27:06.000Z</time>
      </trkpt>
      <trkpt lat="47.31826" lon="-2.2675">
        <ele>-9.1999998092651</ele>
        <time>2020-07-05T09:27:08.000Z</time>
      </trkpt>
      <trkpt lat="47.31823" lon="-2.26743">
        <ele>-8.8000001907349</ele>
        <time>2020-07-05T09:27:09.000Z</time>
      </trkpt>
      <trkpt lat="47.31821" lon="-2.26735">
        <ele>-8.1999998092651</ele>
        <time>2020-07-05T09:27:10.000Z</time>
      </trkpt>
      <trkpt lat="47.31818" lon="-2.26728">
        <ele>-7.8000001907349</ele>
        <time>2020-07-05T09:27:11.000Z</time>
      </trkpt>
      <trkpt lat="47.31815" lon="-2.2672">
        <ele>-7.4000000953674</ele>
        <time>2020-07-05T09:27:12.000Z</time>
      </trkpt>
      <trkpt lat="47.31812" lon="-2.26713">
        <ele>-7</ele>
        <time>2020-07-05T09:27:13.000Z</time>
      </trkpt>
      <trkpt lat="47.31806" lon="-2.26701">
        <ele>-7</ele>
        <time>2020-07-05T09:27:15.000Z</time>
      </trkpt>
      <trkpt lat="47.31802" lon="-2.26699">
        <ele>-7</ele>
        <time>2020-07-05T09:27:16.000Z</time>
      </trkpt>
      <trkpt lat="47.31786" lon="-2.26701">
        <ele>-7</ele>
        <time>2020-07-05T09:27:19.000Z</time>
      </trkpt>
      <trkpt lat="47.31748" lon="-2.26713">
        <ele>-7</ele>
        <time>2020-07-05T09:27:25.000Z</time>
      </trkpt>
      <trkpt lat="47.31728" lon="-2.26719">
        <ele>-7.4000000953674</ele>
        <time>2020-07-05T09:27:28.000Z</time>
      </trkpt>
      <trkpt lat="47.31722" lon="-2.26721">
        <ele>-7.8000001907349</ele>
        <time>2020-07-05T09:27:29.000Z</time>
      </trkpt>
      <trkpt lat="47.31716" lon="-2.26723">
        <ele>-8.1999998092651</ele>
        <time>2020-07-05T09:27:30.000Z</time>
      </trkpt>
      <trkpt lat="47.31709" lon="-2.26725">
        <ele>-8.6000003814697</ele>
        <time>2020-07-05T09:27:31.000Z</time>
      </trkpt>
      <trkpt lat="47.31703" lon="-2.26727">
        <ele>-9</ele>
        <time>2020-07-05T09:27:32.000Z</time>
      </trkpt>
      <trkpt lat="47.31666" lon="-2.26735">
        <ele>-9</ele>
        <time>2020-07-05T09:27:38.000Z</time>
      </trkpt>
      <trkpt lat="47.31635" lon="-2.26749">
        <ele>-9</ele>
        <time>2020-07-05T09:27:44.000Z</time>
      </trkpt>
      <trkpt lat="47.31625" lon="-2.26757">
        <ele>-9</ele>
        <time>2020-07-05T09:27:46.000Z</time>
      </trkpt>
      <trkpt lat="47.31614" lon="-2.26761">
        <ele>-9</ele>
        <time>2020-07-05T09:27:48.000Z</time>
      </trkpt>
      <trkpt lat="47.31601" lon="-2.26761">
        <ele>-9.3999996185303</ele>
        <time>2020-07-05T09:27:50.000Z</time>
      </trkpt>
      <trkpt lat="47.31595" lon="-2.2676">
        <ele>-9.8000001907349</ele>
        <time>2020-07-05T09:27:51.000Z</time>
      </trkpt>
      <trkpt lat="47.31589" lon="-2.26759">
        <ele>-10.39999961853</ele>
        <time>2020-07-05T09:27:52.000Z</time>
      </trkpt>
      <trkpt lat="47.31583" lon="-2.26759">
        <ele>-10.800000190735</ele>
        <time>2020-07-05T09:27:53.000Z</time>
      </trkpt>
      <trkpt lat="47.31578" lon="-2.2676">
        <ele>-11.199999809265</ele>
        <time>2020-07-05T09:27:54.000Z</time>
      </trkpt>
      <trkpt lat="47.31564" lon="-2.26772">
        <ele>-11.199999809265</ele>
        <time>2020-07-05T09:27:57.000Z</time>
      </trkpt>
      <trkpt lat="47.31558" lon="-2.26786">
        <ele>-11.199999809265</ele>
        <time>2020-07-05T09:27:59.000Z</time>
      </trkpt>
      <trkpt lat="47.31553" lon="-2.268">
        <ele>-11.199999809265</ele>
        <time>2020-07-05T09:28:01.000Z</time>
      </trkpt>
      <trkpt lat="47.31546" lon="-2.26822">
        <ele>-11.199999809265</ele>
        <time>2020-07-05T09:28:05.000Z</time>
      </trkpt>
      <trkpt lat="47.31533" lon="-2.26855">
        <ele>-11.199999809265</ele>
        <time>2020-07-05T09:28:10.000Z</time>
      </trkpt>
      <trkpt lat="47.3152" lon="-2.2689">
        <ele>-11.199999809265</ele>
        <time>2020-07-05T09:28:15.000Z</time>
      </trkpt>
      <trkpt lat="47.31508" lon="-2.26935">
        <ele>-11.199999809265</ele>
        <time>2020-07-05T09:28:21.000Z</time>
      </trkpt>
      <trkpt lat="47.31505" lon="-2.26941">
        <ele>-11.199999809265</ele>
        <time>2020-07-05T09:28:22.000Z</time>
      </trkpt>
      <trkpt lat="47.31501" lon="-2.26955">
        <ele>-11.199999809265</ele>
        <time>2020-07-05T09:28:24.000Z</time>
      </trkpt>
      <trkpt lat="47.315" lon="-2.26962">
        <ele>-11.199999809265</ele>
        <time>2020-07-05T09:28:25.000Z</time>
      </trkpt>
      <trkpt lat="47.31491" lon="-2.26982">
        <ele>-11.199999809265</ele>
        <time>2020-07-05T09:28:29.000Z</time>
      </trkpt>
      <trkpt lat="47.31466" lon="-2.27001">
        <ele>-11.199999809265</ele>
        <time>2020-07-05T09:28:33.000Z</time>
      </trkpt>
      <trkpt lat="47.31425" lon="-2.27031">
        <ele>-11.199999809265</ele>
        <time>2020-07-05T09:28:40.000Z</time>
      </trkpt>
      <trkpt lat="47.31414" lon="-2.2704">
        <ele>-10.800000190735</ele>
        <time>2020-07-05T09:28:42.000Z</time>
      </trkpt>
      <trkpt lat="47.31408" lon="-2.27044">
        <ele>-10.39999961853</ele>
        <time>2020-07-05T09:28:43.000Z</time>
      </trkpt>
      <trkpt lat="47.31403" lon="-2.27047">
        <ele>-9.8000001907349</ele>
        <time>2020-07-05T09:28:44.000Z</time>
      </trkpt>
      <trkpt lat="47.31397" lon="-2.27051">
        <ele>-9.3999996185303</ele>
        <time>2020-07-05T09:28:45.000Z</time>
      </trkpt>
      <trkpt lat="47.31392" lon="-2.27054">
        <ele>-9</ele>
        <time>2020-07-05T09:28:46.000Z</time>
      </trkpt>
      <trkpt lat="47.3138" lon="-2.2706">
        <ele>-9</ele>
        <time>2020-07-05T09:28:48.000Z</time>
      </trkpt>
      <trkpt lat="47.31364" lon="-2.27068">
        <ele>-9</ele>
        <time>2020-07-05T09:28:51.000Z</time>
      </trkpt>
      <trkpt lat="47.31348" lon="-2.27074">
        <ele>-9</ele>
        <time>2020-07-05T09:28:54.000Z</time>
      </trkpt>
      <trkpt lat="47.31314" lon="-2.27086">
        <ele>-9</ele>
        <time>2020-07-05T09:29:00.000Z</time>
      </trkpt>
      <trkpt lat="47.31282" lon="-2.27103">
        <ele>-9</ele>
        <time>2020-07-05T09:29:06.000Z</time>
      </trkpt>
      <trkpt lat="47.31276" lon="-2.27123">
        <ele>-9</ele>
        <time>2020-07-05T09:29:09.000Z</time>
      </trkpt>
      <trkpt lat="47.31279" lon="-2.2714">
        <ele>-9</ele>
        <time>2020-07-05T09:29:11.000Z</time>
      </trkpt>
      <trkpt lat="47.31283" lon="-2.27159">
        <ele>-9</ele>
        <time>2020-07-05T09:29:13.000Z</time>
      </trkpt>
      <trkpt lat="47.31293" lon="-2.27211">
        <ele>-9</ele>
        <time>2020-07-05T09:29:18.000Z</time>
      </trkpt>
      <trkpt lat="47.31313" lon="-2.27283">
        <ele>-9</ele>
        <time>2020-07-05T09:29:25.000Z</time>
      </trkpt>
      <trkpt lat="47.31318" lon="-2.27293">
        <ele>-10</ele>
        <time>2020-07-05T09:29:26.000Z</time>
      </trkpt>
      <trkpt lat="47.31324" lon="-2.27303">
        <ele>-10.39999961853</ele>
        <time>2020-07-05T09:29:27.000Z</time>
      </trkpt>
      <trkpt lat="47.3133" lon="-2.27313">
        <ele>-10.800000190735</ele>
        <time>2020-07-05T09:29:28.000Z</time>
      </trkpt>
      <trkpt lat="47.31336" lon="-2.27322">
        <ele>-11.199999809265</ele>
        <time>2020-07-05T09:29:29.000Z</time>
      </trkpt>
      <trkpt lat="47.31342" lon="-2.27331">
        <ele>-11.199999809265</ele>
        <time>2020-07-05T09:29:30.000Z</time>
      </trkpt>
      <trkpt lat="47.3136" lon="-2.27356">
        <ele>-11.199999809265</ele>
        <time>2020-07-05T09:29:33.000Z</time>
      </trkpt>
      <trkpt lat="47.31371" lon="-2.27372">
        <ele>-11.199999809265</ele>
        <time>2020-07-05T09:29:35.000Z</time>
      </trkpt>
      <trkpt lat="47.31413" lon="-2.27421">
        <ele>-11.199999809265</ele>
        <time>2020-07-05T09:29:42.000Z</time>
      </trkpt>
      <trkpt lat="47.31442" lon="-2.27444">
        <ele>-11.199999809265</ele>
        <time>2020-07-05T09:29:47.000Z</time>
      </trkpt>
      <trkpt lat="47.31452" lon="-2.27455">
        <ele>-11.199999809265</ele>
        <time>2020-07-05T09:29:49.000Z</time>
      </trkpt>
      <trkpt lat="47.31459" lon="-2.27469">
        <ele>-11.199999809265</ele>
        <time>2020-07-05T09:29:51.000Z</time>
      </trkpt>
      <trkpt lat="47.31463" lon="-2.27485">
        <ele>-11.199999809265</ele>
        <time>2020-07-05T09:29:53.000Z</time>
      </trkpt>
      <trkpt lat="47.31469" lon="-2.27504">
        <ele>-11.199999809265</ele>
        <time>2020-07-05T09:29:55.000Z</time>
      </trkpt>
      <trkpt lat="47.31473" lon="-2.27514">
        <ele>-11.199999809265</ele>
        <time>2020-07-05T09:29:56.000Z</time>
      </trkpt>
      <trkpt lat="47.31489" lon="-2.27551">
        <ele>-11.199999809265</ele>
        <time>2020-07-05T09:30:00.000Z</time>
      </trkpt>
      <trkpt lat="47.31504" lon="-2.276">
        <ele>-11.199999809265</ele>
        <time>2020-07-05T09:30:05.000Z</time>
      </trkpt>
      <trkpt lat="47.31503" lon="-2.2763">
        <ele>-11.199999809265</ele>
        <time>2020-07-05T09:30:08.000Z</time>
      </trkpt>
      <trkpt lat="47.31497" lon="-2.27648">
        <ele>-11.199999809265</ele>
        <time>2020-07-05T09:30:10.000Z</time>
      </trkpt>
      <trkpt lat="47.31494" lon="-2.27656">
        <ele>-11.199999809265</ele>
        <time>2020-07-05T09:30:11.000Z</time>
      </trkpt>
      <trkpt lat="47.3149" lon="-2.27665">
        <ele>-11.199999809265</ele>
        <time>2020-07-05T09:30:12.000Z</time>
      </trkpt>
      <trkpt lat="47.31471" lon="-2.27693">
        <ele>-11.199999809265</ele>
        <time>2020-07-05T09:30:16.000Z</time>
      </trkpt>
      <trkpt lat="47.31465" lon="-2.27698">
        <ele>-11.199999809265</ele>
        <time>2020-07-05T09:30:17.000Z</time>
      </trkpt>
      <trkpt lat="47.31433" lon="-2.27726">
        <ele>-11.199999809265</ele>
        <time>2020-07-05T09:30:22.000Z</time>
      </trkpt>
      <trkpt lat="47.31393" lon="-2.27751">
        <ele>-11.199999809265</ele>
        <time>2020-07-05T09:30:28.000Z</time>
      </trkpt>
      <trkpt lat="47.31355" lon="-2.27763">
        <ele>-11.199999809265</ele>
        <time>2020-07-05T09:30:33.000Z</time>
      </trkpt>
      <trkpt lat="47.31348" lon="-2.27765">
        <ele>-11.199999809265</ele>
        <time>2020-07-05T09:30:34.000Z</time>
      </trkpt>
      <trkpt lat="47.31288" lon="-2.27774">
        <ele>-11.199999809265</ele>
        <time>2020-07-05T09:30:42.000Z</time>
      </trkpt>
      <trkpt lat="47.31253" lon="-2.2778">
        <ele>-11.199999809265</ele>
        <time>2020-07-05T09:30:47.000Z</time>
      </trkpt>
      <trkpt lat="47.31246" lon="-2.2778">
        <ele>-11.60000038147</ele>
        <time>2020-07-05T09:30:48.000Z</time>
      </trkpt>
      <trkpt lat="47.3124" lon="-2.27779">
        <ele>-12</ele>
        <time>2020-07-05T09:30:49.000Z</time>
      </trkpt>
      <trkpt lat="47.31233" lon="-2.27775">
        <ele>-12.39999961853</ele>
        <time>2020-07-05T09:30:50.000Z</time>
      </trkpt>
      <trkpt lat="47.31228" lon="-2.2777">
        <ele>-12.800000190735</ele>
        <time>2020-07-05T09:30:51.000Z</time>
      </trkpt>
      <trkpt lat="47.31222" lon="-2.27764">
        <ele>-13.199999809265</ele>
        <time>2020-07-05T09:30:52.000Z</time>
      </trkpt>
      <trkpt lat="47.31211" lon="-2.27744">
        <ele>-13.199999809265</ele>
        <time>2020-07-05T09:30:55.000Z</time>
      </trkpt>
      <trkpt lat="47.31198" lon="-2.27734">
        <ele>-13.199999809265</ele>
        <time>2020-07-05T09:30:58.000Z</time>
      </trkpt>
      <trkpt lat="47.31183" lon="-2.27737">
        <ele>-13.199999809265</ele>
        <time>2020-07-05T09:31:01.000Z</time>
      </trkpt>
      <trkpt lat="47.31153" lon="-2.27744">
        <ele>-13.199999809265</ele>
        <time>2020-07-05T09:31:06.000Z</time>
      </trkpt>
      <trkpt lat="47.31148" lon="-2.27745">
        <ele>-13.199999809265</ele>
        <time>2020-07-05T09:31:07.000Z</time>
      </trkpt>
      <trkpt lat="47.31142" lon="-2.27752">
        <ele>-13.199999809265</ele>
        <time>2020-07-05T09:31:09.000Z</time>
      </trkpt>
      <trkpt lat="47.31143" lon="-2.27773">
        <ele>-13.199999809265</ele>
        <time>2020-07-05T09:31:12.000Z</time>
      </trkpt>
      <trkpt lat="47.31147" lon="-2.2779">
        <ele>-13.199999809265</ele>
        <time>2020-07-05T09:31:14.000Z</time>
      </trkpt>
      <trkpt lat="47.31152" lon="-2.27815">
        <ele>-13.199999809265</ele>
        <time>2020-07-05T09:31:17.000Z</time>
      </trkpt>
      <trkpt lat="47.31155" lon="-2.27834">
        <ele>-13.199999809265</ele>
        <time>2020-07-05T09:31:19.000Z</time>
      </trkpt>
      <trkpt lat="47.31154" lon="-2.27852">
        <ele>-13.199999809265</ele>
        <time>2020-07-05T09:31:21.000Z</time>
      </trkpt>
      <trkpt lat="47.3114" lon="-2.27884">
        <ele>-13.199999809265</ele>
        <time>2020-07-05T09:31:25.000Z</time>
      </trkpt>
      <trkpt lat="47.31108" lon="-2.27935">
        <ele>-13.199999809265</ele>
        <time>2020-07-05T09:31:31.000Z</time>
      </trkpt>
      <trkpt lat="47.31072" lon="-2.27993">
        <ele>-13.199999809265</ele>
        <time>2020-07-05T09:31:38.000Z</time>
      </trkpt>
      <trkpt lat="47.3104" lon="-2.28038">
        <ele>-13.199999809265</ele>
        <time>2020-07-05T09:31:44.000Z</time>
      </trkpt>
      <trkpt lat="47.31006" lon="-2.28064">
        <ele>-13.199999809265</ele>
        <time>2020-07-05T09:31:49.000Z</time>
      </trkpt>
      <trkpt lat="47.30962" lon="-2.281">
        <ele>-13.199999809265</ele>
        <time>2020-07-05T09:31:55.000Z</time>
      </trkpt>
      <trkpt lat="47.30928" lon="-2.28146">
        <ele>-13.199999809265</ele>
        <time>2020-07-05T09:32:01.000Z</time>
      </trkpt>
      <trkpt lat="47.3089" lon="-2.28202">
        <ele>-13.199999809265</ele>
        <time>2020-07-05T09:32:08.000Z</time>
      </trkpt>
      <trkpt lat="47.3086" lon="-2.28236">
        <ele>-13.199999809265</ele>
        <time>2020-07-05T09:32:13.000Z</time>
      </trkpt>
      <trkpt lat="47.30853" lon="-2.28241">
        <ele>-13.199999809265</ele>
        <time>2020-07-05T09:32:14.000Z</time>
      </trkpt>
      <trkpt lat="47.30814" lon="-2.28254">
        <ele>-13.199999809265</ele>
        <time>2020-07-05T09:32:19.000Z</time>
      </trkpt>
      <trkpt lat="47.30806" lon="-2.28253">
        <ele>-13.199999809265</ele>
        <time>2020-07-05T09:32:20.000Z</time>
      </trkpt>
      <trkpt lat="47.30797" lon="-2.28253">
        <ele>-13.199999809265</ele>
        <time>2020-07-05T09:32:21.000Z</time>
      </trkpt>
      <trkpt lat="47.3078" lon="-2.28245">
        <ele>-13.199999809265</ele>
        <time>2020-07-05T09:32:23.000Z</time>
      </trkpt>
      <trkpt lat="47.30753" lon="-2.28215">
        <ele>-13.199999809265</ele>
        <time>2020-07-05T09:32:27.000Z</time>
      </trkpt>
      <trkpt lat="47.30747" lon="-2.28207">
        <ele>-13.199999809265</ele>
        <time>2020-07-05T09:32:28.000Z</time>
      </trkpt>
      <trkpt lat="47.30715" lon="-2.28164">
        <ele>-13.199999809265</ele>
        <time>2020-07-05T09:32:33.000Z</time>
      </trkpt>
      <trkpt lat="47.30683" lon="-2.28131">
        <ele>-13.199999809265</ele>
        <time>2020-07-05T09:32:38.000Z</time>
      </trkpt>
      <trkpt lat="47.30656" lon="-2.28101">
        <ele>-13.199999809265</ele>
        <time>2020-07-05T09:32:43.000Z</time>
      </trkpt>
      <trkpt lat="47.30616" lon="-2.28062">
        <ele>-13.199999809265</ele>
        <time>2020-07-05T09:32:50.000Z</time>
      </trkpt>
      <trkpt lat="47.30599" lon="-2.28046">
        <ele>-13.199999809265</ele>
        <time>2020-07-05T09:32:53.000Z</time>
      </trkpt>
      <trkpt lat="47.30592" lon="-2.28043">
        <ele>-13.199999809265</ele>
        <time>2020-07-05T09:32:54.000Z</time>
      </trkpt>
      <trkpt lat="47.30548" lon="-2.28023">
        <ele>-13.199999809265</ele>
        <time>2020-07-05T09:33:01.000Z</time>
      </trkpt>
      <trkpt lat="47.30532" lon="-2.27996">
        <ele>-13.199999809265</ele>
        <time>2020-07-05T09:33:04.000Z</time>
      </trkpt>
      <trkpt lat="47.30528" lon="-2.27985">
        <ele>-13.199999809265</ele>
        <time>2020-07-05T09:33:05.000Z</time>
      </trkpt>
      <trkpt lat="47.30523" lon="-2.27963">
        <ele>-13.199999809265</ele>
        <time>2020-07-05T09:33:07.000Z</time>
      </trkpt>
      <trkpt lat="47.30513" lon="-2.27931">
        <ele>-13.199999809265</ele>
        <time>2020-07-05T09:33:11.000Z</time>
      </trkpt>
      <trkpt lat="47.30497" lon="-2.27925">
        <ele>-13.199999809265</ele>
        <time>2020-07-05T09:33:14.000Z</time>
      </trkpt>
      <trkpt lat="47.30491" lon="-2.27924">
        <ele>-13.199999809265</ele>
        <time>2020-07-05T09:33:15.000Z</time>
      </trkpt>
      <trkpt lat="47.30461" lon="-2.27914">
        <ele>-13.199999809265</ele>
        <time>2020-07-05T09:33:20.000Z</time>
      </trkpt>
      <trkpt lat="47.30422" lon="-2.27901">
        <ele>-13.199999809265</ele>
        <time>2020-07-05T09:33:26.000Z</time>
      </trkpt>
      <trkpt lat="47.30404" lon="-2.27903">
        <ele>-13.199999809265</ele>
        <time>2020-07-05T09:33:29.000Z</time>
      </trkpt>
      <trkpt lat="47.30397" lon="-2.27902">
        <ele>-13.199999809265</ele>
        <time>2020-07-05T09:33:30.000Z</time>
      </trkpt>
      <trkpt lat="47.30385" lon="-2.27901">
        <ele>-12.800000190735</ele>
        <time>2020-07-05T09:33:32.000Z</time>
      </trkpt>
      <trkpt lat="47.30379" lon="-2.27901">
        <ele>-12</ele>
        <time>2020-07-05T09:33:33.000Z</time>
      </trkpt>
      <trkpt lat="47.30373" lon="-2.27901">
        <ele>-11.60000038147</ele>
        <time>2020-07-05T09:33:34.000Z</time>
      </trkpt>
      <trkpt lat="47.30367" lon="-2.27901">
        <ele>-11</ele>
        <time>2020-07-05T09:33:35.000Z</time>
      </trkpt>
      <trkpt lat="47.30362" lon="-2.27902">
        <ele>-11</ele>
        <time>2020-07-05T09:33:36.000Z</time>
      </trkpt>
      <trkpt lat="47.30327" lon="-2.27908">
        <ele>-11</ele>
        <time>2020-07-05T09:33:42.000Z</time>
      </trkpt>
      <trkpt lat="47.30286" lon="-2.27913">
        <ele>-11</ele>
        <time>2020-07-05T09:33:48.000Z</time>
      </trkpt>
      <trkpt lat="47.30266" lon="-2.27914">
        <ele>-11</ele>
        <time>2020-07-05T09:33:51.000Z</time>
      </trkpt>
      <trkpt lat="47.30253" lon="-2.27915">
        <ele>-11</ele>
        <time>2020-07-05T09:33:53.000Z</time>
      </trkpt>
      <trkpt lat="47.30216" lon="-2.27917">
        <ele>-11</ele>
        <time>2020-07-05T09:33:59.000Z</time>
      </trkpt>
      <trkpt lat="47.3021" lon="-2.27917">
        <ele>-10.60000038147</ele>
        <time>2020-07-05T09:34:00.000Z</time>
      </trkpt>
      <trkpt lat="47.30204" lon="-2.27917">
        <ele>-10.199999809265</ele>
        <time>2020-07-05T09:34:01.000Z</time>
      </trkpt>
      <trkpt lat="47.30198" lon="-2.27917">
        <ele>-9.8000001907349</ele>
        <time>2020-07-05T09:34:02.000Z</time>
      </trkpt>
      <trkpt lat="47.30192" lon="-2.27917">
        <ele>-9.1999998092651</ele>
        <time>2020-07-05T09:34:03.000Z</time>
      </trkpt>
      <trkpt lat="47.30187" lon="-2.27917">
        <ele>-8.8000001907349</ele>
        <time>2020-07-05T09:34:04.000Z</time>
      </trkpt>
      <trkpt lat="47.30156" lon="-2.2792">
        <ele>-8.8000001907349</ele>
        <time>2020-07-05T09:34:09.000Z</time>
      </trkpt>
      <trkpt lat="47.30137" lon="-2.27926">
        <ele>-8.8000001907349</ele>
        <time>2020-07-05T09:34:12.000Z</time>
      </trkpt>
      <trkpt lat="47.30126" lon="-2.27933">
        <ele>-8.8000001907349</ele>
        <time>2020-07-05T09:34:14.000Z</time>
      </trkpt>
      <trkpt lat="47.30098" lon="-2.27956">
        <ele>-8.3999996185303</ele>
        <time>2020-07-05T09:34:19.000Z</time>
      </trkpt>
      <trkpt lat="47.30093" lon="-2.27962">
        <ele>-8</ele>
        <time>2020-07-05T09:34:20.000Z</time>
      </trkpt>
      <trkpt lat="47.30088" lon="-2.27967">
        <ele>-7.5999999046326</ele>
        <time>2020-07-05T09:34:21.000Z</time>
      </trkpt>
      <trkpt lat="47.30083" lon="-2.27972">
        <ele>-7.1999998092651</ele>
        <time>2020-07-05T09:34:22.000Z</time>
      </trkpt>
      <trkpt lat="47.30078" lon="-2.27976">
        <ele>-6.8000001907349</ele>
        <time>2020-07-05T09:34:23.000Z</time>
      </trkpt>
      <trkpt lat="47.30057" lon="-2.27994">
        <ele>-6.8000001907349</ele>
        <time>2020-07-05T09:34:27.000Z</time>
      </trkpt>
      <trkpt lat="47.30027" lon="-2.28018">
        <ele>-6.8000001907349</ele>
        <time>2020-07-05T09:34:33.000Z</time>
      </trkpt>
      <trkpt lat="47.3" lon="-2.28032">
        <ele>-6.8000001907349</ele>
        <time>2020-07-05T09:34:39.000Z</time>
      </trkpt>
      <trkpt lat="47.29991" lon="-2.28047">
        <ele>-6.8000001907349</ele>
        <time>2020-07-05T09:34:43.000Z</time>
      </trkpt>
      <trkpt lat="47.2998" lon="-2.28078">
        <ele>-6.8000001907349</ele>
        <time>2020-07-05T09:34:49.000Z</time>
      </trkpt>
      <trkpt lat="47.29976" lon="-2.28096">
        <ele>-6.4000000953674</ele>
        <time>2020-07-05T09:34:52.000Z</time>
      </trkpt>
      <trkpt lat="47.29974" lon="-2.28103">
        <ele>-6</ele>
        <time>2020-07-05T09:34:53.000Z</time>
      </trkpt>
      <trkpt lat="47.29972" lon="-2.2811">
        <ele>-5.5999999046326</ele>
        <time>2020-07-05T09:34:54.000Z</time>
      </trkpt>
      <trkpt lat="47.2997" lon="-2.28117">
        <ele>-5.1999998092651</ele>
        <time>2020-07-05T09:34:55.000Z</time>
      </trkpt>
      <trkpt lat="47.29968" lon="-2.28123">
        <ele>-4.8000001907349</ele>
        <time>2020-07-05T09:34:56.000Z</time>
      </trkpt>
      <trkpt lat="47.2996" lon="-2.2815">
        <ele>-4.8000001907349</ele>
        <time>2020-07-05T09:35:00.000Z</time>
      </trkpt>
      <trkpt lat="47.29948" lon="-2.28189">
        <ele>-4.8000001907349</ele>
        <time>2020-07-05T09:35:06.000Z</time>
      </trkpt>
      <trkpt lat="47.29946" lon="-2.28196">
        <ele>-4.8000001907349</ele>
        <time>2020-07-05T09:35:07.000Z</time>
      </trkpt>
      <trkpt lat="47.29947" lon="-2.28218">
        <ele>-4.8000001907349</ele>
        <time>2020-07-05T09:35:10.000Z</time>
      </trkpt>
      <trkpt lat="47.29951" lon="-2.28278">
        <ele>-4.8000001907349</ele>
        <time>2020-07-05T09:35:17.000Z</time>
      </trkpt>
      <trkpt lat="47.29951" lon="-2.28287">
        <ele>-4.8000001907349</ele>
        <time>2020-07-05T09:35:18.000Z</time>
      </trkpt>
      <trkpt lat="47.2995" lon="-2.28313">
        <ele>-4.8000001907349</ele>
        <time>2020-07-05T09:35:21.000Z</time>
      </trkpt>
      <trkpt lat="47.2995" lon="-2.28322">
        <ele>-4.8000001907349</ele>
        <time>2020-07-05T09:35:22.000Z</time>
      </trkpt>
      <trkpt lat="47.29948" lon="-2.28358">
        <ele>-4.8000001907349</ele>
        <time>2020-07-05T09:35:26.000Z</time>
      </trkpt>
      <trkpt lat="47.29947" lon="-2.28367">
        <ele>-4.8000001907349</ele>
        <time>2020-07-05T09:35:27.000Z</time>
      </trkpt>
      <trkpt lat="47.29947" lon="-2.28412">
        <ele>-4.8000001907349</ele>
        <time>2020-07-05T09:35:32.000Z</time>
      </trkpt>
      <trkpt lat="47.29938" lon="-2.28434">
        <ele>-4.8000001907349</ele>
        <time>2020-07-05T09:35:35.000Z</time>
      </trkpt>
      <trkpt lat="47.29932" lon="-2.28462">
        <ele>-4.8000001907349</ele>
        <time>2020-07-05T09:35:39.000Z</time>
      </trkpt>
      <trkpt lat="47.29931" lon="-2.285">
        <ele>-4.8000001907349</ele>
        <time>2020-07-05T09:35:43.000Z</time>
      </trkpt>
      <trkpt lat="47.29927" lon="-2.28518">
        <ele>-4.8000001907349</ele>
        <time>2020-07-05T09:35:45.000Z</time>
      </trkpt>
      <trkpt lat="47.29923" lon="-2.28536">
        <ele>-4.8000001907349</ele>
        <time>2020-07-05T09:35:47.000Z</time>
      </trkpt>
      <trkpt lat="47.29923" lon="-2.28546">
        <ele>-4.8000001907349</ele>
        <time>2020-07-05T09:35:48.000Z</time>
      </trkpt>
      <trkpt lat="47.29931" lon="-2.28565">
        <ele>-4.8000001907349</ele>
        <time>2020-07-05T09:35:51.000Z</time>
      </trkpt>
      <trkpt lat="47.29934" lon="-2.28588">
        <ele>-4.8000001907349</ele>
        <time>2020-07-05T09:35:54.000Z</time>
      </trkpt>
      <trkpt lat="47.29931" lon="-2.28604">
        <ele>-4.8000001907349</ele>
        <time>2020-07-05T09:35:56.000Z</time>
      </trkpt>
      <trkpt lat="47.29929" lon="-2.2862">
        <ele>-5.1999998092651</ele>
        <time>2020-07-05T09:35:58.000Z</time>
      </trkpt>
      <trkpt lat="47.29928" lon="-2.28629">
        <ele>-5.5999999046326</ele>
        <time>2020-07-05T09:35:59.000Z</time>
      </trkpt>
      <trkpt lat="47.29927" lon="-2.28638">
        <ele>-6</ele>
        <time>2020-07-05T09:36:00.000Z</time>
      </trkpt>
      <trkpt lat="47.29925" lon="-2.28646">
        <ele>-6.8000001907349</ele>
        <time>2020-07-05T09:36:01.000Z</time>
      </trkpt>
      <trkpt lat="47.29915" lon="-2.2869">
        <ele>-6.8000001907349</ele>
        <time>2020-07-05T09:36:06.000Z</time>
      </trkpt>
      <trkpt lat="47.299" lon="-2.28758">
        <ele>-6.8000001907349</ele>
        <time>2020-07-05T09:36:13.000Z</time>
      </trkpt>
      <trkpt lat="47.29893" lon="-2.28807">
        <ele>-6.8000001907349</ele>
        <time>2020-07-05T09:36:18.000Z</time>
      </trkpt>
      <trkpt lat="47.29885" lon="-2.28866">
        <ele>-6.8000001907349</ele>
        <time>2020-07-05T09:36:25.000Z</time>
      </trkpt>
      <trkpt lat="47.29882" lon="-2.28882">
        <ele>-6.8000001907349</ele>
        <time>2020-07-05T09:36:27.000Z</time>
      </trkpt>
      <trkpt lat="47.2988" lon="-2.28888">
        <ele>-7.1999998092651</ele>
        <time>2020-07-05T09:36:28.000Z</time>
      </trkpt>
      <trkpt lat="47.29876" lon="-2.28896">
        <ele>-7.5999999046326</ele>
        <time>2020-07-05T09:36:29.000Z</time>
      </trkpt>
      <trkpt lat="47.29874" lon="-2.28905">
        <ele>-8</ele>
        <time>2020-07-05T09:36:30.000Z</time>
      </trkpt>
      <trkpt lat="47.29873" lon="-2.28915">
        <ele>-8.3999996185303</ele>
        <time>2020-07-05T09:36:31.000Z</time>
      </trkpt>
      <trkpt lat="47.29873" lon="-2.28924">
        <ele>-9</ele>
        <time>2020-07-05T09:36:32.000Z</time>
      </trkpt>
      <trkpt lat="47.29879" lon="-2.28946">
        <ele>-9</ele>
        <time>2020-07-05T09:36:35.000Z</time>
      </trkpt>
      <trkpt lat="47.29894" lon="-2.28951">
        <ele>-9</ele>
        <time>2020-07-05T09:36:38.000Z</time>
      </trkpt>
      <trkpt lat="47.299" lon="-2.28951">
        <ele>-9</ele>
        <time>2020-07-05T09:36:39.000Z</time>
      </trkpt>
      <trkpt lat="47.29911" lon="-2.28953">
        <ele>-9</ele>
        <time>2020-07-05T09:36:41.000Z</time>
      </trkpt>
      <trkpt lat="47.2992" lon="-2.28957">
        <ele>-9</ele>
        <time>2020-07-05T09:36:43.000Z</time>
      </trkpt>
      <trkpt lat="47.29926" lon="-2.28968">
        <ele>-9</ele>
        <time>2020-07-05T09:36:45.000Z</time>
      </trkpt>
      <trkpt lat="47.29929" lon="-2.28974">
        <ele>-9</ele>
        <time>2020-07-05T09:36:46.000Z</time>
      </trkpt>
      <trkpt lat="47.29949" lon="-2.29011">
        <ele>-9</ele>
        <time>2020-07-05T09:36:52.000Z</time>
      </trkpt>
      <trkpt lat="47.29952" lon="-2.29017">
        <ele>-9</ele>
        <time>2020-07-05T09:36:53.000Z</time>
      </trkpt>
      <trkpt lat="47.29955" lon="-2.29023">
        <ele>-9.3999996185303</ele>
        <time>2020-07-05T09:36:54.000Z</time>
      </trkpt>
      <trkpt lat="47.29958" lon="-2.29029">
        <ele>-9.8000001907349</ele>
        <time>2020-07-05T09:36:55.000Z</time>
      </trkpt>
      <trkpt lat="47.29962" lon="-2.29036">
        <ele>-10.199999809265</ele>
        <time>2020-07-05T09:36:56.000Z</time>
      </trkpt>
      <trkpt lat="47.29966" lon="-2.29042">
        <ele>-10.60000038147</ele>
        <time>2020-07-05T09:36:57.000Z</time>
      </trkpt>
      <trkpt lat="47.29969" lon="-2.29047">
        <ele>-11</ele>
        <time>2020-07-05T09:36:58.000Z</time>
      </trkpt>
      <trkpt lat="47.29972" lon="-2.29054">
        <ele>-11</ele>
        <time>2020-07-05T09:36:59.000Z</time>
      </trkpt>
      <trkpt lat="47.29989" lon="-2.2909">
        <ele>-11</ele>
        <time>2020-07-05T09:37:05.000Z</time>
      </trkpt>
      <trkpt lat="47.30006" lon="-2.29109">
        <ele>-11</ele>
        <time>2020-07-05T09:37:11.000Z</time>
      </trkpt>
      <trkpt lat="47.30031" lon="-2.29132">
        <ele>-11</ele>
        <time>2020-07-05T09:37:19.000Z</time>
      </trkpt>
      <trkpt lat="47.3005" lon="-2.29138">
        <ele>-11</ele>
        <time>2020-07-05T09:37:25.000Z</time>
      </trkpt>
      <trkpt lat="47.30061" lon="-2.29145">
        <ele>-11</ele>
        <time>2020-07-05T09:37:29.000Z</time>
      </trkpt>
      <trkpt lat="47.30069" lon="-2.29155">
        <ele>-11</ele>
        <time>2020-07-05T09:37:35.000Z</time>
      </trkpt>
      <trkpt lat="47.30077" lon="-2.29167">
        <ele>-11</ele>
        <time>2020-07-05T09:37:41.000Z</time>
      </trkpt>
      <trkpt lat="47.30082" lon="-2.29175">
        <ele>-11.39999961853</ele>
        <time>2020-07-05T09:37:44.000Z</time>
      </trkpt>
      <trkpt lat="47.30084" lon="-2.29177">
        <ele>-11.800000190735</ele>
        <time>2020-07-05T09:37:45.000Z</time>
      </trkpt>
      <trkpt lat="47.30086" lon="-2.29179">
        <ele>-12.199999809265</ele>
        <time>2020-07-05T09:37:46.000Z</time>
      </trkpt>
      <trkpt lat="47.30088" lon="-2.29182">
        <ele>-12.60000038147</ele>
        <time>2020-07-05T09:37:47.000Z</time>
      </trkpt>
      <trkpt lat="47.3009" lon="-2.29184">
        <ele>-13</ele>
        <time>2020-07-05T09:37:48.000Z</time>
      </trkpt>
      <trkpt lat="47.301" lon="-2.29197">
        <ele>-13</ele>
        <time>2020-07-05T09:37:54.000Z</time>
      </trkpt>
      <trkpt lat="47.30111" lon="-2.29213">
        <ele>-13</ele>
        <time>2020-07-05T09:37:58.000Z</time>
      </trkpt>
      <trkpt lat="47.30114" lon="-2.29218">
        <ele>-13</ele>
        <time>2020-07-05T09:37:59.000Z</time>
      </trkpt>
      <trkpt lat="47.30141" lon="-2.29264">
        <ele>-13</ele>
        <time>2020-07-05T09:38:07.000Z</time>
      </trkpt>
      <trkpt lat="47.30166" lon="-2.29297">
        <ele>-13</ele>
        <time>2020-07-05T09:38:13.000Z</time>
      </trkpt>
      <trkpt lat="47.30191" lon="-2.29341">
        <ele>-13</ele>
        <time>2020-07-05T09:38:19.000Z</time>
      </trkpt>
      <trkpt lat="47.30195" lon="-2.2935">
        <ele>-13</ele>
        <time>2020-07-05T09:38:20.000Z</time>
      </trkpt>
      <trkpt lat="47.30199" lon="-2.2937">
        <ele>-13</ele>
        <time>2020-07-05T09:38:22.000Z</time>
      </trkpt>
      <trkpt lat="47.30208" lon="-2.29407">
        <ele>-13</ele>
        <time>2020-07-05T09:38:26.000Z</time>
      </trkpt>
      <trkpt lat="47.30206" lon="-2.29416">
        <ele>-13</ele>
        <time>2020-07-05T09:38:27.000Z</time>
      </trkpt>
      <trkpt lat="47.30196" lon="-2.29447">
        <ele>-13</ele>
        <time>2020-07-05T09:38:31.000Z</time>
      </trkpt>
      <trkpt lat="47.3019" lon="-2.29461">
        <ele>-13</ele>
        <time>2020-07-05T09:38:33.000Z</time>
      </trkpt>
      <trkpt lat="47.30175" lon="-2.29493">
        <ele>-13</ele>
        <time>2020-07-05T09:38:38.000Z</time>
      </trkpt>
      <trkpt lat="47.30164" lon="-2.29521">
        <ele>-13</ele>
        <time>2020-07-05T09:38:42.000Z</time>
      </trkpt>
      <trkpt lat="47.30154" lon="-2.29542">
        <ele>-13</ele>
        <time>2020-07-05T09:38:45.000Z</time>
      </trkpt>
      <trkpt lat="47.30144" lon="-2.29564">
        <ele>-13</ele>
        <time>2020-07-05T09:38:48.000Z</time>
      </trkpt>
      <trkpt lat="47.30142" lon="-2.29581">
        <ele>-13</ele>
        <time>2020-07-05T09:38:50.000Z</time>
      </trkpt>
      <trkpt lat="47.30144" lon="-2.29611">
        <ele>-13</ele>
        <time>2020-07-05T09:38:54.000Z</time>
      </trkpt>
      <trkpt lat="47.30143" lon="-2.29626">
        <ele>-13</ele>
        <time>2020-07-05T09:38:56.000Z</time>
      </trkpt>
      <trkpt lat="47.30141" lon="-2.29645">
        <ele>-13</ele>
        <time>2020-07-05T09:38:59.000Z</time>
      </trkpt>
      <trkpt lat="47.30138" lon="-2.2965">
        <ele>-13</ele>
        <time>2020-07-05T09:39:00.000Z</time>
      </trkpt>
      <trkpt lat="47.30123" lon="-2.29657">
        <ele>-13</ele>
        <time>2020-07-05T09:39:03.000Z</time>
      </trkpt>
      <trkpt lat="47.30101" lon="-2.29652">
        <ele>-13</ele>
        <time>2020-07-05T09:39:07.000Z</time>
      </trkpt>
      <trkpt lat="47.30097" lon="-2.2965">
        <ele>-13</ele>
        <time>2020-07-05T09:39:08.000Z</time>
      </trkpt>
      <trkpt lat="47.30066" lon="-2.2964">
        <ele>-13</ele>
        <time>2020-07-05T09:39:15.000Z</time>
      </trkpt>
      <trkpt lat="47.30031" lon="-2.29633">
        <ele>-13</ele>
        <time>2020-07-05T09:39:23.000Z</time>
      </trkpt>
      <trkpt lat="47.29999" lon="-2.29633">
        <ele>-13</ele>
        <time>2020-07-05T09:39:29.000Z</time>
      </trkpt>
      <trkpt lat="47.29964" lon="-2.29638">
        <ele>-13</ele>
        <time>2020-07-05T09:39:36.000Z</time>
      </trkpt>
      <trkpt lat="47.29946" lon="-2.29643">
        <ele>-13</ele>
        <time>2020-07-05T09:39:41.000Z</time>
      </trkpt>
      <trkpt lat="47.29937" lon="-2.29648">
        <ele>-13</ele>
        <time>2020-07-05T09:39:43.000Z</time>
      </trkpt>
      <trkpt lat="47.29916" lon="-2.29661">
        <ele>-13</ele>
        <time>2020-07-05T09:39:48.000Z</time>
      </trkpt>
      <trkpt lat="47.29909" lon="-2.29668">
        <ele>-12.60000038147</ele>
        <time>2020-07-05T09:39:50.000Z</time>
      </trkpt>
      <trkpt lat="47.29906" lon="-2.29673">
        <ele>-12.199999809265</ele>
        <time>2020-07-05T09:39:51.000Z</time>
      </trkpt>
      <trkpt lat="47.29902" lon="-2.29677">
        <ele>-11.800000190735</ele>
        <time>2020-07-05T09:39:52.000Z</time>
      </trkpt>
      <trkpt lat="47.29898" lon="-2.29682">
        <ele>-11.39999961853</ele>
        <time>2020-07-05T09:39:53.000Z</time>
      </trkpt>
      <trkpt lat="47.29895" lon="-2.29685">
        <ele>-10.800000190735</ele>
        <time>2020-07-05T09:39:54.000Z</time>
      </trkpt>
      <trkpt lat="47.2989" lon="-2.29687">
        <ele>-10.199999809265</ele>
        <time>2020-07-05T09:39:55.000Z</time>
      </trkpt>
      <trkpt lat="47.29885" lon="-2.29689">
        <ele>-9.8000001907349</ele>
        <time>2020-07-05T09:39:56.000Z</time>
      </trkpt>
      <trkpt lat="47.29881" lon="-2.29691">
        <ele>-9.1999998092651</ele>
        <time>2020-07-05T09:39:57.000Z</time>
      </trkpt>
      <trkpt lat="47.29876" lon="-2.29693">
        <ele>-8.6000003814697</ele>
        <time>2020-07-05T09:39:58.000Z</time>
      </trkpt>
      <trkpt lat="47.29863" lon="-2.29702">
        <ele>-8.6000003814697</ele>
        <time>2020-07-05T09:40:01.000Z</time>
      </trkpt>
      <trkpt lat="47.29838" lon="-2.29723">
        <ele>-8.6000003814697</ele>
        <time>2020-07-05T09:40:07.000Z</time>
      </trkpt>
      <trkpt lat="47.298" lon="-2.29754">
        <ele>-8.6000003814697</ele>
        <time>2020-07-05T09:40:15.000Z</time>
      </trkpt>
      <trkpt lat="47.29782" lon="-2.29767">
        <ele>-8.6000003814697</ele>
        <time>2020-07-05T09:40:19.000Z</time>
      </trkpt>
      <trkpt lat="47.29773" lon="-2.29771">
        <ele>-8.6000003814697</ele>
        <time>2020-07-05T09:40:21.000Z</time>
      </trkpt>
      <trkpt lat="47.29744" lon="-2.29776">
        <ele>-8.6000003814697</ele>
        <time>2020-07-05T09:40:26.000Z</time>
      </trkpt>
      <trkpt lat="47.29698" lon="-2.29781">
        <ele>-8.6000003814697</ele>
        <time>2020-07-05T09:40:34.000Z</time>
      </trkpt>
      <trkpt lat="47.29693" lon="-2.29783">
        <ele>-8.6000003814697</ele>
        <time>2020-07-05T09:40:35.000Z</time>
      </trkpt>
      <trkpt lat="47.29687" lon="-2.29793">
        <ele>-8.6000003814697</ele>
        <time>2020-07-05T09:40:37.000Z</time>
      </trkpt>
      <trkpt lat="47.29686" lon="-2.29815">
        <ele>-8.6000003814697</ele>
        <time>2020-07-05T09:40:40.000Z</time>
      </trkpt>
      <trkpt lat="47.29685" lon="-2.29843">
        <ele>-8.6000003814697</ele>
        <time>2020-07-05T09:40:45.000Z</time>
      </trkpt>
      <trkpt lat="47.29685" lon="-2.29874">
        <ele>-8.6000003814697</ele>
        <time>2020-07-05T09:40:51.000Z</time>
      </trkpt>
      <trkpt lat="47.29681" lon="-2.29907">
        <ele>-8.6000003814697</ele>
        <time>2020-07-05T09:40:58.000Z</time>
      </trkpt>
      <trkpt lat="47.29672" lon="-2.29914">
        <ele>-8.6000003814697</ele>
        <time>2020-07-05T09:41:01.000Z</time>
      </trkpt>
      <trkpt lat="47.29646" lon="-2.2992">
        <ele>-8.6000003814697</ele>
        <time>2020-07-05T09:41:08.000Z</time>
      </trkpt>
      <trkpt lat="47.29642" lon="-2.29924">
        <ele>-8.6000003814697</ele>
        <time>2020-07-05T09:41:10.000Z</time>
      </trkpt>
      <trkpt lat="47.2964" lon="-2.29923">
        <ele>-8.6000003814697</ele>
        <time>2020-07-05T09:41:11.000Z</time>
      </trkpt>
      <trkpt lat="47.29639" lon="-2.29912">
        <ele>-8.6000003814697</ele>
        <time>2020-07-05T09:41:15.000Z</time>
      </trkpt>
      <trkpt lat="47.29649" lon="-2.29912">
        <ele>-8.6000003814697</ele>
        <time>2020-07-05T09:41:18.000Z</time>
      </trkpt>
      <trkpt lat="47.29652" lon="-2.29913">
        <ele>-8.6000003814697</ele>
        <time>2020-07-05T09:41:19.000Z</time>
      </trkpt>
      <trkpt lat="47.29672" lon="-2.29915">
        <ele>-8.6000003814697</ele>
        <time>2020-07-05T09:41:24.000Z</time>
      </trkpt>
      <trkpt lat="47.29702" lon="-2.29917">
        <ele>-8.6000003814697</ele>
        <time>2020-07-05T09:41:31.000Z</time>
      </trkpt>
      <trkpt lat="47.29733" lon="-2.29919">
        <ele>-8.6000003814697</ele>
        <time>2020-07-05T09:41:38.000Z</time>
      </trkpt>
      <trkpt lat="47.29734" lon="-2.29921">
        <ele>-8.6000003814697</ele>
        <time>2020-07-05T09:41:39.000Z</time>
      </trkpt>
      <trkpt lat="47.29732" lon="-2.29927">
        <ele>-8.6000003814697</ele>
        <time>2020-07-05T09:41:41.000Z</time>
      </trkpt>
      <trkpt lat="47.29724" lon="-2.29923">
        <ele>-8.6000003814697</ele>
        <time>2020-07-05T09:41:44.000Z</time>
      </trkpt>
      <trkpt lat="47.29712" lon="-2.2992">
        <ele>-8.6000003814697</ele>
        <time>2020-07-05T09:41:47.000Z</time>
      </trkpt>
      <trkpt lat="47.29703" lon="-2.29919">
        <ele>-8.6000003814697</ele>
        <time>2020-07-05T09:41:49.000Z</time>
      </trkpt>
      <trkpt lat="47.29699" lon="-2.29918">
        <ele>-8.6000003814697</ele>
        <time>2020-07-05T09:41:50.000Z</time>
      </trkpt>
      <trkpt lat="47.29683" lon="-2.29912">
        <ele>-8.6000003814697</ele>
        <time>2020-07-05T09:41:54.000Z</time>
      </trkpt>
      <trkpt lat="47.29681" lon="-2.29906">
        <ele>-8.6000003814697</ele>
        <time>2020-07-05T09:41:55.000Z</time>
      </trkpt>
      <trkpt lat="47.29679" lon="-2.29887">
        <ele>-8.6000003814697</ele>
        <time>2020-07-05T09:41:58.000Z</time>
      </trkpt>
      <trkpt lat="47.29679" lon="-2.29881">
        <ele>-8.6000003814697</ele>
        <time>2020-07-05T09:41:59.000Z</time>
      </trkpt>
      <trkpt lat="47.29679" lon="-2.29874">
        <ele>-8.6000003814697</ele>
        <time>2020-07-05T09:42:00.000Z</time>
      </trkpt>
      <trkpt lat="47.2968" lon="-2.29853">
        <ele>-8.6000003814697</ele>
        <time>2020-07-05T09:42:03.000Z</time>
      </trkpt>
      <trkpt lat="47.2968" lon="-2.29847">
        <ele>-8.6000003814697</ele>
        <time>2020-07-05T09:42:04.000Z</time>
      </trkpt>
      <trkpt lat="47.29684" lon="-2.29794">
        <ele>-8.6000003814697</ele>
        <time>2020-07-05T09:42:12.000Z</time>
      </trkpt>
      <trkpt lat="47.29689" lon="-2.29778">
        <ele>-8.6000003814697</ele>
        <time>2020-07-05T09:42:15.000Z</time>
      </trkpt>
      <trkpt lat="47.29693" lon="-2.29777">
        <ele>-8.6000003814697</ele>
        <time>2020-07-05T09:42:16.000Z</time>
      </trkpt>
      <trkpt lat="47.29716" lon="-2.29773">
        <ele>-8.6000003814697</ele>
        <time>2020-07-05T09:42:21.000Z</time>
      </trkpt>
      <trkpt lat="47.29738" lon="-2.2977">
        <ele>-9</ele>
        <time>2020-07-05T09:42:25.000Z</time>
      </trkpt>
      <trkpt lat="47.29744" lon="-2.29769">
        <ele>-9.3999996185303</ele>
        <time>2020-07-05T09:42:26.000Z</time>
      </trkpt>
      <trkpt lat="47.29749" lon="-2.29768">
        <ele>-9.8000001907349</ele>
        <time>2020-07-05T09:42:27.000Z</time>
      </trkpt>
      <trkpt lat="47.29755" lon="-2.29767">
        <ele>-10.199999809265</ele>
        <time>2020-07-05T09:42:28.000Z</time>
      </trkpt>
      <trkpt lat="47.29761" lon="-2.29766">
        <ele>-10.800000190735</ele>
        <time>2020-07-05T09:42:29.000Z</time>
      </trkpt>
      <trkpt lat="47.29776" lon="-2.2976">
        <ele>-10.800000190735</ele>
        <time>2020-07-05T09:42:32.000Z</time>
      </trkpt>
      <trkpt lat="47.29786" lon="-2.29755">
        <ele>-10.800000190735</ele>
        <time>2020-07-05T09:42:34.000Z</time>
      </trkpt>
      <trkpt lat="47.29821" lon="-2.29729">
        <ele>-10.800000190735</ele>
        <time>2020-07-05T09:42:42.000Z</time>
      </trkpt>
      <trkpt lat="47.29863" lon="-2.29694">
        <ele>-10.800000190735</ele>
        <time>2020-07-05T09:42:52.000Z</time>
      </trkpt>
      <trkpt lat="47.2988" lon="-2.29674">
        <ele>-10.800000190735</ele>
        <time>2020-07-05T09:42:56.000Z</time>
      </trkpt>
      <trkpt lat="47.29884" lon="-2.29668">
        <ele>-10.800000190735</ele>
        <time>2020-07-05T09:42:57.000Z</time>
      </trkpt>
      <trkpt lat="47.29899" lon="-2.29657">
        <ele>-10.800000190735</ele>
        <time>2020-07-05T09:43:00.000Z</time>
      </trkpt>
      <trkpt lat="47.29908" lon="-2.29671">
        <ele>-10.800000190735</ele>
        <time>2020-07-05T09:43:03.000Z</time>
      </trkpt>
      <trkpt lat="47.29915" lon="-2.29708">
        <ele>-10.800000190735</ele>
        <time>2020-07-05T09:43:07.000Z</time>
      </trkpt>
      <trkpt lat="47.29933" lon="-2.29763">
        <ele>-10.800000190735</ele>
        <time>2020-07-05T09:43:13.000Z</time>
      </trkpt>
      <trkpt lat="47.29939" lon="-2.29785">
        <ele>-11.199999809265</ele>
        <time>2020-07-05T09:43:16.000Z</time>
      </trkpt>
      <trkpt lat="47.2994" lon="-2.29789">
        <ele>-11.60000038147</ele>
        <time>2020-07-05T09:43:17.000Z</time>
      </trkpt>
      <trkpt lat="47.29941" lon="-2.29792">
        <ele>-12</ele>
        <time>2020-07-05T09:43:18.000Z</time>
      </trkpt>
      <trkpt lat="47.29942" lon="-2.29794">
        <ele>-12.39999961853</ele>
        <time>2020-07-05T09:43:19.000Z</time>
      </trkpt>
      <trkpt lat="47.29943" lon="-2.29798">
        <ele>-12.800000190735</ele>
        <time>2020-07-05T09:43:20.000Z</time>
      </trkpt>
      <trkpt lat="47.29942" lon="-2.29803">
        <ele>-12.800000190735</ele>
        <time>2020-07-05T09:43:22.000Z</time>
      </trkpt>
      <trkpt lat="47.29932" lon="-2.29814">
        <ele>-12.800000190735</ele>
        <time>2020-07-05T09:43:26.000Z</time>
      </trkpt>
      <trkpt lat="47.29909" lon="-2.29831">
        <ele>-12.800000190735</ele>
        <time>2020-07-05T09:43:33.000Z</time>
      </trkpt>
      <trkpt lat="47.29906" lon="-2.29837">
        <ele>-12.800000190735</ele>
        <time>2020-07-05T09:43:34.000Z</time>
      </trkpt>
      <trkpt lat="47.29902" lon="-2.29851">
        <ele>-12.800000190735</ele>
        <time>2020-07-05T09:43:36.000Z</time>
      </trkpt>
      <trkpt lat="47.29902" lon="-2.29881">
        <ele>-12.800000190735</ele>
        <time>2020-07-05T09:43:40.000Z</time>
      </trkpt>
      <trkpt lat="47.29904" lon="-2.29889">
        <ele>-12.800000190735</ele>
        <time>2020-07-05T09:43:41.000Z</time>
      </trkpt>
      <trkpt lat="47.29905" lon="-2.2993">
        <ele>-12.800000190735</ele>
        <time>2020-07-05T09:43:46.000Z</time>
      </trkpt>
      <trkpt lat="47.29893" lon="-2.29941">
        <ele>-12.800000190735</ele>
        <time>2020-07-05T09:43:49.000Z</time>
      </trkpt>
      <trkpt lat="47.29883" lon="-2.29944">
        <ele>-12.800000190735</ele>
        <time>2020-07-05T09:43:51.000Z</time>
      </trkpt>
      <trkpt lat="47.29858" lon="-2.2995">
        <ele>-12.800000190735</ele>
        <time>2020-07-05T09:43:56.000Z</time>
      </trkpt>
      <trkpt lat="47.29842" lon="-2.29954">
        <ele>-12.800000190735</ele>
        <time>2020-07-05T09:43:59.000Z</time>
      </trkpt>
      <trkpt lat="47.29826" lon="-2.29956">
        <ele>-12.800000190735</ele>
        <time>2020-07-05T09:44:02.000Z</time>
      </trkpt>
      <trkpt lat="47.29789" lon="-2.29954">
        <ele>-12.800000190735</ele>
        <time>2020-07-05T09:44:09.000Z</time>
      </trkpt>
      <trkpt lat="47.29772" lon="-2.29964">
        <ele>-12.800000190735</ele>
        <time>2020-07-05T09:44:13.000Z</time>
      </trkpt>
      <trkpt lat="47.29745" lon="-2.29984">
        <ele>-12.800000190735</ele>
        <time>2020-07-05T09:44:19.000Z</time>
      </trkpt>
      <trkpt lat="47.29711" lon="-2.3">
        <ele>-12.800000190735</ele>
        <time>2020-07-05T09:44:26.000Z</time>
      </trkpt>
      <trkpt lat="47.29705" lon="-2.3">
        <ele>-12.800000190735</ele>
        <time>2020-07-05T09:44:27.000Z</time>
      </trkpt>
      <trkpt lat="47.29665" lon="-2.29999">
        <ele>-12.800000190735</ele>
        <time>2020-07-05T09:44:34.000Z</time>
      </trkpt>
      <trkpt lat="47.2966" lon="-2.29996">
        <ele>-12.800000190735</ele>
        <time>2020-07-05T09:44:35.000Z</time>
      </trkpt>
      <trkpt lat="47.29647" lon="-2.29986">
        <ele>-12.800000190735</ele>
        <time>2020-07-05T09:44:38.000Z</time>
      </trkpt>
      <trkpt lat="47.29643" lon="-2.29985">
        <ele>-12.800000190735</ele>
        <time>2020-07-05T09:44:39.000Z</time>
      </trkpt>
      <trkpt lat="47.29635" lon="-2.29989">
        <ele>-12.800000190735</ele>
        <time>2020-07-05T09:44:41.000Z</time>
      </trkpt>
      <trkpt lat="47.2962" lon="-2.29998">
        <ele>-12.800000190735</ele>
        <time>2020-07-05T09:44:44.000Z</time>
      </trkpt>
      <trkpt lat="47.29614" lon="-2.3">
        <ele>-12.800000190735</ele>
        <time>2020-07-05T09:44:45.000Z</time>
      </trkpt>
      <trkpt lat="47.29571" lon="-2.30014">
        <ele>-12.800000190735</ele>
        <time>2020-07-05T09:44:52.000Z</time>
      </trkpt>
      <trkpt lat="47.29531" lon="-2.30028">
        <ele>-12.800000190735</ele>
        <time>2020-07-05T09:44:59.000Z</time>
      </trkpt>
      <trkpt lat="47.29526" lon="-2.30029">
        <ele>-12.800000190735</ele>
        <time>2020-07-05T09:45:00.000Z</time>
      </trkpt>
      <trkpt lat="47.29514" lon="-2.30026">
        <ele>-12.800000190735</ele>
        <time>2020-07-05T09:45:03.000Z</time>
      </trkpt>
      <trkpt lat="47.29501" lon="-2.30025">
        <ele>-12.800000190735</ele>
        <time>2020-07-05T09:45:07.000Z</time>
      </trkpt>
      <trkpt lat="47.29498" lon="-2.30026">
        <ele>-12.800000190735</ele>
        <time>2020-07-05T09:45:08.000Z</time>
      </trkpt>
      <trkpt lat="47.29474" lon="-2.30029">
        <ele>-12.800000190735</ele>
        <time>2020-07-05T09:45:13.000Z</time>
      </trkpt>
      <trkpt lat="47.29436" lon="-2.30029">
        <ele>-12.800000190735</ele>
        <time>2020-07-05T09:45:20.000Z</time>
      </trkpt>
      <trkpt lat="47.29426" lon="-2.30029">
        <ele>-12.199999809265</ele>
        <time>2020-07-05T09:45:22.000Z</time>
      </trkpt>
      <trkpt lat="47.29421" lon="-2.30029">
        <ele>-11.800000190735</ele>
        <time>2020-07-05T09:45:23.000Z</time>
      </trkpt>
      <trkpt lat="47.29416" lon="-2.30029">
        <ele>-11.39999961853</ele>
        <time>2020-07-05T09:45:24.000Z</time>
      </trkpt>
      <trkpt lat="47.29412" lon="-2.30028">
        <ele>-11</ele>
        <time>2020-07-05T09:45:25.000Z</time>
      </trkpt>
      <trkpt lat="47.29408" lon="-2.30028">
        <ele>-10.60000038147</ele>
        <time>2020-07-05T09:45:26.000Z</time>
      </trkpt>
      <trkpt lat="47.29404" lon="-2.30028">
        <ele>-10.60000038147</ele>
        <time>2020-07-05T09:45:27.000Z</time>
      </trkpt>
      <trkpt lat="47.29382" lon="-2.30021">
        <ele>-10.60000038147</ele>
        <time>2020-07-05T09:45:33.000Z</time>
      </trkpt>
      <trkpt lat="47.29364" lon="-2.30011">
        <ele>-10.60000038147</ele>
        <time>2020-07-05T09:45:38.000Z</time>
      </trkpt>
      <trkpt lat="47.29351" lon="-2.30005">
        <ele>-10.60000038147</ele>
        <time>2020-07-05T09:45:43.000Z</time>
      </trkpt>
      <trkpt lat="47.29347" lon="-2.30005">
        <ele>-10.60000038147</ele>
        <time>2020-07-05T09:45:46.000Z</time>
      </trkpt>
      <trkpt lat="47.29345" lon="-2.30012">
        <ele>-10.60000038147</ele>
        <time>2020-07-05T09:45:48.000Z</time>
      </trkpt>
      <trkpt lat="47.29344" lon="-2.30023">
        <ele>-10.60000038147</ele>
        <time>2020-07-05T09:45:50.000Z</time>
      </trkpt>
      <trkpt lat="47.29344" lon="-2.30035">
        <ele>-10.60000038147</ele>
        <time>2020-07-05T09:45:52.000Z</time>
      </trkpt>
      <trkpt lat="47.2934" lon="-2.30087">
        <ele>-10.60000038147</ele>
        <time>2020-07-05T09:45:59.000Z</time>
      </trkpt>
      <trkpt lat="47.29333" lon="-2.30118">
        <ele>-10.60000038147</ele>
        <time>2020-07-05T09:46:03.000Z</time>
      </trkpt>
      <trkpt lat="47.2933" lon="-2.30123">
        <ele>-10.60000038147</ele>
        <time>2020-07-05T09:46:04.000Z</time>
      </trkpt>
      <trkpt lat="47.29316" lon="-2.30124">
        <ele>-10.60000038147</ele>
        <time>2020-07-05T09:46:07.000Z</time>
      </trkpt>
      <trkpt lat="47.29311" lon="-2.30122">
        <ele>-10.60000038147</ele>
        <time>2020-07-05T09:46:08.000Z</time>
      </trkpt>
      <trkpt lat="47.29304" lon="-2.30122">
        <ele>-10.60000038147</ele>
        <time>2020-07-05T09:46:09.000Z</time>
      </trkpt>
      <trkpt lat="47.29291" lon="-2.30123">
        <ele>-10.60000038147</ele>
        <time>2020-07-05T09:46:11.000Z</time>
      </trkpt>
      <trkpt lat="47.29244" lon="-2.30129">
        <ele>-10.60000038147</ele>
        <time>2020-07-05T09:46:19.000Z</time>
      </trkpt>
      <trkpt lat="47.29227" lon="-2.30132">
        <ele>-10.60000038147</ele>
        <time>2020-07-05T09:46:22.000Z</time>
      </trkpt>
      <trkpt lat="47.29216" lon="-2.3014">
        <ele>-10.60000038147</ele>
        <time>2020-07-05T09:46:24.000Z</time>
      </trkpt>
      <trkpt lat="47.29173" lon="-2.30163">
        <ele>-10.60000038147</ele>
        <time>2020-07-05T09:46:31.000Z</time>
      </trkpt>
      <trkpt lat="47.2912" lon="-2.30193">
        <ele>-10.60000038147</ele>
        <time>2020-07-05T09:46:40.000Z</time>
      </trkpt>
      <trkpt lat="47.29091" lon="-2.30208">
        <ele>-10.60000038147</ele>
        <time>2020-07-05T09:46:45.000Z</time>
      </trkpt>
      <trkpt lat="47.2908" lon="-2.30214">
        <ele>-10.60000038147</ele>
        <time>2020-07-05T09:46:47.000Z</time>
      </trkpt>
      <trkpt lat="47.29032" lon="-2.30235">
        <ele>-10.60000038147</ele>
        <time>2020-07-05T09:46:55.000Z</time>
      </trkpt>
      <trkpt lat="47.28993" lon="-2.30247">
        <ele>-10.60000038147</ele>
        <time>2020-07-05T09:47:02.000Z</time>
      </trkpt>
      <trkpt lat="47.28972" lon="-2.30248">
        <ele>-10.60000038147</ele>
        <time>2020-07-05T09:47:06.000Z</time>
      </trkpt>
      <trkpt lat="47.28963" lon="-2.30241">
        <ele>-10.60000038147</ele>
        <time>2020-07-05T09:47:08.000Z</time>
      </trkpt>
      <trkpt lat="47.28951" lon="-2.30222">
        <ele>-10.60000038147</ele>
        <time>2020-07-05T09:47:11.000Z</time>
      </trkpt>
      <trkpt lat="47.28946" lon="-2.30216">
        <ele>-10.60000038147</ele>
        <time>2020-07-05T09:47:12.000Z</time>
      </trkpt>
      <trkpt lat="47.28929" lon="-2.30193">
        <ele>-10.199999809265</ele>
        <time>2020-07-05T09:47:16.000Z</time>
      </trkpt>
      <trkpt lat="47.28925" lon="-2.30188">
        <ele>-9.8000001907349</ele>
        <time>2020-07-05T09:47:17.000Z</time>
      </trkpt>
      <trkpt lat="47.2892" lon="-2.30183">
        <ele>-9.3999996185303</ele>
        <time>2020-07-05T09:47:18.000Z</time>
      </trkpt>
      <trkpt lat="47.28915" lon="-2.30177">
        <ele>-9</ele>
        <time>2020-07-05T09:47:19.000Z</time>
      </trkpt>
      <trkpt lat="47.28911" lon="-2.30172">
        <ele>-8.6000003814697</ele>
        <time>2020-07-05T09:47:20.000Z</time>
      </trkpt>
      <trkpt lat="47.28887" lon="-2.30141">
        <ele>-8.6000003814697</ele>
        <time>2020-07-05T09:47:26.000Z</time>
      </trkpt>
      <trkpt lat="47.28876" lon="-2.30128">
        <ele>-8.1999998092651</ele>
        <time>2020-07-05T09:47:29.000Z</time>
      </trkpt>
      <trkpt lat="47.28872" lon="-2.30124">
        <ele>-7.8000001907349</ele>
        <time>2020-07-05T09:47:30.000Z</time>
      </trkpt>
      <trkpt lat="47.28868" lon="-2.30118">
        <ele>-7.4000000953674</ele>
        <time>2020-07-05T09:47:31.000Z</time>
      </trkpt>
      <trkpt lat="47.28864" lon="-2.30114">
        <ele>-6.4000000953674</ele>
        <time>2020-07-05T09:47:32.000Z</time>
      </trkpt>
      <trkpt lat="47.28847" lon="-2.30095">
        <ele>-6.4000000953674</ele>
        <time>2020-07-05T09:47:36.000Z</time>
      </trkpt>
      <trkpt lat="47.2883" lon="-2.30075">
        <ele>-6.4000000953674</ele>
        <time>2020-07-05T09:47:40.000Z</time>
      </trkpt>
      <trkpt lat="47.28798" lon="-2.30039">
        <ele>-6.4000000953674</ele>
        <time>2020-07-05T09:47:48.000Z</time>
      </trkpt>
      <trkpt lat="47.28787" lon="-2.30035">
        <ele>-6</ele>
        <time>2020-07-05T09:47:50.000Z</time>
      </trkpt>
      <trkpt lat="47.28782" lon="-2.30032">
        <ele>-5.5999999046326</ele>
        <time>2020-07-05T09:47:51.000Z</time>
      </trkpt>
      <trkpt lat="47.28777" lon="-2.30029">
        <ele>-5.1999998092651</ele>
        <time>2020-07-05T09:47:52.000Z</time>
      </trkpt>
      <trkpt lat="47.28772" lon="-2.30025">
        <ele>-4.8000001907349</ele>
        <time>2020-07-05T09:47:53.000Z</time>
      </trkpt>
      <trkpt lat="47.28768" lon="-2.30019">
        <ele>-4.4000000953674</ele>
        <time>2020-07-05T09:47:54.000Z</time>
      </trkpt>
      <trkpt lat="47.28763" lon="-2.30004">
        <ele>-4.4000000953674</ele>
        <time>2020-07-05T09:47:56.000Z</time>
      </trkpt>
      <trkpt lat="47.2876" lon="-2.29997">
        <ele>-4.4000000953674</ele>
        <time>2020-07-05T09:47:57.000Z</time>
      </trkpt>
      <trkpt lat="47.28746" lon="-2.29975">
        <ele>-4.4000000953674</ele>
        <time>2020-07-05T09:48:01.000Z</time>
      </trkpt>
      <trkpt lat="47.28729" lon="-2.29958">
        <ele>-4.4000000953674</ele>
        <time>2020-07-05T09:48:05.000Z</time>
      </trkpt>
      <trkpt lat="47.28725" lon="-2.29955">
        <ele>-4</ele>
        <time>2020-07-05T09:48:06.000Z</time>
      </trkpt>
      <trkpt lat="47.28721" lon="-2.29953">
        <ele>-3.5999999046326</ele>
        <time>2020-07-05T09:48:07.000Z</time>
      </trkpt>
      <trkpt lat="47.28716" lon="-2.29953">
        <ele>-3.2000000476837</ele>
        <time>2020-07-05T09:48:08.000Z</time>
      </trkpt>
      <trkpt lat="47.28711" lon="-2.29953">
        <ele>-2.7999999523163</ele>
        <time>2020-07-05T09:48:09.000Z</time>
      </trkpt>
      <trkpt lat="47.28705" lon="-2.29953">
        <ele>-2.4000000953674</ele>
        <time>2020-07-05T09:48:10.000Z</time>
      </trkpt>
      <trkpt lat="47.28692" lon="-2.29943">
        <ele>-2.4000000953674</ele>
        <time>2020-07-05T09:48:13.000Z</time>
      </trkpt>
      <trkpt lat="47.28677" lon="-2.29922">
        <ele>-2.4000000953674</ele>
        <time>2020-07-05T09:48:17.000Z</time>
      </trkpt>
      <trkpt lat="47.28668" lon="-2.29917">
        <ele>-2.4000000953674</ele>
        <time>2020-07-05T09:48:19.000Z</time>
      </trkpt>
      <trkpt lat="47.28664" lon="-2.29912">
        <ele>-2</ele>
        <time>2020-07-05T09:48:20.000Z</time>
      </trkpt>
      <trkpt lat="47.2866" lon="-2.29908">
        <ele>-1.2000000476837</ele>
        <time>2020-07-05T09:48:21.000Z</time>
      </trkpt>
      <trkpt lat="47.28657" lon="-2.29902">
        <ele>-0.60000002384186</ele>
        <time>2020-07-05T09:48:22.000Z</time>
      </trkpt>
      <trkpt lat="47.28653" lon="-2.29897">
        <ele>-0.20000000298023</ele>
        <time>2020-07-05T09:48:23.000Z</time>
      </trkpt>
      <trkpt lat="47.28647" lon="-2.29876">
        <ele>-0.20000000298023</ele>
        <time>2020-07-05T09:48:26.000Z</time>
      </trkpt>
      <trkpt lat="47.28645" lon="-2.29868">
        <ele>-0.20000000298023</ele>
        <time>2020-07-05T09:48:27.000Z</time>
      </trkpt>
      <trkpt lat="47.28644" lon="-2.29861">
        <ele>-0.20000000298023</ele>
        <time>2020-07-05T09:48:28.000Z</time>
      </trkpt>
      <trkpt lat="47.28643" lon="-2.29837">
        <ele>-0.20000000298023</ele>
        <time>2020-07-05T09:48:31.000Z</time>
      </trkpt>
      <trkpt lat="47.28643" lon="-2.29829">
        <ele>0.20000000298023</ele>
        <time>2020-07-05T09:48:32.000Z</time>
      </trkpt>
      <trkpt lat="47.28643" lon="-2.29821">
        <ele>0.60000002384186</ele>
        <time>2020-07-05T09:48:33.000Z</time>
      </trkpt>
      <trkpt lat="47.28643" lon="-2.29813">
        <ele>1</ele>
        <time>2020-07-05T09:48:34.000Z</time>
      </trkpt>
      <trkpt lat="47.28643" lon="-2.29805">
        <ele>1.3999999761581</ele>
        <time>2020-07-05T09:48:35.000Z</time>
      </trkpt>
      <trkpt lat="47.28642" lon="-2.29797">
        <ele>1.7999999523163</ele>
        <time>2020-07-05T09:48:36.000Z</time>
      </trkpt>
      <trkpt lat="47.2864" lon="-2.29789">
        <ele>1.7999999523163</ele>
        <time>2020-07-05T09:48:37.000Z</time>
      </trkpt>
      <trkpt lat="47.28632" lon="-2.29767">
        <ele>1.7999999523163</ele>
        <time>2020-07-05T09:48:40.000Z</time>
      </trkpt>
      <trkpt lat="47.28626" lon="-2.2975">
        <ele>1.7999999523163</ele>
        <time>2020-07-05T09:48:42.000Z</time>
      </trkpt>
      <trkpt lat="47.28614" lon="-2.29717">
        <ele>1.7999999523163</ele>
        <time>2020-07-05T09:48:46.000Z</time>
      </trkpt>
      <trkpt lat="47.28609" lon="-2.29701">
        <ele>1.7999999523163</ele>
        <time>2020-07-05T09:48:48.000Z</time>
      </trkpt>
      <trkpt lat="47.28593" lon="-2.29642">
        <ele>1.7999999523163</ele>
        <time>2020-07-05T09:48:55.000Z</time>
      </trkpt>
      <trkpt lat="47.28592" lon="-2.2959">
        <ele>1.7999999523163</ele>
        <time>2020-07-05T09:49:01.000Z</time>
      </trkpt>
      <trkpt lat="47.28592" lon="-2.29549">
        <ele>2.2000000476837</ele>
        <time>2020-07-05T09:49:06.000Z</time>
      </trkpt>
      <trkpt lat="47.28592" lon="-2.29541">
        <ele>2.7999999523163</ele>
        <time>2020-07-05T09:49:07.000Z</time>
      </trkpt>
      <trkpt lat="47.28591" lon="-2.29533">
        <ele>3.2000000476837</ele>
        <time>2020-07-05T09:49:08.000Z</time>
      </trkpt>
      <trkpt lat="47.2859" lon="-2.29524">
        <ele>3.5999999046326</ele>
        <time>2020-07-05T09:49:09.000Z</time>
      </trkpt>
      <trkpt lat="47.28589" lon="-2.29515">
        <ele>4</ele>
        <time>2020-07-05T09:49:10.000Z</time>
      </trkpt>
      <trkpt lat="47.28582" lon="-2.29474">
        <ele>4</ele>
        <time>2020-07-05T09:49:15.000Z</time>
      </trkpt>
      <trkpt lat="47.28563" lon="-2.29427">
        <ele>4</ele>
        <time>2020-07-05T09:49:21.000Z</time>
      </trkpt>
      <trkpt lat="47.2856" lon="-2.29419">
        <ele>4.4000000953674</ele>
        <time>2020-07-05T09:49:22.000Z</time>
      </trkpt>
      <trkpt lat="47.28557" lon="-2.29412">
        <ele>4.8000001907349</ele>
        <time>2020-07-05T09:49:23.000Z</time>
      </trkpt>
      <trkpt lat="47.28554" lon="-2.29405">
        <ele>5.1999998092651</ele>
        <time>2020-07-05T09:49:24.000Z</time>
      </trkpt>
      <trkpt lat="47.28551" lon="-2.29397">
        <ele>5.5999999046326</ele>
        <time>2020-07-05T09:49:25.000Z</time>
      </trkpt>
      <trkpt lat="47.28548" lon="-2.29389">
        <ele>6</ele>
        <time>2020-07-05T09:49:26.000Z</time>
      </trkpt>
      <trkpt lat="47.28526" lon="-2.29333">
        <ele>6</ele>
        <time>2020-07-05T09:49:33.000Z</time>
      </trkpt>
      <trkpt lat="47.28518" lon="-2.29298">
        <ele>6</ele>
        <time>2020-07-05T09:49:37.000Z</time>
      </trkpt>
      <trkpt lat="47.28519" lon="-2.29289">
        <ele>6</ele>
        <time>2020-07-05T09:49:38.000Z</time>
      </trkpt>
      <trkpt lat="47.2852" lon="-2.29253">
        <ele>6</ele>
        <time>2020-07-05T09:49:42.000Z</time>
      </trkpt>
      <trkpt lat="47.28521" lon="-2.29202">
        <ele>6</ele>
        <time>2020-07-05T09:49:48.000Z</time>
      </trkpt>
      <trkpt lat="47.28529" lon="-2.29193">
        <ele>5.5999999046326</ele>
        <time>2020-07-05T09:49:50.000Z</time>
      </trkpt>
      <trkpt lat="47.28533" lon="-2.29188">
        <ele>5.1999998092651</ele>
        <time>2020-07-05T09:49:51.000Z</time>
      </trkpt>
      <trkpt lat="47.28536" lon="-2.29185">
        <ele>4.8000001907349</ele>
        <time>2020-07-05T09:49:52.000Z</time>
      </trkpt>
      <trkpt lat="47.2854" lon="-2.29181">
        <ele>4.4000000953674</ele>
        <time>2020-07-05T09:49:53.000Z</time>
      </trkpt>
      <trkpt lat="47.28544" lon="-2.29177">
        <ele>4</ele>
        <time>2020-07-05T09:49:54.000Z</time>
      </trkpt>
      <trkpt lat="47.28558" lon="-2.29165">
        <ele>4</ele>
        <time>2020-07-05T09:49:57.000Z</time>
      </trkpt>
      <trkpt lat="47.28577" lon="-2.29138">
        <ele>4</ele>
        <time>2020-07-05T09:50:01.000Z</time>
      </trkpt>
      <trkpt lat="47.28584" lon="-2.29122">
        <ele>4</ele>
        <time>2020-07-05T09:50:03.000Z</time>
      </trkpt>
      <trkpt lat="47.28597" lon="-2.29088">
        <ele>4</ele>
        <time>2020-07-05T09:50:07.000Z</time>
      </trkpt>
      <trkpt lat="47.28603" lon="-2.29062">
        <ele>4</ele>
        <time>2020-07-05T09:50:10.000Z</time>
      </trkpt>
      <trkpt lat="47.28603" lon="-2.29048">
        <ele>4</ele>
        <time>2020-07-05T09:50:12.000Z</time>
      </trkpt>
      <trkpt lat="47.28596" lon="-2.29037">
        <ele>4</ele>
        <time>2020-07-05T09:50:15.000Z</time>
      </trkpt>
      <trkpt lat="47.28585" lon="-2.29036">
        <ele>4</ele>
        <time>2020-07-05T09:50:19.000Z</time>
      </trkpt>
      <trkpt lat="47.28569" lon="-2.29033">
        <ele>4</ele>
        <time>2020-07-05T09:50:23.000Z</time>
      </trkpt>
      <trkpt lat="47.28565" lon="-2.29032">
        <ele>4</ele>
        <time>2020-07-05T09:50:24.000Z</time>
      </trkpt>
      <trkpt lat="47.28541" lon="-2.29028">
        <ele>4</ele>
        <time>2020-07-05T09:50:30.000Z</time>
      </trkpt>
      <trkpt lat="47.28519" lon="-2.29023">
        <ele>4</ele>
        <time>2020-07-05T09:50:36.000Z</time>
      </trkpt>
      <trkpt lat="47.28499" lon="-2.29013">
        <ele>4</ele>
        <time>2020-07-05T09:50:42.000Z</time>
      </trkpt>
      <trkpt lat="47.28481" lon="-2.29006">
        <ele>4</ele>
        <time>2020-07-05T09:50:47.000Z</time>
      </trkpt>
      <trkpt lat="47.28472" lon="-2.29002">
        <ele>4.8000001907349</ele>
        <time>2020-07-05T09:50:50.000Z</time>
      </trkpt>
      <trkpt lat="47.28469" lon="-2.29001">
        <ele>5.1999998092651</ele>
        <time>2020-07-05T09:50:51.000Z</time>
      </trkpt>
      <trkpt lat="47.28467" lon="-2.29">
        <ele>5.5999999046326</ele>
        <time>2020-07-05T09:50:52.000Z</time>
      </trkpt>
      <trkpt lat="47.28464" lon="-2.29">
        <ele>6</ele>
        <time>2020-07-05T09:50:53.000Z</time>
      </trkpt>
      <trkpt lat="47.28443" lon="-2.29">
        <ele>6</ele>
        <time>2020-07-05T09:50:59.000Z</time>
      </trkpt>
      <trkpt lat="47.28429" lon="-2.29003">
        <ele>6.4000000953674</ele>
        <time>2020-07-05T09:51:03.000Z</time>
      </trkpt>
      <trkpt lat="47.28426" lon="-2.29002">
        <ele>6.8000001907349</ele>
        <time>2020-07-05T09:51:04.000Z</time>
      </trkpt>
      <trkpt lat="47.28422" lon="-2.29002">
        <ele>7.1999998092651</ele>
        <time>2020-07-05T09:51:05.000Z</time>
      </trkpt>
      <trkpt lat="47.2842" lon="-2.29001">
        <ele>7.5999999046326</ele>
        <time>2020-07-05T09:51:06.000Z</time>
      </trkpt>
      <trkpt lat="47.28417" lon="-2.28999">
        <ele>8</ele>
        <time>2020-07-05T09:51:07.000Z</time>
      </trkpt>
      <trkpt lat="47.28411" lon="-2.28997">
        <ele>8</ele>
        <time>2020-07-05T09:51:09.000Z</time>
      </trkpt>
      <trkpt lat="47.28407" lon="-2.28992">
        <ele>8</ele>
        <time>2020-07-05T09:51:11.000Z</time>
      </trkpt>
      <trkpt lat="47.28405" lon="-2.28982">
        <ele>8.3999996185303</ele>
        <time>2020-07-05T09:51:13.000Z</time>
      </trkpt>
      <trkpt lat="47.28404" lon="-2.28975">
        <ele>9.3999996185303</ele>
        <time>2020-07-05T09:51:14.000Z</time>
      </trkpt>
      <trkpt lat="47.28403" lon="-2.28968">
        <ele>9.8000001907349</ele>
        <time>2020-07-05T09:51:15.000Z</time>
      </trkpt>
      <trkpt lat="47.28402" lon="-2.28961">
        <ele>10.199999809265</ele>
        <time>2020-07-05T09:51:16.000Z</time>
      </trkpt>
      <trkpt lat="47.284" lon="-2.28945">
        <ele>10.199999809265</ele>
        <time>2020-07-05T09:51:18.000Z</time>
      </trkpt>
      <trkpt lat="47.28396" lon="-2.28893">
        <ele>10.199999809265</ele>
        <time>2020-07-05T09:51:24.000Z</time>
      </trkpt>
      <trkpt lat="47.28393" lon="-2.28832">
        <ele>10.199999809265</ele>
        <time>2020-07-05T09:51:31.000Z</time>
      </trkpt>
      <trkpt lat="47.28392" lon="-2.28806">
        <ele>10.199999809265</ele>
        <time>2020-07-05T09:51:34.000Z</time>
      </trkpt>
      <trkpt lat="47.28389" lon="-2.2878">
        <ele>10.199999809265</ele>
        <time>2020-07-05T09:51:37.000Z</time>
      </trkpt>
      <trkpt lat="47.28387" lon="-2.28715">
        <ele>10.199999809265</ele>
        <time>2020-07-05T09:51:44.000Z</time>
      </trkpt>
      <trkpt lat="47.28386" lon="-2.28686">
        <ele>10.199999809265</ele>
        <time>2020-07-05T09:51:47.000Z</time>
      </trkpt>
      <trkpt lat="47.28384" lon="-2.28658">
        <ele>10.199999809265</ele>
        <time>2020-07-05T09:51:50.000Z</time>
      </trkpt>
      <trkpt lat="47.2838" lon="-2.28586">
        <ele>10.199999809265</ele>
        <time>2020-07-05T09:51:58.000Z</time>
      </trkpt>
      <trkpt lat="47.28377" lon="-2.28514">
        <ele>10.199999809265</ele>
        <time>2020-07-05T09:52:06.000Z</time>
      </trkpt>
      <trkpt lat="47.28375" lon="-2.28453">
        <ele>10.199999809265</ele>
        <time>2020-07-05T09:52:13.000Z</time>
      </trkpt>
      <trkpt lat="47.28371" lon="-2.28385">
        <ele>10.199999809265</ele>
        <time>2020-07-05T09:52:21.000Z</time>
      </trkpt>
      <trkpt lat="47.2837" lon="-2.28369">
        <ele>10.199999809265</ele>
        <time>2020-07-05T09:52:23.000Z</time>
      </trkpt>
      <trkpt lat="47.2837" lon="-2.28361">
        <ele>10.60000038147</ele>
        <time>2020-07-05T09:52:24.000Z</time>
      </trkpt>
      <trkpt lat="47.2837" lon="-2.28353">
        <ele>11</ele>
        <time>2020-07-05T09:52:25.000Z</time>
      </trkpt>
      <trkpt lat="47.28371" lon="-2.28345">
        <ele>11.39999961853</ele>
        <time>2020-07-05T09:52:26.000Z</time>
      </trkpt>
      <trkpt lat="47.2837" lon="-2.28337">
        <ele>11.800000190735</ele>
        <time>2020-07-05T09:52:27.000Z</time>
      </trkpt>
      <trkpt lat="47.2837" lon="-2.28328">
        <ele>12.199999809265</ele>
        <time>2020-07-05T09:52:28.000Z</time>
      </trkpt>
      <trkpt lat="47.28369" lon="-2.2826">
        <ele>12.199999809265</ele>
        <time>2020-07-05T09:52:36.000Z</time>
      </trkpt>
      <trkpt lat="47.2837" lon="-2.28242">
        <ele>11.800000190735</ele>
        <time>2020-07-05T09:52:38.000Z</time>
      </trkpt>
      <trkpt lat="47.2837" lon="-2.28233">
        <ele>11.39999961853</ele>
        <time>2020-07-05T09:52:39.000Z</time>
      </trkpt>
      <trkpt lat="47.2837" lon="-2.28225">
        <ele>11</ele>
        <time>2020-07-05T09:52:40.000Z</time>
      </trkpt>
      <trkpt lat="47.2837" lon="-2.28216">
        <ele>10.60000038147</ele>
        <time>2020-07-05T09:52:41.000Z</time>
      </trkpt>
      <trkpt lat="47.28369" lon="-2.28206">
        <ele>10</ele>
        <time>2020-07-05T09:52:42.000Z</time>
      </trkpt>
      <trkpt lat="47.28369" lon="-2.28163">
        <ele>9.6000003814697</ele>
        <time>2020-07-05T09:52:46.000Z</time>
      </trkpt>
      <trkpt lat="47.28369" lon="-2.28152">
        <ele>9.1999998092651</ele>
        <time>2020-07-05T09:52:47.000Z</time>
      </trkpt>
      <trkpt lat="47.28368" lon="-2.28142">
        <ele>8.8000001907349</ele>
        <time>2020-07-05T09:52:48.000Z</time>
      </trkpt>
      <trkpt lat="47.28368" lon="-2.28132">
        <ele>8.1999998092651</ele>
        <time>2020-07-05T09:52:49.000Z</time>
      </trkpt>
      <trkpt lat="47.28368" lon="-2.28121">
        <ele>7.8000001907349</ele>
        <time>2020-07-05T09:52:50.000Z</time>
      </trkpt>
      <trkpt lat="47.28367" lon="-2.28111">
        <ele>7.1999998092651</ele>
        <time>2020-07-05T09:52:51.000Z</time>
      </trkpt>
      <trkpt lat="47.28366" lon="-2.28102">
        <ele>6.5999999046326</ele>
        <time>2020-07-05T09:52:52.000Z</time>
      </trkpt>
      <trkpt lat="47.28364" lon="-2.28096">
        <ele>5.1999998092651</ele>
        <time>2020-07-05T09:52:53.000Z</time>
      </trkpt>
      <trkpt lat="47.28361" lon="-2.28093">
        <ele>4.4000000953674</ele>
        <time>2020-07-05T09:52:54.000Z</time>
      </trkpt>
      <trkpt lat="47.28358" lon="-2.28092">
        <ele>3.7999999523163</ele>
        <time>2020-07-05T09:52:55.000Z</time>
      </trkpt>
      <trkpt lat="47.28355" lon="-2.28091">
        <ele>3</ele>
        <time>2020-07-05T09:52:56.000Z</time>
      </trkpt>
      <trkpt lat="47.2833" lon="-2.28096">
        <ele>3</ele>
        <time>2020-07-05T09:53:04.000Z</time>
      </trkpt>
      <trkpt lat="47.28331" lon="-2.28102">
        <ele>3</ele>
        <time>2020-07-05T09:53:05.000Z</time>
      </trkpt>
      <trkpt lat="47.28331" lon="-2.28143">
        <ele>3</ele>
        <time>2020-07-05T09:53:11.000Z</time>
      </trkpt>
      <trkpt lat="47.2833" lon="-2.28164">
        <ele>3.4000000953674</ele>
        <time>2020-07-05T09:53:14.000Z</time>
      </trkpt>
      <trkpt lat="47.28329" lon="-2.2817">
        <ele>3.7999999523163</ele>
        <time>2020-07-05T09:53:15.000Z</time>
      </trkpt>
      <trkpt lat="47.28329" lon="-2.28178">
        <ele>4.1999998092651</ele>
        <time>2020-07-05T09:53:16.000Z</time>
      </trkpt>
      <trkpt lat="47.28329" lon="-2.28185">
        <ele>4.5999999046326</ele>
        <time>2020-07-05T09:53:17.000Z</time>
      </trkpt>
      <trkpt lat="47.28328" lon="-2.28191">
        <ele>5</ele>
        <time>2020-07-05T09:53:18.000Z</time>
      </trkpt>
      <trkpt lat="47.28329" lon="-2.28204">
        <ele>5.4000000953674</ele>
        <time>2020-07-05T09:53:20.000Z</time>
      </trkpt>
      <trkpt lat="47.28329" lon="-2.2821">
        <ele>5.8000001907349</ele>
        <time>2020-07-05T09:53:21.000Z</time>
      </trkpt>
      <trkpt lat="47.28329" lon="-2.28216">
        <ele>6.1999998092651</ele>
        <time>2020-07-05T09:53:22.000Z</time>
      </trkpt>
      <trkpt lat="47.28328" lon="-2.28223">
        <ele>6.5999999046326</ele>
        <time>2020-07-05T09:53:23.000Z</time>
      </trkpt>
      <trkpt lat="47.28328" lon="-2.28229">
        <ele>7</ele>
        <time>2020-07-05T09:53:24.000Z</time>
      </trkpt>
      <trkpt lat="47.28328" lon="-2.28235">
        <ele>7</ele>
        <time>2020-07-05T09:53:25.000Z</time>
      </trkpt>
      <trkpt lat="47.28329" lon="-2.28265">
        <ele>7.4000000953674</ele>
        <time>2020-07-05T09:53:30.000Z</time>
      </trkpt>
      <trkpt lat="47.28329" lon="-2.2827">
        <ele>7.8000001907349</ele>
        <time>2020-07-05T09:53:31.000Z</time>
      </trkpt>
      <trkpt lat="47.28328" lon="-2.28276">
        <ele>8.1999998092651</ele>
        <time>2020-07-05T09:53:32.000Z</time>
      </trkpt>
      <trkpt lat="47.28328" lon="-2.28281">
        <ele>8.8000001907349</ele>
        <time>2020-07-05T09:53:33.000Z</time>
      </trkpt>
      <trkpt lat="47.28328" lon="-2.28286">
        <ele>9.1999998092651</ele>
        <time>2020-07-05T09:53:34.000Z</time>
      </trkpt>
      <trkpt lat="47.28323" lon="-2.283">
        <ele>9.1999998092651</ele>
        <time>2020-07-05T09:53:38.000Z</time>
      </trkpt>
      <trkpt lat="47.28315" lon="-2.28294">
        <ele>9.1999998092651</ele>
        <time>2020-07-05T09:53:41.000Z</time>
      </trkpt>
      <trkpt lat="47.28312" lon="-2.28291">
        <ele>9.1999998092651</ele>
        <time>2020-07-05T09:53:42.000Z</time>
      </trkpt>
      <trkpt lat="47.28296" lon="-2.28285">
        <ele>9.1999998092651</ele>
        <time>2020-07-05T09:53:46.000Z</time>
      </trkpt>
      <trkpt lat="47.28265" lon="-2.28268">
        <ele>9.1999998092651</ele>
        <time>2020-07-05T09:53:54.000Z</time>
      </trkpt>
      <trkpt lat="47.28249" lon="-2.28254">
        <ele>9.1999998092651</ele>
        <time>2020-07-05T09:53:58.000Z</time>
      </trkpt>
      <trkpt lat="47.28242" lon="-2.28243">
        <ele>9.1999998092651</ele>
        <time>2020-07-05T09:54:00.000Z</time>
      </trkpt>
      <trkpt lat="47.28235" lon="-2.28228">
        <ele>9.1999998092651</ele>
        <time>2020-07-05T09:54:02.000Z</time>
      </trkpt>
      <trkpt lat="47.28226" lon="-2.28205">
        <ele>9.1999998092651</ele>
        <time>2020-07-05T09:54:05.000Z</time>
      </trkpt>
      <trkpt lat="47.28215" lon="-2.28179">
        <ele>8.8000001907349</ele>
        <time>2020-07-05T09:54:08.000Z</time>
      </trkpt>
      <trkpt lat="47.28211" lon="-2.28169">
        <ele>8.1999998092651</ele>
        <time>2020-07-05T09:54:09.000Z</time>
      </trkpt>
      <trkpt lat="47.28206" lon="-2.28159">
        <ele>7.8000001907349</ele>
        <time>2020-07-05T09:54:10.000Z</time>
      </trkpt>
      <trkpt lat="47.28202" lon="-2.28149">
        <ele>7.4000000953674</ele>
        <time>2020-07-05T09:54:11.000Z</time>
      </trkpt>
      <trkpt lat="47.28198" lon="-2.28139">
        <ele>6.8000001907349</ele>
        <time>2020-07-05T09:54:12.000Z</time>
      </trkpt>
      <trkpt lat="47.28181" lon="-2.28105">
        <ele>6.4000000953674</ele>
        <time>2020-07-05T09:54:16.000Z</time>
      </trkpt>
      <trkpt lat="47.28176" lon="-2.28101">
        <ele>6</ele>
        <time>2020-07-05T09:54:17.000Z</time>
      </trkpt>
      <trkpt lat="47.2817" lon="-2.28099">
        <ele>5.4000000953674</ele>
        <time>2020-07-05T09:54:18.000Z</time>
      </trkpt>
      <trkpt lat="47.28164" lon="-2.281">
        <ele>5</ele>
        <time>2020-07-05T09:54:19.000Z</time>
      </trkpt>
      <trkpt lat="47.28158" lon="-2.28103">
        <ele>4.5999999046326</ele>
        <time>2020-07-05T09:54:20.000Z</time>
      </trkpt>
      <trkpt lat="47.28147" lon="-2.2811">
        <ele>4.5999999046326</ele>
        <time>2020-07-05T09:54:22.000Z</time>
      </trkpt>
      <trkpt lat="47.28143" lon="-2.28114">
        <ele>4.5999999046326</ele>
        <time>2020-07-05T09:54:23.000Z</time>
      </trkpt>
      <trkpt lat="47.28139" lon="-2.28118">
        <ele>4.5999999046326</ele>
        <time>2020-07-05T09:54:24.000Z</time>
      </trkpt>
      <trkpt lat="47.28125" lon="-2.28128">
        <ele>4.5999999046326</ele>
        <time>2020-07-05T09:54:27.000Z</time>
      </trkpt>
      <trkpt lat="47.28114" lon="-2.28126">
        <ele>4.5999999046326</ele>
        <time>2020-07-05T09:54:29.000Z</time>
      </trkpt>
      <trkpt lat="47.28101" lon="-2.28113">
        <ele>4.5999999046326</ele>
        <time>2020-07-05T09:54:32.000Z</time>
      </trkpt>
      <trkpt lat="47.28096" lon="-2.28108">
        <ele>4.5999999046326</ele>
        <time>2020-07-05T09:54:33.000Z</time>
      </trkpt>
      <trkpt lat="47.28072" lon="-2.28082">
        <ele>4.5999999046326</ele>
        <time>2020-07-05T09:54:39.000Z</time>
      </trkpt>
      <trkpt lat="47.28056" lon="-2.28063">
        <ele>5</ele>
        <time>2020-07-05T09:54:44.000Z</time>
      </trkpt>
      <trkpt lat="47.28054" lon="-2.28058">
        <ele>5.4000000953674</ele>
        <time>2020-07-05T09:54:45.000Z</time>
      </trkpt>
      <trkpt lat="47.28052" lon="-2.28052">
        <ele>5.8000001907349</ele>
        <time>2020-07-05T09:54:46.000Z</time>
      </trkpt>
      <trkpt lat="47.28051" lon="-2.28045">
        <ele>6.1999998092651</ele>
        <time>2020-07-05T09:54:47.000Z</time>
      </trkpt>
      <trkpt lat="47.2805" lon="-2.28038">
        <ele>6.5999999046326</ele>
        <time>2020-07-05T09:54:48.000Z</time>
      </trkpt>
      <trkpt lat="47.28049" lon="-2.28031">
        <ele>6.5999999046326</ele>
        <time>2020-07-05T09:54:49.000Z</time>
      </trkpt>
      <trkpt lat="47.28046" lon="-2.27982">
        <ele>7.4000000953674</ele>
        <time>2020-07-05T09:54:56.000Z</time>
      </trkpt>
      <trkpt lat="47.28045" lon="-2.27975">
        <ele>7.8000001907349</ele>
        <time>2020-07-05T09:54:57.000Z</time>
      </trkpt>
      <trkpt lat="47.28044" lon="-2.27968">
        <ele>8.1999998092651</ele>
        <time>2020-07-05T09:54:58.000Z</time>
      </trkpt>
      <trkpt lat="47.28044" lon="-2.27961">
        <ele>8.6000003814697</ele>
        <time>2020-07-05T09:54:59.000Z</time>
      </trkpt>
      <trkpt lat="47.28039" lon="-2.2792">
        <ele>8.6000003814697</ele>
        <time>2020-07-05T09:55:05.000Z</time>
      </trkpt>
      <trkpt lat="47.28034" lon="-2.27889">
        <ele>8.6000003814697</ele>
        <time>2020-07-05T09:55:11.000Z</time>
      </trkpt>
      <trkpt lat="47.28033" lon="-2.27884">
        <ele>9</ele>
        <time>2020-07-05T09:55:12.000Z</time>
      </trkpt>
      <trkpt lat="47.28033" lon="-2.27879">
        <ele>9.3999996185303</ele>
        <time>2020-07-05T09:55:13.000Z</time>
      </trkpt>
      <trkpt lat="47.28032" lon="-2.27874">
        <ele>9.8000001907349</ele>
        <time>2020-07-05T09:55:14.000Z</time>
      </trkpt>
      <trkpt lat="47.28031" lon="-2.27869">
        <ele>10.199999809265</ele>
        <time>2020-07-05T09:55:15.000Z</time>
      </trkpt>
      <trkpt lat="47.2803" lon="-2.27864">
        <ele>10.60000038147</ele>
        <time>2020-07-05T09:55:16.000Z</time>
      </trkpt>
      <trkpt lat="47.28029" lon="-2.27855">
        <ele>10.60000038147</ele>
        <time>2020-07-05T09:55:18.000Z</time>
      </trkpt>
      <trkpt lat="47.28025" lon="-2.27836">
        <ele>11.199999809265</ele>
        <time>2020-07-05T09:55:23.000Z</time>
      </trkpt>
      <trkpt lat="47.28025" lon="-2.27833">
        <ele>11.60000038147</ele>
        <time>2020-07-05T09:55:24.000Z</time>
      </trkpt>
      <trkpt lat="47.28024" lon="-2.27829">
        <ele>12</ele>
        <time>2020-07-05T09:55:25.000Z</time>
      </trkpt>
      <trkpt lat="47.28024" lon="-2.27826">
        <ele>12.39999961853</ele>
        <time>2020-07-05T09:55:26.000Z</time>
      </trkpt>
      <trkpt lat="47.28023" lon="-2.27821">
        <ele>12.800000190735</ele>
        <time>2020-07-05T09:55:27.000Z</time>
      </trkpt>
      <trkpt lat="47.2802" lon="-2.27801">
        <ele>12.800000190735</ele>
        <time>2020-07-05T09:55:31.000Z</time>
      </trkpt>
      <trkpt lat="47.28013" lon="-2.27762">
        <ele>12.800000190735</ele>
        <time>2020-07-05T09:55:39.000Z</time>
      </trkpt>
      <trkpt lat="47.28004" lon="-2.27718">
        <ele>12.800000190735</ele>
        <time>2020-07-05T09:55:46.000Z</time>
      </trkpt>
      <trkpt lat="47.27992" lon="-2.27673">
        <ele>12.800000190735</ele>
        <time>2020-07-05T09:55:51.000Z</time>
      </trkpt>
      <trkpt lat="47.27984" lon="-2.27645">
        <ele>12.39999961853</ele>
        <time>2020-07-05T09:55:54.000Z</time>
      </trkpt>
      <trkpt lat="47.2798" lon="-2.27636">
        <ele>11.800000190735</ele>
        <time>2020-07-05T09:55:55.000Z</time>
      </trkpt>
      <trkpt lat="47.27977" lon="-2.27626">
        <ele>11.39999961853</ele>
        <time>2020-07-05T09:55:56.000Z</time>
      </trkpt>
      <trkpt lat="47.27974" lon="-2.27616">
        <ele>11</ele>
        <time>2020-07-05T09:55:57.000Z</time>
      </trkpt>
      <trkpt lat="47.2797" lon="-2.27606">
        <ele>10.60000038147</ele>
        <time>2020-07-05T09:55:58.000Z</time>
      </trkpt>
      <trkpt lat="47.27958" lon="-2.27568">
        <ele>10.199999809265</ele>
        <time>2020-07-05T09:56:02.000Z</time>
      </trkpt>
      <trkpt lat="47.27953" lon="-2.27561">
        <ele>9.6000003814697</ele>
        <time>2020-07-05T09:56:03.000Z</time>
      </trkpt>
      <trkpt lat="47.27946" lon="-2.27559">
        <ele>9.1999998092651</ele>
        <time>2020-07-05T09:56:04.000Z</time>
      </trkpt>
      <trkpt lat="47.27939" lon="-2.27559">
        <ele>8.8000001907349</ele>
        <time>2020-07-05T09:56:05.000Z</time>
      </trkpt>
      <trkpt lat="47.27932" lon="-2.27563">
        <ele>8.1999998092651</ele>
        <time>2020-07-05T09:56:06.000Z</time>
      </trkpt>
      <trkpt lat="47.27926" lon="-2.27571">
        <ele>8.1999998092651</ele>
        <time>2020-07-05T09:56:07.000Z</time>
      </trkpt>
      <trkpt lat="47.27908" lon="-2.2761">
        <ele>8.1999998092651</ele>
        <time>2020-07-05T09:56:11.000Z</time>
      </trkpt>
      <trkpt lat="47.27903" lon="-2.2763">
        <ele>8.1999998092651</ele>
        <time>2020-07-05T09:56:13.000Z</time>
      </trkpt>
      <trkpt lat="47.27893" lon="-2.2767">
        <ele>8.1999998092651</ele>
        <time>2020-07-05T09:56:17.000Z</time>
      </trkpt>
      <trkpt lat="47.27869" lon="-2.27724">
        <ele>8.1999998092651</ele>
        <time>2020-07-05T09:56:23.000Z</time>
      </trkpt>
      <trkpt lat="47.27845" lon="-2.27771">
        <ele>8.1999998092651</ele>
        <time>2020-07-05T09:56:29.000Z</time>
      </trkpt>
      <trkpt lat="47.27827" lon="-2.27807">
        <ele>8.1999998092651</ele>
        <time>2020-07-05T09:56:34.000Z</time>
      </trkpt>
      <trkpt lat="47.27801" lon="-2.27865">
        <ele>8.1999998092651</ele>
        <time>2020-07-05T09:56:41.000Z</time>
      </trkpt>
      <trkpt lat="47.27773" lon="-2.27921">
        <ele>8.1999998092651</ele>
        <time>2020-07-05T09:56:48.000Z</time>
      </trkpt>
      <trkpt lat="47.27768" lon="-2.27928">
        <ele>8.1999998092651</ele>
        <time>2020-07-05T09:56:49.000Z</time>
      </trkpt>
      <trkpt lat="47.27751" lon="-2.27945">
        <ele>8.1999998092651</ele>
        <time>2020-07-05T09:56:52.000Z</time>
      </trkpt>
      <trkpt lat="47.27744" lon="-2.2795">
        <ele>8.1999998092651</ele>
        <time>2020-07-05T09:56:53.000Z</time>
      </trkpt>
      <trkpt lat="47.27718" lon="-2.27969">
        <ele>8.1999998092651</ele>
        <time>2020-07-05T09:56:57.000Z</time>
      </trkpt>
      <trkpt lat="47.27693" lon="-2.27997">
        <ele>8.1999998092651</ele>
        <time>2020-07-05T09:57:02.000Z</time>
      </trkpt>
      <trkpt lat="47.2766" lon="-2.28047">
        <ele>8.1999998092651</ele>
        <time>2020-07-05T09:57:09.000Z</time>
      </trkpt>
      <trkpt lat="47.27629" lon="-2.28088">
        <ele>8.1999998092651</ele>
        <time>2020-07-05T09:57:15.000Z</time>
      </trkpt>
      <trkpt lat="47.27605" lon="-2.28109">
        <ele>8.1999998092651</ele>
        <time>2020-07-05T09:57:19.000Z</time>
      </trkpt>
      <trkpt lat="47.27593" lon="-2.28115">
        <ele>8.1999998092651</ele>
        <time>2020-07-05T09:57:21.000Z</time>
      </trkpt>
      <trkpt lat="47.27554" lon="-2.28129">
        <ele>8.1999998092651</ele>
        <time>2020-07-05T09:57:27.000Z</time>
      </trkpt>
      <trkpt lat="47.27511" lon="-2.28145">
        <ele>8.1999998092651</ele>
        <time>2020-07-05T09:57:34.000Z</time>
      </trkpt>
      <trkpt lat="47.27472" lon="-2.28156">
        <ele>8.1999998092651</ele>
        <time>2020-07-05T09:57:40.000Z</time>
      </trkpt>
      <trkpt lat="47.2744" lon="-2.28159">
        <ele>8.1999998092651</ele>
        <time>2020-07-05T09:57:45.000Z</time>
      </trkpt>
      <trkpt lat="47.27434" lon="-2.28158">
        <ele>8.1999998092651</ele>
        <time>2020-07-05T09:57:46.000Z</time>
      </trkpt>
      <trkpt lat="47.27415" lon="-2.28147">
        <ele>8.1999998092651</ele>
        <time>2020-07-05T09:57:49.000Z</time>
      </trkpt>
      <trkpt lat="47.2741" lon="-2.28142">
        <ele>8.1999998092651</ele>
        <time>2020-07-05T09:57:50.000Z</time>
      </trkpt>
      <trkpt lat="47.27381" lon="-2.28106">
        <ele>8.1999998092651</ele>
        <time>2020-07-05T09:57:56.000Z</time>
      </trkpt>
      <trkpt lat="47.27357" lon="-2.28068">
        <ele>8.1999998092651</ele>
        <time>2020-07-05T09:58:02.000Z</time>
      </trkpt>
      <trkpt lat="47.27354" lon="-2.2806">
        <ele>8.1999998092651</ele>
        <time>2020-07-05T09:58:03.000Z</time>
      </trkpt>
      <trkpt lat="47.2734" lon="-2.2805">
        <ele>8.1999998092651</ele>
        <time>2020-07-05T09:58:06.000Z</time>
      </trkpt>
      <trkpt lat="47.27335" lon="-2.28051">
        <ele>8.8000001907349</ele>
        <time>2020-07-05T09:58:07.000Z</time>
      </trkpt>
      <trkpt lat="47.2733" lon="-2.28049">
        <ele>9.1999998092651</ele>
        <time>2020-07-05T09:58:08.000Z</time>
      </trkpt>
      <trkpt lat="47.27325" lon="-2.2805">
        <ele>9.6000003814697</ele>
        <time>2020-07-05T09:58:09.000Z</time>
      </trkpt>
      <trkpt lat="47.2732" lon="-2.2805">
        <ele>10</ele>
        <time>2020-07-05T09:58:10.000Z</time>
      </trkpt>
      <trkpt lat="47.27314" lon="-2.28049">
        <ele>10.60000038147</ele>
        <time>2020-07-05T09:58:11.000Z</time>
      </trkpt>
      <trkpt lat="47.27296" lon="-2.28053">
        <ele>10.60000038147</ele>
        <time>2020-07-05T09:58:14.000Z</time>
      </trkpt>
      <trkpt lat="47.27291" lon="-2.28055">
        <ele>10.60000038147</ele>
        <time>2020-07-05T09:58:15.000Z</time>
      </trkpt>
      <trkpt lat="47.27259" lon="-2.28073">
        <ele>10.60000038147</ele>
        <time>2020-07-05T09:58:21.000Z</time>
      </trkpt>
      <trkpt lat="47.27235" lon="-2.28089">
        <ele>10.60000038147</ele>
        <time>2020-07-05T09:58:26.000Z</time>
      </trkpt>
      <trkpt lat="47.27225" lon="-2.28095">
        <ele>10.60000038147</ele>
        <time>2020-07-05T09:58:28.000Z</time>
      </trkpt>
      <trkpt lat="47.27215" lon="-2.28102">
        <ele>10.60000038147</ele>
        <time>2020-07-05T09:58:30.000Z</time>
      </trkpt>
      <trkpt lat="47.27194" lon="-2.28118">
        <ele>10.60000038147</ele>
        <time>2020-07-05T09:58:35.000Z</time>
      </trkpt>
      <trkpt lat="47.27183" lon="-2.28129">
        <ele>11</ele>
        <time>2020-07-05T09:58:38.000Z</time>
      </trkpt>
      <trkpt lat="47.2718" lon="-2.28132">
        <ele>11.800000190735</ele>
        <time>2020-07-05T09:58:39.000Z</time>
      </trkpt>
      <trkpt lat="47.27177" lon="-2.28137">
        <ele>12.199999809265</ele>
        <time>2020-07-05T09:58:40.000Z</time>
      </trkpt>
      <trkpt lat="47.27173" lon="-2.2814">
        <ele>12.60000038147</ele>
        <time>2020-07-05T09:58:41.000Z</time>
      </trkpt>
      <trkpt lat="47.27159" lon="-2.2815">
        <ele>12.60000038147</ele>
        <time>2020-07-05T09:58:45.000Z</time>
      </trkpt>
      <trkpt lat="47.2715" lon="-2.28151">
        <ele>12.60000038147</ele>
        <time>2020-07-05T09:58:47.000Z</time>
      </trkpt>
      <trkpt lat="47.27137" lon="-2.28149">
        <ele>12.60000038147</ele>
        <time>2020-07-05T09:58:50.000Z</time>
      </trkpt>
      <trkpt lat="47.27132" lon="-2.28151">
        <ele>12.60000038147</ele>
        <time>2020-07-05T09:58:51.000Z</time>
      </trkpt>
      <trkpt lat="47.27128" lon="-2.2816">
        <ele>12.60000038147</ele>
        <time>2020-07-05T09:58:53.000Z</time>
      </trkpt>
      <trkpt lat="47.27126" lon="-2.28175">
        <ele>12.60000038147</ele>
        <time>2020-07-05T09:58:55.000Z</time>
      </trkpt>
      <trkpt lat="47.27124" lon="-2.28193">
        <ele>12.60000038147</ele>
        <time>2020-07-05T09:58:57.000Z</time>
      </trkpt>
      <trkpt lat="47.27123" lon="-2.28202">
        <ele>12.60000038147</ele>
        <time>2020-07-05T09:58:58.000Z</time>
      </trkpt>
      <trkpt lat="47.27121" lon="-2.28212">
        <ele>12.60000038147</ele>
        <time>2020-07-05T09:58:59.000Z</time>
      </trkpt>
      <trkpt lat="47.27119" lon="-2.28238">
        <ele>12.60000038147</ele>
        <time>2020-07-05T09:59:02.000Z</time>
      </trkpt>
      <trkpt lat="47.27119" lon="-2.28246">
        <ele>12.60000038147</ele>
        <time>2020-07-05T09:59:03.000Z</time>
      </trkpt>
      <trkpt lat="47.27125" lon="-2.2827">
        <ele>12.60000038147</ele>
        <time>2020-07-05T09:59:06.000Z</time>
      </trkpt>
      <trkpt lat="47.27139" lon="-2.28317">
        <ele>12.60000038147</ele>
        <time>2020-07-05T09:59:12.000Z</time>
      </trkpt>
      <trkpt lat="47.27143" lon="-2.28333">
        <ele>12.60000038147</ele>
        <time>2020-07-05T09:59:14.000Z</time>
      </trkpt>
      <trkpt lat="47.27146" lon="-2.28358">
        <ele>12.60000038147</ele>
        <time>2020-07-05T09:59:17.000Z</time>
      </trkpt>
      <trkpt lat="47.27146" lon="-2.28366">
        <ele>13</ele>
        <time>2020-07-05T09:59:18.000Z</time>
      </trkpt>
      <trkpt lat="47.27147" lon="-2.28374">
        <ele>13.39999961853</ele>
        <time>2020-07-05T09:59:19.000Z</time>
      </trkpt>
      <trkpt lat="47.27148" lon="-2.28383">
        <ele>13.800000190735</ele>
        <time>2020-07-05T09:59:20.000Z</time>
      </trkpt>
      <trkpt lat="47.27148" lon="-2.28392">
        <ele>14.199999809265</ele>
        <time>2020-07-05T09:59:21.000Z</time>
      </trkpt>
      <trkpt lat="47.27148" lon="-2.28401">
        <ele>14.60000038147</ele>
        <time>2020-07-05T09:59:22.000Z</time>
      </trkpt>
      <trkpt lat="47.2715" lon="-2.2842">
        <ele>14.60000038147</ele>
        <time>2020-07-05T09:59:24.000Z</time>
      </trkpt>
      <trkpt lat="47.27157" lon="-2.28484">
        <ele>14.60000038147</ele>
        <time>2020-07-05T09:59:30.000Z</time>
      </trkpt>
      <trkpt lat="47.27163" lon="-2.28519">
        <ele>14.199999809265</ele>
        <time>2020-07-05T09:59:33.000Z</time>
      </trkpt>
      <trkpt lat="47.27166" lon="-2.28531">
        <ele>13.800000190735</ele>
        <time>2020-07-05T09:59:34.000Z</time>
      </trkpt>
      <trkpt lat="47.27168" lon="-2.28542">
        <ele>13.39999961853</ele>
        <time>2020-07-05T09:59:35.000Z</time>
      </trkpt>
      <trkpt lat="47.27171" lon="-2.28553">
        <ele>13</ele>
        <time>2020-07-05T09:59:36.000Z</time>
      </trkpt>
      <trkpt lat="47.27174" lon="-2.28564">
        <ele>12.60000038147</ele>
        <time>2020-07-05T09:59:37.000Z</time>
      </trkpt>
      <trkpt lat="47.27177" lon="-2.28575">
        <ele>12.60000038147</ele>
        <time>2020-07-05T09:59:38.000Z</time>
      </trkpt>
      <trkpt lat="47.27184" lon="-2.28596">
        <ele>12.60000038147</ele>
        <time>2020-07-05T09:59:40.000Z</time>
      </trkpt>
      <trkpt lat="47.27186" lon="-2.28641">
        <ele>12.60000038147</ele>
        <time>2020-07-05T09:59:44.000Z</time>
      </trkpt>
      <trkpt lat="47.27186" lon="-2.28663">
        <ele>12.199999809265</ele>
        <time>2020-07-05T09:59:46.000Z</time>
      </trkpt>
      <trkpt lat="47.27186" lon="-2.28674">
        <ele>11.800000190735</ele>
        <time>2020-07-05T09:59:47.000Z</time>
      </trkpt>
      <trkpt lat="47.27186" lon="-2.28685">
        <ele>11.39999961853</ele>
        <time>2020-07-05T09:59:48.000Z</time>
      </trkpt>
      <trkpt lat="47.27186" lon="-2.28696">
        <ele>10.800000190735</ele>
        <time>2020-07-05T09:59:49.000Z</time>
      </trkpt>
      <trkpt lat="47.27186" lon="-2.28707">
        <ele>10.39999961853</ele>
        <time>2020-07-05T09:59:50.000Z</time>
      </trkpt>
      <trkpt lat="47.27187" lon="-2.28718">
        <ele>10.39999961853</ele>
        <time>2020-07-05T09:59:51.000Z</time>
      </trkpt>
      <trkpt lat="47.27187" lon="-2.28766">
        <ele>10.39999961853</ele>
        <time>2020-07-05T09:59:55.000Z</time>
      </trkpt>
      <trkpt lat="47.27185" lon="-2.28788">
        <ele>10.39999961853</ele>
        <time>2020-07-05T09:59:57.000Z</time>
      </trkpt>
      <trkpt lat="47.27181" lon="-2.28855">
        <ele>10.39999961853</ele>
        <time>2020-07-05T10:00:03.000Z</time>
      </trkpt>
      <trkpt lat="47.2718" lon="-2.28865">
        <ele>10</ele>
        <time>2020-07-05T10:00:04.000Z</time>
      </trkpt>
      <trkpt lat="47.2718" lon="-2.28876">
        <ele>9.6000003814697</ele>
        <time>2020-07-05T10:00:05.000Z</time>
      </trkpt>
      <trkpt lat="47.27179" lon="-2.28887">
        <ele>9.1999998092651</ele>
        <time>2020-07-05T10:00:06.000Z</time>
      </trkpt>
      <trkpt lat="47.27178" lon="-2.28897">
        <ele>8.8000001907349</ele>
        <time>2020-07-05T10:00:07.000Z</time>
      </trkpt>
      <trkpt lat="47.27177" lon="-2.28909">
        <ele>8.3999996185303</ele>
        <time>2020-07-05T10:00:08.000Z</time>
      </trkpt>
      <trkpt lat="47.27177" lon="-2.28919">
        <ele>8.3999996185303</ele>
        <time>2020-07-05T10:00:09.000Z</time>
      </trkpt>
      <trkpt lat="47.27177" lon="-2.28951">
        <ele>8.3999996185303</ele>
        <time>2020-07-05T10:00:12.000Z</time>
      </trkpt>
      <trkpt lat="47.2718" lon="-2.28972">
        <ele>8.3999996185303</ele>
        <time>2020-07-05T10:00:14.000Z</time>
      </trkpt>
      <trkpt lat="47.27184" lon="-2.29002">
        <ele>8.3999996185303</ele>
        <time>2020-07-05T10:00:17.000Z</time>
      </trkpt>
      <trkpt lat="47.27187" lon="-2.29031">
        <ele>8.3999996185303</ele>
        <time>2020-07-05T10:00:20.000Z</time>
      </trkpt>
      <trkpt lat="47.27188" lon="-2.29041">
        <ele>8.3999996185303</ele>
        <time>2020-07-05T10:00:21.000Z</time>
      </trkpt>
      <trkpt lat="47.27195" lon="-2.29081">
        <ele>8.3999996185303</ele>
        <time>2020-07-05T10:00:25.000Z</time>
      </trkpt>
      <trkpt lat="47.27193" lon="-2.29108">
        <ele>8.3999996185303</ele>
        <time>2020-07-05T10:00:28.000Z</time>
      </trkpt>
      <trkpt lat="47.2718" lon="-2.2913">
        <ele>8.3999996185303</ele>
        <time>2020-07-05T10:00:31.000Z</time>
      </trkpt>
      <trkpt lat="47.27175" lon="-2.29136">
        <ele>8.3999996185303</ele>
        <time>2020-07-05T10:00:32.000Z</time>
      </trkpt>
      <trkpt lat="47.27156" lon="-2.29161">
        <ele>8.3999996185303</ele>
        <time>2020-07-05T10:00:36.000Z</time>
      </trkpt>
      <trkpt lat="47.27153" lon="-2.29168">
        <ele>8.3999996185303</ele>
        <time>2020-07-05T10:00:37.000Z</time>
      </trkpt>
      <trkpt lat="47.27153" lon="-2.29185">
        <ele>8.3999996185303</ele>
        <time>2020-07-05T10:00:39.000Z</time>
      </trkpt>
      <trkpt lat="47.27158" lon="-2.29204">
        <ele>8.3999996185303</ele>
        <time>2020-07-05T10:00:42.000Z</time>
      </trkpt>
      <trkpt lat="47.2716" lon="-2.29207">
        <ele>8.3999996185303</ele>
        <time>2020-07-05T10:00:43.000Z</time>
      </trkpt>
      <trkpt lat="47.27161" lon="-2.29209">
        <ele>8.3999996185303</ele>
        <time>2020-07-05T10:00:47.000Z</time>
      </trkpt>
      <trkpt lat="47.27165" lon="-2.29214">
        <ele>6.4000000953674</ele>
        <time>2020-07-05T10:03:54.000Z</time>
      </trkpt>
      <trkpt lat="47.27168" lon="-2.29221">
        <ele>6.4000000953674</ele>
        <time>2020-07-05T10:03:57.000Z</time>
      </trkpt>
      <trkpt lat="47.27174" lon="-2.29241">
        <ele>6.4000000953674</ele>
        <time>2020-07-05T10:04:02.000Z</time>
      </trkpt>
      <trkpt lat="47.27174" lon="-2.29246">
        <ele>6.4000000953674</ele>
        <time>2020-07-05T10:04:03.000Z</time>
      </trkpt>
      <trkpt lat="47.2717" lon="-2.29257">
        <ele>6.4000000953674</ele>
        <time>2020-07-05T10:04:05.000Z</time>
      </trkpt>
      <trkpt lat="47.27161" lon="-2.29275">
        <ele>6.4000000953674</ele>
        <time>2020-07-05T10:04:08.000Z</time>
      </trkpt>
      <trkpt lat="47.27158" lon="-2.29286">
        <ele>6.4000000953674</ele>
        <time>2020-07-05T10:04:10.000Z</time>
      </trkpt>
      <trkpt lat="47.27153" lon="-2.29308">
        <ele>6.4000000953674</ele>
        <time>2020-07-05T10:04:14.000Z</time>
      </trkpt>
      <trkpt lat="47.27155" lon="-2.29313">
        <ele>6.4000000953674</ele>
        <time>2020-07-05T10:04:15.000Z</time>
      </trkpt>
      <trkpt lat="47.27161" lon="-2.29324">
        <ele>6.4000000953674</ele>
        <time>2020-07-05T10:04:17.000Z</time>
      </trkpt>
      <trkpt lat="47.27183" lon="-2.29355">
        <ele>6.4000000953674</ele>
        <time>2020-07-05T10:04:22.000Z</time>
      </trkpt>
      <trkpt lat="47.27186" lon="-2.29361">
        <ele>6.4000000953674</ele>
        <time>2020-07-05T10:04:23.000Z</time>
      </trkpt>
      <trkpt lat="47.27193" lon="-2.29376">
        <ele>6.8000001907349</ele>
        <time>2020-07-05T10:04:25.000Z</time>
      </trkpt>
      <trkpt lat="47.27196" lon="-2.29385">
        <ele>7.1999998092651</ele>
        <time>2020-07-05T10:04:26.000Z</time>
      </trkpt>
      <trkpt lat="47.27198" lon="-2.29392">
        <ele>7.8000001907349</ele>
        <time>2020-07-05T10:04:27.000Z</time>
      </trkpt>
      <trkpt lat="47.27201" lon="-2.29399">
        <ele>8.1999998092651</ele>
        <time>2020-07-05T10:04:28.000Z</time>
      </trkpt>
      <trkpt lat="47.27203" lon="-2.29407">
        <ele>8.6000003814697</ele>
        <time>2020-07-05T10:04:29.000Z</time>
      </trkpt>
      <trkpt lat="47.27211" lon="-2.29429">
        <ele>8.6000003814697</ele>
        <time>2020-07-05T10:04:32.000Z</time>
      </trkpt>
      <trkpt lat="47.27213" lon="-2.29437">
        <ele>8.6000003814697</ele>
        <time>2020-07-05T10:04:33.000Z</time>
      </trkpt>
      <trkpt lat="47.27227" lon="-2.29484">
        <ele>8.6000003814697</ele>
        <time>2020-07-05T10:04:39.000Z</time>
      </trkpt>
      <trkpt lat="47.27244" lon="-2.29529">
        <ele>8.6000003814697</ele>
        <time>2020-07-05T10:04:45.000Z</time>
      </trkpt>
      <trkpt lat="47.27247" lon="-2.29536">
        <ele>8.6000003814697</ele>
        <time>2020-07-05T10:04:46.000Z</time>
      </trkpt>
      <trkpt lat="47.27251" lon="-2.29553">
        <ele>8.6000003814697</ele>
        <time>2020-07-05T10:04:48.000Z</time>
      </trkpt>
      <trkpt lat="47.27256" lon="-2.29578">
        <ele>8.6000003814697</ele>
        <time>2020-07-05T10:04:51.000Z</time>
      </trkpt>
      <trkpt lat="47.27266" lon="-2.29636">
        <ele>8.6000003814697</ele>
        <time>2020-07-05T10:04:58.000Z</time>
      </trkpt>
      <trkpt lat="47.27274" lon="-2.29673">
        <ele>8.6000003814697</ele>
        <time>2020-07-05T10:05:04.000Z</time>
      </trkpt>
      <trkpt lat="47.27282" lon="-2.29719">
        <ele>8.6000003814697</ele>
        <time>2020-07-05T10:05:09.000Z</time>
      </trkpt>
      <trkpt lat="47.27298" lon="-2.29775">
        <ele>8.6000003814697</ele>
        <time>2020-07-05T10:05:15.000Z</time>
      </trkpt>
      <trkpt lat="47.27317" lon="-2.29818">
        <ele>8.6000003814697</ele>
        <time>2020-07-05T10:05:20.000Z</time>
      </trkpt>
      <trkpt lat="47.27344" lon="-2.29864">
        <ele>8.6000003814697</ele>
        <time>2020-07-05T10:05:26.000Z</time>
      </trkpt>
      <trkpt lat="47.27373" lon="-2.29923">
        <ele>8.6000003814697</ele>
        <time>2020-07-05T10:05:33.000Z</time>
      </trkpt>
      <trkpt lat="47.27398" lon="-2.29983">
        <ele>8.6000003814697</ele>
        <time>2020-07-05T10:05:40.000Z</time>
      </trkpt>
      <trkpt lat="47.27419" lon="-2.30042">
        <ele>8.6000003814697</ele>
        <time>2020-07-05T10:05:46.000Z</time>
      </trkpt>
      <trkpt lat="47.27438" lon="-2.30101">
        <ele>8.6000003814697</ele>
        <time>2020-07-05T10:05:52.000Z</time>
      </trkpt>
      <trkpt lat="47.2745" lon="-2.30153">
        <ele>8.1999998092651</ele>
        <time>2020-07-05T10:05:57.000Z</time>
      </trkpt>
      <trkpt lat="47.27452" lon="-2.30163">
        <ele>7.5999999046326</ele>
        <time>2020-07-05T10:05:58.000Z</time>
      </trkpt>
      <trkpt lat="47.27455" lon="-2.30173">
        <ele>7.1999998092651</ele>
        <time>2020-07-05T10:05:59.000Z</time>
      </trkpt>
      <trkpt lat="47.27457" lon="-2.30182">
        <ele>6.8000001907349</ele>
        <time>2020-07-05T10:06:00.000Z</time>
      </trkpt>
      <trkpt lat="47.27459" lon="-2.30191">
        <ele>6.4000000953674</ele>
        <time>2020-07-05T10:06:01.000Z</time>
      </trkpt>
      <trkpt lat="47.27459" lon="-2.30198">
        <ele>6</ele>
        <time>2020-07-05T10:06:02.000Z</time>
      </trkpt>
      <trkpt lat="47.27458" lon="-2.30204">
        <ele>5.1999998092651</ele>
        <time>2020-07-05T10:06:03.000Z</time>
      </trkpt>
      <trkpt lat="47.27456" lon="-2.3021">
        <ele>4.8000001907349</ele>
        <time>2020-07-05T10:06:04.000Z</time>
      </trkpt>
      <trkpt lat="47.27453" lon="-2.30214">
        <ele>4.4000000953674</ele>
        <time>2020-07-05T10:06:05.000Z</time>
      </trkpt>
      <trkpt lat="47.2745" lon="-2.30216">
        <ele>4.4000000953674</ele>
        <time>2020-07-05T10:06:06.000Z</time>
      </trkpt>
      <trkpt lat="47.27442" lon="-2.3022">
        <ele>4.4000000953674</ele>
        <time>2020-07-05T10:06:08.000Z</time>
      </trkpt>
      <trkpt lat="47.27427" lon="-2.30229">
        <ele>4.4000000953674</ele>
        <time>2020-07-05T10:06:11.000Z</time>
      </trkpt>
      <trkpt lat="47.27392" lon="-2.30248">
        <ele>4.4000000953674</ele>
        <time>2020-07-05T10:06:17.000Z</time>
      </trkpt>
      <trkpt lat="47.27365" lon="-2.30258">
        <ele>4.4000000953674</ele>
        <time>2020-07-05T10:06:22.000Z</time>
      </trkpt>
      <trkpt lat="47.27331" lon="-2.30262">
        <ele>4.4000000953674</ele>
        <time>2020-07-05T10:06:28.000Z</time>
      </trkpt>
      <trkpt lat="47.27326" lon="-2.30262">
        <ele>4</ele>
        <time>2020-07-05T10:06:29.000Z</time>
      </trkpt>
      <trkpt lat="47.2732" lon="-2.30263">
        <ele>3.4000000953674</ele>
        <time>2020-07-05T10:06:30.000Z</time>
      </trkpt>
      <trkpt lat="47.27314" lon="-2.30263">
        <ele>3</ele>
        <time>2020-07-05T10:06:31.000Z</time>
      </trkpt>
      <trkpt lat="47.27308" lon="-2.30263">
        <ele>2.5999999046326</ele>
        <time>2020-07-05T10:06:32.000Z</time>
      </trkpt>
      <trkpt lat="47.27302" lon="-2.30262">
        <ele>2.2000000476837</ele>
        <time>2020-07-05T10:06:33.000Z</time>
      </trkpt>
      <trkpt lat="47.27295" lon="-2.30262">
        <ele>2.2000000476837</ele>
        <time>2020-07-05T10:06:34.000Z</time>
      </trkpt>
      <trkpt lat="47.27268" lon="-2.30264">
        <ele>2.2000000476837</ele>
        <time>2020-07-05T10:06:38.000Z</time>
      </trkpt>
      <trkpt lat="47.27261" lon="-2.30266">
        <ele>2.2000000476837</ele>
        <time>2020-07-05T10:06:39.000Z</time>
      </trkpt>
      <trkpt lat="47.27248" lon="-2.30267">
        <ele>2.2000000476837</ele>
        <time>2020-07-05T10:06:41.000Z</time>
      </trkpt>
      <trkpt lat="47.27238" lon="-2.30264">
        <ele>2.2000000476837</ele>
        <time>2020-07-05T10:06:43.000Z</time>
      </trkpt>
      <trkpt lat="47.27233" lon="-2.30264">
        <ele>2.2000000476837</ele>
        <time>2020-07-05T10:06:44.000Z</time>
      </trkpt>
      <trkpt lat="47.27223" lon="-2.30264">
        <ele>2.2000000476837</ele>
        <time>2020-07-05T10:06:46.000Z</time>
      </trkpt>
      <trkpt lat="47.27203" lon="-2.30263">
        <ele>2.2000000476837</ele>
        <time>2020-07-05T10:06:50.000Z</time>
      </trkpt>
      <trkpt lat="47.27194" lon="-2.30267">
        <ele>2.2000000476837</ele>
        <time>2020-07-05T10:06:52.000Z</time>
      </trkpt>
      <trkpt lat="47.27185" lon="-2.30268">
        <ele>2.2000000476837</ele>
        <time>2020-07-05T10:06:54.000Z</time>
      </trkpt>
      <trkpt lat="47.27182" lon="-2.30266">
        <ele>2.2000000476837</ele>
        <time>2020-07-05T10:06:55.000Z</time>
      </trkpt>
      <trkpt lat="47.27167" lon="-2.30255">
        <ele>2.2000000476837</ele>
        <time>2020-07-05T10:06:59.000Z</time>
      </trkpt>
      <trkpt lat="47.27162" lon="-2.30254">
        <ele>2.2000000476837</ele>
        <time>2020-07-05T10:07:00.000Z</time>
      </trkpt>
      <trkpt lat="47.27145" lon="-2.30254">
        <ele>2.2000000476837</ele>
        <time>2020-07-05T10:07:03.000Z</time>
      </trkpt>
      <trkpt lat="47.27139" lon="-2.30255">
        <ele>2.2000000476837</ele>
        <time>2020-07-05T10:07:04.000Z</time>
      </trkpt>
      <trkpt lat="47.271" lon="-2.30269">
        <ele>2.2000000476837</ele>
        <time>2020-07-05T10:07:11.000Z</time>
      </trkpt>
      <trkpt lat="47.27079" lon="-2.30288">
        <ele>2.2000000476837</ele>
        <time>2020-07-05T10:07:16.000Z</time>
      </trkpt>
      <trkpt lat="47.27077" lon="-2.30294">
        <ele>2.2000000476837</ele>
        <time>2020-07-05T10:07:17.000Z</time>
      </trkpt>
      <trkpt lat="47.27069" lon="-2.30323">
        <ele>2.5999999046326</ele>
        <time>2020-07-05T10:07:21.000Z</time>
      </trkpt>
      <trkpt lat="47.27068" lon="-2.30331">
        <ele>3</ele>
        <time>2020-07-05T10:07:22.000Z</time>
      </trkpt>
      <trkpt lat="47.27066" lon="-2.30339">
        <ele>3.4000000953674</ele>
        <time>2020-07-05T10:07:23.000Z</time>
      </trkpt>
      <trkpt lat="47.27065" lon="-2.30347">
        <ele>3.7999999523163</ele>
        <time>2020-07-05T10:07:24.000Z</time>
      </trkpt>
      <trkpt lat="47.27064" lon="-2.30355">
        <ele>4.1999998092651</ele>
        <time>2020-07-05T10:07:25.000Z</time>
      </trkpt>
      <trkpt lat="47.2706" lon="-2.3038">
        <ele>4.1999998092651</ele>
        <time>2020-07-05T10:07:28.000Z</time>
      </trkpt>
      <trkpt lat="47.2705" lon="-2.30458">
        <ele>4.1999998092651</ele>
        <time>2020-07-05T10:07:36.000Z</time>
      </trkpt>
      <trkpt lat="47.2704" lon="-2.30502">
        <ele>4.1999998092651</ele>
        <time>2020-07-05T10:07:41.000Z</time>
      </trkpt>
      <trkpt lat="47.27022" lon="-2.30561">
        <ele>4.1999998092651</ele>
        <time>2020-07-05T10:07:48.000Z</time>
      </trkpt>
      <trkpt lat="47.27008" lon="-2.30598">
        <ele>4.1999998092651</ele>
        <time>2020-07-05T10:07:53.000Z</time>
      </trkpt>
      <trkpt lat="47.27004" lon="-2.30604">
        <ele>4.1999998092651</ele>
        <time>2020-07-05T10:07:54.000Z</time>
      </trkpt>
      <trkpt lat="47.26987" lon="-2.30616">
        <ele>4.1999998092651</ele>
        <time>2020-07-05T10:07:57.000Z</time>
      </trkpt>
      <trkpt lat="47.26981" lon="-2.30619">
        <ele>4.1999998092651</ele>
        <time>2020-07-05T10:07:58.000Z</time>
      </trkpt>
      <trkpt lat="47.26964" lon="-2.30626">
        <ele>4.1999998092651</ele>
        <time>2020-07-05T10:08:01.000Z</time>
      </trkpt>
      <trkpt lat="47.26954" lon="-2.3063">
        <ele>4.1999998092651</ele>
        <time>2020-07-05T10:08:03.000Z</time>
      </trkpt>
      <trkpt lat="47.26925" lon="-2.30637">
        <ele>4.1999998092651</ele>
        <time>2020-07-05T10:08:09.000Z</time>
      </trkpt>
      <trkpt lat="47.26921" lon="-2.30639">
        <ele>4.1999998092651</ele>
        <time>2020-07-05T10:08:10.000Z</time>
      </trkpt>
      <trkpt lat="47.26907" lon="-2.30652">
        <ele>4.1999998092651</ele>
        <time>2020-07-05T10:08:14.000Z</time>
      </trkpt>
      <trkpt lat="47.26888" lon="-2.30671">
        <ele>4.1999998092651</ele>
        <time>2020-07-05T10:08:19.000Z</time>
      </trkpt>
      <trkpt lat="47.26884" lon="-2.30676">
        <ele>4.5999999046326</ele>
        <time>2020-07-05T10:08:20.000Z</time>
      </trkpt>
      <trkpt lat="47.2688" lon="-2.30681">
        <ele>5.1999998092651</ele>
        <time>2020-07-05T10:08:21.000Z</time>
      </trkpt>
      <trkpt lat="47.26877" lon="-2.30686">
        <ele>5.5999999046326</ele>
        <time>2020-07-05T10:08:22.000Z</time>
      </trkpt>
      <trkpt lat="47.26874" lon="-2.30692">
        <ele>6</ele>
        <time>2020-07-05T10:08:23.000Z</time>
      </trkpt>
      <trkpt lat="47.2687" lon="-2.30697">
        <ele>6.4000000953674</ele>
        <time>2020-07-05T10:08:24.000Z</time>
      </trkpt>
      <trkpt lat="47.26861" lon="-2.30715">
        <ele>6.4000000953674</ele>
        <time>2020-07-05T10:08:27.000Z</time>
      </trkpt>
      <trkpt lat="47.26839" lon="-2.30769">
        <ele>6.4000000953674</ele>
        <time>2020-07-05T10:08:35.000Z</time>
      </trkpt>
      <trkpt lat="47.26837" lon="-2.30777">
        <ele>6.4000000953674</ele>
        <time>2020-07-05T10:08:36.000Z</time>
      </trkpt>
      <trkpt lat="47.26832" lon="-2.30809">
        <ele>6.4000000953674</ele>
        <time>2020-07-05T10:08:40.000Z</time>
      </trkpt>
      <trkpt lat="47.26831" lon="-2.30834">
        <ele>6.4000000953674</ele>
        <time>2020-07-05T10:08:43.000Z</time>
      </trkpt>
      <trkpt lat="47.26831" lon="-2.30851">
        <ele>6.4000000953674</ele>
        <time>2020-07-05T10:08:45.000Z</time>
      </trkpt>
      <trkpt lat="47.26837" lon="-2.30901">
        <ele>6.4000000953674</ele>
        <time>2020-07-05T10:08:51.000Z</time>
      </trkpt>
      <trkpt lat="47.26849" lon="-2.30973">
        <ele>6.4000000953674</ele>
        <time>2020-07-05T10:08:59.000Z</time>
      </trkpt>
      <trkpt lat="47.26852" lon="-2.31017">
        <ele>6.4000000953674</ele>
        <time>2020-07-05T10:09:04.000Z</time>
      </trkpt>
      <trkpt lat="47.26854" lon="-2.31069">
        <ele>6.4000000953674</ele>
        <time>2020-07-05T10:09:11.000Z</time>
      </trkpt>
      <trkpt lat="47.26857" lon="-2.31096">
        <ele>6.4000000953674</ele>
        <time>2020-07-05T10:09:16.000Z</time>
      </trkpt>
      <trkpt lat="47.26858" lon="-2.31117">
        <ele>6.4000000953674</ele>
        <time>2020-07-05T10:09:19.000Z</time>
      </trkpt>
      <trkpt lat="47.26857" lon="-2.31132">
        <ele>6.4000000953674</ele>
        <time>2020-07-05T10:09:21.000Z</time>
      </trkpt>
    </trkseg>
  </trk>
</gpx>